<?xml version="1.0" encoding="utf-8"?>
<gpx xmlns:xsi="http://www.w3.org/2001/XMLSchema-instance" xmlns:xsd="http://www.w3.org/2001/XMLSchema" version="1.1" creator="Shapelink.com" xmlns="http://www.topografix.com/GPX/1/1" xmlns:gpxtpx="http://www.garmin.com/xmlschemas/TrackPointExtension/v1">
  <metadata>
    <name>Kører 36.29 km, 2011-07-04</name>
    <desc></desc>
    <author><name>Jojje Borssén</name></author> 
    <time>2011-07-04T10:57:48Z</time>
  </metadata>
  <trk>
    <name>Kører 36.29 km, 2011-07-04</name>
    <trkseg>
      <trkpt lat="62.317934" lon="12.449691">
        <ele>752.424</ele>
        <time>2011-07-04T10:57:48Z</time>
      </trkpt>
      <trkpt lat="62.317997" lon="12.449785">
        <ele>752.591</ele>
        <time>2011-07-04T10:57:55Z</time>
      </trkpt>
      <trkpt lat="62.318097" lon="12.449874">
        <ele>752.78</ele>
        <time>2011-07-04T10:58:02Z</time>
      </trkpt>
      <trkpt lat="62.318118" lon="12.449907">
        <ele>752.876</ele>
        <time>2011-07-04T10:58:04Z</time>
      </trkpt>
      <trkpt lat="62.318173" lon="12.449915">
        <ele>752.977</ele>
        <time>2011-07-04T10:58:08Z</time>
      </trkpt>
      <trkpt lat="62.318188" lon="12.449928">
        <ele>752.889</ele>
        <time>2011-07-04T10:58:10Z</time>
      </trkpt>
      <trkpt lat="62.318215" lon="12.449995">
        <ele>753.014</ele>
        <time>2011-07-04T10:58:15Z</time>
      </trkpt>
      <trkpt lat="62.318234" lon="12.450037">
        <ele>753.323</ele>
        <time>2011-07-04T10:58:18Z</time>
      </trkpt>
      <trkpt lat="62.318293" lon="12.450123">
        <ele>751.87</ele>
        <time>2011-07-04T10:58:27Z</time>
      </trkpt>
      <trkpt lat="62.318344" lon="12.45014">
        <ele>750.708</ele>
        <time>2011-07-04T10:58:34Z</time>
      </trkpt>
      <trkpt lat="62.318406" lon="12.450226">
        <ele>750.888</ele>
        <time>2011-07-04T10:58:39Z</time>
      </trkpt>
      <trkpt lat="62.318457" lon="12.450309">
        <ele>751.344</ele>
        <time>2011-07-04T10:58:44Z</time>
      </trkpt>
      <trkpt lat="62.318476" lon="12.450301">
        <ele>751.38</ele>
        <time>2011-07-04T10:58:47Z</time>
      </trkpt>
      <trkpt lat="62.318584" lon="12.450352">
        <ele>750.412</ele>
        <time>2011-07-04T10:58:54Z</time>
      </trkpt>
      <trkpt lat="62.318591" lon="12.450408">
        <ele>750.346</ele>
        <time>2011-07-04T10:58:57Z</time>
      </trkpt>
      <trkpt lat="62.31858" lon="12.450535">
        <ele>749.922</ele>
        <time>2011-07-04T10:59:03Z</time>
      </trkpt>
      <trkpt lat="62.318596" lon="12.450594">
        <ele>749.811</ele>
        <time>2011-07-04T10:59:08Z</time>
      </trkpt>
      <trkpt lat="62.318664" lon="12.450679">
        <ele>749.938</ele>
        <time>2011-07-04T10:59:15Z</time>
      </trkpt>
      <trkpt lat="62.31868" lon="12.450737">
        <ele>750.167</ele>
        <time>2011-07-04T10:59:21Z</time>
      </trkpt>
      <trkpt lat="62.318691" lon="12.450772">
        <ele>751.035</ele>
        <time>2011-07-04T10:59:30Z</time>
      </trkpt>
      <trkpt lat="62.318703" lon="12.450805">
        <ele>751.133</ele>
        <time>2011-07-04T10:59:35Z</time>
      </trkpt>
      <trkpt lat="62.318726" lon="12.450807">
        <ele>751.438</ele>
        <time>2011-07-04T10:59:39Z</time>
      </trkpt>
      <trkpt lat="62.318732" lon="12.450785">
        <ele>751.656</ele>
        <time>2011-07-04T10:59:41Z</time>
      </trkpt>
      <trkpt lat="62.318785" lon="12.450831">
        <ele>752.473</ele>
        <time>2011-07-04T10:59:49Z</time>
      </trkpt>
      <trkpt lat="62.318814" lon="12.450895">
        <ele>752.122</ele>
        <time>2011-07-04T10:59:56Z</time>
      </trkpt>
      <trkpt lat="62.318854" lon="12.450954">
        <ele>751.927</ele>
        <time>2011-07-04T11:00:02Z</time>
      </trkpt>
      <trkpt lat="62.318931" lon="12.451011">
        <ele>751.874</ele>
        <time>2011-07-04T11:00:08Z</time>
      </trkpt>
      <trkpt lat="62.318942" lon="12.451021">
        <ele>751.832</ele>
        <time>2011-07-04T11:00:09Z</time>
      </trkpt>
      <trkpt lat="62.318957" lon="12.451018">
        <ele>751.878</ele>
        <time>2011-07-04T11:00:11Z</time>
      </trkpt>
      <trkpt lat="62.319016" lon="12.45106">
        <ele>752.195</ele>
        <time>2011-07-04T11:00:18Z</time>
      </trkpt>
      <trkpt lat="62.319021" lon="12.451062">
        <ele>752.1</ele>
        <time>2011-07-04T11:00:19Z</time>
      </trkpt>
      <trkpt lat="62.319113" lon="12.451145">
        <ele>752.064</ele>
        <time>2011-07-04T11:00:28Z</time>
      </trkpt>
      <trkpt lat="62.31921" lon="12.451211">
        <ele>751.063</ele>
        <time>2011-07-04T11:00:36Z</time>
      </trkpt>
      <trkpt lat="62.31929" lon="12.451276">
        <ele>749.95</ele>
        <time>2011-07-04T11:00:43Z</time>
      </trkpt>
      <trkpt lat="62.319369" lon="12.451373">
        <ele>749.064</ele>
        <time>2011-07-04T11:00:50Z</time>
      </trkpt>
      <trkpt lat="62.319486" lon="12.451579">
        <ele>747.853</ele>
        <time>2011-07-04T11:00:57Z</time>
      </trkpt>
      <trkpt lat="62.31959" lon="12.451704">
        <ele>747.186</ele>
        <time>2011-07-04T11:01:03Z</time>
      </trkpt>
      <trkpt lat="62.319693" lon="12.45187">
        <ele>747.24</ele>
        <time>2011-07-04T11:01:10Z</time>
      </trkpt>
      <trkpt lat="62.319723" lon="12.451914">
        <ele>747.218</ele>
        <time>2011-07-04T11:01:12Z</time>
      </trkpt>
      <trkpt lat="62.319837" lon="12.452088">
        <ele>747.494</ele>
        <time>2011-07-04T11:01:19Z</time>
      </trkpt>
      <trkpt lat="62.319925" lon="12.45218">
        <ele>747.596</ele>
        <time>2011-07-04T11:01:24Z</time>
      </trkpt>
      <trkpt lat="62.319941" lon="12.452191">
        <ele>747.791</ele>
        <time>2011-07-04T11:01:25Z</time>
      </trkpt>
      <trkpt lat="62.320037" lon="12.45227">
        <ele>749.11</ele>
        <time>2011-07-04T11:01:32Z</time>
      </trkpt>
      <trkpt lat="62.32018" lon="12.452411">
        <ele>750.017</ele>
        <time>2011-07-04T11:01:39Z</time>
      </trkpt>
      <trkpt lat="62.320222" lon="12.452441">
        <ele>750.237</ele>
        <time>2011-07-04T11:01:41Z</time>
      </trkpt>
      <trkpt lat="62.320291" lon="12.452523">
        <ele>750.361</ele>
        <time>2011-07-04T11:01:45Z</time>
      </trkpt>
      <trkpt lat="62.320402" lon="12.452618">
        <ele>750.194</ele>
        <time>2011-07-04T11:01:50Z</time>
      </trkpt>
      <trkpt lat="62.32046" lon="12.4527">
        <ele>749.845</ele>
        <time>2011-07-04T11:01:54Z</time>
      </trkpt>
      <trkpt lat="62.320582" lon="12.452847">
        <ele>749.382</ele>
        <time>2011-07-04T11:02:02Z</time>
      </trkpt>
      <trkpt lat="62.320639" lon="12.452913">
        <ele>749.154</ele>
        <time>2011-07-04T11:02:06Z</time>
      </trkpt>
      <trkpt lat="62.320704" lon="12.452971">
        <ele>748.77</ele>
        <time>2011-07-04T11:02:10Z</time>
      </trkpt>
      <trkpt lat="62.320733" lon="12.453039">
        <ele>748.334</ele>
        <time>2011-07-04T11:02:13Z</time>
      </trkpt>
      <trkpt lat="62.320772" lon="12.453138">
        <ele>747.86</ele>
        <time>2011-07-04T11:02:17Z</time>
      </trkpt>
      <trkpt lat="62.320808" lon="12.453206">
        <ele>747.639</ele>
        <time>2011-07-04T11:02:20Z</time>
      </trkpt>
      <trkpt lat="62.320842" lon="12.453301">
        <ele>747.443</ele>
        <time>2011-07-04T11:02:24Z</time>
      </trkpt>
      <trkpt lat="62.320921" lon="12.453438">
        <ele>747.64</ele>
        <time>2011-07-04T11:02:30Z</time>
      </trkpt>
      <trkpt lat="62.320954" lon="12.453603">
        <ele>747.625</ele>
        <time>2011-07-04T11:02:36Z</time>
      </trkpt>
      <trkpt lat="62.320972" lon="12.453763">
        <ele>746.07</ele>
        <time>2011-07-04T11:02:42Z</time>
      </trkpt>
      <trkpt lat="62.321116" lon="12.453905">
        <ele>744.272</ele>
        <time>2011-07-04T11:02:48Z</time>
      </trkpt>
      <trkpt lat="62.321147" lon="12.453998">
        <ele>743.346</ele>
        <time>2011-07-04T11:02:53Z</time>
      </trkpt>
      <trkpt lat="62.321172" lon="12.454079">
        <ele>742.625</ele>
        <time>2011-07-04T11:02:57Z</time>
      </trkpt>
      <trkpt lat="62.321194" lon="12.454149">
        <ele>742.172</ele>
        <time>2011-07-04T11:03:01Z</time>
      </trkpt>
      <trkpt lat="62.321228" lon="12.454246">
        <ele>742.665</ele>
        <time>2011-07-04T11:03:07Z</time>
      </trkpt>
      <trkpt lat="62.321253" lon="12.454358">
        <ele>743.211</ele>
        <time>2011-07-04T11:03:13Z</time>
      </trkpt>
      <trkpt lat="62.321286" lon="12.454421">
        <ele>743.222</ele>
        <time>2011-07-04T11:03:17Z</time>
      </trkpt>
      <trkpt lat="62.321331" lon="12.454536">
        <ele>743.436</ele>
        <time>2011-07-04T11:03:23Z</time>
      </trkpt>
      <trkpt lat="62.321337" lon="12.454555">
        <ele>743.425</ele>
        <time>2011-07-04T11:03:24Z</time>
      </trkpt>
      <trkpt lat="62.321357" lon="12.454623">
        <ele>743.416</ele>
        <time>2011-07-04T11:03:27Z</time>
      </trkpt>
      <trkpt lat="62.321381" lon="12.454664">
        <ele>743.502</ele>
        <time>2011-07-04T11:03:30Z</time>
      </trkpt>
      <trkpt lat="62.321393" lon="12.454699">
        <ele>743.762</ele>
        <time>2011-07-04T11:03:32Z</time>
      </trkpt>
      <trkpt lat="62.321442" lon="12.454857">
        <ele>743.853</ele>
        <time>2011-07-04T11:03:40Z</time>
      </trkpt>
      <trkpt lat="62.321495" lon="12.454982">
        <ele>744.014</ele>
        <time>2011-07-04T11:03:47Z</time>
      </trkpt>
      <trkpt lat="62.321529" lon="12.455026">
        <ele>743.624</ele>
        <time>2011-07-04T11:03:50Z</time>
      </trkpt>
      <trkpt lat="62.321547" lon="12.455155">
        <ele>742.665</ele>
        <time>2011-07-04T11:03:57Z</time>
      </trkpt>
      <trkpt lat="62.321594" lon="12.455302">
        <ele>741.55</ele>
        <time>2011-07-04T11:04:05Z</time>
      </trkpt>
      <trkpt lat="62.321613" lon="12.455338">
        <ele>741.576</ele>
        <time>2011-07-04T11:04:09Z</time>
      </trkpt>
      <trkpt lat="62.32164" lon="12.455395">
        <ele>741.836</ele>
        <time>2011-07-04T11:04:13Z</time>
      </trkpt>
      <trkpt lat="62.321655" lon="12.45543">
        <ele>741.943</ele>
        <time>2011-07-04T11:04:15Z</time>
      </trkpt>
      <trkpt lat="62.321701" lon="12.455509">
        <ele>742.192</ele>
        <time>2011-07-04T11:04:20Z</time>
      </trkpt>
      <trkpt lat="62.321718" lon="12.45553">
        <ele>742.507</ele>
        <time>2011-07-04T11:04:22Z</time>
      </trkpt>
      <trkpt lat="62.321802" lon="12.455616">
        <ele>743.863</ele>
        <time>2011-07-04T11:04:30Z</time>
      </trkpt>
      <trkpt lat="62.321808" lon="12.455625">
        <ele>744.142</ele>
        <time>2011-07-04T11:04:31Z</time>
      </trkpt>
      <trkpt lat="62.322017" lon="12.455642">
        <ele>744.585</ele>
        <time>2011-07-04T11:04:39Z</time>
      </trkpt>
      <trkpt lat="62.322047" lon="12.455643">
        <ele>744.71</ele>
        <time>2011-07-04T11:04:41Z</time>
      </trkpt>
      <trkpt lat="62.322162" lon="12.455704">
        <ele>745.182</ele>
        <time>2011-07-04T11:04:49Z</time>
      </trkpt>
      <trkpt lat="62.322258" lon="12.455758">
        <ele>745.04</ele>
        <time>2011-07-04T11:04:55Z</time>
      </trkpt>
      <trkpt lat="62.322282" lon="12.455779">
        <ele>744.646</ele>
        <time>2011-07-04T11:04:57Z</time>
      </trkpt>
      <trkpt lat="62.322349" lon="12.455801">
        <ele>744.472</ele>
        <time>2011-07-04T11:05:02Z</time>
      </trkpt>
      <trkpt lat="62.322435" lon="12.455862">
        <ele>744.499</ele>
        <time>2011-07-04T11:05:09Z</time>
      </trkpt>
      <trkpt lat="62.322447" lon="12.455866">
        <ele>744.525</ele>
        <time>2011-07-04T11:05:10Z</time>
      </trkpt>
      <trkpt lat="62.322551" lon="12.455958">
        <ele>744.662</ele>
        <time>2011-07-04T11:05:19Z</time>
      </trkpt>
      <trkpt lat="62.32267" lon="12.455991">
        <ele>744.08</ele>
        <time>2011-07-04T11:05:27Z</time>
      </trkpt>
      <trkpt lat="62.322754" lon="12.456066">
        <ele>744.009</ele>
        <time>2011-07-04T11:05:33Z</time>
      </trkpt>
      <trkpt lat="62.322854" lon="12.456125">
        <ele>743.598</ele>
        <time>2011-07-04T11:05:40Z</time>
      </trkpt>
      <trkpt lat="62.322868" lon="12.456132">
        <ele>743.413</ele>
        <time>2011-07-04T11:05:41Z</time>
      </trkpt>
      <trkpt lat="62.322943" lon="12.456172">
        <ele>742.867</ele>
        <time>2011-07-04T11:05:47Z</time>
      </trkpt>
      <trkpt lat="62.322968" lon="12.45617">
        <ele>742.881</ele>
        <time>2011-07-04T11:05:50Z</time>
      </trkpt>
      <trkpt lat="62.323012" lon="12.456224">
        <ele>742.732</ele>
        <time>2011-07-04T11:05:56Z</time>
      </trkpt>
      <trkpt lat="62.323064" lon="12.456261">
        <ele>743.058</ele>
        <time>2011-07-04T11:06:02Z</time>
      </trkpt>
      <trkpt lat="62.323109" lon="12.456297">
        <ele>742.449</ele>
        <time>2011-07-04T11:06:06Z</time>
      </trkpt>
      <trkpt lat="62.323175" lon="12.456316">
        <ele>741.878</ele>
        <time>2011-07-04T11:06:11Z</time>
      </trkpt>
      <trkpt lat="62.323193" lon="12.456316">
        <ele>741.641</ele>
        <time>2011-07-04T11:06:13Z</time>
      </trkpt>
      <trkpt lat="62.323262" lon="12.456403">
        <ele>741.521</ele>
        <time>2011-07-04T11:06:19Z</time>
      </trkpt>
      <trkpt lat="62.323299" lon="12.456449">
        <ele>742.271</ele>
        <time>2011-07-04T11:06:24Z</time>
      </trkpt>
      <trkpt lat="62.323365" lon="12.456519">
        <ele>742.508</ele>
        <time>2011-07-04T11:06:30Z</time>
      </trkpt>
      <trkpt lat="62.323459" lon="12.456609">
        <ele>743.081</ele>
        <time>2011-07-04T11:06:39Z</time>
      </trkpt>
      <trkpt lat="62.323485" lon="12.456608">
        <ele>743.312</ele>
        <time>2011-07-04T11:06:41Z</time>
      </trkpt>
      <trkpt lat="62.323554" lon="12.456629">
        <ele>744.365</ele>
        <time>2011-07-04T11:06:47Z</time>
      </trkpt>
      <trkpt lat="62.323638" lon="12.456696">
        <ele>744.87</ele>
        <time>2011-07-04T11:06:54Z</time>
      </trkpt>
      <trkpt lat="62.323725" lon="12.456747">
        <ele>744.931</ele>
        <time>2011-07-04T11:07:00Z</time>
      </trkpt>
      <trkpt lat="62.323877" lon="12.456776">
        <ele>744.703</ele>
        <time>2011-07-04T11:07:07Z</time>
      </trkpt>
      <trkpt lat="62.324048" lon="12.456837">
        <ele>744.706</ele>
        <time>2011-07-04T11:07:13Z</time>
      </trkpt>
      <trkpt lat="62.324201" lon="12.456911">
        <ele>744.425</ele>
        <time>2011-07-04T11:07:19Z</time>
      </trkpt>
      <trkpt lat="62.324316" lon="12.457018">
        <ele>744.93</ele>
        <time>2011-07-04T11:07:24Z</time>
      </trkpt>
      <trkpt lat="62.324378" lon="12.457176">
        <ele>745.735</ele>
        <time>2011-07-04T11:07:29Z</time>
      </trkpt>
      <trkpt lat="62.324443" lon="12.457371">
        <ele>746.374</ele>
        <time>2011-07-04T11:07:34Z</time>
      </trkpt>
      <trkpt lat="62.324478" lon="12.457551">
        <ele>746.658</ele>
        <time>2011-07-04T11:07:38Z</time>
      </trkpt>
      <trkpt lat="62.324523" lon="12.457708">
        <ele>747.165</ele>
        <time>2011-07-04T11:07:42Z</time>
      </trkpt>
      <trkpt lat="62.324549" lon="12.45778">
        <ele>747.364</ele>
        <time>2011-07-04T11:07:44Z</time>
      </trkpt>
      <trkpt lat="62.324633" lon="12.457987">
        <ele>746.969</ele>
        <time>2011-07-04T11:07:48Z</time>
      </trkpt>
      <trkpt lat="62.324771" lon="12.458283">
        <ele>745.829</ele>
        <time>2011-07-04T11:07:55Z</time>
      </trkpt>
      <trkpt lat="62.324867" lon="12.458511">
        <ele>744.255</ele>
        <time>2011-07-04T11:08:01Z</time>
      </trkpt>
      <trkpt lat="62.324889" lon="12.458593">
        <ele>743.146</ele>
        <time>2011-07-04T11:08:03Z</time>
      </trkpt>
      <trkpt lat="62.324929" lon="12.458628">
        <ele>742.346</ele>
        <time>2011-07-04T11:08:05Z</time>
      </trkpt>
      <trkpt lat="62.325088" lon="12.458759">
        <ele>740.654</ele>
        <time>2011-07-04T11:08:10Z</time>
      </trkpt>
      <trkpt lat="62.325131" lon="12.458829">
        <ele>740.222</ele>
        <time>2011-07-04T11:08:14Z</time>
      </trkpt>
      <trkpt lat="62.325209" lon="12.458938">
        <ele>739.652</ele>
        <time>2011-07-04T11:08:21Z</time>
      </trkpt>
      <trkpt lat="62.325263" lon="12.459057">
        <ele>738.185</ele>
        <time>2011-07-04T11:08:26Z</time>
      </trkpt>
      <trkpt lat="62.325278" lon="12.459115">
        <ele>737.807</ele>
        <time>2011-07-04T11:08:28Z</time>
      </trkpt>
      <trkpt lat="62.325339" lon="12.459365">
        <ele>736.925</ele>
        <time>2011-07-04T11:08:34Z</time>
      </trkpt>
      <trkpt lat="62.325442" lon="12.459649">
        <ele>735.771</ele>
        <time>2011-07-04T11:08:41Z</time>
      </trkpt>
      <trkpt lat="62.32559" lon="12.459939">
        <ele>734.436</ele>
        <time>2011-07-04T11:08:49Z</time>
      </trkpt>
      <trkpt lat="62.325709" lon="12.460311">
        <ele>734.169</ele>
        <time>2011-07-04T11:08:57Z</time>
      </trkpt>
      <trkpt lat="62.325803" lon="12.460713">
        <ele>734.156</ele>
        <time>2011-07-04T11:09:06Z</time>
      </trkpt>
      <trkpt lat="62.325871" lon="12.460767">
        <ele>734.163</ele>
        <time>2011-07-04T11:09:10Z</time>
      </trkpt>
      <trkpt lat="62.3259" lon="12.460815">
        <ele>734.282</ele>
        <time>2011-07-04T11:09:13Z</time>
      </trkpt>
      <trkpt lat="62.325921" lon="12.460828">
        <ele>734.434</ele>
        <time>2011-07-04T11:09:15Z</time>
      </trkpt>
      <trkpt lat="62.32591" lon="12.460711">
        <ele>734.172</ele>
        <time>2011-07-04T11:09:42Z</time>
      </trkpt>
      <trkpt lat="62.325908" lon="12.460438">
        <ele>734.09</ele>
        <time>2011-07-04T11:09:56Z</time>
      </trkpt>
      <trkpt lat="62.325917" lon="12.460289">
        <ele>734.113</ele>
        <time>2011-07-04T11:09:59Z</time>
      </trkpt>
      <trkpt lat="62.325952" lon="12.459836">
        <ele>734.443</ele>
        <time>2011-07-04T11:10:08Z</time>
      </trkpt>
      <trkpt lat="62.325993" lon="12.459505">
        <ele>734.444</ele>
        <time>2011-07-04T11:10:15Z</time>
      </trkpt>
      <trkpt lat="62.32602" lon="12.459271">
        <ele>735.094</ele>
        <time>2011-07-04T11:10:20Z</time>
      </trkpt>
      <trkpt lat="62.326029" lon="12.458988">
        <ele>735.952</ele>
        <time>2011-07-04T11:10:26Z</time>
      </trkpt>
      <trkpt lat="62.326061" lon="12.458736">
        <ele>736.51</ele>
        <time>2011-07-04T11:10:32Z</time>
      </trkpt>
      <trkpt lat="62.326068" lon="12.458454">
        <ele>737.745</ele>
        <time>2011-07-04T11:10:38Z</time>
      </trkpt>
      <trkpt lat="62.326072" lon="12.458314">
        <ele>737.977</ele>
        <time>2011-07-04T11:10:41Z</time>
      </trkpt>
      <trkpt lat="62.326089" lon="12.458153">
        <ele>738.512</ele>
        <time>2011-07-04T11:10:45Z</time>
      </trkpt>
      <trkpt lat="62.326156" lon="12.457948">
        <ele>740.137</ele>
        <time>2011-07-04T11:10:52Z</time>
      </trkpt>
      <trkpt lat="62.326182" lon="12.457819">
        <ele>740.412</ele>
        <time>2011-07-04T11:10:55Z</time>
      </trkpt>
      <trkpt lat="62.326222" lon="12.4577">
        <ele>740.669</ele>
        <time>2011-07-04T11:10:58Z</time>
      </trkpt>
      <trkpt lat="62.326316" lon="12.457522">
        <ele>741.695</ele>
        <time>2011-07-04T11:11:05Z</time>
      </trkpt>
      <trkpt lat="62.326346" lon="12.457477">
        <ele>741.773</ele>
        <time>2011-07-04T11:11:07Z</time>
      </trkpt>
      <trkpt lat="62.326388" lon="12.457369">
        <ele>742.002</ele>
        <time>2011-07-04T11:11:10Z</time>
      </trkpt>
      <trkpt lat="62.326424" lon="12.457339">
        <ele>742.064</ele>
        <time>2011-07-04T11:11:12Z</time>
      </trkpt>
      <trkpt lat="62.32651" lon="12.45717">
        <ele>742.592</ele>
        <time>2011-07-04T11:11:18Z</time>
      </trkpt>
      <trkpt lat="62.326617" lon="12.457009">
        <ele>742.59</ele>
        <time>2011-07-04T11:11:25Z</time>
      </trkpt>
      <trkpt lat="62.326663" lon="12.456933">
        <ele>741.996</ele>
        <time>2011-07-04T11:11:28Z</time>
      </trkpt>
      <trkpt lat="62.326778" lon="12.456858">
        <ele>740.803</ele>
        <time>2011-07-04T11:11:34Z</time>
      </trkpt>
      <trkpt lat="62.326818" lon="12.456783">
        <ele>740.669</ele>
        <time>2011-07-04T11:11:37Z</time>
      </trkpt>
      <trkpt lat="62.326961" lon="12.456679">
        <ele>740.17</ele>
        <time>2011-07-04T11:11:45Z</time>
      </trkpt>
      <trkpt lat="62.32701" lon="12.456638">
        <ele>739.845</ele>
        <time>2011-07-04T11:11:47Z</time>
      </trkpt>
      <trkpt lat="62.327123" lon="12.456385">
        <ele>739.142</ele>
        <time>2011-07-04T11:11:54Z</time>
      </trkpt>
      <trkpt lat="62.327171" lon="12.456279">
        <ele>739.04</ele>
        <time>2011-07-04T11:11:57Z</time>
      </trkpt>
      <trkpt lat="62.327237" lon="12.456024">
        <ele>738.302</ele>
        <time>2011-07-04T11:12:03Z</time>
      </trkpt>
      <trkpt lat="62.327255" lon="12.455942">
        <ele>738.2</ele>
        <time>2011-07-04T11:12:05Z</time>
      </trkpt>
      <trkpt lat="62.327329" lon="12.455747">
        <ele>737.746</ele>
        <time>2011-07-04T11:12:11Z</time>
      </trkpt>
      <trkpt lat="62.327389" lon="12.455593">
        <ele>736.851</ele>
        <time>2011-07-04T11:12:19Z</time>
      </trkpt>
      <trkpt lat="62.327421" lon="12.455425">
        <ele>736.039</ele>
        <time>2011-07-04T11:12:25Z</time>
      </trkpt>
      <trkpt lat="62.32745" lon="12.45534">
        <ele>736.133</ele>
        <time>2011-07-04T11:12:29Z</time>
      </trkpt>
      <trkpt lat="62.327517" lon="12.455144">
        <ele>736.17</ele>
        <time>2011-07-04T11:12:37Z</time>
      </trkpt>
      <trkpt lat="62.327533" lon="12.455106">
        <ele>736.098</ele>
        <time>2011-07-04T11:12:39Z</time>
      </trkpt>
      <trkpt lat="62.327618" lon="12.454912">
        <ele>736.091</ele>
        <time>2011-07-04T11:12:48Z</time>
      </trkpt>
      <trkpt lat="62.327649" lon="12.454773">
        <ele>736.494</ele>
        <time>2011-07-04T11:12:54Z</time>
      </trkpt>
      <trkpt lat="62.327653" lon="12.454743">
        <ele>736.501</ele>
        <time>2011-07-04T11:12:55Z</time>
      </trkpt>
      <trkpt lat="62.327693" lon="12.454556">
        <ele>736.238</ele>
        <time>2011-07-04T11:13:02Z</time>
      </trkpt>
      <trkpt lat="62.327725" lon="12.45443">
        <ele>736.126</ele>
        <time>2011-07-04T11:13:07Z</time>
      </trkpt>
      <trkpt lat="62.327748" lon="12.454305">
        <ele>736.117</ele>
        <time>2011-07-04T11:13:11Z</time>
      </trkpt>
      <trkpt lat="62.327812" lon="12.454194">
        <ele>736.73</ele>
        <time>2011-07-04T11:13:19Z</time>
      </trkpt>
      <trkpt lat="62.327864" lon="12.454078">
        <ele>736.872</ele>
        <time>2011-07-04T11:13:27Z</time>
      </trkpt>
      <trkpt lat="62.327863" lon="12.454065">
        <ele>737.075</ele>
        <time>2011-07-04T11:13:28Z</time>
      </trkpt>
      <trkpt lat="62.327843" lon="12.453874">
        <ele>737.005</ele>
        <time>2011-07-04T11:13:52Z</time>
      </trkpt>
      <trkpt lat="62.327874" lon="12.453835">
        <ele>736.642</ele>
        <time>2011-07-04T11:13:57Z</time>
      </trkpt>
      <trkpt lat="62.327926" lon="12.453787">
        <ele>736.469</ele>
        <time>2011-07-04T11:14:02Z</time>
      </trkpt>
      <trkpt lat="62.327981" lon="12.45372">
        <ele>736.796</ele>
        <time>2011-07-04T11:14:09Z</time>
      </trkpt>
      <trkpt lat="62.328054" lon="12.453631">
        <ele>736.644</ele>
        <time>2011-07-04T11:14:15Z</time>
      </trkpt>
      <trkpt lat="62.328097" lon="12.453523">
        <ele>736.841</ele>
        <time>2011-07-04T11:14:22Z</time>
      </trkpt>
      <trkpt lat="62.328156" lon="12.453427">
        <ele>737.127</ele>
        <time>2011-07-04T11:14:30Z</time>
      </trkpt>
      <trkpt lat="62.328177" lon="12.453383">
        <ele>736.78</ele>
        <time>2011-07-04T11:14:34Z</time>
      </trkpt>
      <trkpt lat="62.328207" lon="12.453326">
        <ele>736.777</ele>
        <time>2011-07-04T11:14:41Z</time>
      </trkpt>
      <trkpt lat="62.328217" lon="12.453325">
        <ele>736.833</ele>
        <time>2011-07-04T11:14:42Z</time>
      </trkpt>
      <trkpt lat="62.328255" lon="12.453186">
        <ele>736.752</ele>
        <time>2011-07-04T11:14:50Z</time>
      </trkpt>
      <trkpt lat="62.328297" lon="12.45314">
        <ele>737.45</ele>
        <time>2011-07-04T11:14:56Z</time>
      </trkpt>
      <trkpt lat="62.328307" lon="12.453131">
        <ele>737.539</ele>
        <time>2011-07-04T11:14:57Z</time>
      </trkpt>
      <trkpt lat="62.328366" lon="12.45301">
        <ele>738.265</ele>
        <time>2011-07-04T11:15:04Z</time>
      </trkpt>
      <trkpt lat="62.328442" lon="12.452864">
        <ele>738.124</ele>
        <time>2011-07-04T11:15:12Z</time>
      </trkpt>
      <trkpt lat="62.328521" lon="12.452746">
        <ele>739.004</ele>
        <time>2011-07-04T11:15:18Z</time>
      </trkpt>
      <trkpt lat="62.328575" lon="12.452589">
        <ele>739.557</ele>
        <time>2011-07-04T11:15:22Z</time>
      </trkpt>
      <trkpt lat="62.328678" lon="12.452262">
        <ele>740.59</ele>
        <time>2011-07-04T11:15:29Z</time>
      </trkpt>
      <trkpt lat="62.328763" lon="12.452006">
        <ele>741.095</ele>
        <time>2011-07-04T11:15:35Z</time>
      </trkpt>
      <trkpt lat="62.328871" lon="12.45174">
        <ele>740.636</ele>
        <time>2011-07-04T11:15:42Z</time>
      </trkpt>
      <trkpt lat="62.328966" lon="12.451564">
        <ele>740.172</ele>
        <time>2011-07-04T11:15:48Z</time>
      </trkpt>
      <trkpt lat="62.329058" lon="12.451414">
        <ele>739.861</ele>
        <time>2011-07-04T11:15:54Z</time>
      </trkpt>
      <trkpt lat="62.329125" lon="12.451338">
        <ele>738.63</ele>
        <time>2011-07-04T11:16:01Z</time>
      </trkpt>
      <trkpt lat="62.329135" lon="12.451305">
        <ele>738.471</ele>
        <time>2011-07-04T11:16:03Z</time>
      </trkpt>
      <trkpt lat="62.32929" lon="12.45116">
        <ele>737.584</ele>
        <time>2011-07-04T11:16:09Z</time>
      </trkpt>
      <trkpt lat="62.329309" lon="12.451138">
        <ele>737.434</ele>
        <time>2011-07-04T11:16:10Z</time>
      </trkpt>
      <trkpt lat="62.329434" lon="12.450918">
        <ele>735.828</ele>
        <time>2011-07-04T11:16:17Z</time>
      </trkpt>
      <trkpt lat="62.329539" lon="12.450708">
        <ele>733.63</ele>
        <time>2011-07-04T11:16:24Z</time>
      </trkpt>
      <trkpt lat="62.329611" lon="12.450574">
        <ele>732.804</ele>
        <time>2011-07-04T11:16:29Z</time>
      </trkpt>
      <trkpt lat="62.329661" lon="12.45053">
        <ele>732.65</ele>
        <time>2011-07-04T11:16:32Z</time>
      </trkpt>
      <trkpt lat="62.329723" lon="12.450504">
        <ele>733.183</ele>
        <time>2011-07-04T11:16:36Z</time>
      </trkpt>
      <trkpt lat="62.329797" lon="12.450436">
        <ele>733.45</ele>
        <time>2011-07-04T11:16:41Z</time>
      </trkpt>
      <trkpt lat="62.329885" lon="12.450324">
        <ele>733.996</ele>
        <time>2011-07-04T11:16:48Z</time>
      </trkpt>
      <trkpt lat="62.329919" lon="12.450298">
        <ele>734.132</ele>
        <time>2011-07-04T11:16:51Z</time>
      </trkpt>
      <trkpt lat="62.329986" lon="12.450119">
        <ele>734.155</ele>
        <time>2011-07-04T11:16:58Z</time>
      </trkpt>
      <trkpt lat="62.329999" lon="12.450108">
        <ele>734.141</ele>
        <time>2011-07-04T11:16:59Z</time>
      </trkpt>
      <trkpt lat="62.330029" lon="12.450068">
        <ele>733.721</ele>
        <time>2011-07-04T11:17:02Z</time>
      </trkpt>
      <trkpt lat="62.330083" lon="12.449962">
        <ele>734.136</ele>
        <time>2011-07-04T11:17:08Z</time>
      </trkpt>
      <trkpt lat="62.330166" lon="12.44991">
        <ele>733.831</ele>
        <time>2011-07-04T11:17:14Z</time>
      </trkpt>
      <trkpt lat="62.330266" lon="12.449812">
        <ele>733.531</ele>
        <time>2011-07-04T11:17:22Z</time>
      </trkpt>
      <trkpt lat="62.330295" lon="12.449778">
        <ele>733.477</ele>
        <time>2011-07-04T11:17:25Z</time>
      </trkpt>
      <trkpt lat="62.330316" lon="12.449723">
        <ele>733.461</ele>
        <time>2011-07-04T11:17:28Z</time>
      </trkpt>
      <trkpt lat="62.330341" lon="12.449697">
        <ele>733.338</ele>
        <time>2011-07-04T11:17:32Z</time>
      </trkpt>
      <trkpt lat="62.330365" lon="12.449563">
        <ele>733.63</ele>
        <time>2011-07-04T11:17:40Z</time>
      </trkpt>
      <trkpt lat="62.330369" lon="12.449533">
        <ele>733.552</ele>
        <time>2011-07-04T11:17:42Z</time>
      </trkpt>
      <trkpt lat="62.330484" lon="12.449459">
        <ele>734.238</ele>
        <time>2011-07-04T11:18:07Z</time>
      </trkpt>
      <trkpt lat="62.330534" lon="12.449359">
        <ele>736.236</ele>
        <time>2011-07-04T11:18:13Z</time>
      </trkpt>
      <trkpt lat="62.330559" lon="12.449277">
        <ele>737.89</ele>
        <time>2011-07-04T11:18:19Z</time>
      </trkpt>
      <trkpt lat="62.330617" lon="12.449185">
        <ele>739.492</ele>
        <time>2011-07-04T11:18:26Z</time>
      </trkpt>
      <trkpt lat="62.330667" lon="12.449062">
        <ele>740.736</ele>
        <time>2011-07-04T11:18:33Z</time>
      </trkpt>
      <trkpt lat="62.330732" lon="12.448945">
        <ele>742.149</ele>
        <time>2011-07-04T11:18:41Z</time>
      </trkpt>
      <trkpt lat="62.330798" lon="12.448804">
        <ele>743.253</ele>
        <time>2011-07-04T11:18:49Z</time>
      </trkpt>
      <trkpt lat="62.33086" lon="12.44868">
        <ele>743.093</ele>
        <time>2011-07-04T11:18:55Z</time>
      </trkpt>
      <trkpt lat="62.330868" lon="12.448669">
        <ele>742.973</ele>
        <time>2011-07-04T11:18:56Z</time>
      </trkpt>
      <trkpt lat="62.330935" lon="12.44855">
        <ele>742.413</ele>
        <time>2011-07-04T11:19:03Z</time>
      </trkpt>
      <trkpt lat="62.33103" lon="12.448393">
        <ele>741.814</ele>
        <time>2011-07-04T11:19:11Z</time>
      </trkpt>
      <trkpt lat="62.331087" lon="12.448221">
        <ele>741.491</ele>
        <time>2011-07-04T11:19:18Z</time>
      </trkpt>
      <trkpt lat="62.331131" lon="12.4481">
        <ele>741.059</ele>
        <time>2011-07-04T11:19:22Z</time>
      </trkpt>
      <trkpt lat="62.331198" lon="12.447994">
        <ele>741.029</ele>
        <time>2011-07-04T11:19:29Z</time>
      </trkpt>
      <trkpt lat="62.331267" lon="12.447896">
        <ele>741.528</ele>
        <time>2011-07-04T11:19:37Z</time>
      </trkpt>
      <trkpt lat="62.331275" lon="12.447881">
        <ele>741.631</ele>
        <time>2011-07-04T11:19:38Z</time>
      </trkpt>
      <trkpt lat="62.331296" lon="12.447661">
        <ele>741.439</ele>
        <time>2011-07-04T11:19:45Z</time>
      </trkpt>
      <trkpt lat="62.33135" lon="12.447578">
        <ele>740.593</ele>
        <time>2011-07-04T11:19:50Z</time>
      </trkpt>
      <trkpt lat="62.331385" lon="12.447546">
        <ele>740.378</ele>
        <time>2011-07-04T11:19:53Z</time>
      </trkpt>
      <trkpt lat="62.33145" lon="12.447499">
        <ele>740.027</ele>
        <time>2011-07-04T11:19:58Z</time>
      </trkpt>
      <trkpt lat="62.331459" lon="12.447496">
        <ele>739.951</ele>
        <time>2011-07-04T11:19:59Z</time>
      </trkpt>
      <trkpt lat="62.33153" lon="12.447428">
        <ele>740.427</ele>
        <time>2011-07-04T11:20:06Z</time>
      </trkpt>
      <trkpt lat="62.331607" lon="12.447318">
        <ele>739.678</ele>
        <time>2011-07-04T11:20:12Z</time>
      </trkpt>
      <trkpt lat="62.331626" lon="12.447282">
        <ele>739.239</ele>
        <time>2011-07-04T11:20:14Z</time>
      </trkpt>
      <trkpt lat="62.331666" lon="12.447137">
        <ele>739.052</ele>
        <time>2011-07-04T11:20:20Z</time>
      </trkpt>
      <trkpt lat="62.331671" lon="12.4471">
        <ele>739.441</ele>
        <time>2011-07-04T11:20:22Z</time>
      </trkpt>
      <trkpt lat="62.331681" lon="12.446976">
        <ele>740.175</ele>
        <time>2011-07-04T11:20:26Z</time>
      </trkpt>
      <trkpt lat="62.331762" lon="12.446786">
        <ele>740.895</ele>
        <time>2011-07-04T11:20:32Z</time>
      </trkpt>
      <trkpt lat="62.33177" lon="12.446741">
        <ele>740.974</ele>
        <time>2011-07-04T11:20:33Z</time>
      </trkpt>
      <trkpt lat="62.331806" lon="12.446427">
        <ele>741.34</ele>
        <time>2011-07-04T11:20:39Z</time>
      </trkpt>
      <trkpt lat="62.331876" lon="12.446141">
        <ele>741.786</ele>
        <time>2011-07-04T11:20:46Z</time>
      </trkpt>
      <trkpt lat="62.331911" lon="12.445915">
        <ele>741.84</ele>
        <time>2011-07-04T11:20:52Z</time>
      </trkpt>
      <trkpt lat="62.331946" lon="12.44573">
        <ele>741.731</ele>
        <time>2011-07-04T11:20:57Z</time>
      </trkpt>
      <trkpt lat="62.331978" lon="12.445506">
        <ele>742.369</ele>
        <time>2011-07-04T11:21:03Z</time>
      </trkpt>
      <trkpt lat="62.33205" lon="12.445319">
        <ele>741.934</ele>
        <time>2011-07-04T11:21:11Z</time>
      </trkpt>
      <trkpt lat="62.332094" lon="12.445194">
        <ele>741.624</ele>
        <time>2011-07-04T11:21:15Z</time>
      </trkpt>
      <trkpt lat="62.332164" lon="12.444938">
        <ele>741.53</ele>
        <time>2011-07-04T11:21:22Z</time>
      </trkpt>
      <trkpt lat="62.332172" lon="12.444867">
        <ele>741.641</ele>
        <time>2011-07-04T11:21:25Z</time>
      </trkpt>
      <trkpt lat="62.332202" lon="12.444714">
        <ele>741.332</ele>
        <time>2011-07-04T11:21:31Z</time>
      </trkpt>
      <trkpt lat="62.332233" lon="12.444563">
        <ele>740.93</ele>
        <time>2011-07-04T11:21:36Z</time>
      </trkpt>
      <trkpt lat="62.33226" lon="12.444459">
        <ele>740.498</ele>
        <time>2011-07-04T11:21:40Z</time>
      </trkpt>
      <trkpt lat="62.332289" lon="12.444087">
        <ele>740.086</ele>
        <time>2011-07-04T11:21:48Z</time>
      </trkpt>
      <trkpt lat="62.332291" lon="12.443994">
        <ele>739.891</ele>
        <time>2011-07-04T11:21:51Z</time>
      </trkpt>
      <trkpt lat="62.332269" lon="12.443619">
        <ele>739.064</ele>
        <time>2011-07-04T11:22:00Z</time>
      </trkpt>
      <trkpt lat="62.332287" lon="12.443431">
        <ele>738.304</ele>
        <time>2011-07-04T11:22:06Z</time>
      </trkpt>
      <trkpt lat="62.332299" lon="12.443238">
        <ele>737.745</ele>
        <time>2011-07-04T11:22:12Z</time>
      </trkpt>
      <trkpt lat="62.332301" lon="12.443215">
        <ele>737.687</ele>
        <time>2011-07-04T11:22:13Z</time>
      </trkpt>
      <trkpt lat="62.332288" lon="12.44301">
        <ele>736.914</ele>
        <time>2011-07-04T11:22:19Z</time>
      </trkpt>
      <trkpt lat="62.332299" lon="12.442845">
        <ele>736.856</ele>
        <time>2011-07-04T11:22:24Z</time>
      </trkpt>
      <trkpt lat="62.332277" lon="12.442715">
        <ele>736.888</ele>
        <time>2011-07-04T11:22:28Z</time>
      </trkpt>
      <trkpt lat="62.332282" lon="12.442514">
        <ele>736.914</ele>
        <time>2011-07-04T11:22:36Z</time>
      </trkpt>
      <trkpt lat="62.332285" lon="12.442493">
        <ele>736.928</ele>
        <time>2011-07-04T11:22:37Z</time>
      </trkpt>
      <trkpt lat="62.332313" lon="12.442348">
        <ele>737.213</ele>
        <time>2011-07-04T11:22:45Z</time>
      </trkpt>
      <trkpt lat="62.332316" lon="12.442329">
        <ele>737.279</ele>
        <time>2011-07-04T11:22:46Z</time>
      </trkpt>
      <trkpt lat="62.332333" lon="12.442214">
        <ele>737.707</ele>
        <time>2011-07-04T11:22:50Z</time>
      </trkpt>
      <trkpt lat="62.332355" lon="12.442088">
        <ele>738.066</ele>
        <time>2011-07-04T11:22:55Z</time>
      </trkpt>
      <trkpt lat="62.332352" lon="12.441988">
        <ele>738.216</ele>
        <time>2011-07-04T11:22:58Z</time>
      </trkpt>
      <trkpt lat="62.332349" lon="12.44189">
        <ele>738.637</ele>
        <time>2011-07-04T11:23:01Z</time>
      </trkpt>
      <trkpt lat="62.332415" lon="12.441672">
        <ele>739.88</ele>
        <time>2011-07-04T11:23:09Z</time>
      </trkpt>
      <trkpt lat="62.33246" lon="12.44156">
        <ele>740.343</ele>
        <time>2011-07-04T11:23:14Z</time>
      </trkpt>
      <trkpt lat="62.332468" lon="12.441544">
        <ele>740.461</ele>
        <time>2011-07-04T11:23:15Z</time>
      </trkpt>
      <trkpt lat="62.33255" lon="12.441364">
        <ele>740.136</ele>
        <time>2011-07-04T11:23:24Z</time>
      </trkpt>
      <trkpt lat="62.332612" lon="12.441257">
        <ele>739.862</ele>
        <time>2011-07-04T11:23:30Z</time>
      </trkpt>
      <trkpt lat="62.332674" lon="12.441136">
        <ele>739.709</ele>
        <time>2011-07-04T11:23:36Z</time>
      </trkpt>
      <trkpt lat="62.332768" lon="12.440936">
        <ele>739.282</ele>
        <time>2011-07-04T11:23:43Z</time>
      </trkpt>
      <trkpt lat="62.332859" lon="12.440743">
        <ele>739.175</ele>
        <time>2011-07-04T11:23:50Z</time>
      </trkpt>
      <trkpt lat="62.332906" lon="12.440617">
        <ele>739.181</ele>
        <time>2011-07-04T11:23:54Z</time>
      </trkpt>
      <trkpt lat="62.332929" lon="12.440526">
        <ele>739.275</ele>
        <time>2011-07-04T11:23:57Z</time>
      </trkpt>
      <trkpt lat="62.332962" lon="12.440435">
        <ele>738.985</ele>
        <time>2011-07-04T11:24:01Z</time>
      </trkpt>
      <trkpt lat="62.333016" lon="12.4402">
        <ele>739.271</ele>
        <time>2011-07-04T11:24:08Z</time>
      </trkpt>
      <trkpt lat="62.333043" lon="12.439977">
        <ele>739.667</ele>
        <time>2011-07-04T11:24:15Z</time>
      </trkpt>
      <trkpt lat="62.333066" lon="12.439815">
        <ele>740.08</ele>
        <time>2011-07-04T11:24:20Z</time>
      </trkpt>
      <trkpt lat="62.333093" lon="12.439548">
        <ele>739.908</ele>
        <time>2011-07-04T11:24:26Z</time>
      </trkpt>
      <trkpt lat="62.333098" lon="12.439467">
        <ele>739.775</ele>
        <time>2011-07-04T11:24:28Z</time>
      </trkpt>
      <trkpt lat="62.33311" lon="12.439235">
        <ele>739.812</ele>
        <time>2011-07-04T11:24:34Z</time>
      </trkpt>
      <trkpt lat="62.333106" lon="12.439034">
        <ele>739.554</ele>
        <time>2011-07-04T11:24:39Z</time>
      </trkpt>
      <trkpt lat="62.333083" lon="12.438703">
        <ele>739.486</ele>
        <time>2011-07-04T11:24:46Z</time>
      </trkpt>
      <trkpt lat="62.333073" lon="12.43858">
        <ele>739.542</ele>
        <time>2011-07-04T11:24:49Z</time>
      </trkpt>
      <trkpt lat="62.333062" lon="12.438291">
        <ele>739.391</ele>
        <time>2011-07-04T11:24:56Z</time>
      </trkpt>
      <trkpt lat="62.333072" lon="12.43814">
        <ele>739.406</ele>
        <time>2011-07-04T11:25:01Z</time>
      </trkpt>
      <trkpt lat="62.33308" lon="12.438083">
        <ele>739.336</ele>
        <time>2011-07-04T11:25:03Z</time>
      </trkpt>
      <trkpt lat="62.333081" lon="12.437862">
        <ele>739.331</ele>
        <time>2011-07-04T11:25:10Z</time>
      </trkpt>
      <trkpt lat="62.333098" lon="12.43765">
        <ele>739.577</ele>
        <time>2011-07-04T11:25:18Z</time>
      </trkpt>
      <trkpt lat="62.333135" lon="12.437436">
        <ele>739.392</ele>
        <time>2011-07-04T11:25:25Z</time>
      </trkpt>
      <trkpt lat="62.333155" lon="12.437251">
        <ele>739.411</ele>
        <time>2011-07-04T11:25:29Z</time>
      </trkpt>
      <trkpt lat="62.333214" lon="12.437081">
        <ele>739.232</ele>
        <time>2011-07-04T11:25:34Z</time>
      </trkpt>
      <trkpt lat="62.333243" lon="12.436908">
        <ele>739.333</ele>
        <time>2011-07-04T11:25:39Z</time>
      </trkpt>
      <trkpt lat="62.33327" lon="12.436636">
        <ele>739.201</ele>
        <time>2011-07-04T11:25:46Z</time>
      </trkpt>
      <trkpt lat="62.333318" lon="12.436394">
        <ele>739.324</ele>
        <time>2011-07-04T11:25:53Z</time>
      </trkpt>
      <trkpt lat="62.333335" lon="12.436221">
        <ele>739.468</ele>
        <time>2011-07-04T11:25:58Z</time>
      </trkpt>
      <trkpt lat="62.333345" lon="12.436146">
        <ele>739.44</ele>
        <time>2011-07-04T11:26:00Z</time>
      </trkpt>
      <trkpt lat="62.333359" lon="12.435934">
        <ele>739.497</ele>
        <time>2011-07-04T11:26:06Z</time>
      </trkpt>
      <trkpt lat="62.333361" lon="12.435802">
        <ele>739.296</ele>
        <time>2011-07-04T11:26:10Z</time>
      </trkpt>
      <trkpt lat="62.333361" lon="12.43548">
        <ele>739.126</ele>
        <time>2011-07-04T11:26:19Z</time>
      </trkpt>
      <trkpt lat="62.333362" lon="12.435406">
        <ele>739.043</ele>
        <time>2011-07-04T11:26:21Z</time>
      </trkpt>
      <trkpt lat="62.333369" lon="12.435329">
        <ele>738.893</ele>
        <time>2011-07-04T11:26:23Z</time>
      </trkpt>
      <trkpt lat="62.333386" lon="12.435239">
        <ele>738.872</ele>
        <time>2011-07-04T11:26:26Z</time>
      </trkpt>
      <trkpt lat="62.333395" lon="12.434942">
        <ele>738.605</ele>
        <time>2011-07-04T11:26:33Z</time>
      </trkpt>
      <trkpt lat="62.333381" lon="12.434702">
        <ele>738.115</ele>
        <time>2011-07-04T11:26:38Z</time>
      </trkpt>
      <trkpt lat="62.3334" lon="12.434554">
        <ele>738.089</ele>
        <time>2011-07-04T11:26:42Z</time>
      </trkpt>
      <trkpt lat="62.333432" lon="12.434294">
        <ele>738.487</ele>
        <time>2011-07-04T11:26:49Z</time>
      </trkpt>
      <trkpt lat="62.333437" lon="12.434177">
        <ele>738.624</ele>
        <time>2011-07-04T11:26:52Z</time>
      </trkpt>
      <trkpt lat="62.333466" lon="12.434074">
        <ele>738.893</ele>
        <time>2011-07-04T11:26:56Z</time>
      </trkpt>
      <trkpt lat="62.333476" lon="12.433939">
        <ele>739.101</ele>
        <time>2011-07-04T11:27:01Z</time>
      </trkpt>
      <trkpt lat="62.333471" lon="12.433859">
        <ele>739.165</ele>
        <time>2011-07-04T11:27:03Z</time>
      </trkpt>
      <trkpt lat="62.333474" lon="12.433671">
        <ele>739.068</ele>
        <time>2011-07-04T11:27:09Z</time>
      </trkpt>
      <trkpt lat="62.333496" lon="12.433483">
        <ele>739.11</ele>
        <time>2011-07-04T11:27:15Z</time>
      </trkpt>
      <trkpt lat="62.333508" lon="12.433425">
        <ele>739.192</ele>
        <time>2011-07-04T11:27:17Z</time>
      </trkpt>
      <trkpt lat="62.333541" lon="12.433275">
        <ele>739.134</ele>
        <time>2011-07-04T11:27:23Z</time>
      </trkpt>
      <trkpt lat="62.333544" lon="12.433239">
        <ele>739.103</ele>
        <time>2011-07-04T11:27:24Z</time>
      </trkpt>
      <trkpt lat="62.333572" lon="12.433071">
        <ele>738.986</ele>
        <time>2011-07-04T11:27:31Z</time>
      </trkpt>
      <trkpt lat="62.333611" lon="12.432896">
        <ele>738.711</ele>
        <time>2011-07-04T11:27:38Z</time>
      </trkpt>
      <trkpt lat="62.333646" lon="12.432668">
        <ele>738.541</ele>
        <time>2011-07-04T11:27:45Z</time>
      </trkpt>
      <trkpt lat="62.333687" lon="12.432437">
        <ele>738.428</ele>
        <time>2011-07-04T11:27:51Z</time>
      </trkpt>
      <trkpt lat="62.333686" lon="12.432121">
        <ele>738.552</ele>
        <time>2011-07-04T11:27:57Z</time>
      </trkpt>
      <trkpt lat="62.333706" lon="12.431972">
        <ele>738.576</ele>
        <time>2011-07-04T11:28:01Z</time>
      </trkpt>
      <trkpt lat="62.333727" lon="12.431843">
        <ele>738.586</ele>
        <time>2011-07-04T11:28:05Z</time>
      </trkpt>
      <trkpt lat="62.333728" lon="12.431594">
        <ele>738.471</ele>
        <time>2011-07-04T11:28:13Z</time>
      </trkpt>
      <trkpt lat="62.33373" lon="12.431546">
        <ele>738.275</ele>
        <time>2011-07-04T11:28:15Z</time>
      </trkpt>
      <trkpt lat="62.333728" lon="12.431332">
        <ele>737.7</ele>
        <time>2011-07-04T11:28:23Z</time>
      </trkpt>
      <trkpt lat="62.333739" lon="12.431148">
        <ele>737.596</ele>
        <time>2011-07-04T11:28:30Z</time>
      </trkpt>
      <trkpt lat="62.333761" lon="12.430933">
        <ele>737.197</ele>
        <time>2011-07-04T11:28:38Z</time>
      </trkpt>
      <trkpt lat="62.333796" lon="12.430703">
        <ele>737.104</ele>
        <time>2011-07-04T11:28:46Z</time>
      </trkpt>
      <trkpt lat="62.333799" lon="12.430506">
        <ele>737.111</ele>
        <time>2011-07-04T11:28:52Z</time>
      </trkpt>
      <trkpt lat="62.333805" lon="12.430296">
        <ele>736.668</ele>
        <time>2011-07-04T11:28:59Z</time>
      </trkpt>
      <trkpt lat="62.333789" lon="12.430053">
        <ele>736.044</ele>
        <time>2011-07-04T11:29:05Z</time>
      </trkpt>
      <trkpt lat="62.333784" lon="12.430027">
        <ele>735.938</ele>
        <time>2011-07-04T11:29:06Z</time>
      </trkpt>
      <trkpt lat="62.333783" lon="12.429876">
        <ele>735.281</ele>
        <time>2011-07-04T11:29:12Z</time>
      </trkpt>
      <trkpt lat="62.333782" lon="12.429846">
        <ele>735.262</ele>
        <time>2011-07-04T11:29:14Z</time>
      </trkpt>
      <trkpt lat="62.333781" lon="12.429712">
        <ele>735.1</ele>
        <time>2011-07-04T11:29:20Z</time>
      </trkpt>
      <trkpt lat="62.333784" lon="12.42963">
        <ele>735.073</ele>
        <time>2011-07-04T11:29:23Z</time>
      </trkpt>
      <trkpt lat="62.333776" lon="12.42944">
        <ele>735.148</ele>
        <time>2011-07-04T11:29:29Z</time>
      </trkpt>
      <trkpt lat="62.333781" lon="12.429395">
        <ele>735.163</ele>
        <time>2011-07-04T11:29:31Z</time>
      </trkpt>
      <trkpt lat="62.333769" lon="12.429204">
        <ele>735.529</ele>
        <time>2011-07-04T11:29:38Z</time>
      </trkpt>
      <trkpt lat="62.333774" lon="12.429142">
        <ele>735.789</ele>
        <time>2011-07-04T11:29:42Z</time>
      </trkpt>
      <trkpt lat="62.333778" lon="12.429103">
        <ele>735.992</ele>
        <time>2011-07-04T11:29:44Z</time>
      </trkpt>
      <trkpt lat="62.333785" lon="12.428971">
        <ele>736.151</ele>
        <time>2011-07-04T11:29:50Z</time>
      </trkpt>
      <trkpt lat="62.333756" lon="12.428738">
        <ele>736.397</ele>
        <time>2011-07-04T11:29:58Z</time>
      </trkpt>
      <trkpt lat="62.33374" lon="12.428557">
        <ele>736.289</ele>
        <time>2011-07-04T11:30:04Z</time>
      </trkpt>
      <trkpt lat="62.333727" lon="12.42842">
        <ele>736.401</ele>
        <time>2011-07-04T11:30:09Z</time>
      </trkpt>
      <trkpt lat="62.333717" lon="12.428318">
        <ele>736.405</ele>
        <time>2011-07-04T11:30:14Z</time>
      </trkpt>
      <trkpt lat="62.333691" lon="12.428154">
        <ele>736.326</ele>
        <time>2011-07-04T11:30:20Z</time>
      </trkpt>
      <trkpt lat="62.333691" lon="12.427899">
        <ele>736.037</ele>
        <time>2011-07-04T11:30:27Z</time>
      </trkpt>
      <trkpt lat="62.333689" lon="12.427713">
        <ele>735.685</ele>
        <time>2011-07-04T11:30:31Z</time>
      </trkpt>
      <trkpt lat="62.333691" lon="12.427485">
        <ele>735.936</ele>
        <time>2011-07-04T11:30:39Z</time>
      </trkpt>
      <trkpt lat="62.333672" lon="12.4273">
        <ele>735.785</ele>
        <time>2011-07-04T11:30:46Z</time>
      </trkpt>
      <trkpt lat="62.333677" lon="12.427201">
        <ele>735.845</ele>
        <time>2011-07-04T11:30:49Z</time>
      </trkpt>
      <trkpt lat="62.333677" lon="12.426871">
        <ele>735.761</ele>
        <time>2011-07-04T11:31:00Z</time>
      </trkpt>
      <trkpt lat="62.333704" lon="12.426621">
        <ele>736.075</ele>
        <time>2011-07-04T11:31:07Z</time>
      </trkpt>
      <trkpt lat="62.333782" lon="12.426225">
        <ele>736.375</ele>
        <time>2011-07-04T11:31:17Z</time>
      </trkpt>
      <trkpt lat="62.333827" lon="12.426014">
        <ele>736.486</ele>
        <time>2011-07-04T11:31:23Z</time>
      </trkpt>
      <trkpt lat="62.333867" lon="12.425822">
        <ele>736.517</ele>
        <time>2011-07-04T11:31:29Z</time>
      </trkpt>
      <trkpt lat="62.333943" lon="12.425581">
        <ele>736.702</ele>
        <time>2011-07-04T11:31:36Z</time>
      </trkpt>
      <trkpt lat="62.334006" lon="12.425289">
        <ele>736.738</ele>
        <time>2011-07-04T11:31:43Z</time>
      </trkpt>
      <trkpt lat="62.33407" lon="12.424967">
        <ele>737.046</ele>
        <time>2011-07-04T11:31:51Z</time>
      </trkpt>
      <trkpt lat="62.334137" lon="12.42467">
        <ele>737.28</ele>
        <time>2011-07-04T11:31:59Z</time>
      </trkpt>
      <trkpt lat="62.334244" lon="12.424307">
        <ele>737.434</ele>
        <time>2011-07-04T11:32:09Z</time>
      </trkpt>
      <trkpt lat="62.334295" lon="12.424121">
        <ele>737.765</ele>
        <time>2011-07-04T11:32:15Z</time>
      </trkpt>
      <trkpt lat="62.334335" lon="12.423948">
        <ele>737.684</ele>
        <time>2011-07-04T11:32:21Z</time>
      </trkpt>
      <trkpt lat="62.334405" lon="12.423767">
        <ele>737.594</ele>
        <time>2011-07-04T11:32:29Z</time>
      </trkpt>
      <trkpt lat="62.334461" lon="12.423567">
        <ele>737.704</ele>
        <time>2011-07-04T11:32:35Z</time>
      </trkpt>
      <trkpt lat="62.33451" lon="12.423335">
        <ele>738.018</ele>
        <time>2011-07-04T11:32:41Z</time>
      </trkpt>
      <trkpt lat="62.334572" lon="12.423095">
        <ele>738.076</ele>
        <time>2011-07-04T11:32:47Z</time>
      </trkpt>
      <trkpt lat="62.334638" lon="12.422861">
        <ele>738.324</ele>
        <time>2011-07-04T11:32:53Z</time>
      </trkpt>
      <trkpt lat="62.334709" lon="12.422625">
        <ele>738.292</ele>
        <time>2011-07-04T11:32:59Z</time>
      </trkpt>
      <trkpt lat="62.334786" lon="12.422409">
        <ele>738.466</ele>
        <time>2011-07-04T11:33:05Z</time>
      </trkpt>
      <trkpt lat="62.33485" lon="12.422136">
        <ele>738.473</ele>
        <time>2011-07-04T11:33:12Z</time>
      </trkpt>
      <trkpt lat="62.334886" lon="12.421954">
        <ele>738.354</ele>
        <time>2011-07-04T11:33:17Z</time>
      </trkpt>
      <trkpt lat="62.334882" lon="12.421712">
        <ele>738.311</ele>
        <time>2011-07-04T11:33:22Z</time>
      </trkpt>
      <trkpt lat="62.334915" lon="12.42149">
        <ele>738.356</ele>
        <time>2011-07-04T11:33:27Z</time>
      </trkpt>
      <trkpt lat="62.334937" lon="12.421346">
        <ele>738.323</ele>
        <time>2011-07-04T11:33:32Z</time>
      </trkpt>
      <trkpt lat="62.334993" lon="12.42112">
        <ele>738.481</ele>
        <time>2011-07-04T11:33:38Z</time>
      </trkpt>
      <trkpt lat="62.33504" lon="12.4209">
        <ele>738.451</ele>
        <time>2011-07-04T11:33:45Z</time>
      </trkpt>
      <trkpt lat="62.335057" lon="12.420851">
        <ele>738.533</ele>
        <time>2011-07-04T11:33:47Z</time>
      </trkpt>
      <trkpt lat="62.335076" lon="12.420615">
        <ele>738.672</ele>
        <time>2011-07-04T11:33:54Z</time>
      </trkpt>
      <trkpt lat="62.335107" lon="12.420347">
        <ele>738.828</ele>
        <time>2011-07-04T11:34:02Z</time>
      </trkpt>
      <trkpt lat="62.335153" lon="12.420007">
        <ele>738.931</ele>
        <time>2011-07-04T11:34:10Z</time>
      </trkpt>
      <trkpt lat="62.335191" lon="12.419734">
        <ele>739.015</ele>
        <time>2011-07-04T11:34:17Z</time>
      </trkpt>
      <trkpt lat="62.335229" lon="12.419438">
        <ele>739.086</ele>
        <time>2011-07-04T11:34:24Z</time>
      </trkpt>
      <trkpt lat="62.33523" lon="12.419366">
        <ele>739.156</ele>
        <time>2011-07-04T11:34:26Z</time>
      </trkpt>
      <trkpt lat="62.335278" lon="12.419116">
        <ele>739.322</ele>
        <time>2011-07-04T11:34:33Z</time>
      </trkpt>
      <trkpt lat="62.335338" lon="12.418788">
        <ele>739.304</ele>
        <time>2011-07-04T11:34:41Z</time>
      </trkpt>
      <trkpt lat="62.335392" lon="12.418536">
        <ele>739.396</ele>
        <time>2011-07-04T11:34:47Z</time>
      </trkpt>
      <trkpt lat="62.335444" lon="12.418238">
        <ele>739.409</ele>
        <time>2011-07-04T11:34:54Z</time>
      </trkpt>
      <trkpt lat="62.335456" lon="12.418051">
        <ele>739.374</ele>
        <time>2011-07-04T11:34:59Z</time>
      </trkpt>
      <trkpt lat="62.335488" lon="12.41776">
        <ele>739.251</ele>
        <time>2011-07-04T11:35:06Z</time>
      </trkpt>
      <trkpt lat="62.33553" lon="12.417601">
        <ele>739.508</ele>
        <time>2011-07-04T11:35:12Z</time>
      </trkpt>
      <trkpt lat="62.335572" lon="12.417431">
        <ele>739.49</ele>
        <time>2011-07-04T11:35:19Z</time>
      </trkpt>
      <trkpt lat="62.335622" lon="12.417245">
        <ele>739.528</ele>
        <time>2011-07-04T11:35:26Z</time>
      </trkpt>
      <trkpt lat="62.335631" lon="12.417119">
        <ele>739.703</ele>
        <time>2011-07-04T11:35:30Z</time>
      </trkpt>
      <trkpt lat="62.335671" lon="12.416827">
        <ele>739.786</ele>
        <time>2011-07-04T11:35:38Z</time>
      </trkpt>
      <trkpt lat="62.335699" lon="12.416578">
        <ele>740.011</ele>
        <time>2011-07-04T11:35:44Z</time>
      </trkpt>
      <trkpt lat="62.335765" lon="12.416238">
        <ele>740.057</ele>
        <time>2011-07-04T11:35:52Z</time>
      </trkpt>
      <trkpt lat="62.335811" lon="12.415929">
        <ele>739.875</ele>
        <time>2011-07-04T11:35:59Z</time>
      </trkpt>
      <trkpt lat="62.335845" lon="12.41577">
        <ele>739.673</ele>
        <time>2011-07-04T11:36:03Z</time>
      </trkpt>
      <trkpt lat="62.335873" lon="12.415589">
        <ele>739.727</ele>
        <time>2011-07-04T11:36:10Z</time>
      </trkpt>
      <trkpt lat="62.335891" lon="12.415427">
        <ele>739.652</ele>
        <time>2011-07-04T11:36:16Z</time>
      </trkpt>
      <trkpt lat="62.335894" lon="12.415265">
        <ele>739.683</ele>
        <time>2011-07-04T11:36:22Z</time>
      </trkpt>
      <trkpt lat="62.335898" lon="12.415233">
        <ele>739.631</ele>
        <time>2011-07-04T11:36:23Z</time>
      </trkpt>
      <trkpt lat="62.33593" lon="12.415058">
        <ele>739.429</ele>
        <time>2011-07-04T11:36:30Z</time>
      </trkpt>
      <trkpt lat="62.335933" lon="12.41503">
        <ele>739.521</ele>
        <time>2011-07-04T11:36:32Z</time>
      </trkpt>
      <trkpt lat="62.335916" lon="12.414853">
        <ele>739.307</ele>
        <time>2011-07-04T11:37:00Z</time>
      </trkpt>
      <trkpt lat="62.33593" lon="12.414645">
        <ele>739.092</ele>
        <time>2011-07-04T11:37:05Z</time>
      </trkpt>
      <trkpt lat="62.335971" lon="12.414401">
        <ele>739.156</ele>
        <time>2011-07-04T11:37:11Z</time>
      </trkpt>
      <trkpt lat="62.33598" lon="12.414205">
        <ele>739.089</ele>
        <time>2011-07-04T11:37:16Z</time>
      </trkpt>
      <trkpt lat="62.335988" lon="12.414065">
        <ele>739.138</ele>
        <time>2011-07-04T11:37:20Z</time>
      </trkpt>
      <trkpt lat="62.336003" lon="12.413974">
        <ele>739.044</ele>
        <time>2011-07-04T11:37:24Z</time>
      </trkpt>
      <trkpt lat="62.335997" lon="12.413771">
        <ele>738.951</ele>
        <time>2011-07-04T11:37:31Z</time>
      </trkpt>
      <trkpt lat="62.336009" lon="12.413628">
        <ele>738.849</ele>
        <time>2011-07-04T11:37:36Z</time>
      </trkpt>
      <trkpt lat="62.336022" lon="12.413421">
        <ele>738.639</ele>
        <time>2011-07-04T11:37:41Z</time>
      </trkpt>
      <trkpt lat="62.336029" lon="12.413332">
        <ele>738.533</ele>
        <time>2011-07-04T11:37:43Z</time>
      </trkpt>
      <trkpt lat="62.336098" lon="12.413086">
        <ele>738.423</ele>
        <time>2011-07-04T11:37:50Z</time>
      </trkpt>
      <trkpt lat="62.336143" lon="12.412866">
        <ele>738.417</ele>
        <time>2011-07-04T11:37:56Z</time>
      </trkpt>
      <trkpt lat="62.336151" lon="12.412827">
        <ele>738.427</ele>
        <time>2011-07-04T11:37:57Z</time>
      </trkpt>
      <trkpt lat="62.336223" lon="12.412559">
        <ele>738.42</ele>
        <time>2011-07-04T11:38:05Z</time>
      </trkpt>
      <trkpt lat="62.336247" lon="12.412422">
        <ele>738.337</ele>
        <time>2011-07-04T11:38:09Z</time>
      </trkpt>
      <trkpt lat="62.336269" lon="12.412323">
        <ele>738.388</ele>
        <time>2011-07-04T11:38:14Z</time>
      </trkpt>
      <trkpt lat="62.336327" lon="12.412121">
        <ele>738.671</ele>
        <time>2011-07-04T11:38:49Z</time>
      </trkpt>
      <trkpt lat="62.336437" lon="12.411937">
        <ele>738.951</ele>
        <time>2011-07-04T11:38:56Z</time>
      </trkpt>
      <trkpt lat="62.33648" lon="12.411842">
        <ele>738.937</ele>
        <time>2011-07-04T11:39:03Z</time>
      </trkpt>
      <trkpt lat="62.336491" lon="12.411806">
        <ele>738.973</ele>
        <time>2011-07-04T11:39:06Z</time>
      </trkpt>
      <trkpt lat="62.3365" lon="12.411659">
        <ele>738.881</ele>
        <time>2011-07-04T11:39:30Z</time>
      </trkpt>
      <trkpt lat="62.336554" lon="12.411537">
        <ele>739.119</ele>
        <time>2011-07-04T11:39:37Z</time>
      </trkpt>
      <trkpt lat="62.336625" lon="12.411341">
        <ele>739.024</ele>
        <time>2011-07-04T11:39:43Z</time>
      </trkpt>
      <trkpt lat="62.336675" lon="12.411097">
        <ele>739.274</ele>
        <time>2011-07-04T11:39:49Z</time>
      </trkpt>
      <trkpt lat="62.336729" lon="12.4109">
        <ele>739.283</ele>
        <time>2011-07-04T11:39:54Z</time>
      </trkpt>
      <trkpt lat="62.336787" lon="12.410663">
        <ele>739.379</ele>
        <time>2011-07-04T11:40:00Z</time>
      </trkpt>
      <trkpt lat="62.336844" lon="12.410434">
        <ele>739.416</ele>
        <time>2011-07-04T11:40:06Z</time>
      </trkpt>
      <trkpt lat="62.336912" lon="12.410214">
        <ele>739.233</ele>
        <time>2011-07-04T11:40:12Z</time>
      </trkpt>
      <trkpt lat="62.336989" lon="12.410041">
        <ele>739.323</ele>
        <time>2011-07-04T11:40:18Z</time>
      </trkpt>
      <trkpt lat="62.337045" lon="12.409886">
        <ele>739.334</ele>
        <time>2011-07-04T11:40:23Z</time>
      </trkpt>
      <trkpt lat="62.337114" lon="12.409573">
        <ele>739.763</ele>
        <time>2011-07-04T11:40:31Z</time>
      </trkpt>
      <trkpt lat="62.337169" lon="12.409353">
        <ele>739.97</ele>
        <time>2011-07-04T11:40:37Z</time>
      </trkpt>
      <trkpt lat="62.337208" lon="12.409171">
        <ele>740.2</ele>
        <time>2011-07-04T11:40:42Z</time>
      </trkpt>
      <trkpt lat="62.337248" lon="12.408923">
        <ele>740.531</ele>
        <time>2011-07-04T11:40:48Z</time>
      </trkpt>
      <trkpt lat="62.33728" lon="12.408689">
        <ele>740.647</ele>
        <time>2011-07-04T11:40:53Z</time>
      </trkpt>
      <trkpt lat="62.337283" lon="12.408616">
        <ele>740.598</ele>
        <time>2011-07-04T11:40:54Z</time>
      </trkpt>
      <trkpt lat="62.337388" lon="12.408346">
        <ele>740.66</ele>
        <time>2011-07-04T11:41:01Z</time>
      </trkpt>
      <trkpt lat="62.337466" lon="12.408056">
        <ele>740.684</ele>
        <time>2011-07-04T11:41:08Z</time>
      </trkpt>
      <trkpt lat="62.337535" lon="12.407869">
        <ele>740.771</ele>
        <time>2011-07-04T11:41:13Z</time>
      </trkpt>
      <trkpt lat="62.337596" lon="12.407616">
        <ele>740.779</ele>
        <time>2011-07-04T11:41:19Z</time>
      </trkpt>
      <trkpt lat="62.337646" lon="12.40744">
        <ele>740.972</ele>
        <time>2011-07-04T11:41:24Z</time>
      </trkpt>
      <trkpt lat="62.337693" lon="12.407208">
        <ele>741.184</ele>
        <time>2011-07-04T11:41:29Z</time>
      </trkpt>
      <trkpt lat="62.33774" lon="12.406971">
        <ele>741.106</ele>
        <time>2011-07-04T11:41:34Z</time>
      </trkpt>
      <trkpt lat="62.337776" lon="12.406755">
        <ele>741.078</ele>
        <time>2011-07-04T11:41:39Z</time>
      </trkpt>
      <trkpt lat="62.337782" lon="12.406682">
        <ele>740.938</ele>
        <time>2011-07-04T11:41:41Z</time>
      </trkpt>
      <trkpt lat="62.337809" lon="12.406428">
        <ele>740.725</ele>
        <time>2011-07-04T11:41:47Z</time>
      </trkpt>
      <trkpt lat="62.337868" lon="12.406229">
        <ele>740.735</ele>
        <time>2011-07-04T11:41:52Z</time>
      </trkpt>
      <trkpt lat="62.33789" lon="12.406172">
        <ele>740.802</ele>
        <time>2011-07-04T11:41:54Z</time>
      </trkpt>
      <trkpt lat="62.337961" lon="12.405841">
        <ele>740.853</ele>
        <time>2011-07-04T11:42:02Z</time>
      </trkpt>
      <trkpt lat="62.337998" lon="12.405598">
        <ele>740.822</ele>
        <time>2011-07-04T11:42:08Z</time>
      </trkpt>
      <trkpt lat="62.338015" lon="12.405342">
        <ele>740.878</ele>
        <time>2011-07-04T11:42:13Z</time>
      </trkpt>
      <trkpt lat="62.338051" lon="12.405082">
        <ele>740.284</ele>
        <time>2011-07-04T11:42:19Z</time>
      </trkpt>
      <trkpt lat="62.338129" lon="12.404802">
        <ele>740.304</ele>
        <time>2011-07-04T11:42:26Z</time>
      </trkpt>
      <trkpt lat="62.338186" lon="12.404607">
        <ele>740.379</ele>
        <time>2011-07-04T11:42:31Z</time>
      </trkpt>
      <trkpt lat="62.338259" lon="12.404302">
        <ele>740.436</ele>
        <time>2011-07-04T11:42:38Z</time>
      </trkpt>
      <trkpt lat="62.338305" lon="12.404163">
        <ele>740.501</ele>
        <time>2011-07-04T11:42:42Z</time>
      </trkpt>
      <trkpt lat="62.338383" lon="12.404003">
        <ele>740.364</ele>
        <time>2011-07-04T11:42:48Z</time>
      </trkpt>
      <trkpt lat="62.338437" lon="12.403795">
        <ele>740.142</ele>
        <time>2011-07-04T11:42:53Z</time>
      </trkpt>
      <trkpt lat="62.338488" lon="12.403548">
        <ele>740.148</ele>
        <time>2011-07-04T11:42:59Z</time>
      </trkpt>
      <trkpt lat="62.338533" lon="12.403351">
        <ele>740.206</ele>
        <time>2011-07-04T11:43:04Z</time>
      </trkpt>
      <trkpt lat="62.338546" lon="12.403315">
        <ele>740.126</ele>
        <time>2011-07-04T11:43:05Z</time>
      </trkpt>
      <trkpt lat="62.338599" lon="12.403092">
        <ele>740.012</ele>
        <time>2011-07-04T11:43:11Z</time>
      </trkpt>
      <trkpt lat="62.338664" lon="12.402836">
        <ele>739.882</ele>
        <time>2011-07-04T11:43:17Z</time>
      </trkpt>
      <trkpt lat="62.338753" lon="12.402639">
        <ele>739.615</ele>
        <time>2011-07-04T11:43:23Z</time>
      </trkpt>
      <trkpt lat="62.338818" lon="12.402412">
        <ele>739.549</ele>
        <time>2011-07-04T11:43:29Z</time>
      </trkpt>
      <trkpt lat="62.338833" lon="12.402381">
        <ele>739.48</ele>
        <time>2011-07-04T11:43:30Z</time>
      </trkpt>
      <trkpt lat="62.338925" lon="12.402145">
        <ele>740.008</ele>
        <time>2011-07-04T11:43:37Z</time>
      </trkpt>
      <trkpt lat="62.338959" lon="12.402025">
        <ele>740.167</ele>
        <time>2011-07-04T11:43:40Z</time>
      </trkpt>
      <trkpt lat="62.339029" lon="12.401878">
        <ele>740.5</ele>
        <time>2011-07-04T11:43:45Z</time>
      </trkpt>
      <trkpt lat="62.339114" lon="12.401693">
        <ele>740.547</ele>
        <time>2011-07-04T11:43:51Z</time>
      </trkpt>
      <trkpt lat="62.339201" lon="12.401522">
        <ele>740.76</ele>
        <time>2011-07-04T11:43:57Z</time>
      </trkpt>
      <trkpt lat="62.339317" lon="12.401303">
        <ele>740.991</ele>
        <time>2011-07-04T11:44:04Z</time>
      </trkpt>
      <trkpt lat="62.339382" lon="12.401142">
        <ele>741.068</ele>
        <time>2011-07-04T11:44:09Z</time>
      </trkpt>
      <trkpt lat="62.339476" lon="12.400908">
        <ele>740.971</ele>
        <time>2011-07-04T11:44:16Z</time>
      </trkpt>
      <trkpt lat="62.339536" lon="12.40067">
        <ele>740.803</ele>
        <time>2011-07-04T11:44:22Z</time>
      </trkpt>
      <trkpt lat="62.33963" lon="12.400488">
        <ele>740.809</ele>
        <time>2011-07-04T11:44:28Z</time>
      </trkpt>
      <trkpt lat="62.339728" lon="12.400234">
        <ele>740.372</ele>
        <time>2011-07-04T11:44:35Z</time>
      </trkpt>
      <trkpt lat="62.339742" lon="12.400201">
        <ele>740.303</ele>
        <time>2011-07-04T11:44:36Z</time>
      </trkpt>
      <trkpt lat="62.339831" lon="12.399903">
        <ele>740.308</ele>
        <time>2011-07-04T11:44:44Z</time>
      </trkpt>
      <trkpt lat="62.339924" lon="12.399657">
        <ele>740.096</ele>
        <time>2011-07-04T11:44:51Z</time>
      </trkpt>
      <trkpt lat="62.339962" lon="12.399444">
        <ele>739.963</ele>
        <time>2011-07-04T11:44:57Z</time>
      </trkpt>
      <trkpt lat="62.340017" lon="12.399201">
        <ele>739.828</ele>
        <time>2011-07-04T11:45:03Z</time>
      </trkpt>
      <trkpt lat="62.340068" lon="12.398959">
        <ele>739.802</ele>
        <time>2011-07-04T11:45:09Z</time>
      </trkpt>
      <trkpt lat="62.340115" lon="12.398774">
        <ele>739.668</ele>
        <time>2011-07-04T11:45:14Z</time>
      </trkpt>
      <trkpt lat="62.340126" lon="12.398753">
        <ele>739.67</ele>
        <time>2011-07-04T11:45:15Z</time>
      </trkpt>
      <trkpt lat="62.340218" lon="12.398524">
        <ele>739.84</ele>
        <time>2011-07-04T11:45:22Z</time>
      </trkpt>
      <trkpt lat="62.340233" lon="12.398499">
        <ele>739.889</ele>
        <time>2011-07-04T11:45:23Z</time>
      </trkpt>
      <trkpt lat="62.340332" lon="12.39833">
        <ele>740.009</ele>
        <time>2011-07-04T11:45:30Z</time>
      </trkpt>
      <trkpt lat="62.340401" lon="12.398182">
        <ele>740.07</ele>
        <time>2011-07-04T11:45:35Z</time>
      </trkpt>
      <trkpt lat="62.340445" lon="12.398048">
        <ele>740.107</ele>
        <time>2011-07-04T11:45:39Z</time>
      </trkpt>
      <trkpt lat="62.340523" lon="12.397863">
        <ele>740.174</ele>
        <time>2011-07-04T11:45:45Z</time>
      </trkpt>
      <trkpt lat="62.340561" lon="12.397754">
        <ele>739.923</ele>
        <time>2011-07-04T11:45:48Z</time>
      </trkpt>
      <trkpt lat="62.340665" lon="12.397528">
        <ele>739.722</ele>
        <time>2011-07-04T11:45:56Z</time>
      </trkpt>
      <trkpt lat="62.34068" lon="12.397494">
        <ele>739.672</ele>
        <time>2011-07-04T11:45:57Z</time>
      </trkpt>
      <trkpt lat="62.340723" lon="12.397287">
        <ele>739.153</ele>
        <time>2011-07-04T11:46:02Z</time>
      </trkpt>
      <trkpt lat="62.340751" lon="12.397221">
        <ele>739.138</ele>
        <time>2011-07-04T11:46:04Z</time>
      </trkpt>
      <trkpt lat="62.340836" lon="12.397009">
        <ele>739.261</ele>
        <time>2011-07-04T11:46:10Z</time>
      </trkpt>
      <trkpt lat="62.340922" lon="12.396744">
        <ele>739.374</ele>
        <time>2011-07-04T11:46:17Z</time>
      </trkpt>
      <trkpt lat="62.341003" lon="12.396486">
        <ele>739.123</ele>
        <time>2011-07-04T11:46:24Z</time>
      </trkpt>
      <trkpt lat="62.341067" lon="12.39626">
        <ele>738.922</ele>
        <time>2011-07-04T11:46:30Z</time>
      </trkpt>
      <trkpt lat="62.341138" lon="12.395973">
        <ele>738.387</ele>
        <time>2011-07-04T11:46:37Z</time>
      </trkpt>
      <trkpt lat="62.341201" lon="12.395758">
        <ele>737.989</ele>
        <time>2011-07-04T11:46:43Z</time>
      </trkpt>
      <trkpt lat="62.341262" lon="12.39556">
        <ele>737.865</ele>
        <time>2011-07-04T11:46:48Z</time>
      </trkpt>
      <trkpt lat="62.341308" lon="12.395406">
        <ele>737.832</ele>
        <time>2011-07-04T11:46:54Z</time>
      </trkpt>
      <trkpt lat="62.341318" lon="12.395369">
        <ele>737.736</ele>
        <time>2011-07-04T11:46:57Z</time>
      </trkpt>
      <trkpt lat="62.341341" lon="12.395224">
        <ele>737.568</ele>
        <time>2011-07-04T11:47:16Z</time>
      </trkpt>
      <trkpt lat="62.34136" lon="12.395201">
        <ele>737.686</ele>
        <time>2011-07-04T11:47:20Z</time>
      </trkpt>
      <trkpt lat="62.341362" lon="12.395125">
        <ele>737.896</ele>
        <time>2011-07-04T11:49:31Z</time>
      </trkpt>
      <trkpt lat="62.341416" lon="12.395005">
        <ele>737.909</ele>
        <time>2011-07-04T11:49:40Z</time>
      </trkpt>
      <trkpt lat="62.341424" lon="12.39496">
        <ele>737.778</ele>
        <time>2011-07-04T11:49:42Z</time>
      </trkpt>
      <trkpt lat="62.341482" lon="12.394846">
        <ele>737.825</ele>
        <time>2011-07-04T11:49:49Z</time>
      </trkpt>
      <trkpt lat="62.341505" lon="12.394764">
        <ele>737.747</ele>
        <time>2011-07-04T11:49:53Z</time>
      </trkpt>
      <trkpt lat="62.34151" lon="12.3947">
        <ele>737.681</ele>
        <time>2011-07-04T11:49:56Z</time>
      </trkpt>
      <trkpt lat="62.341559" lon="12.394553">
        <ele>737.789</ele>
        <time>2011-07-04T11:50:03Z</time>
      </trkpt>
      <trkpt lat="62.341614" lon="12.39434">
        <ele>737.822</ele>
        <time>2011-07-04T11:50:11Z</time>
      </trkpt>
      <trkpt lat="62.341643" lon="12.394267">
        <ele>737.833</ele>
        <time>2011-07-04T11:50:14Z</time>
      </trkpt>
      <trkpt lat="62.341706" lon="12.394026">
        <ele>737.655</ele>
        <time>2011-07-04T11:50:21Z</time>
      </trkpt>
      <trkpt lat="62.341774" lon="12.393827">
        <ele>737.703</ele>
        <time>2011-07-04T11:50:27Z</time>
      </trkpt>
      <trkpt lat="62.341788" lon="12.393796">
        <ele>737.692</ele>
        <time>2011-07-04T11:50:28Z</time>
      </trkpt>
      <trkpt lat="62.34183" lon="12.393602">
        <ele>737.841</ele>
        <time>2011-07-04T11:50:33Z</time>
      </trkpt>
      <trkpt lat="62.341883" lon="12.393446">
        <ele>738.065</ele>
        <time>2011-07-04T11:50:38Z</time>
      </trkpt>
      <trkpt lat="62.341935" lon="12.393307">
        <ele>738.527</ele>
        <time>2011-07-04T11:50:42Z</time>
      </trkpt>
      <trkpt lat="62.342003" lon="12.393164">
        <ele>738.5</ele>
        <time>2011-07-04T11:50:48Z</time>
      </trkpt>
      <trkpt lat="62.342016" lon="12.393134">
        <ele>738.399</ele>
        <time>2011-07-04T11:50:49Z</time>
      </trkpt>
      <trkpt lat="62.342135" lon="12.392905">
        <ele>738.489</ele>
        <time>2011-07-04T11:50:57Z</time>
      </trkpt>
      <trkpt lat="62.342196" lon="12.392767">
        <ele>738.471</ele>
        <time>2011-07-04T11:51:02Z</time>
      </trkpt>
      <trkpt lat="62.342292" lon="12.392585">
        <ele>738.748</ele>
        <time>2011-07-04T11:51:08Z</time>
      </trkpt>
      <trkpt lat="62.342359" lon="12.392373">
        <ele>738.955</ele>
        <time>2011-07-04T11:51:14Z</time>
      </trkpt>
      <trkpt lat="62.34243" lon="12.39218">
        <ele>738.646</ele>
        <time>2011-07-04T11:51:20Z</time>
      </trkpt>
      <trkpt lat="62.342536" lon="12.392023">
        <ele>738.58</ele>
        <time>2011-07-04T11:51:27Z</time>
      </trkpt>
      <trkpt lat="62.342614" lon="12.39186">
        <ele>738.545</ele>
        <time>2011-07-04T11:51:32Z</time>
      </trkpt>
      <trkpt lat="62.342702" lon="12.391672">
        <ele>738.691</ele>
        <time>2011-07-04T11:51:38Z</time>
      </trkpt>
      <trkpt lat="62.342779" lon="12.391465">
        <ele>739.103</ele>
        <time>2011-07-04T11:51:44Z</time>
      </trkpt>
      <trkpt lat="62.342843" lon="12.391245">
        <ele>738.66</ele>
        <time>2011-07-04T11:51:50Z</time>
      </trkpt>
      <trkpt lat="62.342862" lon="12.391219">
        <ele>738.592</ele>
        <time>2011-07-04T11:51:51Z</time>
      </trkpt>
      <trkpt lat="62.34299" lon="12.391078">
        <ele>738.152</ele>
        <time>2011-07-04T11:51:58Z</time>
      </trkpt>
      <trkpt lat="62.343042" lon="12.391038">
        <ele>738.09</ele>
        <time>2011-07-04T11:52:01Z</time>
      </trkpt>
      <trkpt lat="62.343121" lon="12.390833">
        <ele>738.253</ele>
        <time>2011-07-04T11:52:08Z</time>
      </trkpt>
      <trkpt lat="62.343211" lon="12.390684">
        <ele>738.368</ele>
        <time>2011-07-04T11:52:13Z</time>
      </trkpt>
      <trkpt lat="62.343302" lon="12.390486">
        <ele>738.391</ele>
        <time>2011-07-04T11:52:19Z</time>
      </trkpt>
      <trkpt lat="62.343352" lon="12.390399">
        <ele>738.426</ele>
        <time>2011-07-04T11:52:22Z</time>
      </trkpt>
      <trkpt lat="62.343483" lon="12.390223">
        <ele>738.594</ele>
        <time>2011-07-04T11:52:29Z</time>
      </trkpt>
      <trkpt lat="62.343575" lon="12.39005">
        <ele>738.712</ele>
        <time>2011-07-04T11:52:35Z</time>
      </trkpt>
      <trkpt lat="62.343622" lon="12.389998">
        <ele>738.992</ele>
        <time>2011-07-04T11:52:39Z</time>
      </trkpt>
      <trkpt lat="62.343684" lon="12.38994">
        <ele>739.312</ele>
        <time>2011-07-04T11:52:44Z</time>
      </trkpt>
      <trkpt lat="62.343749" lon="12.389846">
        <ele>739.315</ele>
        <time>2011-07-04T11:52:50Z</time>
      </trkpt>
      <trkpt lat="62.343813" lon="12.389702">
        <ele>739.084</ele>
        <time>2011-07-04T11:52:58Z</time>
      </trkpt>
      <trkpt lat="62.343826" lon="12.389673">
        <ele>739.094</ele>
        <time>2011-07-04T11:53:00Z</time>
      </trkpt>
      <trkpt lat="62.34386" lon="12.389595">
        <ele>738.803</ele>
        <time>2011-07-04T11:53:04Z</time>
      </trkpt>
      <trkpt lat="62.343925" lon="12.389447">
        <ele>738.367</ele>
        <time>2011-07-04T11:53:11Z</time>
      </trkpt>
      <trkpt lat="62.343933" lon="12.389428">
        <ele>738.293</ele>
        <time>2011-07-04T11:53:12Z</time>
      </trkpt>
      <trkpt lat="62.344002" lon="12.389328">
        <ele>738.069</ele>
        <time>2011-07-04T11:53:18Z</time>
      </trkpt>
      <trkpt lat="62.344019" lon="12.389242">
        <ele>738.009</ele>
        <time>2011-07-04T11:53:21Z</time>
      </trkpt>
      <trkpt lat="62.344056" lon="12.389114">
        <ele>737.87</ele>
        <time>2011-07-04T11:53:26Z</time>
      </trkpt>
      <trkpt lat="62.344101" lon="12.389001">
        <ele>738.304</ele>
        <time>2011-07-04T11:53:32Z</time>
      </trkpt>
      <trkpt lat="62.344158" lon="12.388899">
        <ele>738.574</ele>
        <time>2011-07-04T11:53:37Z</time>
      </trkpt>
      <trkpt lat="62.344168" lon="12.388879">
        <ele>738.668</ele>
        <time>2011-07-04T11:53:38Z</time>
      </trkpt>
      <trkpt lat="62.344196" lon="12.388811">
        <ele>738.759</ele>
        <time>2011-07-04T11:53:41Z</time>
      </trkpt>
      <trkpt lat="62.344272" lon="12.388644">
        <ele>738.534</ele>
        <time>2011-07-04T11:53:49Z</time>
      </trkpt>
      <trkpt lat="62.344312" lon="12.388539">
        <ele>738.598</ele>
        <time>2011-07-04T11:53:53Z</time>
      </trkpt>
      <trkpt lat="62.344368" lon="12.38841">
        <ele>738.685</ele>
        <time>2011-07-04T11:53:59Z</time>
      </trkpt>
      <trkpt lat="62.344438" lon="12.388273">
        <ele>739.026</ele>
        <time>2011-07-04T11:54:05Z</time>
      </trkpt>
      <trkpt lat="62.344535" lon="12.388135">
        <ele>739.668</ele>
        <time>2011-07-04T11:54:11Z</time>
      </trkpt>
      <trkpt lat="62.344585" lon="12.388011">
        <ele>739.961</ele>
        <time>2011-07-04T11:54:15Z</time>
      </trkpt>
      <trkpt lat="62.344705" lon="12.387772">
        <ele>740.063</ele>
        <time>2011-07-04T11:54:23Z</time>
      </trkpt>
      <trkpt lat="62.34479" lon="12.387634">
        <ele>740.1</ele>
        <time>2011-07-04T11:54:29Z</time>
      </trkpt>
      <trkpt lat="62.344815" lon="12.387612">
        <ele>740.174</ele>
        <time>2011-07-04T11:54:31Z</time>
      </trkpt>
      <trkpt lat="62.344905" lon="12.387517">
        <ele>740.466</ele>
        <time>2011-07-04T11:54:37Z</time>
      </trkpt>
      <trkpt lat="62.344999" lon="12.387418">
        <ele>741.408</ele>
        <time>2011-07-04T11:54:45Z</time>
      </trkpt>
      <trkpt lat="62.345082" lon="12.387312">
        <ele>741.61</ele>
        <time>2011-07-04T11:54:52Z</time>
      </trkpt>
      <trkpt lat="62.345146" lon="12.387161">
        <ele>741.868</ele>
        <time>2011-07-04T11:55:00Z</time>
      </trkpt>
      <trkpt lat="62.345205" lon="12.386999">
        <ele>741.629</ele>
        <time>2011-07-04T11:55:07Z</time>
      </trkpt>
      <trkpt lat="62.34524" lon="12.386775">
        <ele>741.32</ele>
        <time>2011-07-04T11:55:13Z</time>
      </trkpt>
      <trkpt lat="62.345253" lon="12.386675">
        <ele>741.16</ele>
        <time>2011-07-04T11:55:15Z</time>
      </trkpt>
      <trkpt lat="62.345334" lon="12.3865">
        <ele>740.603</ele>
        <time>2011-07-04T11:55:20Z</time>
      </trkpt>
      <trkpt lat="62.34539" lon="12.386294">
        <ele>740.072</ele>
        <time>2011-07-04T11:55:25Z</time>
      </trkpt>
      <trkpt lat="62.345437" lon="12.386005">
        <ele>738.863</ele>
        <time>2011-07-04T11:55:32Z</time>
      </trkpt>
      <trkpt lat="62.345443" lon="12.38598">
        <ele>738.775</ele>
        <time>2011-07-04T11:55:33Z</time>
      </trkpt>
      <trkpt lat="62.345533" lon="12.385787">
        <ele>738.416</ele>
        <time>2011-07-04T11:55:41Z</time>
      </trkpt>
      <trkpt lat="62.345597" lon="12.385644">
        <ele>738.006</ele>
        <time>2011-07-04T11:55:48Z</time>
      </trkpt>
      <trkpt lat="62.345643" lon="12.385547">
        <ele>737.886</ele>
        <time>2011-07-04T11:55:53Z</time>
      </trkpt>
      <trkpt lat="62.345671" lon="12.385357">
        <ele>737.811</ele>
        <time>2011-07-04T11:56:00Z</time>
      </trkpt>
      <trkpt lat="62.34574" lon="12.385129">
        <ele>738.188</ele>
        <time>2011-07-04T11:56:06Z</time>
      </trkpt>
      <trkpt lat="62.345825" lon="12.384863">
        <ele>738.625</ele>
        <time>2011-07-04T11:56:13Z</time>
      </trkpt>
      <trkpt lat="62.345906" lon="12.384671">
        <ele>739.084</ele>
        <time>2011-07-04T11:56:19Z</time>
      </trkpt>
      <trkpt lat="62.345984" lon="12.384409">
        <ele>739.356</ele>
        <time>2011-07-04T11:56:26Z</time>
      </trkpt>
      <trkpt lat="62.34603" lon="12.384229">
        <ele>739.773</ele>
        <time>2011-07-04T11:56:31Z</time>
      </trkpt>
      <trkpt lat="62.346134" lon="12.383928">
        <ele>740.414</ele>
        <time>2011-07-04T11:56:40Z</time>
      </trkpt>
      <trkpt lat="62.346172" lon="12.383693">
        <ele>740.73</ele>
        <time>2011-07-04T11:56:46Z</time>
      </trkpt>
      <trkpt lat="62.346236" lon="12.383573">
        <ele>740.988</ele>
        <time>2011-07-04T11:56:51Z</time>
      </trkpt>
      <trkpt lat="62.346313" lon="12.383331">
        <ele>741.875</ele>
        <time>2011-07-04T11:56:59Z</time>
      </trkpt>
      <trkpt lat="62.346358" lon="12.38315">
        <ele>741.888</ele>
        <time>2011-07-04T11:57:04Z</time>
      </trkpt>
      <trkpt lat="62.346383" lon="12.383021">
        <ele>741.702</ele>
        <time>2011-07-04T11:57:07Z</time>
      </trkpt>
      <trkpt lat="62.346464" lon="12.382825">
        <ele>741.527</ele>
        <time>2011-07-04T11:57:13Z</time>
      </trkpt>
      <trkpt lat="62.346476" lon="12.38278">
        <ele>741.492</ele>
        <time>2011-07-04T11:57:14Z</time>
      </trkpt>
      <trkpt lat="62.346547" lon="12.382502">
        <ele>741.558</ele>
        <time>2011-07-04T11:57:20Z</time>
      </trkpt>
      <trkpt lat="62.346605" lon="12.382225">
        <ele>741.374</ele>
        <time>2011-07-04T11:57:26Z</time>
      </trkpt>
      <trkpt lat="62.346672" lon="12.381993">
        <ele>740.921</ele>
        <time>2011-07-04T11:57:32Z</time>
      </trkpt>
      <trkpt lat="62.346769" lon="12.381802">
        <ele>741.542</ele>
        <time>2011-07-04T11:57:39Z</time>
      </trkpt>
      <trkpt lat="62.346782" lon="12.38176">
        <ele>741.51</ele>
        <time>2011-07-04T11:57:40Z</time>
      </trkpt>
      <trkpt lat="62.346885" lon="12.381576">
        <ele>741.311</ele>
        <time>2011-07-04T11:57:46Z</time>
      </trkpt>
      <trkpt lat="62.346969" lon="12.381436">
        <ele>740.716</ele>
        <time>2011-07-04T11:57:51Z</time>
      </trkpt>
      <trkpt lat="62.347083" lon="12.381227">
        <ele>739.419</ele>
        <time>2011-07-04T11:57:58Z</time>
      </trkpt>
      <trkpt lat="62.34719" lon="12.380993">
        <ele>740.541</ele>
        <time>2011-07-04T11:58:06Z</time>
      </trkpt>
      <trkpt lat="62.347296" lon="12.380758">
        <ele>740.958</ele>
        <time>2011-07-04T11:58:13Z</time>
      </trkpt>
      <trkpt lat="62.347397" lon="12.380605">
        <ele>741.595</ele>
        <time>2011-07-04T11:58:19Z</time>
      </trkpt>
      <trkpt lat="62.347498" lon="12.380379">
        <ele>741.813</ele>
        <time>2011-07-04T11:58:25Z</time>
      </trkpt>
      <trkpt lat="62.347607" lon="12.380187">
        <ele>742.539</ele>
        <time>2011-07-04T11:58:31Z</time>
      </trkpt>
      <trkpt lat="62.34771" lon="12.379988">
        <ele>743.402</ele>
        <time>2011-07-04T11:58:37Z</time>
      </trkpt>
      <trkpt lat="62.347798" lon="12.379831">
        <ele>744.581</ele>
        <time>2011-07-04T11:58:42Z</time>
      </trkpt>
      <trkpt lat="62.347911" lon="12.379641">
        <ele>745.146</ele>
        <time>2011-07-04T11:58:48Z</time>
      </trkpt>
      <trkpt lat="62.34798" lon="12.379501">
        <ele>746.041</ele>
        <time>2011-07-04T11:58:52Z</time>
      </trkpt>
      <trkpt lat="62.348075" lon="12.379406">
        <ele>746.12</ele>
        <time>2011-07-04T11:58:57Z</time>
      </trkpt>
      <trkpt lat="62.348158" lon="12.379293">
        <ele>745.46</ele>
        <time>2011-07-04T11:59:02Z</time>
      </trkpt>
      <trkpt lat="62.348262" lon="12.37919">
        <ele>745.175</ele>
        <time>2011-07-04T11:59:08Z</time>
      </trkpt>
      <trkpt lat="62.348332" lon="12.379062">
        <ele>744.566</ele>
        <time>2011-07-04T11:59:12Z</time>
      </trkpt>
      <trkpt lat="62.348389" lon="12.378977">
        <ele>744.381</ele>
        <time>2011-07-04T11:59:15Z</time>
      </trkpt>
      <trkpt lat="62.348519" lon="12.378824">
        <ele>743.971</ele>
        <time>2011-07-04T11:59:21Z</time>
      </trkpt>
      <trkpt lat="62.348575" lon="12.378734">
        <ele>743.919</ele>
        <time>2011-07-04T11:59:24Z</time>
      </trkpt>
      <trkpt lat="62.348703" lon="12.378577">
        <ele>743.578</ele>
        <time>2011-07-04T11:59:31Z</time>
      </trkpt>
      <trkpt lat="62.348792" lon="12.378432">
        <ele>743.644</ele>
        <time>2011-07-04T11:59:36Z</time>
      </trkpt>
      <trkpt lat="62.34885" lon="12.37826">
        <ele>744.809</ele>
        <time>2011-07-04T11:59:41Z</time>
      </trkpt>
      <trkpt lat="62.348863" lon="12.378225">
        <ele>745.177</ele>
        <time>2011-07-04T11:59:42Z</time>
      </trkpt>
      <trkpt lat="62.348897" lon="12.378165">
        <ele>745.586</ele>
        <time>2011-07-04T11:59:44Z</time>
      </trkpt>
      <trkpt lat="62.348982" lon="12.377949">
        <ele>746.917</ele>
        <time>2011-07-04T11:59:51Z</time>
      </trkpt>
      <trkpt lat="62.348989" lon="12.377861">
        <ele>747.016</ele>
        <time>2011-07-04T11:59:53Z</time>
      </trkpt>
      <trkpt lat="62.349062" lon="12.377707">
        <ele>747.451</ele>
        <time>2011-07-04T11:59:58Z</time>
      </trkpt>
      <trkpt lat="62.349093" lon="12.377532">
        <ele>747.459</ele>
        <time>2011-07-04T12:00:02Z</time>
      </trkpt>
      <trkpt lat="62.349129" lon="12.377422">
        <ele>747.441</ele>
        <time>2011-07-04T12:00:05Z</time>
      </trkpt>
      <trkpt lat="62.34922" lon="12.377155">
        <ele>747.693</ele>
        <time>2011-07-04T12:00:12Z</time>
      </trkpt>
      <trkpt lat="62.349295" lon="12.376933">
        <ele>747.685</ele>
        <time>2011-07-04T12:00:18Z</time>
      </trkpt>
      <trkpt lat="62.349366" lon="12.376731">
        <ele>747.696</ele>
        <time>2011-07-04T12:00:23Z</time>
      </trkpt>
      <trkpt lat="62.349401" lon="12.376658">
        <ele>747.599</ele>
        <time>2011-07-04T12:00:25Z</time>
      </trkpt>
      <trkpt lat="62.349511" lon="12.376452">
        <ele>747.675</ele>
        <time>2011-07-04T12:00:32Z</time>
      </trkpt>
      <trkpt lat="62.349539" lon="12.376379">
        <ele>747.713</ele>
        <time>2011-07-04T12:00:34Z</time>
      </trkpt>
      <trkpt lat="62.349555" lon="12.376318">
        <ele>747.651</ele>
        <time>2011-07-04T12:00:36Z</time>
      </trkpt>
      <trkpt lat="62.349608" lon="12.376216">
        <ele>747.772</ele>
        <time>2011-07-04T12:00:41Z</time>
      </trkpt>
      <trkpt lat="62.349659" lon="12.376191">
        <ele>747.79</ele>
        <time>2011-07-04T12:00:44Z</time>
      </trkpt>
      <trkpt lat="62.349738" lon="12.376077">
        <ele>747.706</ele>
        <time>2011-07-04T12:00:49Z</time>
      </trkpt>
      <trkpt lat="62.349826" lon="12.375925">
        <ele>747.208</ele>
        <time>2011-07-04T12:00:55Z</time>
      </trkpt>
      <trkpt lat="62.34986" lon="12.375822">
        <ele>747.339</ele>
        <time>2011-07-04T12:00:58Z</time>
      </trkpt>
      <trkpt lat="62.349913" lon="12.375699">
        <ele>747.83</ele>
        <time>2011-07-04T12:01:03Z</time>
      </trkpt>
      <trkpt lat="62.349968" lon="12.37552">
        <ele>747.674</ele>
        <time>2011-07-04T12:01:08Z</time>
      </trkpt>
      <trkpt lat="62.35003" lon="12.375411">
        <ele>747.552</ele>
        <time>2011-07-04T12:01:13Z</time>
      </trkpt>
      <trkpt lat="62.350085" lon="12.37522">
        <ele>747.247</ele>
        <time>2011-07-04T12:01:18Z</time>
      </trkpt>
      <trkpt lat="62.350142" lon="12.375124">
        <ele>747.024</ele>
        <time>2011-07-04T12:01:22Z</time>
      </trkpt>
      <trkpt lat="62.350211" lon="12.37502">
        <ele>747.264</ele>
        <time>2011-07-04T12:01:27Z</time>
      </trkpt>
      <trkpt lat="62.350273" lon="12.3749">
        <ele>747.257</ele>
        <time>2011-07-04T12:01:31Z</time>
      </trkpt>
      <trkpt lat="62.350303" lon="12.374826">
        <ele>746.984</ele>
        <time>2011-07-04T12:01:33Z</time>
      </trkpt>
      <trkpt lat="62.350388" lon="12.374618">
        <ele>746.518</ele>
        <time>2011-07-04T12:01:39Z</time>
      </trkpt>
      <trkpt lat="62.350466" lon="12.374493">
        <ele>746.124</ele>
        <time>2011-07-04T12:01:43Z</time>
      </trkpt>
      <trkpt lat="62.350598" lon="12.374299">
        <ele>745.504</ele>
        <time>2011-07-04T12:01:50Z</time>
      </trkpt>
      <trkpt lat="62.350673" lon="12.374188">
        <ele>745.519</ele>
        <time>2011-07-04T12:01:55Z</time>
      </trkpt>
      <trkpt lat="62.350748" lon="12.374065">
        <ele>745.361</ele>
        <time>2011-07-04T12:02:00Z</time>
      </trkpt>
      <trkpt lat="62.350833" lon="12.373944">
        <ele>745.186</ele>
        <time>2011-07-04T12:02:05Z</time>
      </trkpt>
      <trkpt lat="62.350886" lon="12.373842">
        <ele>745.018</ele>
        <time>2011-07-04T12:02:08Z</time>
      </trkpt>
      <trkpt lat="62.35094" lon="12.373708">
        <ele>744.313</ele>
        <time>2011-07-04T12:02:12Z</time>
      </trkpt>
      <trkpt lat="62.350977" lon="12.373617">
        <ele>743.273</ele>
        <time>2011-07-04T12:02:15Z</time>
      </trkpt>
      <trkpt lat="62.351052" lon="12.373534">
        <ele>742.145</ele>
        <time>2011-07-04T12:02:21Z</time>
      </trkpt>
      <trkpt lat="62.351125" lon="12.373427">
        <ele>741.355</ele>
        <time>2011-07-04T12:02:27Z</time>
      </trkpt>
      <trkpt lat="62.351158" lon="12.373383">
        <ele>741.144</ele>
        <time>2011-07-04T12:02:29Z</time>
      </trkpt>
      <trkpt lat="62.351274" lon="12.373226">
        <ele>740.773</ele>
        <time>2011-07-04T12:02:35Z</time>
      </trkpt>
      <trkpt lat="62.351368" lon="12.373055">
        <ele>740.702</ele>
        <time>2011-07-04T12:02:40Z</time>
      </trkpt>
      <trkpt lat="62.35141" lon="12.372964">
        <ele>740.753</ele>
        <time>2011-07-04T12:02:43Z</time>
      </trkpt>
      <trkpt lat="62.351418" lon="12.372901">
        <ele>740.739</ele>
        <time>2011-07-04T12:02:45Z</time>
      </trkpt>
      <trkpt lat="62.351482" lon="12.372718">
        <ele>740.4</ele>
        <time>2011-07-04T12:02:52Z</time>
      </trkpt>
      <trkpt lat="62.351546" lon="12.372567">
        <ele>740.263</ele>
        <time>2011-07-04T12:02:59Z</time>
      </trkpt>
      <trkpt lat="62.35162" lon="12.372442">
        <ele>740.221</ele>
        <time>2011-07-04T12:03:28Z</time>
      </trkpt>
      <trkpt lat="62.351668" lon="12.372346">
        <ele>740.854</ele>
        <time>2011-07-04T12:03:34Z</time>
      </trkpt>
      <trkpt lat="62.351703" lon="12.372284">
        <ele>741.148</ele>
        <time>2011-07-04T12:03:38Z</time>
      </trkpt>
      <trkpt lat="62.351786" lon="12.372195">
        <ele>741.51</ele>
        <time>2011-07-04T12:03:46Z</time>
      </trkpt>
      <trkpt lat="62.351829" lon="12.372182">
        <ele>741.25</ele>
        <time>2011-07-04T12:03:49Z</time>
      </trkpt>
      <trkpt lat="62.351899" lon="12.372127">
        <ele>740.922</ele>
        <time>2011-07-04T12:03:55Z</time>
      </trkpt>
      <trkpt lat="62.351999" lon="12.372053">
        <ele>740.943</ele>
        <time>2011-07-04T12:04:04Z</time>
      </trkpt>
      <trkpt lat="62.352068" lon="12.372077">
        <ele>741.4</ele>
        <time>2011-07-04T12:04:11Z</time>
      </trkpt>
      <trkpt lat="62.352152" lon="12.372089">
        <ele>743.313</ele>
        <time>2011-07-04T12:04:19Z</time>
      </trkpt>
      <trkpt lat="62.352237" lon="12.372056">
        <ele>744.894</ele>
        <time>2011-07-04T12:04:26Z</time>
      </trkpt>
      <trkpt lat="62.352321" lon="12.372003">
        <ele>745.833</ele>
        <time>2011-07-04T12:04:33Z</time>
      </trkpt>
      <trkpt lat="62.352394" lon="12.371936">
        <ele>746.877</ele>
        <time>2011-07-04T12:04:40Z</time>
      </trkpt>
      <trkpt lat="62.35247" lon="12.371891">
        <ele>747.446</ele>
        <time>2011-07-04T12:04:47Z</time>
      </trkpt>
      <trkpt lat="62.352528" lon="12.371689">
        <ele>747.96</ele>
        <time>2011-07-04T12:04:56Z</time>
      </trkpt>
      <trkpt lat="62.352559" lon="12.371624">
        <ele>748.494</ele>
        <time>2011-07-04T12:05:00Z</time>
      </trkpt>
      <trkpt lat="62.352579" lon="12.3716">
        <ele>748.479</ele>
        <time>2011-07-04T12:05:02Z</time>
      </trkpt>
      <trkpt lat="62.352603" lon="12.37148">
        <ele>748.133</ele>
        <time>2011-07-04T12:05:07Z</time>
      </trkpt>
      <trkpt lat="62.352632" lon="12.371265">
        <ele>747.665</ele>
        <time>2011-07-04T12:05:15Z</time>
      </trkpt>
      <trkpt lat="62.352663" lon="12.37114">
        <ele>747.368</ele>
        <time>2011-07-04T12:05:20Z</time>
      </trkpt>
      <trkpt lat="62.352667" lon="12.371115">
        <ele>747.185</ele>
        <time>2011-07-04T12:05:21Z</time>
      </trkpt>
      <trkpt lat="62.35272" lon="12.370922">
        <ele>746.222</ele>
        <time>2011-07-04T12:05:26Z</time>
      </trkpt>
      <trkpt lat="62.352788" lon="12.370792">
        <ele>745.753</ele>
        <time>2011-07-04T12:05:30Z</time>
      </trkpt>
      <trkpt lat="62.352832" lon="12.370696">
        <ele>745.026</ele>
        <time>2011-07-04T12:05:33Z</time>
      </trkpt>
      <trkpt lat="62.352858" lon="12.370631">
        <ele>744.784</ele>
        <time>2011-07-04T12:05:36Z</time>
      </trkpt>
      <trkpt lat="62.352942" lon="12.370457">
        <ele>743.599</ele>
        <time>2011-07-04T12:05:44Z</time>
      </trkpt>
      <trkpt lat="62.352997" lon="12.370323">
        <ele>743.085</ele>
        <time>2011-07-04T12:05:49Z</time>
      </trkpt>
      <trkpt lat="62.353031" lon="12.370235">
        <ele>742.948</ele>
        <time>2011-07-04T12:05:53Z</time>
      </trkpt>
      <trkpt lat="62.35306" lon="12.370044">
        <ele>742.061</ele>
        <time>2011-07-04T12:06:00Z</time>
      </trkpt>
      <trkpt lat="62.353102" lon="12.369949">
        <ele>741.482</ele>
        <time>2011-07-04T12:06:04Z</time>
      </trkpt>
      <trkpt lat="62.353143" lon="12.369758">
        <ele>741.582</ele>
        <time>2011-07-04T12:06:11Z</time>
      </trkpt>
      <trkpt lat="62.353195" lon="12.369638">
        <ele>742.227</ele>
        <time>2011-07-04T12:06:16Z</time>
      </trkpt>
      <trkpt lat="62.353259" lon="12.36945">
        <ele>742.116</ele>
        <time>2011-07-04T12:06:23Z</time>
      </trkpt>
      <trkpt lat="62.353317" lon="12.369304">
        <ele>741.758</ele>
        <time>2011-07-04T12:06:29Z</time>
      </trkpt>
      <trkpt lat="62.353378" lon="12.369118">
        <ele>742.599</ele>
        <time>2011-07-04T12:06:38Z</time>
      </trkpt>
      <trkpt lat="62.353426" lon="12.368919">
        <ele>743.411</ele>
        <time>2011-07-04T12:06:44Z</time>
      </trkpt>
      <trkpt lat="62.353436" lon="12.368886">
        <ele>743.646</ele>
        <time>2011-07-04T12:06:45Z</time>
      </trkpt>
      <trkpt lat="62.353458" lon="12.368706">
        <ele>744.383</ele>
        <time>2011-07-04T12:06:49Z</time>
      </trkpt>
      <trkpt lat="62.353487" lon="12.368371">
        <ele>745.076</ele>
        <time>2011-07-04T12:06:56Z</time>
      </trkpt>
      <trkpt lat="62.353504" lon="12.368155">
        <ele>745.968</ele>
        <time>2011-07-04T12:07:01Z</time>
      </trkpt>
      <trkpt lat="62.35352" lon="12.367935">
        <ele>746.417</ele>
        <time>2011-07-04T12:07:07Z</time>
      </trkpt>
      <trkpt lat="62.35354" lon="12.367801">
        <ele>747.406</ele>
        <time>2011-07-04T12:07:12Z</time>
      </trkpt>
      <trkpt lat="62.353548" lon="12.367635">
        <ele>747.33</ele>
        <time>2011-07-04T12:07:18Z</time>
      </trkpt>
      <trkpt lat="62.353557" lon="12.367505">
        <ele>747.028</ele>
        <time>2011-07-04T12:07:21Z</time>
      </trkpt>
      <trkpt lat="62.353567" lon="12.367231">
        <ele>747.194</ele>
        <time>2011-07-04T12:07:27Z</time>
      </trkpt>
      <trkpt lat="62.35361" lon="12.36707">
        <ele>747.345</ele>
        <time>2011-07-04T12:07:31Z</time>
      </trkpt>
      <trkpt lat="62.353648" lon="12.366893">
        <ele>748.027</ele>
        <time>2011-07-04T12:07:35Z</time>
      </trkpt>
      <trkpt lat="62.353717" lon="12.366671">
        <ele>749.106</ele>
        <time>2011-07-04T12:07:41Z</time>
      </trkpt>
      <trkpt lat="62.353798" lon="12.366377">
        <ele>749.054</ele>
        <time>2011-07-04T12:07:48Z</time>
      </trkpt>
      <trkpt lat="62.353836" lon="12.366159">
        <ele>749.432</ele>
        <time>2011-07-04T12:07:53Z</time>
      </trkpt>
      <trkpt lat="62.353839" lon="12.365889">
        <ele>748.831</ele>
        <time>2011-07-04T12:07:59Z</time>
      </trkpt>
      <trkpt lat="62.353835" lon="12.36585">
        <ele>748.798</ele>
        <time>2011-07-04T12:08:00Z</time>
      </trkpt>
      <trkpt lat="62.353844" lon="12.365616">
        <ele>748.393</ele>
        <time>2011-07-04T12:08:06Z</time>
      </trkpt>
      <trkpt lat="62.353849" lon="12.365445">
        <ele>747.961</ele>
        <time>2011-07-04T12:08:12Z</time>
      </trkpt>
      <trkpt lat="62.35385" lon="12.365416">
        <ele>747.863</ele>
        <time>2011-07-04T12:08:13Z</time>
      </trkpt>
      <trkpt lat="62.353874" lon="12.365263">
        <ele>747.536</ele>
        <time>2011-07-04T12:08:19Z</time>
      </trkpt>
      <trkpt lat="62.353843" lon="12.365077">
        <ele>747.163</ele>
        <time>2011-07-04T12:08:26Z</time>
      </trkpt>
      <trkpt lat="62.353846" lon="12.365041">
        <ele>747.169</ele>
        <time>2011-07-04T12:08:28Z</time>
      </trkpt>
      <trkpt lat="62.353862" lon="12.364948">
        <ele>747.279</ele>
        <time>2011-07-04T12:08:33Z</time>
      </trkpt>
      <trkpt lat="62.353848" lon="12.364781">
        <ele>747.605</ele>
        <time>2011-07-04T12:08:41Z</time>
      </trkpt>
      <trkpt lat="62.353848" lon="12.364742">
        <ele>747.807</ele>
        <time>2011-07-04T12:08:43Z</time>
      </trkpt>
      <trkpt lat="62.353863" lon="12.364592">
        <ele>748.33</ele>
        <time>2011-07-04T12:08:50Z</time>
      </trkpt>
      <trkpt lat="62.353867" lon="12.364556">
        <ele>748.381</ele>
        <time>2011-07-04T12:08:51Z</time>
      </trkpt>
      <trkpt lat="62.353914" lon="12.364442">
        <ele>748.698</ele>
        <time>2011-07-04T12:08:57Z</time>
      </trkpt>
      <trkpt lat="62.353953" lon="12.364283">
        <ele>748.982</ele>
        <time>2011-07-04T12:09:04Z</time>
      </trkpt>
      <trkpt lat="62.353978" lon="12.364194">
        <ele>749.198</ele>
        <time>2011-07-04T12:09:08Z</time>
      </trkpt>
      <trkpt lat="62.354023" lon="12.364012">
        <ele>749.685</ele>
        <time>2011-07-04T12:09:16Z</time>
      </trkpt>
      <trkpt lat="62.354088" lon="12.363834">
        <ele>749.19</ele>
        <time>2011-07-04T12:09:24Z</time>
      </trkpt>
      <trkpt lat="62.354098" lon="12.363819">
        <ele>749.165</ele>
        <time>2011-07-04T12:09:25Z</time>
      </trkpt>
      <trkpt lat="62.354138" lon="12.363625">
        <ele>749.014</ele>
        <time>2011-07-04T12:09:32Z</time>
      </trkpt>
      <trkpt lat="62.354154" lon="12.363533">
        <ele>749.239</ele>
        <time>2011-07-04T12:09:35Z</time>
      </trkpt>
      <trkpt lat="62.354228" lon="12.36344">
        <ele>749.527</ele>
        <time>2011-07-04T12:09:41Z</time>
      </trkpt>
      <trkpt lat="62.354311" lon="12.363323">
        <ele>749.365</ele>
        <time>2011-07-04T12:09:49Z</time>
      </trkpt>
      <trkpt lat="62.354379" lon="12.36322">
        <ele>750.913</ele>
        <time>2011-07-04T12:09:56Z</time>
      </trkpt>
      <trkpt lat="62.354387" lon="12.363199">
        <ele>750.979</ele>
        <time>2011-07-04T12:09:57Z</time>
      </trkpt>
      <trkpt lat="62.354431" lon="12.363049">
        <ele>748.25</ele>
        <time>2011-07-04T12:10:02Z</time>
      </trkpt>
      <trkpt lat="62.354485" lon="12.362886">
        <ele>746.679</ele>
        <time>2011-07-04T12:10:09Z</time>
      </trkpt>
      <trkpt lat="62.35453" lon="12.362726">
        <ele>745.512</ele>
        <time>2011-07-04T12:10:15Z</time>
      </trkpt>
      <trkpt lat="62.354534" lon="12.362618">
        <ele>744.98</ele>
        <time>2011-07-04T12:10:19Z</time>
      </trkpt>
      <trkpt lat="62.354557" lon="12.362411">
        <ele>744.995</ele>
        <time>2011-07-04T12:10:26Z</time>
      </trkpt>
      <trkpt lat="62.354548" lon="12.362228">
        <ele>745.115</ele>
        <time>2011-07-04T12:10:32Z</time>
      </trkpt>
      <trkpt lat="62.354561" lon="12.362086">
        <ele>744.506</ele>
        <time>2011-07-04T12:10:37Z</time>
      </trkpt>
      <trkpt lat="62.354576" lon="12.362">
        <ele>743.674</ele>
        <time>2011-07-04T12:10:41Z</time>
      </trkpt>
      <trkpt lat="62.354587" lon="12.361916">
        <ele>743.131</ele>
        <time>2011-07-04T12:10:46Z</time>
      </trkpt>
      <trkpt lat="62.354618" lon="12.361776">
        <ele>742.899</ele>
        <time>2011-07-04T12:10:52Z</time>
      </trkpt>
      <trkpt lat="62.354643" lon="12.361631">
        <ele>743.706</ele>
        <time>2011-07-04T12:10:58Z</time>
      </trkpt>
      <trkpt lat="62.354686" lon="12.361461">
        <ele>743.749</ele>
        <time>2011-07-04T12:11:05Z</time>
      </trkpt>
      <trkpt lat="62.354715" lon="12.361284">
        <ele>742.999</ele>
        <time>2011-07-04T12:11:12Z</time>
      </trkpt>
      <trkpt lat="62.354715" lon="12.361185">
        <ele>742.512</ele>
        <time>2011-07-04T12:11:15Z</time>
      </trkpt>
      <trkpt lat="62.354731" lon="12.36111">
        <ele>742.077</ele>
        <time>2011-07-04T12:11:20Z</time>
      </trkpt>
      <trkpt lat="62.354742" lon="12.361084">
        <ele>741.764</ele>
        <time>2011-07-04T12:11:22Z</time>
      </trkpt>
      <trkpt lat="62.354764" lon="12.361024">
        <ele>741.099</ele>
        <time>2011-07-04T12:11:25Z</time>
      </trkpt>
      <trkpt lat="62.35478" lon="12.360953">
        <ele>740.528</ele>
        <time>2011-07-04T12:11:29Z</time>
      </trkpt>
      <trkpt lat="62.354797" lon="12.360919">
        <ele>740.003</ele>
        <time>2011-07-04T12:11:32Z</time>
      </trkpt>
      <trkpt lat="62.35481" lon="12.360836">
        <ele>738.996</ele>
        <time>2011-07-04T12:11:38Z</time>
      </trkpt>
      <trkpt lat="62.354823" lon="12.360708">
        <ele>738.831</ele>
        <time>2011-07-04T12:11:44Z</time>
      </trkpt>
      <trkpt lat="62.354824" lon="12.360688">
        <ele>738.937</ele>
        <time>2011-07-04T12:11:45Z</time>
      </trkpt>
      <trkpt lat="62.354866" lon="12.360545">
        <ele>739.652</ele>
        <time>2011-07-04T12:11:52Z</time>
      </trkpt>
      <trkpt lat="62.354878" lon="12.360354">
        <ele>739.969</ele>
        <time>2011-07-04T12:11:59Z</time>
      </trkpt>
      <trkpt lat="62.354898" lon="12.360197">
        <ele>740.369</ele>
        <time>2011-07-04T12:12:05Z</time>
      </trkpt>
      <trkpt lat="62.354927" lon="12.35999">
        <ele>740.686</ele>
        <time>2011-07-04T12:12:12Z</time>
      </trkpt>
      <trkpt lat="62.354955" lon="12.359825">
        <ele>740.996</ele>
        <time>2011-07-04T12:12:18Z</time>
      </trkpt>
      <trkpt lat="62.354958" lon="12.359772">
        <ele>741.166</ele>
        <time>2011-07-04T12:12:20Z</time>
      </trkpt>
      <trkpt lat="62.35497" lon="12.359606">
        <ele>741.724</ele>
        <time>2011-07-04T12:12:27Z</time>
      </trkpt>
      <trkpt lat="62.354993" lon="12.359417">
        <ele>742.016</ele>
        <time>2011-07-04T12:12:33Z</time>
      </trkpt>
      <trkpt lat="62.355018" lon="12.359232">
        <ele>740.878</ele>
        <time>2011-07-04T12:12:41Z</time>
      </trkpt>
      <trkpt lat="62.355042" lon="12.359116">
        <ele>740.109</ele>
        <time>2011-07-04T12:12:46Z</time>
      </trkpt>
      <trkpt lat="62.355047" lon="12.35905">
        <ele>740.009</ele>
        <time>2011-07-04T12:12:49Z</time>
      </trkpt>
      <trkpt lat="62.355072" lon="12.358902">
        <ele>739.626</ele>
        <time>2011-07-04T12:12:57Z</time>
      </trkpt>
      <trkpt lat="62.355108" lon="12.358772">
        <ele>739.369</ele>
        <time>2011-07-04T12:13:03Z</time>
      </trkpt>
      <trkpt lat="62.355126" lon="12.358651">
        <ele>738.852</ele>
        <time>2011-07-04T12:13:07Z</time>
      </trkpt>
      <trkpt lat="62.355185" lon="12.358427">
        <ele>737.71</ele>
        <time>2011-07-04T12:13:15Z</time>
      </trkpt>
      <trkpt lat="62.355204" lon="12.35831">
        <ele>737.231</ele>
        <time>2011-07-04T12:13:21Z</time>
      </trkpt>
      <trkpt lat="62.35523" lon="12.358197">
        <ele>738.132</ele>
        <time>2011-07-04T12:13:27Z</time>
      </trkpt>
      <trkpt lat="62.35527" lon="12.358091">
        <ele>739.329</ele>
        <time>2011-07-04T12:13:33Z</time>
      </trkpt>
      <trkpt lat="62.355302" lon="12.358044">
        <ele>739.762</ele>
        <time>2011-07-04T12:13:36Z</time>
      </trkpt>
      <trkpt lat="62.355362" lon="12.357892">
        <ele>740.497</ele>
        <time>2011-07-04T12:13:43Z</time>
      </trkpt>
      <trkpt lat="62.355403" lon="12.357778">
        <ele>740.656</ele>
        <time>2011-07-04T12:13:48Z</time>
      </trkpt>
      <trkpt lat="62.355436" lon="12.357639">
        <ele>740.913</ele>
        <time>2011-07-04T12:13:52Z</time>
      </trkpt>
      <trkpt lat="62.355425" lon="12.357489">
        <ele>740.802</ele>
        <time>2011-07-04T12:13:58Z</time>
      </trkpt>
      <trkpt lat="62.355416" lon="12.357376">
        <ele>740.207</ele>
        <time>2011-07-04T12:14:02Z</time>
      </trkpt>
      <trkpt lat="62.355442" lon="12.357153">
        <ele>740.68</ele>
        <time>2011-07-04T12:14:10Z</time>
      </trkpt>
      <trkpt lat="62.355441" lon="12.357057">
        <ele>741.387</ele>
        <time>2011-07-04T12:14:14Z</time>
      </trkpt>
      <trkpt lat="62.355452" lon="12.356897">
        <ele>742.088</ele>
        <time>2011-07-04T12:14:21Z</time>
      </trkpt>
      <trkpt lat="62.355455" lon="12.356863">
        <ele>742.116</ele>
        <time>2011-07-04T12:14:22Z</time>
      </trkpt>
      <trkpt lat="62.355461" lon="12.35665">
        <ele>741.33</ele>
        <time>2011-07-04T12:14:30Z</time>
      </trkpt>
      <trkpt lat="62.355472" lon="12.35648">
        <ele>739.979</ele>
        <time>2011-07-04T12:14:36Z</time>
      </trkpt>
      <trkpt lat="62.355495" lon="12.356246">
        <ele>738.978</ele>
        <time>2011-07-04T12:14:44Z</time>
      </trkpt>
      <trkpt lat="62.355528" lon="12.356029">
        <ele>738.863</ele>
        <time>2011-07-04T12:14:52Z</time>
      </trkpt>
      <trkpt lat="62.355526" lon="12.356008">
        <ele>738.786</ele>
        <time>2011-07-04T12:14:53Z</time>
      </trkpt>
      <trkpt lat="62.355523" lon="12.355907">
        <ele>738.309</ele>
        <time>2011-07-04T12:14:57Z</time>
      </trkpt>
      <trkpt lat="62.355492" lon="12.355756">
        <ele>737.617</ele>
        <time>2011-07-04T12:15:03Z</time>
      </trkpt>
      <trkpt lat="62.355496" lon="12.355575">
        <ele>736.916</ele>
        <time>2011-07-04T12:15:10Z</time>
      </trkpt>
      <trkpt lat="62.35551" lon="12.355491">
        <ele>736.644</ele>
        <time>2011-07-04T12:15:13Z</time>
      </trkpt>
      <trkpt lat="62.355519" lon="12.355341">
        <ele>736.692</ele>
        <time>2011-07-04T12:15:18Z</time>
      </trkpt>
      <trkpt lat="62.355518" lon="12.355203">
        <ele>736.649</ele>
        <time>2011-07-04T12:15:22Z</time>
      </trkpt>
      <trkpt lat="62.355526" lon="12.355093">
        <ele>736.596</ele>
        <time>2011-07-04T12:15:26Z</time>
      </trkpt>
      <trkpt lat="62.355508" lon="12.354914">
        <ele>737.087</ele>
        <time>2011-07-04T12:15:33Z</time>
      </trkpt>
      <trkpt lat="62.355511" lon="12.354837">
        <ele>737.18</ele>
        <time>2011-07-04T12:15:36Z</time>
      </trkpt>
      <trkpt lat="62.355507" lon="12.354785">
        <ele>737.25</ele>
        <time>2011-07-04T12:15:38Z</time>
      </trkpt>
      <trkpt lat="62.355483" lon="12.35468">
        <ele>737.082</ele>
        <time>2011-07-04T12:15:44Z</time>
      </trkpt>
      <trkpt lat="62.355467" lon="12.354587">
        <ele>736.84</ele>
        <time>2011-07-04T12:15:48Z</time>
      </trkpt>
      <trkpt lat="62.355457" lon="12.35443">
        <ele>736.654</ele>
        <time>2011-07-04T12:15:54Z</time>
      </trkpt>
      <trkpt lat="62.355458" lon="12.354291">
        <ele>736.168</ele>
        <time>2011-07-04T12:16:01Z</time>
      </trkpt>
      <trkpt lat="62.355436" lon="12.354193">
        <ele>735.462</ele>
        <time>2011-07-04T12:16:07Z</time>
      </trkpt>
      <trkpt lat="62.355425" lon="12.354124">
        <ele>735.292</ele>
        <time>2011-07-04T12:16:11Z</time>
      </trkpt>
      <trkpt lat="62.35541" lon="12.354063">
        <ele>735.137</ele>
        <time>2011-07-04T12:16:14Z</time>
      </trkpt>
      <trkpt lat="62.355388" lon="12.354023">
        <ele>734.986</ele>
        <time>2011-07-04T12:16:16Z</time>
      </trkpt>
      <trkpt lat="62.355393" lon="12.35387">
        <ele>733.921</ele>
        <time>2011-07-04T12:16:23Z</time>
      </trkpt>
      <trkpt lat="62.3554" lon="12.353734">
        <ele>732.951</ele>
        <time>2011-07-04T12:16:30Z</time>
      </trkpt>
      <trkpt lat="62.355394" lon="12.353693">
        <ele>732.71</ele>
        <time>2011-07-04T12:16:32Z</time>
      </trkpt>
      <trkpt lat="62.355398" lon="12.353611">
        <ele>732.08</ele>
        <time>2011-07-04T12:16:37Z</time>
      </trkpt>
      <trkpt lat="62.355395" lon="12.353527">
        <ele>732.079</ele>
        <time>2011-07-04T12:16:40Z</time>
      </trkpt>
      <trkpt lat="62.355412" lon="12.353451">
        <ele>732.379</ele>
        <time>2011-07-04T12:16:44Z</time>
      </trkpt>
      <trkpt lat="62.355417" lon="12.353332">
        <ele>732.505</ele>
        <time>2011-07-04T12:16:51Z</time>
      </trkpt>
      <trkpt lat="62.355412" lon="12.353189">
        <ele>732.29</ele>
        <time>2011-07-04T12:16:57Z</time>
      </trkpt>
      <trkpt lat="62.355406" lon="12.353112">
        <ele>732.458</ele>
        <time>2011-07-04T12:17:00Z</time>
      </trkpt>
      <trkpt lat="62.355408" lon="12.353004">
        <ele>733.012</ele>
        <time>2011-07-04T12:17:05Z</time>
      </trkpt>
      <trkpt lat="62.355412" lon="12.352794">
        <ele>732.719</ele>
        <time>2011-07-04T12:17:13Z</time>
      </trkpt>
      <trkpt lat="62.355414" lon="12.352774">
        <ele>732.624</ele>
        <time>2011-07-04T12:17:14Z</time>
      </trkpt>
      <trkpt lat="62.355422" lon="12.352676">
        <ele>732.363</ele>
        <time>2011-07-04T12:17:18Z</time>
      </trkpt>
      <trkpt lat="62.355439" lon="12.352623">
        <ele>732.147</ele>
        <time>2011-07-04T12:17:21Z</time>
      </trkpt>
      <trkpt lat="62.355472" lon="12.352466">
        <ele>731.883</ele>
        <time>2011-07-04T12:17:28Z</time>
      </trkpt>
      <trkpt lat="62.355489" lon="12.352368">
        <ele>731.939</ele>
        <time>2011-07-04T12:17:33Z</time>
      </trkpt>
      <trkpt lat="62.35553" lon="12.35223">
        <ele>732.371</ele>
        <time>2011-07-04T12:17:40Z</time>
      </trkpt>
      <trkpt lat="62.355548" lon="12.352111">
        <ele>732.726</ele>
        <time>2011-07-04T12:17:45Z</time>
      </trkpt>
      <trkpt lat="62.355586" lon="12.351963">
        <ele>732.854</ele>
        <time>2011-07-04T12:17:52Z</time>
      </trkpt>
      <trkpt lat="62.355622" lon="12.351813">
        <ele>733.035</ele>
        <time>2011-07-04T12:17:59Z</time>
      </trkpt>
      <trkpt lat="62.355639" lon="12.351713">
        <ele>733.173</ele>
        <time>2011-07-04T12:18:04Z</time>
      </trkpt>
      <trkpt lat="62.355636" lon="12.351677">
        <ele>733.35</ele>
        <time>2011-07-04T12:18:06Z</time>
      </trkpt>
      <trkpt lat="62.355652" lon="12.351488">
        <ele>732.955</ele>
        <time>2011-07-04T12:18:13Z</time>
      </trkpt>
      <trkpt lat="62.355654" lon="12.351454">
        <ele>732.91</ele>
        <time>2011-07-04T12:18:14Z</time>
      </trkpt>
      <trkpt lat="62.355666" lon="12.351407">
        <ele>732.913</ele>
        <time>2011-07-04T12:18:16Z</time>
      </trkpt>
      <trkpt lat="62.355688" lon="12.351258">
        <ele>732.634</ele>
        <time>2011-07-04T12:18:22Z</time>
      </trkpt>
      <trkpt lat="62.355694" lon="12.351186">
        <ele>732.477</ele>
        <time>2011-07-04T12:18:25Z</time>
      </trkpt>
      <trkpt lat="62.355687" lon="12.351142">
        <ele>732.277</ele>
        <time>2011-07-04T12:18:27Z</time>
      </trkpt>
      <trkpt lat="62.355707" lon="12.35102">
        <ele>731.978</ele>
        <time>2011-07-04T12:18:32Z</time>
      </trkpt>
      <trkpt lat="62.355709" lon="12.350829">
        <ele>731.36</ele>
        <time>2011-07-04T12:18:39Z</time>
      </trkpt>
      <trkpt lat="62.355739" lon="12.350651">
        <ele>731.506</ele>
        <time>2011-07-04T12:18:46Z</time>
      </trkpt>
      <trkpt lat="62.355756" lon="12.350514">
        <ele>731.649</ele>
        <time>2011-07-04T12:18:52Z</time>
      </trkpt>
      <trkpt lat="62.355781" lon="12.350411">
        <ele>731.405</ele>
        <time>2011-07-04T12:18:57Z</time>
      </trkpt>
      <trkpt lat="62.355789" lon="12.350345">
        <ele>731.442</ele>
        <time>2011-07-04T12:19:00Z</time>
      </trkpt>
      <trkpt lat="62.355812" lon="12.350208">
        <ele>731.543</ele>
        <time>2011-07-04T12:19:06Z</time>
      </trkpt>
      <trkpt lat="62.35582" lon="12.350171">
        <ele>731.797</ele>
        <time>2011-07-04T12:19:08Z</time>
      </trkpt>
      <trkpt lat="62.355869" lon="12.350015">
        <ele>732.342</ele>
        <time>2011-07-04T12:19:15Z</time>
      </trkpt>
      <trkpt lat="62.355881" lon="12.34995">
        <ele>732.542</ele>
        <time>2011-07-04T12:19:18Z</time>
      </trkpt>
      <trkpt lat="62.355898" lon="12.349919">
        <ele>732.799</ele>
        <time>2011-07-04T12:19:20Z</time>
      </trkpt>
      <trkpt lat="62.355924" lon="12.349865">
        <ele>733.295</ele>
        <time>2011-07-04T12:19:23Z</time>
      </trkpt>
      <trkpt lat="62.355947" lon="12.349775">
        <ele>733.646</ele>
        <time>2011-07-04T12:19:27Z</time>
      </trkpt>
      <trkpt lat="62.356" lon="12.349597">
        <ele>733.734</ele>
        <time>2011-07-04T12:19:35Z</time>
      </trkpt>
      <trkpt lat="62.35601" lon="12.34953">
        <ele>733.206</ele>
        <time>2011-07-04T12:19:38Z</time>
      </trkpt>
      <trkpt lat="62.356049" lon="12.349387">
        <ele>732.392</ele>
        <time>2011-07-04T12:19:47Z</time>
      </trkpt>
      <trkpt lat="62.356064" lon="12.349295">
        <ele>732.237</ele>
        <time>2011-07-04T12:19:51Z</time>
      </trkpt>
      <trkpt lat="62.356083" lon="12.349238">
        <ele>731.835</ele>
        <time>2011-07-04T12:19:55Z</time>
      </trkpt>
      <trkpt lat="62.356086" lon="12.349164">
        <ele>731.596</ele>
        <time>2011-07-04T12:19:59Z</time>
      </trkpt>
      <trkpt lat="62.35611" lon="12.349054">
        <ele>731.518</ele>
        <time>2011-07-04T12:20:05Z</time>
      </trkpt>
      <trkpt lat="62.356173" lon="12.348781">
        <ele>732.066</ele>
        <time>2011-07-04T12:20:22Z</time>
      </trkpt>
      <trkpt lat="62.356211" lon="12.348685">
        <ele>731.972</ele>
        <time>2011-07-04T12:20:28Z</time>
      </trkpt>
      <trkpt lat="62.356228" lon="12.348634">
        <ele>731.857</ele>
        <time>2011-07-04T12:20:32Z</time>
      </trkpt>
      <trkpt lat="62.356236" lon="12.348526">
        <ele>731.955</ele>
        <time>2011-07-04T12:20:44Z</time>
      </trkpt>
      <trkpt lat="62.356252" lon="12.348431">
        <ele>731.911</ele>
        <time>2011-07-04T12:20:58Z</time>
      </trkpt>
      <trkpt lat="62.356323" lon="12.348167">
        <ele>732.099</ele>
        <time>2011-07-04T12:22:05Z</time>
      </trkpt>
      <trkpt lat="62.356324" lon="12.348163">
        <ele>732.071</ele>
        <time>2011-07-04T12:22:06Z</time>
      </trkpt>
      <trkpt lat="62.35633" lon="12.348025">
        <ele>731.824</ele>
        <time>2011-07-04T12:22:22Z</time>
      </trkpt>
      <trkpt lat="62.356351" lon="12.347862">
        <ele>733.11</ele>
        <time>2011-07-04T12:22:30Z</time>
      </trkpt>
      <trkpt lat="62.356363" lon="12.347779">
        <ele>733.316</ele>
        <time>2011-07-04T12:22:35Z</time>
      </trkpt>
      <trkpt lat="62.356369" lon="12.347675">
        <ele>733.008</ele>
        <time>2011-07-04T12:22:41Z</time>
      </trkpt>
      <trkpt lat="62.356367" lon="12.347596">
        <ele>732.158</ele>
        <time>2011-07-04T12:22:44Z</time>
      </trkpt>
      <trkpt lat="62.35633" lon="12.347472">
        <ele>731.039</ele>
        <time>2011-07-04T12:22:49Z</time>
      </trkpt>
      <trkpt lat="62.356311" lon="12.347402">
        <ele>730.395</ele>
        <time>2011-07-04T12:22:53Z</time>
      </trkpt>
      <trkpt lat="62.356301" lon="12.347217">
        <ele>729.952</ele>
        <time>2011-07-04T12:23:03Z</time>
      </trkpt>
      <trkpt lat="62.356311" lon="12.347054">
        <ele>730.543</ele>
        <time>2011-07-04T12:23:10Z</time>
      </trkpt>
      <trkpt lat="62.35632" lon="12.346909">
        <ele>730.604</ele>
        <time>2011-07-04T12:23:18Z</time>
      </trkpt>
      <trkpt lat="62.356322" lon="12.346914">
        <ele>730.787</ele>
        <time>2011-07-04T12:23:21Z</time>
      </trkpt>
      <trkpt lat="62.356367" lon="12.346778">
        <ele>730.758</ele>
        <time>2011-07-04T12:23:47Z</time>
      </trkpt>
      <trkpt lat="62.356393" lon="12.34659">
        <ele>730.65</ele>
        <time>2011-07-04T12:23:57Z</time>
      </trkpt>
      <trkpt lat="62.356396" lon="12.346564">
        <ele>730.775</ele>
        <time>2011-07-04T12:23:58Z</time>
      </trkpt>
      <trkpt lat="62.356414" lon="12.346419">
        <ele>731.463</ele>
        <time>2011-07-04T12:24:04Z</time>
      </trkpt>
      <trkpt lat="62.356439" lon="12.346249">
        <ele>732.078</ele>
        <time>2011-07-04T12:24:10Z</time>
      </trkpt>
      <trkpt lat="62.356442" lon="12.346151">
        <ele>731.759</ele>
        <time>2011-07-04T12:24:14Z</time>
      </trkpt>
      <trkpt lat="62.356476" lon="12.346004">
        <ele>731.814</ele>
        <time>2011-07-04T12:24:20Z</time>
      </trkpt>
      <trkpt lat="62.356474" lon="12.345878">
        <ele>731.846</ele>
        <time>2011-07-04T12:24:24Z</time>
      </trkpt>
      <trkpt lat="62.35652" lon="12.345647">
        <ele>731.303</ele>
        <time>2011-07-04T12:24:32Z</time>
      </trkpt>
      <trkpt lat="62.356533" lon="12.345595">
        <ele>731.447</ele>
        <time>2011-07-04T12:24:34Z</time>
      </trkpt>
      <trkpt lat="62.356562" lon="12.345356">
        <ele>731.534</ele>
        <time>2011-07-04T12:24:42Z</time>
      </trkpt>
      <trkpt lat="62.356565" lon="12.345273">
        <ele>731.361</ele>
        <time>2011-07-04T12:24:45Z</time>
      </trkpt>
      <trkpt lat="62.356579" lon="12.345152">
        <ele>730.956</ele>
        <time>2011-07-04T12:24:51Z</time>
      </trkpt>
      <trkpt lat="62.356592" lon="12.344989">
        <ele>730.819</ele>
        <time>2011-07-04T12:24:58Z</time>
      </trkpt>
      <trkpt lat="62.356598" lon="12.344853">
        <ele>730.962</ele>
        <time>2011-07-04T12:25:04Z</time>
      </trkpt>
      <trkpt lat="62.356537" lon="12.344717">
        <ele>729.844</ele>
        <time>2011-07-04T12:25:13Z</time>
      </trkpt>
      <trkpt lat="62.356519" lon="12.34463">
        <ele>729.521</ele>
        <time>2011-07-04T12:25:17Z</time>
      </trkpt>
      <trkpt lat="62.356507" lon="12.344588">
        <ele>729.512</ele>
        <time>2011-07-04T12:25:19Z</time>
      </trkpt>
      <trkpt lat="62.356484" lon="12.34446">
        <ele>729.061</ele>
        <time>2011-07-04T12:25:25Z</time>
      </trkpt>
      <trkpt lat="62.356477" lon="12.344387">
        <ele>728.468</ele>
        <time>2011-07-04T12:25:28Z</time>
      </trkpt>
      <trkpt lat="62.356442" lon="12.344238">
        <ele>728.122</ele>
        <time>2011-07-04T12:25:35Z</time>
      </trkpt>
      <trkpt lat="62.356437" lon="12.344212">
        <ele>728.094</ele>
        <time>2011-07-04T12:25:36Z</time>
      </trkpt>
      <trkpt lat="62.356403" lon="12.344045">
        <ele>727.555</ele>
        <time>2011-07-04T12:25:43Z</time>
      </trkpt>
      <trkpt lat="62.356391" lon="12.343954">
        <ele>727.506</ele>
        <time>2011-07-04T12:25:47Z</time>
      </trkpt>
      <trkpt lat="62.356382" lon="12.343861">
        <ele>727.422</ele>
        <time>2011-07-04T12:25:51Z</time>
      </trkpt>
      <trkpt lat="62.356346" lon="12.343741">
        <ele>727.1</ele>
        <time>2011-07-04T12:25:58Z</time>
      </trkpt>
      <trkpt lat="62.356337" lon="12.343702">
        <ele>727.024</ele>
        <time>2011-07-04T12:26:00Z</time>
      </trkpt>
      <trkpt lat="62.356328" lon="12.34363">
        <ele>726.948</ele>
        <time>2011-07-04T12:26:03Z</time>
      </trkpt>
      <trkpt lat="62.356315" lon="12.343575">
        <ele>726.867</ele>
        <time>2011-07-04T12:26:05Z</time>
      </trkpt>
      <trkpt lat="62.356291" lon="12.343302">
        <ele>726.946</ele>
        <time>2011-07-04T12:26:15Z</time>
      </trkpt>
      <trkpt lat="62.356262" lon="12.343142">
        <ele>727.066</ele>
        <time>2011-07-04T12:26:23Z</time>
      </trkpt>
      <trkpt lat="62.356231" lon="12.34302">
        <ele>726.914</ele>
        <time>2011-07-04T12:26:29Z</time>
      </trkpt>
      <trkpt lat="62.356221" lon="12.342978">
        <ele>726.712</ele>
        <time>2011-07-04T12:26:31Z</time>
      </trkpt>
      <trkpt lat="62.356205" lon="12.3429">
        <ele>726.596</ele>
        <time>2011-07-04T12:26:35Z</time>
      </trkpt>
      <trkpt lat="62.356182" lon="12.342843">
        <ele>726.513</ele>
        <time>2011-07-04T12:26:38Z</time>
      </trkpt>
      <trkpt lat="62.356145" lon="12.342718">
        <ele>726.645</ele>
        <time>2011-07-04T12:26:44Z</time>
      </trkpt>
      <trkpt lat="62.356093" lon="12.342614">
        <ele>726.809</ele>
        <time>2011-07-04T12:26:50Z</time>
      </trkpt>
      <trkpt lat="62.35608" lon="12.342548">
        <ele>726.853</ele>
        <time>2011-07-04T12:26:53Z</time>
      </trkpt>
      <trkpt lat="62.356065" lon="12.342504">
        <ele>726.775</ele>
        <time>2011-07-04T12:26:55Z</time>
      </trkpt>
      <trkpt lat="62.356017" lon="12.342415">
        <ele>726.852</ele>
        <time>2011-07-04T12:27:00Z</time>
      </trkpt>
      <trkpt lat="62.355986" lon="12.342353">
        <ele>726.925</ele>
        <time>2011-07-04T12:27:03Z</time>
      </trkpt>
      <trkpt lat="62.355937" lon="12.342265">
        <ele>725.447</ele>
        <time>2011-07-04T12:27:07Z</time>
      </trkpt>
      <trkpt lat="62.355902" lon="12.342193">
        <ele>727.117</ele>
        <time>2011-07-04T12:27:10Z</time>
      </trkpt>
      <trkpt lat="62.355861" lon="12.342001">
        <ele>727.23</ele>
        <time>2011-07-04T12:27:17Z</time>
      </trkpt>
      <trkpt lat="62.355827" lon="12.341921">
        <ele>727.433</ele>
        <time>2011-07-04T12:27:21Z</time>
      </trkpt>
      <trkpt lat="62.355779" lon="12.341787">
        <ele>727.741</ele>
        <time>2011-07-04T12:27:28Z</time>
      </trkpt>
      <trkpt lat="62.355749" lon="12.341677">
        <ele>727.855</ele>
        <time>2011-07-04T12:27:35Z</time>
      </trkpt>
      <trkpt lat="62.355702" lon="12.341588">
        <ele>727.88</ele>
        <time>2011-07-04T12:27:42Z</time>
      </trkpt>
      <trkpt lat="62.355678" lon="12.341541">
        <ele>727.783</ele>
        <time>2011-07-04T12:27:45Z</time>
      </trkpt>
      <trkpt lat="62.355639" lon="12.34144">
        <ele>728.34</ele>
        <time>2011-07-04T12:27:50Z</time>
      </trkpt>
      <trkpt lat="62.355628" lon="12.341378">
        <ele>728.57</ele>
        <time>2011-07-04T12:27:53Z</time>
      </trkpt>
      <trkpt lat="62.355618" lon="12.341335">
        <ele>728.788</ele>
        <time>2011-07-04T12:27:55Z</time>
      </trkpt>
      <trkpt lat="62.355569" lon="12.341195">
        <ele>729.472</ele>
        <time>2011-07-04T12:28:02Z</time>
      </trkpt>
      <trkpt lat="62.35553" lon="12.341017">
        <ele>730.597</ele>
        <time>2011-07-04T12:28:09Z</time>
      </trkpt>
      <trkpt lat="62.355495" lon="12.340862">
        <ele>730.998</ele>
        <time>2011-07-04T12:28:15Z</time>
      </trkpt>
      <trkpt lat="62.355492" lon="12.340836">
        <ele>731.055</ele>
        <time>2011-07-04T12:28:16Z</time>
      </trkpt>
      <trkpt lat="62.355452" lon="12.340633">
        <ele>730.886</ele>
        <time>2011-07-04T12:28:23Z</time>
      </trkpt>
      <trkpt lat="62.355414" lon="12.340548">
        <ele>730.789</ele>
        <time>2011-07-04T12:28:27Z</time>
      </trkpt>
      <trkpt lat="62.355336" lon="12.34038">
        <ele>730.976</ele>
        <time>2011-07-04T12:28:34Z</time>
      </trkpt>
      <trkpt lat="62.355283" lon="12.340221">
        <ele>731.356</ele>
        <time>2011-07-04T12:28:40Z</time>
      </trkpt>
      <trkpt lat="62.355244" lon="12.340036">
        <ele>732.086</ele>
        <time>2011-07-04T12:28:47Z</time>
      </trkpt>
      <trkpt lat="62.355196" lon="12.339861">
        <ele>733.097</ele>
        <time>2011-07-04T12:28:55Z</time>
      </trkpt>
      <trkpt lat="62.355198" lon="12.339849">
        <ele>733.258</ele>
        <time>2011-07-04T12:28:56Z</time>
      </trkpt>
      <trkpt lat="62.355184" lon="12.33971">
        <ele>733.813</ele>
        <time>2011-07-04T12:29:03Z</time>
      </trkpt>
      <trkpt lat="62.355114" lon="12.33957">
        <ele>734.41</ele>
        <time>2011-07-04T12:29:11Z</time>
      </trkpt>
      <trkpt lat="62.355072" lon="12.339448">
        <ele>734.861</ele>
        <time>2011-07-04T12:29:17Z</time>
      </trkpt>
      <trkpt lat="62.355041" lon="12.339362">
        <ele>734.891</ele>
        <time>2011-07-04T12:29:21Z</time>
      </trkpt>
      <trkpt lat="62.355012" lon="12.339209">
        <ele>735.562</ele>
        <time>2011-07-04T12:29:27Z</time>
      </trkpt>
      <trkpt lat="62.355006" lon="12.339169">
        <ele>735.894</ele>
        <time>2011-07-04T12:29:29Z</time>
      </trkpt>
      <trkpt lat="62.354988" lon="12.339098">
        <ele>736.303</ele>
        <time>2011-07-04T12:29:32Z</time>
      </trkpt>
      <trkpt lat="62.35495" lon="12.338964">
        <ele>736.829</ele>
        <time>2011-07-04T12:29:39Z</time>
      </trkpt>
      <trkpt lat="62.354933" lon="12.338878">
        <ele>737.257</ele>
        <time>2011-07-04T12:29:42Z</time>
      </trkpt>
      <trkpt lat="62.35487" lon="12.338666">
        <ele>738.04</ele>
        <time>2011-07-04T12:29:50Z</time>
      </trkpt>
      <trkpt lat="62.354831" lon="12.338558">
        <ele>737.897</ele>
        <time>2011-07-04T12:29:53Z</time>
      </trkpt>
      <trkpt lat="62.354786" lon="12.338357">
        <ele>737.936</ele>
        <time>2011-07-04T12:30:00Z</time>
      </trkpt>
      <trkpt lat="62.354757" lon="12.338189">
        <ele>738.244</ele>
        <time>2011-07-04T12:30:05Z</time>
      </trkpt>
      <trkpt lat="62.354695" lon="12.337981">
        <ele>738.799</ele>
        <time>2011-07-04T12:30:11Z</time>
      </trkpt>
      <trkpt lat="62.354678" lon="12.337855">
        <ele>739.406</ele>
        <time>2011-07-04T12:30:15Z</time>
      </trkpt>
      <trkpt lat="62.354653" lon="12.337771">
        <ele>739.88</ele>
        <time>2011-07-04T12:30:18Z</time>
      </trkpt>
      <trkpt lat="62.354615" lon="12.337574">
        <ele>740.754</ele>
        <time>2011-07-04T12:30:24Z</time>
      </trkpt>
      <trkpt lat="62.354541" lon="12.337321">
        <ele>741.793</ele>
        <time>2011-07-04T12:30:31Z</time>
      </trkpt>
      <trkpt lat="62.354503" lon="12.337183">
        <ele>742.548</ele>
        <time>2011-07-04T12:30:37Z</time>
      </trkpt>
      <trkpt lat="62.354464" lon="12.337005">
        <ele>743.532</ele>
        <time>2011-07-04T12:30:45Z</time>
      </trkpt>
      <trkpt lat="62.354429" lon="12.33687">
        <ele>744.489</ele>
        <time>2011-07-04T12:30:52Z</time>
      </trkpt>
      <trkpt lat="62.354394" lon="12.336693">
        <ele>745.62</ele>
        <time>2011-07-04T12:30:59Z</time>
      </trkpt>
      <trkpt lat="62.354371" lon="12.336601">
        <ele>745.89</ele>
        <time>2011-07-04T12:31:03Z</time>
      </trkpt>
      <trkpt lat="62.354309" lon="12.336372">
        <ele>746.822</ele>
        <time>2011-07-04T12:31:11Z</time>
      </trkpt>
      <trkpt lat="62.354241" lon="12.336127">
        <ele>748.144</ele>
        <time>2011-07-04T12:31:18Z</time>
      </trkpt>
      <trkpt lat="62.354172" lon="12.335903">
        <ele>749.346</ele>
        <time>2011-07-04T12:31:24Z</time>
      </trkpt>
      <trkpt lat="62.354105" lon="12.335677">
        <ele>749.929</ele>
        <time>2011-07-04T12:31:30Z</time>
      </trkpt>
      <trkpt lat="62.354029" lon="12.335458">
        <ele>751.315</ele>
        <time>2011-07-04T12:31:37Z</time>
      </trkpt>
      <trkpt lat="62.353964" lon="12.335281">
        <ele>752.281</ele>
        <time>2011-07-04T12:31:43Z</time>
      </trkpt>
      <trkpt lat="62.353872" lon="12.335133">
        <ele>753.361</ele>
        <time>2011-07-04T12:31:49Z</time>
      </trkpt>
      <trkpt lat="62.353849" lon="12.335063">
        <ele>753.874</ele>
        <time>2011-07-04T12:31:52Z</time>
      </trkpt>
      <trkpt lat="62.353781" lon="12.334941">
        <ele>754.629</ele>
        <time>2011-07-04T12:31:59Z</time>
      </trkpt>
      <trkpt lat="62.353765" lon="12.334921">
        <ele>754.708</ele>
        <time>2011-07-04T12:32:00Z</time>
      </trkpt>
      <trkpt lat="62.353747" lon="12.334883">
        <ele>754.916</ele>
        <time>2011-07-04T12:32:02Z</time>
      </trkpt>
      <trkpt lat="62.353665" lon="12.334741">
        <ele>754.821</ele>
        <time>2011-07-04T12:32:08Z</time>
      </trkpt>
      <trkpt lat="62.353582" lon="12.334562">
        <ele>755.572</ele>
        <time>2011-07-04T12:32:14Z</time>
      </trkpt>
      <trkpt lat="62.353525" lon="12.334378">
        <ele>756.879</ele>
        <time>2011-07-04T12:32:20Z</time>
      </trkpt>
      <trkpt lat="62.353512" lon="12.334348">
        <ele>757.174</ele>
        <time>2011-07-04T12:32:21Z</time>
      </trkpt>
      <trkpt lat="62.353403" lon="12.334197">
        <ele>758.516</ele>
        <time>2011-07-04T12:32:27Z</time>
      </trkpt>
      <trkpt lat="62.353368" lon="12.334125">
        <ele>758.975</ele>
        <time>2011-07-04T12:32:30Z</time>
      </trkpt>
      <trkpt lat="62.353359" lon="12.334043">
        <ele>759.351</ele>
        <time>2011-07-04T12:32:34Z</time>
      </trkpt>
      <trkpt lat="62.353278" lon="12.333919">
        <ele>759.751</ele>
        <time>2011-07-04T12:32:41Z</time>
      </trkpt>
      <trkpt lat="62.353183" lon="12.333807">
        <ele>759.984</ele>
        <time>2011-07-04T12:32:47Z</time>
      </trkpt>
      <trkpt lat="62.353128" lon="12.333756">
        <ele>759.986</ele>
        <time>2011-07-04T12:32:51Z</time>
      </trkpt>
      <trkpt lat="62.353041" lon="12.333741">
        <ele>759.398</ele>
        <time>2011-07-04T12:32:57Z</time>
      </trkpt>
      <trkpt lat="62.353026" lon="12.333734">
        <ele>759.31</ele>
        <time>2011-07-04T12:32:58Z</time>
      </trkpt>
      <trkpt lat="62.353" lon="12.333614">
        <ele>759.382</ele>
        <time>2011-07-04T12:33:04Z</time>
      </trkpt>
      <trkpt lat="62.352996" lon="12.333581">
        <ele>759.613</ele>
        <time>2011-07-04T12:33:06Z</time>
      </trkpt>
      <trkpt lat="62.352971" lon="12.333538">
        <ele>759.774</ele>
        <time>2011-07-04T12:33:09Z</time>
      </trkpt>
      <trkpt lat="62.352938" lon="12.333428">
        <ele>760.015</ele>
        <time>2011-07-04T12:33:13Z</time>
      </trkpt>
      <trkpt lat="62.352914" lon="12.33338">
        <ele>760.513</ele>
        <time>2011-07-04T12:33:15Z</time>
      </trkpt>
      <trkpt lat="62.352811" lon="12.333233">
        <ele>761.343</ele>
        <time>2011-07-04T12:33:21Z</time>
      </trkpt>
      <trkpt lat="62.352702" lon="12.333073">
        <ele>761.654</ele>
        <time>2011-07-04T12:33:27Z</time>
      </trkpt>
      <trkpt lat="62.352618" lon="12.332884">
        <ele>762.023</ele>
        <time>2011-07-04T12:33:33Z</time>
      </trkpt>
      <trkpt lat="62.35256" lon="12.332622">
        <ele>763.022</ele>
        <time>2011-07-04T12:33:40Z</time>
      </trkpt>
      <trkpt lat="62.352497" lon="12.33248">
        <ele>763.737</ele>
        <time>2011-07-04T12:33:45Z</time>
      </trkpt>
      <trkpt lat="62.352488" lon="12.332413">
        <ele>764.1</ele>
        <time>2011-07-04T12:33:48Z</time>
      </trkpt>
      <trkpt lat="62.352448" lon="12.332311">
        <ele>764.817</ele>
        <time>2011-07-04T12:33:53Z</time>
      </trkpt>
      <trkpt lat="62.352422" lon="12.332165">
        <ele>765.657</ele>
        <time>2011-07-04T12:33:59Z</time>
      </trkpt>
      <trkpt lat="62.352419" lon="12.332117">
        <ele>766.162</ele>
        <time>2011-07-04T12:34:01Z</time>
      </trkpt>
      <trkpt lat="62.352406" lon="12.331938">
        <ele>767.589</ele>
        <time>2011-07-04T12:34:09Z</time>
      </trkpt>
      <trkpt lat="62.352403" lon="12.331804">
        <ele>768.272</ele>
        <time>2011-07-04T12:34:15Z</time>
      </trkpt>
      <trkpt lat="62.352385" lon="12.331685">
        <ele>768.851</ele>
        <time>2011-07-04T12:34:19Z</time>
      </trkpt>
      <trkpt lat="62.352346" lon="12.331409">
        <ele>769.618</ele>
        <time>2011-07-04T12:34:29Z</time>
      </trkpt>
      <trkpt lat="62.352318" lon="12.331217">
        <ele>770.196</ele>
        <time>2011-07-04T12:34:34Z</time>
      </trkpt>
      <trkpt lat="62.352267" lon="12.331031">
        <ele>770.685</ele>
        <time>2011-07-04T12:34:40Z</time>
      </trkpt>
      <trkpt lat="62.352245" lon="12.330841">
        <ele>771.547</ele>
        <time>2011-07-04T12:34:46Z</time>
      </trkpt>
      <trkpt lat="62.352246" lon="12.330757">
        <ele>771.793</ele>
        <time>2011-07-04T12:34:48Z</time>
      </trkpt>
      <trkpt lat="62.352215" lon="12.330519">
        <ele>773.158</ele>
        <time>2011-07-04T12:34:55Z</time>
      </trkpt>
      <trkpt lat="62.35219" lon="12.330366">
        <ele>773.838</ele>
        <time>2011-07-04T12:35:00Z</time>
      </trkpt>
      <trkpt lat="62.352181" lon="12.330335">
        <ele>773.975</ele>
        <time>2011-07-04T12:35:01Z</time>
      </trkpt>
      <trkpt lat="62.352151" lon="12.330076">
        <ele>775.076</ele>
        <time>2011-07-04T12:35:07Z</time>
      </trkpt>
      <trkpt lat="62.352144" lon="12.330027">
        <ele>775.334</ele>
        <time>2011-07-04T12:35:08Z</time>
      </trkpt>
      <trkpt lat="62.352049" lon="12.329563">
        <ele>775.763</ele>
        <time>2011-07-04T12:35:17Z</time>
      </trkpt>
      <trkpt lat="62.352008" lon="12.329295">
        <ele>775.816</ele>
        <time>2011-07-04T12:35:23Z</time>
      </trkpt>
      <trkpt lat="62.351968" lon="12.329007">
        <ele>773.002</ele>
        <time>2011-07-04T12:35:29Z</time>
      </trkpt>
      <trkpt lat="62.351929" lon="12.328776">
        <ele>775.729</ele>
        <time>2011-07-04T12:35:35Z</time>
      </trkpt>
      <trkpt lat="62.351922" lon="12.328733">
        <ele>775.732</ele>
        <time>2011-07-04T12:35:36Z</time>
      </trkpt>
      <trkpt lat="62.351918" lon="12.328689">
        <ele>775.723</ele>
        <time>2011-07-04T12:35:37Z</time>
      </trkpt>
      <trkpt lat="62.351879" lon="12.32841">
        <ele>775.323</ele>
        <time>2011-07-04T12:35:44Z</time>
      </trkpt>
      <trkpt lat="62.351854" lon="12.328198">
        <ele>775.497</ele>
        <time>2011-07-04T12:35:49Z</time>
      </trkpt>
      <trkpt lat="62.351819" lon="12.327969">
        <ele>774.703</ele>
        <time>2011-07-04T12:35:57Z</time>
      </trkpt>
      <trkpt lat="62.351801" lon="12.327792">
        <ele>774.024</ele>
        <time>2011-07-04T12:36:04Z</time>
      </trkpt>
      <trkpt lat="62.351775" lon="12.327599">
        <ele>773.728</ele>
        <time>2011-07-04T12:36:11Z</time>
      </trkpt>
      <trkpt lat="62.351772" lon="12.327539">
        <ele>773.61</ele>
        <time>2011-07-04T12:36:13Z</time>
      </trkpt>
      <trkpt lat="62.351735" lon="12.327362">
        <ele>773.617</ele>
        <time>2011-07-04T12:36:19Z</time>
      </trkpt>
      <trkpt lat="62.351724" lon="12.327272">
        <ele>773.317</ele>
        <time>2011-07-04T12:36:22Z</time>
      </trkpt>
      <trkpt lat="62.35172" lon="12.327226">
        <ele>773.336</ele>
        <time>2011-07-04T12:36:24Z</time>
      </trkpt>
      <trkpt lat="62.351704" lon="12.326999">
        <ele>773.258</ele>
        <time>2011-07-04T12:36:33Z</time>
      </trkpt>
      <trkpt lat="62.351679" lon="12.326803">
        <ele>773.256</ele>
        <time>2011-07-04T12:36:40Z</time>
      </trkpt>
      <trkpt lat="62.351676" lon="12.32672">
        <ele>773.252</ele>
        <time>2011-07-04T12:36:43Z</time>
      </trkpt>
      <trkpt lat="62.351645" lon="12.326538">
        <ele>773.036</ele>
        <time>2011-07-04T12:36:51Z</time>
      </trkpt>
      <trkpt lat="62.351635" lon="12.326424">
        <ele>772.855</ele>
        <time>2011-07-04T12:36:57Z</time>
      </trkpt>
      <trkpt lat="62.351595" lon="12.326227">
        <ele>772.717</ele>
        <time>2011-07-04T12:37:04Z</time>
      </trkpt>
      <trkpt lat="62.351584" lon="12.326147">
        <ele>772.677</ele>
        <time>2011-07-04T12:37:07Z</time>
      </trkpt>
      <trkpt lat="62.351576" lon="12.32601">
        <ele>772.548</ele>
        <time>2011-07-04T12:37:13Z</time>
      </trkpt>
      <trkpt lat="62.35158" lon="12.32588">
        <ele>772.612</ele>
        <time>2011-07-04T12:37:18Z</time>
      </trkpt>
      <trkpt lat="62.35157" lon="12.325735">
        <ele>772.756</ele>
        <time>2011-07-04T12:37:23Z</time>
      </trkpt>
      <trkpt lat="62.351576" lon="12.325587">
        <ele>772.928</ele>
        <time>2011-07-04T12:37:29Z</time>
      </trkpt>
      <trkpt lat="62.351567" lon="12.325423">
        <ele>772.818</ele>
        <time>2011-07-04T12:37:36Z</time>
      </trkpt>
      <trkpt lat="62.351569" lon="12.325402">
        <ele>772.817</ele>
        <time>2011-07-04T12:37:37Z</time>
      </trkpt>
      <trkpt lat="62.351541" lon="12.325246">
        <ele>773.048</ele>
        <time>2011-07-04T12:37:42Z</time>
      </trkpt>
      <trkpt lat="62.351536" lon="12.32509">
        <ele>772.91</ele>
        <time>2011-07-04T12:37:48Z</time>
      </trkpt>
      <trkpt lat="62.351527" lon="12.32495">
        <ele>772.655</ele>
        <time>2011-07-04T12:37:54Z</time>
      </trkpt>
      <trkpt lat="62.351527" lon="12.324847">
        <ele>772.561</ele>
        <time>2011-07-04T12:37:58Z</time>
      </trkpt>
      <trkpt lat="62.351507" lon="12.324663">
        <ele>772.478</ele>
        <time>2011-07-04T12:38:05Z</time>
      </trkpt>
      <trkpt lat="62.351458" lon="12.324377">
        <ele>771.572</ele>
        <time>2011-07-04T12:38:12Z</time>
      </trkpt>
      <trkpt lat="62.351421" lon="12.324102">
        <ele>770.98</ele>
        <time>2011-07-04T12:38:17Z</time>
      </trkpt>
      <trkpt lat="62.351414" lon="12.323894">
        <ele>770.492</ele>
        <time>2011-07-04T12:38:23Z</time>
      </trkpt>
      <trkpt lat="62.351393" lon="12.323746">
        <ele>769.813</ele>
        <time>2011-07-04T12:38:28Z</time>
      </trkpt>
      <trkpt lat="62.351368" lon="12.323535">
        <ele>768.538</ele>
        <time>2011-07-04T12:38:34Z</time>
      </trkpt>
      <trkpt lat="62.351352" lon="12.323361">
        <ele>768.712</ele>
        <time>2011-07-04T12:38:38Z</time>
      </trkpt>
      <trkpt lat="62.351326" lon="12.323128">
        <ele>768.239</ele>
        <time>2011-07-04T12:38:45Z</time>
      </trkpt>
      <trkpt lat="62.351302" lon="12.323046">
        <ele>767.944</ele>
        <time>2011-07-04T12:38:48Z</time>
      </trkpt>
      <trkpt lat="62.351271" lon="12.322821">
        <ele>767.129</ele>
        <time>2011-07-04T12:38:54Z</time>
      </trkpt>
      <trkpt lat="62.351245" lon="12.322695">
        <ele>766.899</ele>
        <time>2011-07-04T12:38:57Z</time>
      </trkpt>
      <trkpt lat="62.351199" lon="12.322427">
        <ele>764.473</ele>
        <time>2011-07-04T12:39:05Z</time>
      </trkpt>
      <trkpt lat="62.351201" lon="12.322232">
        <ele>764.174</ele>
        <time>2011-07-04T12:39:09Z</time>
      </trkpt>
      <trkpt lat="62.351208" lon="12.322154">
        <ele>764.511</ele>
        <time>2011-07-04T12:39:11Z</time>
      </trkpt>
      <trkpt lat="62.351203" lon="12.321971">
        <ele>764.263</ele>
        <time>2011-07-04T12:39:17Z</time>
      </trkpt>
      <trkpt lat="62.35119" lon="12.321798">
        <ele>763.403</ele>
        <time>2011-07-04T12:39:23Z</time>
      </trkpt>
      <trkpt lat="62.351159" lon="12.321568">
        <ele>762.508</ele>
        <time>2011-07-04T12:39:30Z</time>
      </trkpt>
      <trkpt lat="62.351136" lon="12.321337">
        <ele>761.878</ele>
        <time>2011-07-04T12:39:37Z</time>
      </trkpt>
      <trkpt lat="62.35114" lon="12.321236">
        <ele>761.377</ele>
        <time>2011-07-04T12:39:41Z</time>
      </trkpt>
      <trkpt lat="62.351158" lon="12.321067">
        <ele>761.05</ele>
        <time>2011-07-04T12:39:46Z</time>
      </trkpt>
      <trkpt lat="62.35117" lon="12.321008">
        <ele>761.041</ele>
        <time>2011-07-04T12:39:48Z</time>
      </trkpt>
      <trkpt lat="62.351167" lon="12.320885">
        <ele>760.472</ele>
        <time>2011-07-04T12:39:52Z</time>
      </trkpt>
      <trkpt lat="62.351161" lon="12.320677">
        <ele>759.697</ele>
        <time>2011-07-04T12:39:58Z</time>
      </trkpt>
      <trkpt lat="62.351165" lon="12.320546">
        <ele>759.307</ele>
        <time>2011-07-04T12:40:03Z</time>
      </trkpt>
      <trkpt lat="62.351171" lon="12.320411">
        <ele>759.354</ele>
        <time>2011-07-04T12:40:08Z</time>
      </trkpt>
      <trkpt lat="62.351192" lon="12.320307">
        <ele>759.117</ele>
        <time>2011-07-04T12:40:12Z</time>
      </trkpt>
      <trkpt lat="62.351168" lon="12.320148">
        <ele>758.474</ele>
        <time>2011-07-04T12:40:18Z</time>
      </trkpt>
      <trkpt lat="62.351163" lon="12.320045">
        <ele>758.325</ele>
        <time>2011-07-04T12:40:23Z</time>
      </trkpt>
      <trkpt lat="62.35114" lon="12.319913">
        <ele>757.439</ele>
        <time>2011-07-04T12:40:30Z</time>
      </trkpt>
      <trkpt lat="62.351132" lon="12.31981">
        <ele>757.424</ele>
        <time>2011-07-04T12:40:35Z</time>
      </trkpt>
      <trkpt lat="62.351129" lon="12.319746">
        <ele>757.201</ele>
        <time>2011-07-04T12:40:38Z</time>
      </trkpt>
      <trkpt lat="62.351125" lon="12.319597">
        <ele>756.873</ele>
        <time>2011-07-04T12:40:44Z</time>
      </trkpt>
      <trkpt lat="62.351121" lon="12.319459">
        <ele>756.602</ele>
        <time>2011-07-04T12:40:50Z</time>
      </trkpt>
      <trkpt lat="62.351106" lon="12.319329">
        <ele>756.535</ele>
        <time>2011-07-04T12:40:56Z</time>
      </trkpt>
      <trkpt lat="62.351111" lon="12.319315">
        <ele>756.625</ele>
        <time>2011-07-04T12:40:57Z</time>
      </trkpt>
      <trkpt lat="62.351092" lon="12.319059">
        <ele>756.382</ele>
        <time>2011-07-04T12:41:07Z</time>
      </trkpt>
      <trkpt lat="62.351098" lon="12.318873">
        <ele>756.149</ele>
        <time>2011-07-04T12:41:14Z</time>
      </trkpt>
      <trkpt lat="62.351112" lon="12.318678">
        <ele>756.376</ele>
        <time>2011-07-04T12:41:21Z</time>
      </trkpt>
      <trkpt lat="62.351113" lon="12.318561">
        <ele>756.615</ele>
        <time>2011-07-04T12:41:26Z</time>
      </trkpt>
      <trkpt lat="62.351115" lon="12.318435">
        <ele>756.806</ele>
        <time>2011-07-04T12:41:31Z</time>
      </trkpt>
      <trkpt lat="62.351121" lon="12.318356">
        <ele>757.042</ele>
        <time>2011-07-04T12:41:34Z</time>
      </trkpt>
      <trkpt lat="62.351123" lon="12.31823">
        <ele>756.962</ele>
        <time>2011-07-04T12:41:39Z</time>
      </trkpt>
      <trkpt lat="62.351122" lon="12.318065">
        <ele>757.023</ele>
        <time>2011-07-04T12:41:45Z</time>
      </trkpt>
      <trkpt lat="62.351126" lon="12.317977">
        <ele>756.948</ele>
        <time>2011-07-04T12:41:49Z</time>
      </trkpt>
      <trkpt lat="62.351167" lon="12.317846">
        <ele>757.417</ele>
        <time>2011-07-04T12:41:55Z</time>
      </trkpt>
      <trkpt lat="62.3512" lon="12.317756">
        <ele>758.114</ele>
        <time>2011-07-04T12:42:01Z</time>
      </trkpt>
      <trkpt lat="62.351201" lon="12.31774">
        <ele>758.165</ele>
        <time>2011-07-04T12:42:02Z</time>
      </trkpt>
      <trkpt lat="62.351244" lon="12.317549">
        <ele>758.312</ele>
        <time>2011-07-04T12:42:11Z</time>
      </trkpt>
      <trkpt lat="62.351249" lon="12.317536">
        <ele>758.349</ele>
        <time>2011-07-04T12:42:12Z</time>
      </trkpt>
      <trkpt lat="62.351295" lon="12.317222">
        <ele>758.426</ele>
        <time>2011-07-04T12:42:21Z</time>
      </trkpt>
      <trkpt lat="62.35132" lon="12.317071">
        <ele>758.661</ele>
        <time>2011-07-04T12:42:27Z</time>
      </trkpt>
      <trkpt lat="62.351361" lon="12.316796">
        <ele>759.213</ele>
        <time>2011-07-04T12:42:34Z</time>
      </trkpt>
      <trkpt lat="62.351387" lon="12.316603">
        <ele>759.206</ele>
        <time>2011-07-04T12:42:40Z</time>
      </trkpt>
      <trkpt lat="62.3514" lon="12.316464">
        <ele>759.512</ele>
        <time>2011-07-04T12:42:45Z</time>
      </trkpt>
      <trkpt lat="62.351415" lon="12.316397">
        <ele>760.059</ele>
        <time>2011-07-04T12:42:48Z</time>
      </trkpt>
      <trkpt lat="62.351432" lon="12.316189">
        <ele>759.939</ele>
        <time>2011-07-04T12:42:53Z</time>
      </trkpt>
      <trkpt lat="62.351445" lon="12.316083">
        <ele>759.949</ele>
        <time>2011-07-04T12:42:56Z</time>
      </trkpt>
      <trkpt lat="62.351469" lon="12.315733">
        <ele>760.104</ele>
        <time>2011-07-04T12:43:03Z</time>
      </trkpt>
      <trkpt lat="62.351494" lon="12.315547">
        <ele>760.336</ele>
        <time>2011-07-04T12:43:07Z</time>
      </trkpt>
      <trkpt lat="62.351495" lon="12.315333">
        <ele>760.796</ele>
        <time>2011-07-04T12:43:13Z</time>
      </trkpt>
      <trkpt lat="62.351524" lon="12.315135">
        <ele>760.457</ele>
        <time>2011-07-04T12:43:17Z</time>
      </trkpt>
      <trkpt lat="62.351532" lon="12.314875">
        <ele>760.183</ele>
        <time>2011-07-04T12:43:21Z</time>
      </trkpt>
      <trkpt lat="62.351557" lon="12.31472">
        <ele>760.1</ele>
        <time>2011-07-04T12:43:24Z</time>
      </trkpt>
      <trkpt lat="62.351572" lon="12.314527">
        <ele>760.385</ele>
        <time>2011-07-04T12:43:29Z</time>
      </trkpt>
      <trkpt lat="62.351596" lon="12.31434">
        <ele>760.757</ele>
        <time>2011-07-04T12:43:35Z</time>
      </trkpt>
      <trkpt lat="62.351623" lon="12.31418">
        <ele>760.566</ele>
        <time>2011-07-04T12:43:42Z</time>
      </trkpt>
      <trkpt lat="62.351626" lon="12.314138">
        <ele>760.61</ele>
        <time>2011-07-04T12:43:44Z</time>
      </trkpt>
      <trkpt lat="62.351647" lon="12.313997">
        <ele>760.406</ele>
        <time>2011-07-04T12:43:50Z</time>
      </trkpt>
      <trkpt lat="62.351677" lon="12.313877">
        <ele>760.334</ele>
        <time>2011-07-04T12:43:55Z</time>
      </trkpt>
      <trkpt lat="62.351706" lon="12.313721">
        <ele>760.596</ele>
        <time>2011-07-04T12:44:00Z</time>
      </trkpt>
      <trkpt lat="62.35173" lon="12.313574">
        <ele>760.686</ele>
        <time>2011-07-04T12:44:05Z</time>
      </trkpt>
      <trkpt lat="62.351756" lon="12.313482">
        <ele>760.854</ele>
        <time>2011-07-04T12:44:09Z</time>
      </trkpt>
      <trkpt lat="62.351768" lon="12.31343">
        <ele>760.774</ele>
        <time>2011-07-04T12:44:11Z</time>
      </trkpt>
      <trkpt lat="62.351804" lon="12.313306">
        <ele>760.779</ele>
        <time>2011-07-04T12:44:17Z</time>
      </trkpt>
      <trkpt lat="62.351826" lon="12.313216">
        <ele>761.153</ele>
        <time>2011-07-04T12:44:22Z</time>
      </trkpt>
      <trkpt lat="62.351842" lon="12.313095">
        <ele>760.934</ele>
        <time>2011-07-04T12:44:30Z</time>
      </trkpt>
      <trkpt lat="62.351941" lon="12.312954">
        <ele>761.131</ele>
        <time>2011-07-04T12:45:51Z</time>
      </trkpt>
      <trkpt lat="62.351976" lon="12.312828">
        <ele>761.594</ele>
        <time>2011-07-04T12:45:58Z</time>
      </trkpt>
      <trkpt lat="62.352036" lon="12.312716">
        <ele>762.576</ele>
        <time>2011-07-04T12:46:05Z</time>
      </trkpt>
      <trkpt lat="62.352034" lon="12.312662">
        <ele>762.689</ele>
        <time>2011-07-04T12:46:07Z</time>
      </trkpt>
      <trkpt lat="62.352056" lon="12.312459">
        <ele>763.079</ele>
        <time>2011-07-04T12:46:14Z</time>
      </trkpt>
      <trkpt lat="62.352084" lon="12.312329">
        <ele>763.306</ele>
        <time>2011-07-04T12:46:20Z</time>
      </trkpt>
      <trkpt lat="62.35211" lon="12.312117">
        <ele>764.115</ele>
        <time>2011-07-04T12:46:28Z</time>
      </trkpt>
      <trkpt lat="62.352129" lon="12.312013">
        <ele>764.225</ele>
        <time>2011-07-04T12:46:32Z</time>
      </trkpt>
      <trkpt lat="62.352141" lon="12.311877">
        <ele>764.554</ele>
        <time>2011-07-04T12:46:37Z</time>
      </trkpt>
      <trkpt lat="62.352167" lon="12.311683">
        <ele>765.162</ele>
        <time>2011-07-04T12:46:44Z</time>
      </trkpt>
      <trkpt lat="62.352158" lon="12.311586">
        <ele>765.089</ele>
        <time>2011-07-04T12:46:46Z</time>
      </trkpt>
      <trkpt lat="62.352168" lon="12.311441">
        <ele>765.004</ele>
        <time>2011-07-04T12:46:51Z</time>
      </trkpt>
      <trkpt lat="62.352203" lon="12.311319">
        <ele>765.348</ele>
        <time>2011-07-04T12:46:56Z</time>
      </trkpt>
      <trkpt lat="62.352268" lon="12.310969">
        <ele>766.422</ele>
        <time>2011-07-04T12:47:04Z</time>
      </trkpt>
      <trkpt lat="62.352291" lon="12.310764">
        <ele>767.651</ele>
        <time>2011-07-04T12:47:09Z</time>
      </trkpt>
      <trkpt lat="62.352301" lon="12.310507">
        <ele>767.99</ele>
        <time>2011-07-04T12:47:15Z</time>
      </trkpt>
      <trkpt lat="62.352306" lon="12.310399">
        <ele>768.11</ele>
        <time>2011-07-04T12:47:19Z</time>
      </trkpt>
      <trkpt lat="62.35231" lon="12.310256">
        <ele>767.797</ele>
        <time>2011-07-04T12:47:24Z</time>
      </trkpt>
      <trkpt lat="62.352315" lon="12.310211">
        <ele>767.806</ele>
        <time>2011-07-04T12:47:26Z</time>
      </trkpt>
      <trkpt lat="62.35235" lon="12.310051">
        <ele>767.844</ele>
        <time>2011-07-04T12:47:31Z</time>
      </trkpt>
      <trkpt lat="62.35238" lon="12.309989">
        <ele>768.096</ele>
        <time>2011-07-04T12:47:34Z</time>
      </trkpt>
      <trkpt lat="62.35243" lon="12.309798">
        <ele>768.319</ele>
        <time>2011-07-04T12:47:41Z</time>
      </trkpt>
      <trkpt lat="62.352438" lon="12.309764">
        <ele>768.235</ele>
        <time>2011-07-04T12:47:42Z</time>
      </trkpt>
      <trkpt lat="62.352466" lon="12.309698">
        <ele>768.273</ele>
        <time>2011-07-04T12:47:45Z</time>
      </trkpt>
      <trkpt lat="62.352491" lon="12.309533">
        <ele>769.008</ele>
        <time>2011-07-04T12:47:51Z</time>
      </trkpt>
      <trkpt lat="62.352509" lon="12.309387">
        <ele>769.241</ele>
        <time>2011-07-04T12:47:56Z</time>
      </trkpt>
      <trkpt lat="62.352539" lon="12.309224">
        <ele>768.805</ele>
        <time>2011-07-04T12:48:02Z</time>
      </trkpt>
      <trkpt lat="62.352565" lon="12.30906">
        <ele>768.584</ele>
        <time>2011-07-04T12:48:09Z</time>
      </trkpt>
      <trkpt lat="62.352587" lon="12.3089">
        <ele>768.322</ele>
        <time>2011-07-04T12:48:16Z</time>
      </trkpt>
      <trkpt lat="62.352619" lon="12.308749">
        <ele>768.245</ele>
        <time>2011-07-04T12:48:21Z</time>
      </trkpt>
      <trkpt lat="62.352683" lon="12.308466">
        <ele>768.637</ele>
        <time>2011-07-04T12:48:27Z</time>
      </trkpt>
      <trkpt lat="62.352712" lon="12.308219">
        <ele>768.989</ele>
        <time>2011-07-04T12:48:32Z</time>
      </trkpt>
      <trkpt lat="62.352771" lon="12.307956">
        <ele>769.386</ele>
        <time>2011-07-04T12:48:38Z</time>
      </trkpt>
      <trkpt lat="62.352813" lon="12.307731">
        <ele>769.972</ele>
        <time>2011-07-04T12:48:43Z</time>
      </trkpt>
      <trkpt lat="62.352864" lon="12.307464">
        <ele>770.789</ele>
        <time>2011-07-04T12:48:49Z</time>
      </trkpt>
      <trkpt lat="62.352903" lon="12.307254">
        <ele>771.097</ele>
        <time>2011-07-04T12:48:54Z</time>
      </trkpt>
      <trkpt lat="62.352911" lon="12.307214">
        <ele>771.119</ele>
        <time>2011-07-04T12:48:55Z</time>
      </trkpt>
      <trkpt lat="62.352913" lon="12.306941">
        <ele>771.027</ele>
        <time>2011-07-04T12:49:01Z</time>
      </trkpt>
      <trkpt lat="62.352943" lon="12.306665">
        <ele>770.754</ele>
        <time>2011-07-04T12:49:07Z</time>
      </trkpt>
      <trkpt lat="62.352989" lon="12.30635">
        <ele>771.388</ele>
        <time>2011-07-04T12:49:14Z</time>
      </trkpt>
      <trkpt lat="62.353003" lon="12.306128">
        <ele>771.809</ele>
        <time>2011-07-04T12:49:19Z</time>
      </trkpt>
      <trkpt lat="62.353035" lon="12.305817">
        <ele>771.935</ele>
        <time>2011-07-04T12:49:26Z</time>
      </trkpt>
      <trkpt lat="62.353083" lon="12.30556">
        <ele>772.172</ele>
        <time>2011-07-04T12:49:32Z</time>
      </trkpt>
      <trkpt lat="62.353094" lon="12.305517">
        <ele>772.116</ele>
        <time>2011-07-04T12:49:33Z</time>
      </trkpt>
      <trkpt lat="62.353105" lon="12.305346">
        <ele>771.737</ele>
        <time>2011-07-04T12:49:37Z</time>
      </trkpt>
      <trkpt lat="62.353125" lon="12.305056">
        <ele>771.062</ele>
        <time>2011-07-04T12:49:43Z</time>
      </trkpt>
      <trkpt lat="62.35318" lon="12.304622">
        <ele>770.878</ele>
        <time>2011-07-04T12:49:52Z</time>
      </trkpt>
      <trkpt lat="62.353211" lon="12.304388">
        <ele>770.499</ele>
        <time>2011-07-04T12:49:57Z</time>
      </trkpt>
      <trkpt lat="62.353215" lon="12.304038">
        <ele>769.98</ele>
        <time>2011-07-04T12:50:04Z</time>
      </trkpt>
      <trkpt lat="62.353245" lon="12.303797">
        <ele>769.618</ele>
        <time>2011-07-04T12:50:09Z</time>
      </trkpt>
      <trkpt lat="62.353284" lon="12.303522">
        <ele>769.143</ele>
        <time>2011-07-04T12:50:15Z</time>
      </trkpt>
      <trkpt lat="62.353324" lon="12.30324">
        <ele>769.475</ele>
        <time>2011-07-04T12:50:21Z</time>
      </trkpt>
      <trkpt lat="62.353367" lon="12.30297">
        <ele>769.939</ele>
        <time>2011-07-04T12:50:27Z</time>
      </trkpt>
      <trkpt lat="62.353364" lon="12.302835">
        <ele>769.877</ele>
        <time>2011-07-04T12:50:32Z</time>
      </trkpt>
      <trkpt lat="62.353355" lon="12.302816">
        <ele>769.972</ele>
        <time>2011-07-04T12:50:34Z</time>
      </trkpt>
      <trkpt lat="62.353326" lon="12.302692">
        <ele>769.719</ele>
        <time>2011-07-04T12:50:55Z</time>
      </trkpt>
      <trkpt lat="62.35337" lon="12.302564">
        <ele>769.777</ele>
        <time>2011-07-04T12:51:02Z</time>
      </trkpt>
      <trkpt lat="62.353377" lon="12.302518">
        <ele>769.758</ele>
        <time>2011-07-04T12:51:04Z</time>
      </trkpt>
      <trkpt lat="62.353397" lon="12.302323">
        <ele>769.463</ele>
        <time>2011-07-04T12:51:12Z</time>
      </trkpt>
      <trkpt lat="62.353402" lon="12.30218">
        <ele>769.297</ele>
        <time>2011-07-04T12:51:17Z</time>
      </trkpt>
      <trkpt lat="62.353428" lon="12.302015">
        <ele>769.257</ele>
        <time>2011-07-04T12:51:23Z</time>
      </trkpt>
      <trkpt lat="62.353446" lon="12.301784">
        <ele>769.097</ele>
        <time>2011-07-04T12:51:29Z</time>
      </trkpt>
      <trkpt lat="62.353469" lon="12.301693">
        <ele>769.109</ele>
        <time>2011-07-04T12:51:31Z</time>
      </trkpt>
      <trkpt lat="62.353495" lon="12.301556">
        <ele>769.551</ele>
        <time>2011-07-04T12:51:35Z</time>
      </trkpt>
      <trkpt lat="62.353519" lon="12.301356">
        <ele>769.564</ele>
        <time>2011-07-04T12:51:43Z</time>
      </trkpt>
      <trkpt lat="62.353544" lon="12.301176">
        <ele>769.318</ele>
        <time>2011-07-04T12:51:50Z</time>
      </trkpt>
      <trkpt lat="62.353557" lon="12.300955">
        <ele>769.262</ele>
        <time>2011-07-04T12:51:58Z</time>
      </trkpt>
      <trkpt lat="62.353557" lon="12.300843">
        <ele>769.313</ele>
        <time>2011-07-04T12:52:02Z</time>
      </trkpt>
      <trkpt lat="62.353569" lon="12.300671">
        <ele>768.964</ele>
        <time>2011-07-04T12:52:09Z</time>
      </trkpt>
      <trkpt lat="62.353571" lon="12.300585">
        <ele>768.932</ele>
        <time>2011-07-04T12:52:13Z</time>
      </trkpt>
      <trkpt lat="62.353585" lon="12.300496">
        <ele>768.859</ele>
        <time>2011-07-04T12:52:17Z</time>
      </trkpt>
      <trkpt lat="62.35362" lon="12.300323">
        <ele>768.634</ele>
        <time>2011-07-04T12:52:24Z</time>
      </trkpt>
      <trkpt lat="62.353641" lon="12.300169">
        <ele>768.769</ele>
        <time>2011-07-04T12:52:30Z</time>
      </trkpt>
      <trkpt lat="62.353643" lon="12.300136">
        <ele>768.741</ele>
        <time>2011-07-04T12:52:31Z</time>
      </trkpt>
      <trkpt lat="62.353678" lon="12.299894">
        <ele>768.814</ele>
        <time>2011-07-04T12:52:40Z</time>
      </trkpt>
      <trkpt lat="62.353709" lon="12.299706">
        <ele>768.872</ele>
        <time>2011-07-04T12:52:47Z</time>
      </trkpt>
      <trkpt lat="62.35371" lon="12.299685">
        <ele>768.868</ele>
        <time>2011-07-04T12:52:48Z</time>
      </trkpt>
      <trkpt lat="62.353721" lon="12.299544">
        <ele>768.855</ele>
        <time>2011-07-04T12:52:53Z</time>
      </trkpt>
      <trkpt lat="62.353758" lon="12.299335">
        <ele>769.33</ele>
        <time>2011-07-04T12:53:01Z</time>
      </trkpt>
      <trkpt lat="62.353752" lon="12.299157">
        <ele>769.36</ele>
        <time>2011-07-04T12:53:07Z</time>
      </trkpt>
      <trkpt lat="62.353748" lon="12.298984">
        <ele>769.233</ele>
        <time>2011-07-04T12:53:13Z</time>
      </trkpt>
      <trkpt lat="62.353775" lon="12.298817">
        <ele>769.346</ele>
        <time>2011-07-04T12:53:20Z</time>
      </trkpt>
      <trkpt lat="62.353803" lon="12.298634">
        <ele>769.896</ele>
        <time>2011-07-04T12:53:27Z</time>
      </trkpt>
      <trkpt lat="62.353831" lon="12.29845">
        <ele>769.843</ele>
        <time>2011-07-04T12:53:34Z</time>
      </trkpt>
      <trkpt lat="62.353848" lon="12.298367">
        <ele>769.794</ele>
        <time>2011-07-04T12:53:37Z</time>
      </trkpt>
      <trkpt lat="62.353859" lon="12.298192">
        <ele>769.999</ele>
        <time>2011-07-04T12:53:44Z</time>
      </trkpt>
      <trkpt lat="62.353882" lon="12.298008">
        <ele>770.481</ele>
        <time>2011-07-04T12:53:51Z</time>
      </trkpt>
      <trkpt lat="62.353884" lon="12.297836">
        <ele>769.844</ele>
        <time>2011-07-04T12:53:57Z</time>
      </trkpt>
      <trkpt lat="62.35389" lon="12.297635">
        <ele>770.025</ele>
        <time>2011-07-04T12:54:04Z</time>
      </trkpt>
      <trkpt lat="62.353893" lon="12.297563">
        <ele>769.722</ele>
        <time>2011-07-04T12:54:07Z</time>
      </trkpt>
      <trkpt lat="62.353877" lon="12.297377">
        <ele>769.336</ele>
        <time>2011-07-04T12:54:15Z</time>
      </trkpt>
      <trkpt lat="62.353851" lon="12.297206">
        <ele>768.729</ele>
        <time>2011-07-04T12:54:22Z</time>
      </trkpt>
      <trkpt lat="62.353835" lon="12.296919">
        <ele>767.561</ele>
        <time>2011-07-04T12:54:29Z</time>
      </trkpt>
      <trkpt lat="62.353831" lon="12.296735">
        <ele>766.923</ele>
        <time>2011-07-04T12:54:33Z</time>
      </trkpt>
      <trkpt lat="62.353833" lon="12.296584">
        <ele>766.492</ele>
        <time>2011-07-04T12:54:37Z</time>
      </trkpt>
      <trkpt lat="62.353817" lon="12.296396">
        <ele>765.932</ele>
        <time>2011-07-04T12:54:44Z</time>
      </trkpt>
      <trkpt lat="62.353818" lon="12.296258">
        <ele>765.616</ele>
        <time>2011-07-04T12:54:49Z</time>
      </trkpt>
      <trkpt lat="62.353807" lon="12.296163">
        <ele>765.337</ele>
        <time>2011-07-04T12:54:54Z</time>
      </trkpt>
      <trkpt lat="62.353808" lon="12.296028">
        <ele>764.84</ele>
        <time>2011-07-04T12:55:00Z</time>
      </trkpt>
      <trkpt lat="62.353791" lon="12.295882">
        <ele>764.94</ele>
        <time>2011-07-04T12:55:07Z</time>
      </trkpt>
      <trkpt lat="62.353776" lon="12.295745">
        <ele>764.677</ele>
        <time>2011-07-04T12:55:12Z</time>
      </trkpt>
      <trkpt lat="62.353777" lon="12.295547">
        <ele>763.501</ele>
        <time>2011-07-04T12:55:20Z</time>
      </trkpt>
      <trkpt lat="62.353778" lon="12.295502">
        <ele>763.519</ele>
        <time>2011-07-04T12:55:22Z</time>
      </trkpt>
      <trkpt lat="62.353732" lon="12.295329">
        <ele>762.65</ele>
        <time>2011-07-04T12:55:28Z</time>
      </trkpt>
      <trkpt lat="62.353731" lon="12.295306">
        <ele>762.636</ele>
        <time>2011-07-04T12:55:29Z</time>
      </trkpt>
      <trkpt lat="62.353718" lon="12.295179">
        <ele>761.777</ele>
        <time>2011-07-04T12:55:34Z</time>
      </trkpt>
      <trkpt lat="62.353725" lon="12.295138">
        <ele>761.735</ele>
        <time>2011-07-04T12:55:36Z</time>
      </trkpt>
      <trkpt lat="62.353701" lon="12.294997">
        <ele>761.624</ele>
        <time>2011-07-04T12:55:41Z</time>
      </trkpt>
      <trkpt lat="62.353701" lon="12.294846">
        <ele>761.703</ele>
        <time>2011-07-04T12:55:47Z</time>
      </trkpt>
      <trkpt lat="62.353686" lon="12.294691">
        <ele>760.866</ele>
        <time>2011-07-04T12:55:54Z</time>
      </trkpt>
      <trkpt lat="62.353647" lon="12.294528">
        <ele>760.772</ele>
        <time>2011-07-04T12:56:00Z</time>
      </trkpt>
      <trkpt lat="62.353629" lon="12.294412">
        <ele>760.432</ele>
        <time>2011-07-04T12:56:06Z</time>
      </trkpt>
      <trkpt lat="62.35363" lon="12.294392">
        <ele>760.409</ele>
        <time>2011-07-04T12:56:07Z</time>
      </trkpt>
      <trkpt lat="62.35364" lon="12.294168">
        <ele>760.123</ele>
        <time>2011-07-04T12:56:15Z</time>
      </trkpt>
      <trkpt lat="62.35364" lon="12.294007">
        <ele>759.67</ele>
        <time>2011-07-04T12:56:21Z</time>
      </trkpt>
      <trkpt lat="62.353641" lon="12.293889">
        <ele>759.519</ele>
        <time>2011-07-04T12:56:26Z</time>
      </trkpt>
      <trkpt lat="62.353629" lon="12.2938">
        <ele>759.13</ele>
        <time>2011-07-04T12:56:31Z</time>
      </trkpt>
      <trkpt lat="62.353629" lon="12.293697">
        <ele>758.76</ele>
        <time>2011-07-04T12:56:35Z</time>
      </trkpt>
      <trkpt lat="62.353591" lon="12.293477">
        <ele>758.381</ele>
        <time>2011-07-04T12:56:43Z</time>
      </trkpt>
      <trkpt lat="62.353593" lon="12.293445">
        <ele>758.123</ele>
        <time>2011-07-04T12:56:45Z</time>
      </trkpt>
      <trkpt lat="62.353594" lon="12.2933">
        <ele>757.695</ele>
        <time>2011-07-04T12:56:52Z</time>
      </trkpt>
      <trkpt lat="62.353613" lon="12.293132">
        <ele>757.301</ele>
        <time>2011-07-04T12:56:58Z</time>
      </trkpt>
      <trkpt lat="62.353613" lon="12.293069">
        <ele>757.275</ele>
        <time>2011-07-04T12:57:00Z</time>
      </trkpt>
      <trkpt lat="62.353602" lon="12.292912">
        <ele>756.901</ele>
        <time>2011-07-04T12:57:08Z</time>
      </trkpt>
      <trkpt lat="62.353608" lon="12.292757">
        <ele>756.221</ele>
        <time>2011-07-04T12:57:15Z</time>
      </trkpt>
      <trkpt lat="62.353586" lon="12.292543">
        <ele>755.928</ele>
        <time>2011-07-04T12:57:24Z</time>
      </trkpt>
      <trkpt lat="62.353588" lon="12.292462">
        <ele>755.875</ele>
        <time>2011-07-04T12:57:27Z</time>
      </trkpt>
      <trkpt lat="62.353604" lon="12.292308">
        <ele>755.769</ele>
        <time>2011-07-04T12:57:33Z</time>
      </trkpt>
      <trkpt lat="62.353598" lon="12.292199">
        <ele>755.762</ele>
        <time>2011-07-04T12:57:37Z</time>
      </trkpt>
      <trkpt lat="62.353619" lon="12.292037">
        <ele>755.752</ele>
        <time>2011-07-04T12:57:43Z</time>
      </trkpt>
      <trkpt lat="62.353618" lon="12.291988">
        <ele>755.854</ele>
        <time>2011-07-04T12:57:45Z</time>
      </trkpt>
      <trkpt lat="62.353617" lon="12.291935">
        <ele>755.859</ele>
        <time>2011-07-04T12:57:47Z</time>
      </trkpt>
      <trkpt lat="62.353632" lon="12.291863">
        <ele>755.976</ele>
        <time>2011-07-04T12:57:50Z</time>
      </trkpt>
      <trkpt lat="62.353635" lon="12.291715">
        <ele>756.2</ele>
        <time>2011-07-04T12:57:56Z</time>
      </trkpt>
      <trkpt lat="62.353635" lon="12.291617">
        <ele>756.07</ele>
        <time>2011-07-04T12:58:00Z</time>
      </trkpt>
      <trkpt lat="62.353643" lon="12.291453">
        <ele>756.256</ele>
        <time>2011-07-04T12:58:06Z</time>
      </trkpt>
      <trkpt lat="62.353645" lon="12.291251">
        <ele>756.449</ele>
        <time>2011-07-04T12:58:14Z</time>
      </trkpt>
      <trkpt lat="62.353662" lon="12.29107">
        <ele>756.583</ele>
        <time>2011-07-04T12:58:20Z</time>
      </trkpt>
      <trkpt lat="62.35367" lon="12.29094">
        <ele>756.684</ele>
        <time>2011-07-04T12:58:24Z</time>
      </trkpt>
      <trkpt lat="62.353713" lon="12.290656">
        <ele>757.051</ele>
        <time>2011-07-04T12:58:31Z</time>
      </trkpt>
      <trkpt lat="62.353736" lon="12.290439">
        <ele>757.136</ele>
        <time>2011-07-04T12:58:36Z</time>
      </trkpt>
      <trkpt lat="62.353726" lon="12.290176">
        <ele>757.092</ele>
        <time>2011-07-04T12:58:42Z</time>
      </trkpt>
      <trkpt lat="62.353723" lon="12.290085">
        <ele>757.135</ele>
        <time>2011-07-04T12:58:44Z</time>
      </trkpt>
      <trkpt lat="62.353722" lon="12.290035">
        <ele>757.064</ele>
        <time>2011-07-04T12:58:46Z</time>
      </trkpt>
      <trkpt lat="62.35371" lon="12.289902">
        <ele>756.958</ele>
        <time>2011-07-04T12:58:51Z</time>
      </trkpt>
      <trkpt lat="62.353718" lon="12.289798">
        <ele>756.973</ele>
        <time>2011-07-04T12:58:54Z</time>
      </trkpt>
      <trkpt lat="62.353721" lon="12.28971">
        <ele>756.926</ele>
        <time>2011-07-04T12:58:56Z</time>
      </trkpt>
      <trkpt lat="62.353754" lon="12.289488">
        <ele>757.007</ele>
        <time>2011-07-04T12:59:01Z</time>
      </trkpt>
      <trkpt lat="62.353772" lon="12.28931">
        <ele>757.154</ele>
        <time>2011-07-04T12:59:05Z</time>
      </trkpt>
      <trkpt lat="62.353776" lon="12.289039">
        <ele>757.316</ele>
        <time>2011-07-04T12:59:11Z</time>
      </trkpt>
      <trkpt lat="62.353777" lon="12.288802">
        <ele>757.438</ele>
        <time>2011-07-04T12:59:16Z</time>
      </trkpt>
      <trkpt lat="62.353769" lon="12.288479">
        <ele>757.32</ele>
        <time>2011-07-04T12:59:23Z</time>
      </trkpt>
      <trkpt lat="62.353773" lon="12.288438">
        <ele>757.31</ele>
        <time>2011-07-04T12:59:24Z</time>
      </trkpt>
      <trkpt lat="62.353778" lon="12.288133">
        <ele>756.986</ele>
        <time>2011-07-04T12:59:32Z</time>
      </trkpt>
      <trkpt lat="62.353784" lon="12.288093">
        <ele>756.937</ele>
        <time>2011-07-04T12:59:33Z</time>
      </trkpt>
      <trkpt lat="62.353799" lon="12.287855">
        <ele>756.795</ele>
        <time>2011-07-04T12:59:41Z</time>
      </trkpt>
      <trkpt lat="62.353801" lon="12.287715">
        <ele>756.875</ele>
        <time>2011-07-04T12:59:46Z</time>
      </trkpt>
      <trkpt lat="62.3538" lon="12.287425">
        <ele>756.446</ele>
        <time>2011-07-04T12:59:56Z</time>
      </trkpt>
      <trkpt lat="62.353801" lon="12.287253">
        <ele>756.169</ele>
        <time>2011-07-04T13:00:02Z</time>
      </trkpt>
      <trkpt lat="62.35381" lon="12.287073">
        <ele>756.129</ele>
        <time>2011-07-04T13:00:08Z</time>
      </trkpt>
      <trkpt lat="62.35379" lon="12.286844">
        <ele>755.851</ele>
        <time>2011-07-04T13:00:16Z</time>
      </trkpt>
      <trkpt lat="62.35379" lon="12.286813">
        <ele>755.916</ele>
        <time>2011-07-04T13:00:17Z</time>
      </trkpt>
      <trkpt lat="62.353805" lon="12.286556">
        <ele>755.73</ele>
        <time>2011-07-04T13:00:27Z</time>
      </trkpt>
      <trkpt lat="62.353806" lon="12.286361">
        <ele>755.561</ele>
        <time>2011-07-04T13:00:35Z</time>
      </trkpt>
      <trkpt lat="62.353797" lon="12.286177">
        <ele>755.285</ele>
        <time>2011-07-04T13:00:42Z</time>
      </trkpt>
      <trkpt lat="62.353796" lon="12.28611">
        <ele>755.126</ele>
        <time>2011-07-04T13:00:45Z</time>
      </trkpt>
      <trkpt lat="62.353783" lon="12.286015">
        <ele>755.009</ele>
        <time>2011-07-04T13:00:49Z</time>
      </trkpt>
      <trkpt lat="62.353801" lon="12.285872">
        <ele>755.044</ele>
        <time>2011-07-04T13:00:54Z</time>
      </trkpt>
      <trkpt lat="62.353799" lon="12.285641">
        <ele>754.63</ele>
        <time>2011-07-04T13:01:01Z</time>
      </trkpt>
      <trkpt lat="62.353795" lon="12.285394">
        <ele>754.735</ele>
        <time>2011-07-04T13:01:06Z</time>
      </trkpt>
      <trkpt lat="62.353799" lon="12.285359">
        <ele>754.768</ele>
        <time>2011-07-04T13:01:07Z</time>
      </trkpt>
      <trkpt lat="62.353801" lon="12.285188">
        <ele>754.643</ele>
        <time>2011-07-04T13:01:14Z</time>
      </trkpt>
      <trkpt lat="62.353808" lon="12.285094">
        <ele>755.077</ele>
        <time>2011-07-04T13:01:19Z</time>
      </trkpt>
      <trkpt lat="62.353809" lon="12.28508">
        <ele>755.126</ele>
        <time>2011-07-04T13:01:20Z</time>
      </trkpt>
      <trkpt lat="62.353816" lon="12.284879">
        <ele>754.649</ele>
        <time>2011-07-04T13:01:29Z</time>
      </trkpt>
      <trkpt lat="62.353823" lon="12.284856">
        <ele>754.696</ele>
        <time>2011-07-04T13:01:31Z</time>
      </trkpt>
      <trkpt lat="62.353833" lon="12.284748">
        <ele>755.179</ele>
        <time>2011-07-04T13:01:40Z</time>
      </trkpt>
      <trkpt lat="62.353733" lon="12.284594">
        <ele>755.261</ele>
        <time>2011-07-04T13:02:15Z</time>
      </trkpt>
      <trkpt lat="62.353771" lon="12.284405">
        <ele>755.237</ele>
        <time>2011-07-04T13:02:20Z</time>
      </trkpt>
      <trkpt lat="62.353777" lon="12.284272">
        <ele>755.377</ele>
        <time>2011-07-04T13:02:24Z</time>
      </trkpt>
      <trkpt lat="62.353762" lon="12.284125">
        <ele>754.99</ele>
        <time>2011-07-04T13:02:28Z</time>
      </trkpt>
      <trkpt lat="62.353765" lon="12.284005">
        <ele>754.825</ele>
        <time>2011-07-04T13:02:33Z</time>
      </trkpt>
      <trkpt lat="62.353778" lon="12.283807">
        <ele>754.541</ele>
        <time>2011-07-04T13:02:40Z</time>
      </trkpt>
      <trkpt lat="62.353779" lon="12.283718">
        <ele>754.674</ele>
        <time>2011-07-04T13:02:44Z</time>
      </trkpt>
      <trkpt lat="62.353801" lon="12.28346">
        <ele>755.071</ele>
        <time>2011-07-04T13:02:58Z</time>
      </trkpt>
      <trkpt lat="62.353804" lon="12.283414">
        <ele>755.098</ele>
        <time>2011-07-04T13:03:00Z</time>
      </trkpt>
      <trkpt lat="62.353804" lon="12.283301">
        <ele>754.834</ele>
        <time>2011-07-04T13:03:05Z</time>
      </trkpt>
      <trkpt lat="62.3538" lon="12.283194">
        <ele>754.405</ele>
        <time>2011-07-04T13:03:10Z</time>
      </trkpt>
      <trkpt lat="62.3538" lon="12.282989">
        <ele>754.104</ele>
        <time>2011-07-04T13:03:19Z</time>
      </trkpt>
      <trkpt lat="62.353797" lon="12.282873">
        <ele>753.811</ele>
        <time>2011-07-04T13:03:24Z</time>
      </trkpt>
      <trkpt lat="62.35381" lon="12.282706">
        <ele>753.551</ele>
        <time>2011-07-04T13:03:31Z</time>
      </trkpt>
      <trkpt lat="62.353805" lon="12.2826">
        <ele>753.357</ele>
        <time>2011-07-04T13:03:35Z</time>
      </trkpt>
      <trkpt lat="62.353795" lon="12.282515">
        <ele>753.228</ele>
        <time>2011-07-04T13:03:38Z</time>
      </trkpt>
      <trkpt lat="62.353819" lon="12.282279">
        <ele>753.076</ele>
        <time>2011-07-04T13:03:46Z</time>
      </trkpt>
      <trkpt lat="62.353828" lon="12.282159">
        <ele>752.818</ele>
        <time>2011-07-04T13:03:50Z</time>
      </trkpt>
      <trkpt lat="62.35386" lon="12.281963">
        <ele>752.799</ele>
        <time>2011-07-04T13:03:58Z</time>
      </trkpt>
      <trkpt lat="62.353862" lon="12.281879">
        <ele>752.87</ele>
        <time>2011-07-04T13:04:02Z</time>
      </trkpt>
      <trkpt lat="62.353873" lon="12.281852">
        <ele>752.914</ele>
        <time>2011-07-04T13:04:04Z</time>
      </trkpt>
      <trkpt lat="62.353892" lon="12.281693">
        <ele>752.811</ele>
        <time>2011-07-04T13:04:10Z</time>
      </trkpt>
      <trkpt lat="62.353896" lon="12.281481">
        <ele>753.045</ele>
        <time>2011-07-04T13:04:15Z</time>
      </trkpt>
      <trkpt lat="62.353896" lon="12.281431">
        <ele>752.927</ele>
        <time>2011-07-04T13:04:16Z</time>
      </trkpt>
      <trkpt lat="62.353973" lon="12.281243">
        <ele>752.918</ele>
        <time>2011-07-04T13:04:21Z</time>
      </trkpt>
      <trkpt lat="62.353999" lon="12.281118">
        <ele>753.099</ele>
        <time>2011-07-04T13:04:24Z</time>
      </trkpt>
      <trkpt lat="62.354085" lon="12.280769">
        <ele>752.927</ele>
        <time>2011-07-04T13:04:31Z</time>
      </trkpt>
      <trkpt lat="62.354191" lon="12.280588">
        <ele>753.12</ele>
        <time>2011-07-04T13:04:36Z</time>
      </trkpt>
      <trkpt lat="62.354287" lon="12.280393">
        <ele>753.505</ele>
        <time>2011-07-04T13:04:41Z</time>
      </trkpt>
      <trkpt lat="62.354368" lon="12.2802">
        <ele>754.024</ele>
        <time>2011-07-04T13:04:46Z</time>
      </trkpt>
      <trkpt lat="62.354381" lon="12.280166">
        <ele>754.046</ele>
        <time>2011-07-04T13:04:47Z</time>
      </trkpt>
      <trkpt lat="62.354481" lon="12.279905">
        <ele>754.647</ele>
        <time>2011-07-04T13:04:55Z</time>
      </trkpt>
      <trkpt lat="62.354498" lon="12.279825">
        <ele>754.774</ele>
        <time>2011-07-04T13:04:57Z</time>
      </trkpt>
      <trkpt lat="62.354546" lon="12.279586">
        <ele>755.11</ele>
        <time>2011-07-04T13:05:02Z</time>
      </trkpt>
      <trkpt lat="62.354577" lon="12.279382">
        <ele>755.59</ele>
        <time>2011-07-04T13:05:07Z</time>
      </trkpt>
      <trkpt lat="62.354604" lon="12.279265">
        <ele>755.918</ele>
        <time>2011-07-04T13:05:11Z</time>
      </trkpt>
      <trkpt lat="62.354627" lon="12.279195">
        <ele>756.351</ele>
        <time>2011-07-04T13:05:14Z</time>
      </trkpt>
      <trkpt lat="62.354647" lon="12.2791">
        <ele>756.697</ele>
        <time>2011-07-04T13:05:18Z</time>
      </trkpt>
      <trkpt lat="62.354722" lon="12.278871">
        <ele>757.702</ele>
        <time>2011-07-04T13:05:28Z</time>
      </trkpt>
      <trkpt lat="62.354767" lon="12.278709">
        <ele>758.325</ele>
        <time>2011-07-04T13:05:35Z</time>
      </trkpt>
      <trkpt lat="62.354798" lon="12.278563">
        <ele>759.165</ele>
        <time>2011-07-04T13:05:41Z</time>
      </trkpt>
      <trkpt lat="62.35484" lon="12.278489">
        <ele>759.732</ele>
        <time>2011-07-04T13:05:45Z</time>
      </trkpt>
      <trkpt lat="62.354875" lon="12.278414">
        <ele>760.527</ele>
        <time>2011-07-04T13:05:49Z</time>
      </trkpt>
      <trkpt lat="62.354918" lon="12.278285">
        <ele>761.796</ele>
        <time>2011-07-04T13:05:57Z</time>
      </trkpt>
      <trkpt lat="62.354918" lon="12.278267">
        <ele>761.904</ele>
        <time>2011-07-04T13:05:58Z</time>
      </trkpt>
      <trkpt lat="62.354925" lon="12.27818">
        <ele>762.145</ele>
        <time>2011-07-04T13:06:02Z</time>
      </trkpt>
      <trkpt lat="62.354968" lon="12.278032">
        <ele>762.372</ele>
        <time>2011-07-04T13:06:08Z</time>
      </trkpt>
      <trkpt lat="62.354974" lon="12.277848">
        <ele>762.7</ele>
        <time>2011-07-04T13:06:15Z</time>
      </trkpt>
      <trkpt lat="62.354983" lon="12.277798">
        <ele>763.257</ele>
        <time>2011-07-04T13:06:19Z</time>
      </trkpt>
      <trkpt lat="62.355048" lon="12.277661">
        <ele>763.607</ele>
        <time>2011-07-04T13:06:27Z</time>
      </trkpt>
      <trkpt lat="62.35506" lon="12.277639">
        <ele>763.572</ele>
        <time>2011-07-04T13:06:28Z</time>
      </trkpt>
      <trkpt lat="62.355097" lon="12.27754">
        <ele>763.626</ele>
        <time>2011-07-04T13:06:32Z</time>
      </trkpt>
      <trkpt lat="62.355141" lon="12.277468">
        <ele>763.844</ele>
        <time>2011-07-04T13:06:35Z</time>
      </trkpt>
      <trkpt lat="62.355179" lon="12.277274">
        <ele>764.317</ele>
        <time>2011-07-04T13:06:42Z</time>
      </trkpt>
      <trkpt lat="62.355181" lon="12.277203">
        <ele>764.376</ele>
        <time>2011-07-04T13:06:45Z</time>
      </trkpt>
      <trkpt lat="62.355188" lon="12.277132">
        <ele>764.597</ele>
        <time>2011-07-04T13:06:49Z</time>
      </trkpt>
      <trkpt lat="62.355229" lon="12.276966">
        <ele>764.965</ele>
        <time>2011-07-04T13:06:56Z</time>
      </trkpt>
      <trkpt lat="62.355279" lon="12.276819">
        <ele>765.753</ele>
        <time>2011-07-04T13:07:02Z</time>
      </trkpt>
      <trkpt lat="62.355336" lon="12.276722">
        <ele>766.162</ele>
        <time>2011-07-04T13:07:07Z</time>
      </trkpt>
      <trkpt lat="62.355408" lon="12.276607">
        <ele>767.099</ele>
        <time>2011-07-04T13:07:14Z</time>
      </trkpt>
      <trkpt lat="62.355413" lon="12.276585">
        <ele>767.169</ele>
        <time>2011-07-04T13:07:15Z</time>
      </trkpt>
      <trkpt lat="62.355426" lon="12.27651">
        <ele>767.345</ele>
        <time>2011-07-04T13:07:19Z</time>
      </trkpt>
      <trkpt lat="62.355426" lon="12.276454">
        <ele>767.492</ele>
        <time>2011-07-04T13:07:22Z</time>
      </trkpt>
      <trkpt lat="62.355437" lon="12.276288">
        <ele>767.904</ele>
        <time>2011-07-04T13:07:29Z</time>
      </trkpt>
      <trkpt lat="62.355461" lon="12.27615">
        <ele>767.872</ele>
        <time>2011-07-04T13:07:35Z</time>
      </trkpt>
      <trkpt lat="62.355475" lon="12.276062">
        <ele>768.072</ele>
        <time>2011-07-04T13:07:39Z</time>
      </trkpt>
      <trkpt lat="62.35549" lon="12.275887">
        <ele>768.276</ele>
        <time>2011-07-04T13:07:46Z</time>
      </trkpt>
      <trkpt lat="62.355524" lon="12.275669">
        <ele>768.008</ele>
        <time>2011-07-04T13:07:53Z</time>
      </trkpt>
      <trkpt lat="62.355563" lon="12.275478">
        <ele>768.057</ele>
        <time>2011-07-04T13:08:00Z</time>
      </trkpt>
      <trkpt lat="62.355606" lon="12.275285">
        <ele>768.326</ele>
        <time>2011-07-04T13:08:06Z</time>
      </trkpt>
      <trkpt lat="62.355613" lon="12.275258">
        <ele>768.426</ele>
        <time>2011-07-04T13:08:07Z</time>
      </trkpt>
      <trkpt lat="62.355623" lon="12.275161">
        <ele>768.689</ele>
        <time>2011-07-04T13:08:10Z</time>
      </trkpt>
      <trkpt lat="62.355645" lon="12.275084">
        <ele>768.865</ele>
        <time>2011-07-04T13:08:12Z</time>
      </trkpt>
      <trkpt lat="62.355684" lon="12.274779">
        <ele>768.891</ele>
        <time>2011-07-04T13:08:19Z</time>
      </trkpt>
      <trkpt lat="62.355715" lon="12.274605">
        <ele>768.974</ele>
        <time>2011-07-04T13:08:24Z</time>
      </trkpt>
      <trkpt lat="62.355739" lon="12.274486">
        <ele>768.971</ele>
        <time>2011-07-04T13:08:28Z</time>
      </trkpt>
      <trkpt lat="62.355745" lon="12.274426">
        <ele>768.881</ele>
        <time>2011-07-04T13:08:30Z</time>
      </trkpt>
      <trkpt lat="62.355795" lon="12.27429">
        <ele>768.471</ele>
        <time>2011-07-04T13:08:35Z</time>
      </trkpt>
      <trkpt lat="62.355846" lon="12.274094">
        <ele>768.446</ele>
        <time>2011-07-04T13:08:42Z</time>
      </trkpt>
      <trkpt lat="62.355871" lon="12.274023">
        <ele>768.576</ele>
        <time>2011-07-04T13:08:45Z</time>
      </trkpt>
      <trkpt lat="62.355896" lon="12.273981">
        <ele>769.01</ele>
        <time>2011-07-04T13:08:48Z</time>
      </trkpt>
      <trkpt lat="62.355902" lon="12.273842">
        <ele>768.84</ele>
        <time>2011-07-04T13:08:54Z</time>
      </trkpt>
      <trkpt lat="62.355899" lon="12.27375">
        <ele>768.855</ele>
        <time>2011-07-04T13:08:58Z</time>
      </trkpt>
      <trkpt lat="62.355936" lon="12.27363">
        <ele>768.895</ele>
        <time>2011-07-04T13:09:03Z</time>
      </trkpt>
      <trkpt lat="62.355964" lon="12.273524">
        <ele>768.951</ele>
        <time>2011-07-04T13:09:08Z</time>
      </trkpt>
      <trkpt lat="62.355949" lon="12.273335">
        <ele>769.127</ele>
        <time>2011-07-04T13:09:14Z</time>
      </trkpt>
      <trkpt lat="62.356" lon="12.273155">
        <ele>769.676</ele>
        <time>2011-07-04T13:09:22Z</time>
      </trkpt>
      <trkpt lat="62.356024" lon="12.273014">
        <ele>769.426</ele>
        <time>2011-07-04T13:09:28Z</time>
      </trkpt>
      <trkpt lat="62.356031" lon="12.272992">
        <ele>769.414</ele>
        <time>2011-07-04T13:09:29Z</time>
      </trkpt>
      <trkpt lat="62.356046" lon="12.272776">
        <ele>769.674</ele>
        <time>2011-07-04T13:09:36Z</time>
      </trkpt>
      <trkpt lat="62.356087" lon="12.272598">
        <ele>769.636</ele>
        <time>2011-07-04T13:09:43Z</time>
      </trkpt>
      <trkpt lat="62.356095" lon="12.272396">
        <ele>769.193</ele>
        <time>2011-07-04T13:09:51Z</time>
      </trkpt>
      <trkpt lat="62.356088" lon="12.272246">
        <ele>768.744</ele>
        <time>2011-07-04T13:09:58Z</time>
      </trkpt>
      <trkpt lat="62.356116" lon="12.272076">
        <ele>768.922</ele>
        <time>2011-07-04T13:10:04Z</time>
      </trkpt>
      <trkpt lat="62.356166" lon="12.271986">
        <ele>769.093</ele>
        <time>2011-07-04T13:10:08Z</time>
      </trkpt>
      <trkpt lat="62.356174" lon="12.271872">
        <ele>769.127</ele>
        <time>2011-07-04T13:10:13Z</time>
      </trkpt>
      <trkpt lat="62.35624" lon="12.271812">
        <ele>769.848</ele>
        <time>2011-07-04T13:10:20Z</time>
      </trkpt>
      <trkpt lat="62.356304" lon="12.27184">
        <ele>770.627</ele>
        <time>2011-07-04T13:10:25Z</time>
      </trkpt>
      <trkpt lat="62.356314" lon="12.271817">
        <ele>770.941</ele>
        <time>2011-07-04T13:10:27Z</time>
      </trkpt>
      <trkpt lat="62.356343" lon="12.271555">
        <ele>771.683</ele>
        <time>2011-07-04T13:10:35Z</time>
      </trkpt>
      <trkpt lat="62.356379" lon="12.271498">
        <ele>771.83</ele>
        <time>2011-07-04T13:10:37Z</time>
      </trkpt>
      <trkpt lat="62.356474" lon="12.271226">
        <ele>772.041</ele>
        <time>2011-07-04T13:10:44Z</time>
      </trkpt>
      <trkpt lat="62.356519" lon="12.27106">
        <ele>772.333</ele>
        <time>2011-07-04T13:10:50Z</time>
      </trkpt>
      <trkpt lat="62.356546" lon="12.270888">
        <ele>772.395</ele>
        <time>2011-07-04T13:10:56Z</time>
      </trkpt>
      <trkpt lat="62.356568" lon="12.270696">
        <ele>772.224</ele>
        <time>2011-07-04T13:11:04Z</time>
      </trkpt>
      <trkpt lat="62.356584" lon="12.270577">
        <ele>772.201</ele>
        <time>2011-07-04T13:11:09Z</time>
      </trkpt>
      <trkpt lat="62.356585" lon="12.270508">
        <ele>772.136</ele>
        <time>2011-07-04T13:11:12Z</time>
      </trkpt>
      <trkpt lat="62.356602" lon="12.270242">
        <ele>771.849</ele>
        <time>2011-07-04T13:11:20Z</time>
      </trkpt>
      <trkpt lat="62.356629" lon="12.26997">
        <ele>771.633</ele>
        <time>2011-07-04T13:11:26Z</time>
      </trkpt>
      <trkpt lat="62.356659" lon="12.26984">
        <ele>771.728</ele>
        <time>2011-07-04T13:11:30Z</time>
      </trkpt>
      <trkpt lat="62.356669" lon="12.269647">
        <ele>771.584</ele>
        <time>2011-07-04T13:11:37Z</time>
      </trkpt>
      <trkpt lat="62.35667" lon="12.269546">
        <ele>771.436</ele>
        <time>2011-07-04T13:11:41Z</time>
      </trkpt>
      <trkpt lat="62.356665" lon="12.269396">
        <ele>771.275</ele>
        <time>2011-07-04T13:11:46Z</time>
      </trkpt>
      <trkpt lat="62.356689" lon="12.269202">
        <ele>771.075</ele>
        <time>2011-07-04T13:11:54Z</time>
      </trkpt>
      <trkpt lat="62.356714" lon="12.269084">
        <ele>771.183</ele>
        <time>2011-07-04T13:12:00Z</time>
      </trkpt>
      <trkpt lat="62.35671" lon="12.268899">
        <ele>771.045</ele>
        <time>2011-07-04T13:12:07Z</time>
      </trkpt>
      <trkpt lat="62.356693" lon="12.268813">
        <ele>771.021</ele>
        <time>2011-07-04T13:12:09Z</time>
      </trkpt>
      <trkpt lat="62.356698" lon="12.268699">
        <ele>771.011</ele>
        <time>2011-07-04T13:12:13Z</time>
      </trkpt>
      <trkpt lat="62.35675" lon="12.268491">
        <ele>771.303</ele>
        <time>2011-07-04T13:12:21Z</time>
      </trkpt>
      <trkpt lat="62.356796" lon="12.268269">
        <ele>771.246</ele>
        <time>2011-07-04T13:12:28Z</time>
      </trkpt>
      <trkpt lat="62.356814" lon="12.268094">
        <ele>771.322</ele>
        <time>2011-07-04T13:12:35Z</time>
      </trkpt>
      <trkpt lat="62.356826" lon="12.267846">
        <ele>770.813</ele>
        <time>2011-07-04T13:12:42Z</time>
      </trkpt>
      <trkpt lat="62.356818" lon="12.267627">
        <ele>770.698</ele>
        <time>2011-07-04T13:12:47Z</time>
      </trkpt>
      <trkpt lat="62.356866" lon="12.267451">
        <ele>770.739</ele>
        <time>2011-07-04T13:12:51Z</time>
      </trkpt>
      <trkpt lat="62.356874" lon="12.267304">
        <ele>770.409</ele>
        <time>2011-07-04T13:12:55Z</time>
      </trkpt>
      <trkpt lat="62.35688" lon="12.267166">
        <ele>770.114</ele>
        <time>2011-07-04T13:12:59Z</time>
      </trkpt>
      <trkpt lat="62.356887" lon="12.266974">
        <ele>769.63</ele>
        <time>2011-07-04T13:13:04Z</time>
      </trkpt>
      <trkpt lat="62.356912" lon="12.266781">
        <ele>769.59</ele>
        <time>2011-07-04T13:13:09Z</time>
      </trkpt>
      <trkpt lat="62.356922" lon="12.266742">
        <ele>769.488</ele>
        <time>2011-07-04T13:13:10Z</time>
      </trkpt>
      <trkpt lat="62.356982" lon="12.266498">
        <ele>769.208</ele>
        <time>2011-07-04T13:13:16Z</time>
      </trkpt>
      <trkpt lat="62.357001" lon="12.266409">
        <ele>769.184</ele>
        <time>2011-07-04T13:13:18Z</time>
      </trkpt>
      <trkpt lat="62.35705" lon="12.266132">
        <ele>769.391</ele>
        <time>2011-07-04T13:13:24Z</time>
      </trkpt>
      <trkpt lat="62.357086" lon="12.265855">
        <ele>769.294</ele>
        <time>2011-07-04T13:13:30Z</time>
      </trkpt>
      <trkpt lat="62.357089" lon="12.265659">
        <ele>769.381</ele>
        <time>2011-07-04T13:13:35Z</time>
      </trkpt>
      <trkpt lat="62.357116" lon="12.265565">
        <ele>769.185</ele>
        <time>2011-07-04T13:13:41Z</time>
      </trkpt>
      <trkpt lat="62.35712" lon="12.265533">
        <ele>769.064</ele>
        <time>2011-07-04T13:13:43Z</time>
      </trkpt>
      <trkpt lat="62.357111" lon="12.265409">
        <ele>768.925</ele>
        <time>2011-07-04T13:13:48Z</time>
      </trkpt>
      <trkpt lat="62.357149" lon="12.26534">
        <ele>769.25</ele>
        <time>2011-07-04T13:13:52Z</time>
      </trkpt>
      <trkpt lat="62.357218" lon="12.265225">
        <ele>770.297</ele>
        <time>2011-07-04T13:13:58Z</time>
      </trkpt>
      <trkpt lat="62.357265" lon="12.265097">
        <ele>770.083</ele>
        <time>2011-07-04T13:14:03Z</time>
      </trkpt>
      <trkpt lat="62.357278" lon="12.26495">
        <ele>769.681</ele>
        <time>2011-07-04T13:14:09Z</time>
      </trkpt>
      <trkpt lat="62.357302" lon="12.264838">
        <ele>769.971</ele>
        <time>2011-07-04T13:14:14Z</time>
      </trkpt>
      <trkpt lat="62.357319" lon="12.264638">
        <ele>770.299</ele>
        <time>2011-07-04T13:14:21Z</time>
      </trkpt>
      <trkpt lat="62.357369" lon="12.264498">
        <ele>769.951</ele>
        <time>2011-07-04T13:14:26Z</time>
      </trkpt>
      <trkpt lat="62.357414" lon="12.26437">
        <ele>769.708</ele>
        <time>2011-07-04T13:14:30Z</time>
      </trkpt>
      <trkpt lat="62.357457" lon="12.264179">
        <ele>769.934</ele>
        <time>2011-07-04T13:14:36Z</time>
      </trkpt>
      <trkpt lat="62.357463" lon="12.264085">
        <ele>769.965</ele>
        <time>2011-07-04T13:14:39Z</time>
      </trkpt>
      <trkpt lat="62.3575" lon="12.263835">
        <ele>770.286</ele>
        <time>2011-07-04T13:14:46Z</time>
      </trkpt>
      <trkpt lat="62.357539" lon="12.263721">
        <ele>770.286</ele>
        <time>2011-07-04T13:14:51Z</time>
      </trkpt>
      <trkpt lat="62.357579" lon="12.263627">
        <ele>770.749</ele>
        <time>2011-07-04T13:14:56Z</time>
      </trkpt>
      <trkpt lat="62.357587" lon="12.263469">
        <ele>771.057</ele>
        <time>2011-07-04T13:15:02Z</time>
      </trkpt>
      <trkpt lat="62.35761" lon="12.263217">
        <ele>771.266</ele>
        <time>2011-07-04T13:15:08Z</time>
      </trkpt>
      <trkpt lat="62.357657" lon="12.262999">
        <ele>771.283</ele>
        <time>2011-07-04T13:15:13Z</time>
      </trkpt>
      <trkpt lat="62.357707" lon="12.262924">
        <ele>771.737</ele>
        <time>2011-07-04T13:15:16Z</time>
      </trkpt>
      <trkpt lat="62.357749" lon="12.26277">
        <ele>771.743</ele>
        <time>2011-07-04T13:15:20Z</time>
      </trkpt>
      <trkpt lat="62.357871" lon="12.262423">
        <ele>772.982</ele>
        <time>2011-07-04T13:15:28Z</time>
      </trkpt>
      <trkpt lat="62.357906" lon="12.262213">
        <ele>773.56</ele>
        <time>2011-07-04T13:15:33Z</time>
      </trkpt>
      <trkpt lat="62.357922" lon="12.262116">
        <ele>773.429</ele>
        <time>2011-07-04T13:15:35Z</time>
      </trkpt>
      <trkpt lat="62.358043" lon="12.261861">
        <ele>773.904</ele>
        <time>2011-07-04T13:15:42Z</time>
      </trkpt>
      <trkpt lat="62.358077" lon="12.26178">
        <ele>774.372</ele>
        <time>2011-07-04T13:15:46Z</time>
      </trkpt>
      <trkpt lat="62.358121" lon="12.261557">
        <ele>774.635</ele>
        <time>2011-07-04T13:15:53Z</time>
      </trkpt>
      <trkpt lat="62.358206" lon="12.261389">
        <ele>774.92</ele>
        <time>2011-07-04T13:15:58Z</time>
      </trkpt>
      <trkpt lat="62.358275" lon="12.26126">
        <ele>775.481</ele>
        <time>2011-07-04T13:16:04Z</time>
      </trkpt>
      <trkpt lat="62.358321" lon="12.261084">
        <ele>775.735</ele>
        <time>2011-07-04T13:16:09Z</time>
      </trkpt>
      <trkpt lat="62.358407" lon="12.260957">
        <ele>776.231</ele>
        <time>2011-07-04T13:16:14Z</time>
      </trkpt>
      <trkpt lat="62.358464" lon="12.260811">
        <ele>776.417</ele>
        <time>2011-07-04T13:16:21Z</time>
      </trkpt>
      <trkpt lat="62.35851" lon="12.260705">
        <ele>776.957</ele>
        <time>2011-07-04T13:16:26Z</time>
      </trkpt>
      <trkpt lat="62.358527" lon="12.260642">
        <ele>777.008</ele>
        <time>2011-07-04T13:16:30Z</time>
      </trkpt>
      <trkpt lat="62.358548" lon="12.260469">
        <ele>777.172</ele>
        <time>2011-07-04T13:16:37Z</time>
      </trkpt>
      <trkpt lat="62.358571" lon="12.260385">
        <ele>777.023</ele>
        <time>2011-07-04T13:16:40Z</time>
      </trkpt>
      <trkpt lat="62.358614" lon="12.260244">
        <ele>777.084</ele>
        <time>2011-07-04T13:16:48Z</time>
      </trkpt>
      <trkpt lat="62.358671" lon="12.260047">
        <ele>776.907</ele>
        <time>2011-07-04T13:16:56Z</time>
      </trkpt>
      <trkpt lat="62.358734" lon="12.259968">
        <ele>776.846</ele>
        <time>2011-07-04T13:17:00Z</time>
      </trkpt>
      <trkpt lat="62.358762" lon="12.259897">
        <ele>776.393</ele>
        <time>2011-07-04T13:17:04Z</time>
      </trkpt>
      <trkpt lat="62.358883" lon="12.25967">
        <ele>775.929</ele>
        <time>2011-07-04T13:17:11Z</time>
      </trkpt>
      <trkpt lat="62.358941" lon="12.259544">
        <ele>775.214</ele>
        <time>2011-07-04T13:17:15Z</time>
      </trkpt>
      <trkpt lat="62.359006" lon="12.259377">
        <ele>774.716</ele>
        <time>2011-07-04T13:17:22Z</time>
      </trkpt>
      <trkpt lat="62.359013" lon="12.25931">
        <ele>774.7</ele>
        <time>2011-07-04T13:17:24Z</time>
      </trkpt>
      <trkpt lat="62.359086" lon="12.259137">
        <ele>774.618</ele>
        <time>2011-07-04T13:17:31Z</time>
      </trkpt>
      <trkpt lat="62.359156" lon="12.258987">
        <ele>774.447</ele>
        <time>2011-07-04T13:17:35Z</time>
      </trkpt>
      <trkpt lat="62.359261" lon="12.258741">
        <ele>774.191</ele>
        <time>2011-07-04T13:17:41Z</time>
      </trkpt>
      <trkpt lat="62.359325" lon="12.258594">
        <ele>773.463</ele>
        <time>2011-07-04T13:17:46Z</time>
      </trkpt>
      <trkpt lat="62.359379" lon="12.25846">
        <ele>773.234</ele>
        <time>2011-07-04T13:17:50Z</time>
      </trkpt>
      <trkpt lat="62.359462" lon="12.25827">
        <ele>772.695</ele>
        <time>2011-07-04T13:17:57Z</time>
      </trkpt>
      <trkpt lat="62.359497" lon="12.258175">
        <ele>772.114</ele>
        <time>2011-07-04T13:18:00Z</time>
      </trkpt>
      <trkpt lat="62.359583" lon="12.257948">
        <ele>771.512</ele>
        <time>2011-07-04T13:18:07Z</time>
      </trkpt>
      <trkpt lat="62.359637" lon="12.257716">
        <ele>770.763</ele>
        <time>2011-07-04T13:18:14Z</time>
      </trkpt>
      <trkpt lat="62.359656" lon="12.257606">
        <ele>770.181</ele>
        <time>2011-07-04T13:18:19Z</time>
      </trkpt>
      <trkpt lat="62.359671" lon="12.257401">
        <ele>769.804</ele>
        <time>2011-07-04T13:18:27Z</time>
      </trkpt>
      <trkpt lat="62.359692" lon="12.257131">
        <ele>769.21</ele>
        <time>2011-07-04T13:18:36Z</time>
      </trkpt>
      <trkpt lat="62.359708" lon="12.256914">
        <ele>768.891</ele>
        <time>2011-07-04T13:18:43Z</time>
      </trkpt>
      <trkpt lat="62.359721" lon="12.256861">
        <ele>768.627</ele>
        <time>2011-07-04T13:18:45Z</time>
      </trkpt>
      <trkpt lat="62.359733" lon="12.256692">
        <ele>768.024</ele>
        <time>2011-07-04T13:18:51Z</time>
      </trkpt>
      <trkpt lat="62.35975" lon="12.256433">
        <ele>767.835</ele>
        <time>2011-07-04T13:19:01Z</time>
      </trkpt>
      <trkpt lat="62.359764" lon="12.256235">
        <ele>767.944</ele>
        <time>2011-07-04T13:19:08Z</time>
      </trkpt>
      <trkpt lat="62.359791" lon="12.255928">
        <ele>767.812</ele>
        <time>2011-07-04T13:19:16Z</time>
      </trkpt>
      <trkpt lat="62.359811" lon="12.255603">
        <ele>767.266</ele>
        <time>2011-07-04T13:19:24Z</time>
      </trkpt>
      <trkpt lat="62.359835" lon="12.255276">
        <ele>767.135</ele>
        <time>2011-07-04T13:19:33Z</time>
      </trkpt>
      <trkpt lat="62.359847" lon="12.255066">
        <ele>767.009</ele>
        <time>2011-07-04T13:19:41Z</time>
      </trkpt>
      <trkpt lat="62.359868" lon="12.254835">
        <ele>766.622</ele>
        <time>2011-07-04T13:19:49Z</time>
      </trkpt>
      <trkpt lat="62.359904" lon="12.254551">
        <ele>766.097</ele>
        <time>2011-07-04T13:19:58Z</time>
      </trkpt>
      <trkpt lat="62.359915" lon="12.254458">
        <ele>765.706</ele>
        <time>2011-07-04T13:20:03Z</time>
      </trkpt>
      <trkpt lat="62.359925" lon="12.254389">
        <ele>765.328</ele>
        <time>2011-07-04T13:20:09Z</time>
      </trkpt>
      <trkpt lat="62.359932" lon="12.254241">
        <ele>765.392</ele>
        <time>2011-07-04T13:20:15Z</time>
      </trkpt>
      <trkpt lat="62.359959" lon="12.254055">
        <ele>765.444</ele>
        <time>2011-07-04T13:20:22Z</time>
      </trkpt>
      <trkpt lat="62.359988" lon="12.253823">
        <ele>765.401</ele>
        <time>2011-07-04T13:20:31Z</time>
      </trkpt>
      <trkpt lat="62.36" lon="12.25358">
        <ele>765.103</ele>
        <time>2011-07-04T13:20:39Z</time>
      </trkpt>
      <trkpt lat="62.360029" lon="12.253356">
        <ele>765.036</ele>
        <time>2011-07-04T13:20:47Z</time>
      </trkpt>
      <trkpt lat="62.360058" lon="12.253158">
        <ele>764.809</ele>
        <time>2011-07-04T13:20:54Z</time>
      </trkpt>
      <trkpt lat="62.360076" lon="12.252935">
        <ele>764.649</ele>
        <time>2011-07-04T13:21:02Z</time>
      </trkpt>
      <trkpt lat="62.360144" lon="12.252688">
        <ele>764.585</ele>
        <time>2011-07-04T13:21:12Z</time>
      </trkpt>
      <trkpt lat="62.360165" lon="12.252569">
        <ele>764.34</ele>
        <time>2011-07-04T13:21:19Z</time>
      </trkpt>
      <trkpt lat="62.360165" lon="12.252562">
        <ele>764.199</ele>
        <time>2011-07-04T13:21:20Z</time>
      </trkpt>
      <trkpt lat="62.360216" lon="12.252433">
        <ele>764.223</ele>
        <time>2011-07-04T13:21:27Z</time>
      </trkpt>
      <trkpt lat="62.360245" lon="12.252348">
        <ele>764.325</ele>
        <time>2011-07-04T13:21:33Z</time>
      </trkpt>
      <trkpt lat="62.360332" lon="12.252165">
        <ele>764.667</ele>
        <time>2011-07-04T13:21:40Z</time>
      </trkpt>
      <trkpt lat="62.360403" lon="12.251971">
        <ele>765.727</ele>
        <time>2011-07-04T13:21:46Z</time>
      </trkpt>
      <trkpt lat="62.360445" lon="12.251863">
        <ele>766.074</ele>
        <time>2011-07-04T13:21:50Z</time>
      </trkpt>
      <trkpt lat="62.360528" lon="12.251686">
        <ele>766.454</ele>
        <time>2011-07-04T13:21:58Z</time>
      </trkpt>
      <trkpt lat="62.36059" lon="12.251494">
        <ele>766.773</ele>
        <time>2011-07-04T13:22:03Z</time>
      </trkpt>
      <trkpt lat="62.360624" lon="12.251385">
        <ele>767.264</ele>
        <time>2011-07-04T13:22:06Z</time>
      </trkpt>
      <trkpt lat="62.36073" lon="12.251203">
        <ele>768.4</ele>
        <time>2011-07-04T13:22:13Z</time>
      </trkpt>
      <trkpt lat="62.360819" lon="12.25095">
        <ele>769.17</ele>
        <time>2011-07-04T13:22:20Z</time>
      </trkpt>
      <trkpt lat="62.360905" lon="12.250787">
        <ele>769.399</ele>
        <time>2011-07-04T13:22:27Z</time>
      </trkpt>
      <trkpt lat="62.360976" lon="12.250578">
        <ele>769.457</ele>
        <time>2011-07-04T13:22:35Z</time>
      </trkpt>
      <trkpt lat="62.361029" lon="12.250422">
        <ele>769.04</ele>
        <time>2011-07-04T13:22:41Z</time>
      </trkpt>
      <trkpt lat="62.361113" lon="12.250214">
        <ele>768.901</ele>
        <time>2011-07-04T13:22:48Z</time>
      </trkpt>
      <trkpt lat="62.361176" lon="12.249967">
        <ele>768.382</ele>
        <time>2011-07-04T13:22:55Z</time>
      </trkpt>
      <trkpt lat="62.3613" lon="12.249783">
        <ele>768.781</ele>
        <time>2011-07-04T13:23:02Z</time>
      </trkpt>
      <trkpt lat="62.361355" lon="12.249636">
        <ele>768.82</ele>
        <time>2011-07-04T13:23:06Z</time>
      </trkpt>
      <trkpt lat="62.361414" lon="12.249439">
        <ele>768.784</ele>
        <time>2011-07-04T13:23:12Z</time>
      </trkpt>
      <trkpt lat="62.361422" lon="12.249412">
        <ele>768.812</ele>
        <time>2011-07-04T13:23:13Z</time>
      </trkpt>
      <trkpt lat="62.361443" lon="12.24936">
        <ele>768.767</ele>
        <time>2011-07-04T13:23:16Z</time>
      </trkpt>
      <trkpt lat="62.361471" lon="12.249187">
        <ele>768.353</ele>
        <time>2011-07-04T13:23:23Z</time>
      </trkpt>
      <trkpt lat="62.361494" lon="12.24906">
        <ele>768.094</ele>
        <time>2011-07-04T13:23:27Z</time>
      </trkpt>
      <trkpt lat="62.36155" lon="12.248819">
        <ele>767.976</ele>
        <time>2011-07-04T13:23:32Z</time>
      </trkpt>
      <trkpt lat="62.361575" lon="12.248604">
        <ele>767.645</ele>
        <time>2011-07-04T13:23:39Z</time>
      </trkpt>
      <trkpt lat="62.361583" lon="12.248517">
        <ele>767.473</ele>
        <time>2011-07-04T13:23:45Z</time>
      </trkpt>
      <trkpt lat="62.361621" lon="12.24851">
        <ele>766.143</ele>
        <time>2011-07-04T13:28:32Z</time>
      </trkpt>
      <trkpt lat="62.361679" lon="12.248549">
        <ele>767.024</ele>
        <time>2011-07-04T13:28:38Z</time>
      </trkpt>
      <trkpt lat="62.361719" lon="12.24857">
        <ele>766.971</ele>
        <time>2011-07-04T13:28:41Z</time>
      </trkpt>
      <trkpt lat="62.361838" lon="12.248609">
        <ele>767.258</ele>
        <time>2011-07-04T13:28:49Z</time>
      </trkpt>
      <trkpt lat="62.361936" lon="12.24866">
        <ele>767.876</ele>
        <time>2011-07-04T13:28:55Z</time>
      </trkpt>
      <trkpt lat="62.362049" lon="12.2487">
        <ele>768.718</ele>
        <time>2011-07-04T13:29:01Z</time>
      </trkpt>
      <trkpt lat="62.362183" lon="12.248741">
        <ele>769.621</ele>
        <time>2011-07-04T13:29:08Z</time>
      </trkpt>
      <trkpt lat="62.362316" lon="12.248738">
        <ele>770.348</ele>
        <time>2011-07-04T13:29:14Z</time>
      </trkpt>
      <trkpt lat="62.362373" lon="12.248753">
        <ele>770.633</ele>
        <time>2011-07-04T13:29:17Z</time>
      </trkpt>
      <trkpt lat="62.362472" lon="12.248756">
        <ele>771.4</ele>
        <time>2011-07-04T13:29:22Z</time>
      </trkpt>
      <trkpt lat="62.36256" lon="12.248745">
        <ele>771.905</ele>
        <time>2011-07-04T13:29:27Z</time>
      </trkpt>
      <trkpt lat="62.362644" lon="12.248729">
        <ele>772.972</ele>
        <time>2011-07-04T13:29:33Z</time>
      </trkpt>
      <trkpt lat="62.362712" lon="12.24875">
        <ele>774.137</ele>
        <time>2011-07-04T13:29:39Z</time>
      </trkpt>
      <trkpt lat="62.362746" lon="12.24876">
        <ele>774.37</ele>
        <time>2011-07-04T13:29:42Z</time>
      </trkpt>
      <trkpt lat="62.362896" lon="12.248788">
        <ele>774.919</ele>
        <time>2011-07-04T13:29:50Z</time>
      </trkpt>
      <trkpt lat="62.362988" lon="12.248768">
        <ele>775.26</ele>
        <time>2011-07-04T13:29:54Z</time>
      </trkpt>
      <trkpt lat="62.363132" lon="12.248825">
        <ele>775.297</ele>
        <time>2011-07-04T13:30:01Z</time>
      </trkpt>
      <trkpt lat="62.363274" lon="12.248828">
        <ele>774.994</ele>
        <time>2011-07-04T13:30:07Z</time>
      </trkpt>
      <trkpt lat="62.363359" lon="12.248844">
        <ele>775.069</ele>
        <time>2011-07-04T13:30:11Z</time>
      </trkpt>
      <trkpt lat="62.363475" lon="12.248807">
        <ele>775.672</ele>
        <time>2011-07-04T13:30:16Z</time>
      </trkpt>
      <trkpt lat="62.363667" lon="12.248855">
        <ele>777.038</ele>
        <time>2011-07-04T13:30:24Z</time>
      </trkpt>
      <trkpt lat="62.363713" lon="12.248875">
        <ele>777.496</ele>
        <time>2011-07-04T13:30:26Z</time>
      </trkpt>
      <trkpt lat="62.363828" lon="12.248939">
        <ele>778.962</ele>
        <time>2011-07-04T13:30:32Z</time>
      </trkpt>
      <trkpt lat="62.363916" lon="12.248901">
        <ele>779.037</ele>
        <time>2011-07-04T13:30:37Z</time>
      </trkpt>
      <trkpt lat="62.364042" lon="12.248897">
        <ele>779.321</ele>
        <time>2011-07-04T13:30:44Z</time>
      </trkpt>
      <trkpt lat="62.364159" lon="12.248921">
        <ele>779.717</ele>
        <time>2011-07-04T13:30:49Z</time>
      </trkpt>
      <trkpt lat="62.364243" lon="12.248935">
        <ele>779.968</ele>
        <time>2011-07-04T13:30:54Z</time>
      </trkpt>
      <trkpt lat="62.364314" lon="12.248983">
        <ele>781.364</ele>
        <time>2011-07-04T13:31:00Z</time>
      </trkpt>
      <trkpt lat="62.364424" lon="12.248999">
        <ele>781.693</ele>
        <time>2011-07-04T13:31:07Z</time>
      </trkpt>
      <trkpt lat="62.364479" lon="12.249027">
        <ele>781.756</ele>
        <time>2011-07-04T13:31:11Z</time>
      </trkpt>
      <trkpt lat="62.364558" lon="12.249069">
        <ele>782.104</ele>
        <time>2011-07-04T13:31:18Z</time>
      </trkpt>
      <trkpt lat="62.364649" lon="12.24905">
        <ele>781.905</ele>
        <time>2011-07-04T13:31:24Z</time>
      </trkpt>
      <trkpt lat="62.364699" lon="12.249052">
        <ele>781.344</ele>
        <time>2011-07-04T13:31:26Z</time>
      </trkpt>
      <trkpt lat="62.36477" lon="12.24903">
        <ele>780.542</ele>
        <time>2011-07-04T13:31:30Z</time>
      </trkpt>
      <trkpt lat="62.36486" lon="12.249066">
        <ele>780.195</ele>
        <time>2011-07-04T13:31:37Z</time>
      </trkpt>
      <trkpt lat="62.364907" lon="12.249077">
        <ele>779.59</ele>
        <time>2011-07-04T13:31:41Z</time>
      </trkpt>
      <trkpt lat="62.364973" lon="12.249052">
        <ele>778.848</ele>
        <time>2011-07-04T13:31:45Z</time>
      </trkpt>
      <trkpt lat="62.365074" lon="12.249042">
        <ele>778.339</ele>
        <time>2011-07-04T13:31:49Z</time>
      </trkpt>
      <trkpt lat="62.365225" lon="12.249034">
        <ele>779.196</ele>
        <time>2011-07-04T13:31:56Z</time>
      </trkpt>
      <trkpt lat="62.365312" lon="12.24906">
        <ele>780.324</ele>
        <time>2011-07-04T13:32:03Z</time>
      </trkpt>
      <trkpt lat="62.365392" lon="12.249045">
        <ele>780.447</ele>
        <time>2011-07-04T13:32:11Z</time>
      </trkpt>
      <trkpt lat="62.365471" lon="12.249051">
        <ele>780.669</ele>
        <time>2011-07-04T13:32:16Z</time>
      </trkpt>
      <trkpt lat="62.365564" lon="12.249051">
        <ele>781.815</ele>
        <time>2011-07-04T13:32:24Z</time>
      </trkpt>
      <trkpt lat="62.365597" lon="12.24904">
        <ele>781.882</ele>
        <time>2011-07-04T13:32:27Z</time>
      </trkpt>
      <trkpt lat="62.36563" lon="12.249045">
        <ele>781.735</ele>
        <time>2011-07-04T13:32:29Z</time>
      </trkpt>
      <trkpt lat="62.365721" lon="12.249069">
        <ele>781.289</ele>
        <time>2011-07-04T13:32:35Z</time>
      </trkpt>
      <trkpt lat="62.365916" lon="12.249156">
        <ele>780.906</ele>
        <time>2011-07-04T13:32:43Z</time>
      </trkpt>
      <trkpt lat="62.366058" lon="12.249118">
        <ele>781.058</ele>
        <time>2011-07-04T13:32:50Z</time>
      </trkpt>
      <trkpt lat="62.366195" lon="12.249146">
        <ele>781.829</ele>
        <time>2011-07-04T13:32:56Z</time>
      </trkpt>
      <trkpt lat="62.366217" lon="12.249155">
        <ele>781.914</ele>
        <time>2011-07-04T13:32:57Z</time>
      </trkpt>
      <trkpt lat="62.3663" lon="12.249122">
        <ele>782.219</ele>
        <time>2011-07-04T13:33:03Z</time>
      </trkpt>
      <trkpt lat="62.36633" lon="12.249127">
        <ele>782.201</ele>
        <time>2011-07-04T13:33:05Z</time>
      </trkpt>
      <trkpt lat="62.366393" lon="12.249138">
        <ele>782.143</ele>
        <time>2011-07-04T13:33:10Z</time>
      </trkpt>
      <trkpt lat="62.366464" lon="12.249109">
        <ele>782.396</ele>
        <time>2011-07-04T13:33:16Z</time>
      </trkpt>
      <trkpt lat="62.366532" lon="12.24914">
        <ele>782.563</ele>
        <time>2011-07-04T13:33:22Z</time>
      </trkpt>
      <trkpt lat="62.366554" lon="12.249148">
        <ele>783.078</ele>
        <time>2011-07-04T13:33:24Z</time>
      </trkpt>
      <trkpt lat="62.366634" lon="12.249132">
        <ele>783.838</ele>
        <time>2011-07-04T13:33:31Z</time>
      </trkpt>
      <trkpt lat="62.366704" lon="12.249126">
        <ele>785.5</ele>
        <time>2011-07-04T13:33:38Z</time>
      </trkpt>
      <trkpt lat="62.366767" lon="12.24915">
        <ele>787.22</ele>
        <time>2011-07-04T13:33:45Z</time>
      </trkpt>
      <trkpt lat="62.36683" lon="12.249176">
        <ele>788.778</ele>
        <time>2011-07-04T13:33:52Z</time>
      </trkpt>
      <trkpt lat="62.366889" lon="12.249199">
        <ele>789.236</ele>
        <time>2011-07-04T13:33:59Z</time>
      </trkpt>
      <trkpt lat="62.36691" lon="12.249203">
        <ele>789.291</ele>
        <time>2011-07-04T13:34:01Z</time>
      </trkpt>
      <trkpt lat="62.36703" lon="12.249219">
        <ele>789.445</ele>
        <time>2011-07-04T13:34:08Z</time>
      </trkpt>
      <trkpt lat="62.367151" lon="12.249246">
        <ele>789.285</ele>
        <time>2011-07-04T13:34:15Z</time>
      </trkpt>
      <trkpt lat="62.367253" lon="12.249278">
        <ele>787.812</ele>
        <time>2011-07-04T13:34:20Z</time>
      </trkpt>
      <trkpt lat="62.367341" lon="12.249345">
        <ele>787.249</ele>
        <time>2011-07-04T13:34:26Z</time>
      </trkpt>
      <trkpt lat="62.367386" lon="12.249401">
        <ele>787.729</ele>
        <time>2011-07-04T13:34:30Z</time>
      </trkpt>
      <trkpt lat="62.367441" lon="12.249498">
        <ele>788.257</ele>
        <time>2011-07-04T13:34:36Z</time>
      </trkpt>
      <trkpt lat="62.367476" lon="12.249597">
        <ele>788.955</ele>
        <time>2011-07-04T13:34:41Z</time>
      </trkpt>
      <trkpt lat="62.367549" lon="12.249668">
        <ele>789.935</ele>
        <time>2011-07-04T13:34:47Z</time>
      </trkpt>
      <trkpt lat="62.367572" lon="12.249678">
        <ele>789.911</ele>
        <time>2011-07-04T13:34:49Z</time>
      </trkpt>
      <trkpt lat="62.367616" lon="12.2497">
        <ele>789.496</ele>
        <time>2011-07-04T13:34:53Z</time>
      </trkpt>
      <trkpt lat="62.367657" lon="12.249727">
        <ele>789.293</ele>
        <time>2011-07-04T13:34:57Z</time>
      </trkpt>
      <trkpt lat="62.36772" lon="12.24977">
        <ele>788.739</ele>
        <time>2011-07-04T13:35:03Z</time>
      </trkpt>
      <trkpt lat="62.367768" lon="12.249771">
        <ele>787.944</ele>
        <time>2011-07-04T13:35:07Z</time>
      </trkpt>
      <trkpt lat="62.367811" lon="12.249791">
        <ele>787.195</ele>
        <time>2011-07-04T13:35:11Z</time>
      </trkpt>
      <trkpt lat="62.367857" lon="12.249855">
        <ele>786.397</ele>
        <time>2011-07-04T13:35:15Z</time>
      </trkpt>
      <trkpt lat="62.36794" lon="12.249929">
        <ele>786.222</ele>
        <time>2011-07-04T13:35:22Z</time>
      </trkpt>
      <trkpt lat="62.367951" lon="12.249934">
        <ele>786.178</ele>
        <time>2011-07-04T13:35:23Z</time>
      </trkpt>
      <trkpt lat="62.368056" lon="12.250057">
        <ele>785.98</ele>
        <time>2011-07-04T13:35:32Z</time>
      </trkpt>
      <trkpt lat="62.368083" lon="12.250112">
        <ele>785.889</ele>
        <time>2011-07-04T13:35:37Z</time>
      </trkpt>
      <trkpt lat="62.368094" lon="12.250132">
        <ele>785.839</ele>
        <time>2011-07-04T13:35:39Z</time>
      </trkpt>
      <trkpt lat="62.368111" lon="12.250151">
        <ele>785.077</ele>
        <time>2011-07-04T13:35:43Z</time>
      </trkpt>
      <trkpt lat="62.368146" lon="12.250213">
        <ele>784.256</ele>
        <time>2011-07-04T13:35:49Z</time>
      </trkpt>
      <trkpt lat="62.368167" lon="12.25025">
        <ele>783.926</ele>
        <time>2011-07-04T13:35:53Z</time>
      </trkpt>
      <trkpt lat="62.368191" lon="12.250284">
        <ele>783.443</ele>
        <time>2011-07-04T13:35:59Z</time>
      </trkpt>
      <trkpt lat="62.368191" lon="12.250285">
        <ele>783.325</ele>
        <time>2011-07-04T13:36:00Z</time>
      </trkpt>
      <trkpt lat="62.368261" lon="12.250218">
        <ele>782.13</ele>
        <time>2011-07-04T13:36:10Z</time>
      </trkpt>
      <trkpt lat="62.36831" lon="12.250171">
        <ele>780.427</ele>
        <time>2011-07-04T13:36:17Z</time>
      </trkpt>
      <trkpt lat="62.368331" lon="12.250178">
        <ele>779.58</ele>
        <time>2011-07-04T13:36:20Z</time>
      </trkpt>
      <trkpt lat="62.368364" lon="12.250199">
        <ele>778.538</ele>
        <time>2011-07-04T13:36:26Z</time>
      </trkpt>
      <trkpt lat="62.36839" lon="12.25021">
        <ele>778.507</ele>
        <time>2011-07-04T13:36:30Z</time>
      </trkpt>
      <trkpt lat="62.368458" lon="12.250247">
        <ele>777.882</ele>
        <time>2011-07-04T13:36:36Z</time>
      </trkpt>
      <trkpt lat="62.368479" lon="12.250258">
        <ele>777.907</ele>
        <time>2011-07-04T13:36:39Z</time>
      </trkpt>
      <trkpt lat="62.368514" lon="12.250296">
        <ele>778.12</ele>
        <time>2011-07-04T13:36:45Z</time>
      </trkpt>
      <trkpt lat="62.368534" lon="12.250305">
        <ele>778.155</ele>
        <time>2011-07-04T13:36:48Z</time>
      </trkpt>
      <trkpt lat="62.368576" lon="12.250327">
        <ele>777.568</ele>
        <time>2011-07-04T13:36:53Z</time>
      </trkpt>
      <trkpt lat="62.368614" lon="12.250387">
        <ele>776.933</ele>
        <time>2011-07-04T13:36:57Z</time>
      </trkpt>
      <trkpt lat="62.368686" lon="12.250426">
        <ele>775.973</ele>
        <time>2011-07-04T13:37:04Z</time>
      </trkpt>
      <trkpt lat="62.368723" lon="12.250443">
        <ele>775.09</ele>
        <time>2011-07-04T13:37:10Z</time>
      </trkpt>
      <trkpt lat="62.368757" lon="12.250515">
        <ele>774.144</ele>
        <time>2011-07-04T13:37:16Z</time>
      </trkpt>
      <trkpt lat="62.368786" lon="12.250606">
        <ele>772.984</ele>
        <time>2011-07-04T13:37:22Z</time>
      </trkpt>
      <trkpt lat="62.368813" lon="12.250661">
        <ele>772.572</ele>
        <time>2011-07-04T13:37:27Z</time>
      </trkpt>
      <trkpt lat="62.368846" lon="12.250712">
        <ele>774.293</ele>
        <time>2011-07-04T13:37:34Z</time>
      </trkpt>
      <trkpt lat="62.368869" lon="12.250751">
        <ele>775.638</ele>
        <time>2011-07-04T13:37:40Z</time>
      </trkpt>
      <trkpt lat="62.368885" lon="12.250778">
        <ele>776.196</ele>
        <time>2011-07-04T13:37:45Z</time>
      </trkpt>
      <trkpt lat="62.368909" lon="12.250806">
        <ele>775.937</ele>
        <time>2011-07-04T13:37:50Z</time>
      </trkpt>
      <trkpt lat="62.368929" lon="12.250807">
        <ele>775.736</ele>
        <time>2011-07-04T13:37:52Z</time>
      </trkpt>
      <trkpt lat="62.368985" lon="12.250851">
        <ele>775.886</ele>
        <time>2011-07-04T13:37:59Z</time>
      </trkpt>
      <trkpt lat="62.369004" lon="12.250856">
        <ele>775.812</ele>
        <time>2011-07-04T13:38:01Z</time>
      </trkpt>
      <trkpt lat="62.36911" lon="12.250977">
        <ele>774.78</ele>
        <time>2011-07-04T13:38:09Z</time>
      </trkpt>
      <trkpt lat="62.369141" lon="12.251029">
        <ele>774.098</ele>
        <time>2011-07-04T13:38:14Z</time>
      </trkpt>
      <trkpt lat="62.369194" lon="12.251104">
        <ele>773.467</ele>
        <time>2011-07-04T13:38:20Z</time>
      </trkpt>
      <trkpt lat="62.369217" lon="12.251156">
        <ele>772.892</ele>
        <time>2011-07-04T13:38:23Z</time>
      </trkpt>
      <trkpt lat="62.369253" lon="12.251238">
        <ele>771.569</ele>
        <time>2011-07-04T13:38:29Z</time>
      </trkpt>
      <trkpt lat="62.369312" lon="12.251225">
        <ele>771.254</ele>
        <time>2011-07-04T13:38:36Z</time>
      </trkpt>
      <trkpt lat="62.369315" lon="12.251226">
        <ele>771.312</ele>
        <time>2011-07-04T13:38:37Z</time>
      </trkpt>
      <trkpt lat="62.369361" lon="12.25123">
        <ele>772.04</ele>
        <time>2011-07-04T13:38:46Z</time>
      </trkpt>
      <trkpt lat="62.369389" lon="12.251235">
        <ele>771.593</ele>
        <time>2011-07-04T13:38:51Z</time>
      </trkpt>
      <trkpt lat="62.369426" lon="12.251267">
        <ele>771.22</ele>
        <time>2011-07-04T13:38:57Z</time>
      </trkpt>
      <trkpt lat="62.369431" lon="12.251272">
        <ele>771.172</ele>
        <time>2011-07-04T13:38:58Z</time>
      </trkpt>
      <trkpt lat="62.36948" lon="12.251338">
        <ele>770.304</ele>
        <time>2011-07-04T13:39:06Z</time>
      </trkpt>
      <trkpt lat="62.369534" lon="12.251333">
        <ele>769.432</ele>
        <time>2011-07-04T13:39:11Z</time>
      </trkpt>
      <trkpt lat="62.369565" lon="12.251327">
        <ele>769.397</ele>
        <time>2011-07-04T13:39:16Z</time>
      </trkpt>
      <trkpt lat="62.369604" lon="12.251359">
        <ele>769.404</ele>
        <time>2011-07-04T13:39:24Z</time>
      </trkpt>
      <trkpt lat="62.369631" lon="12.251402">
        <ele>769.151</ele>
        <time>2011-07-04T13:39:29Z</time>
      </trkpt>
      <trkpt lat="62.369668" lon="12.25141">
        <ele>768.275</ele>
        <time>2011-07-04T13:39:36Z</time>
      </trkpt>
      <trkpt lat="62.369714" lon="12.251417">
        <ele>767.791</ele>
        <time>2011-07-04T13:39:42Z</time>
      </trkpt>
      <trkpt lat="62.369705" lon="12.251439">
        <ele>767.748</ele>
        <time>2011-07-04T13:39:47Z</time>
      </trkpt>
      <trkpt lat="62.36971" lon="12.251505">
        <ele>767.74</ele>
        <time>2011-07-04T13:39:50Z</time>
      </trkpt>
      <trkpt lat="62.36976" lon="12.251596">
        <ele>766.674</ele>
        <time>2011-07-04T13:39:57Z</time>
      </trkpt>
      <trkpt lat="62.369792" lon="12.251603">
        <ele>765.815</ele>
        <time>2011-07-04T13:40:01Z</time>
      </trkpt>
      <trkpt lat="62.369859" lon="12.251579">
        <ele>763.878</ele>
        <time>2011-07-04T13:40:09Z</time>
      </trkpt>
      <trkpt lat="62.369878" lon="12.251598">
        <ele>763.083</ele>
        <time>2011-07-04T13:40:12Z</time>
      </trkpt>
      <trkpt lat="62.369944" lon="12.251675">
        <ele>761.488</ele>
        <time>2011-07-04T13:40:19Z</time>
      </trkpt>
      <trkpt lat="62.369967" lon="12.251691">
        <ele>761.277</ele>
        <time>2011-07-04T13:40:22Z</time>
      </trkpt>
      <trkpt lat="62.369989" lon="12.251728">
        <ele>760.515</ele>
        <time>2011-07-04T13:40:25Z</time>
      </trkpt>
      <trkpt lat="62.370047" lon="12.251828">
        <ele>759.279</ele>
        <time>2011-07-04T13:40:33Z</time>
      </trkpt>
      <trkpt lat="62.370091" lon="12.2519">
        <ele>758.936</ele>
        <time>2011-07-04T13:40:40Z</time>
      </trkpt>
      <trkpt lat="62.370158" lon="12.251983">
        <ele>758.678</ele>
        <time>2011-07-04T13:40:47Z</time>
      </trkpt>
      <trkpt lat="62.370228" lon="12.25204">
        <ele>758.418</ele>
        <time>2011-07-04T13:40:54Z</time>
      </trkpt>
      <trkpt lat="62.370262" lon="12.25209">
        <ele>758.241</ele>
        <time>2011-07-04T13:40:58Z</time>
      </trkpt>
      <trkpt lat="62.370337" lon="12.252146">
        <ele>757.473</ele>
        <time>2011-07-04T13:41:07Z</time>
      </trkpt>
      <trkpt lat="62.370403" lon="12.252198">
        <ele>757.306</ele>
        <time>2011-07-04T13:41:13Z</time>
      </trkpt>
      <trkpt lat="62.370461" lon="12.252281">
        <ele>757.064</ele>
        <time>2011-07-04T13:41:19Z</time>
      </trkpt>
      <trkpt lat="62.370565" lon="12.252363">
        <ele>756.43</ele>
        <time>2011-07-04T13:41:28Z</time>
      </trkpt>
      <trkpt lat="62.370647" lon="12.252481">
        <ele>755.975</ele>
        <time>2011-07-04T13:41:35Z</time>
      </trkpt>
      <trkpt lat="62.370711" lon="12.25255">
        <ele>755.944</ele>
        <time>2011-07-04T13:41:41Z</time>
      </trkpt>
      <trkpt lat="62.37079" lon="12.252621">
        <ele>755.623</ele>
        <time>2011-07-04T13:41:47Z</time>
      </trkpt>
      <trkpt lat="62.370908" lon="12.252754">
        <ele>754.689</ele>
        <time>2011-07-04T13:41:55Z</time>
      </trkpt>
      <trkpt lat="62.371027" lon="12.252883">
        <ele>754.674</ele>
        <time>2011-07-04T13:42:02Z</time>
      </trkpt>
      <trkpt lat="62.371098" lon="12.252975">
        <ele>754.671</ele>
        <time>2011-07-04T13:42:06Z</time>
      </trkpt>
      <trkpt lat="62.371247" lon="12.25319">
        <ele>754.858</ele>
        <time>2011-07-04T13:42:16Z</time>
      </trkpt>
      <trkpt lat="62.371334" lon="12.253243">
        <ele>754.859</ele>
        <time>2011-07-04T13:42:23Z</time>
      </trkpt>
      <trkpt lat="62.371344" lon="12.253249">
        <ele>754.942</ele>
        <time>2011-07-04T13:42:24Z</time>
      </trkpt>
      <trkpt lat="62.371434" lon="12.253392">
        <ele>755.128</ele>
        <time>2011-07-04T13:42:32Z</time>
      </trkpt>
      <trkpt lat="62.371498" lon="12.253522">
        <ele>755.044</ele>
        <time>2011-07-04T13:42:37Z</time>
      </trkpt>
      <trkpt lat="62.37159" lon="12.25365">
        <ele>754.947</ele>
        <time>2011-07-04T13:42:43Z</time>
      </trkpt>
      <trkpt lat="62.371621" lon="12.25371">
        <ele>754.957</ele>
        <time>2011-07-04T13:42:45Z</time>
      </trkpt>
      <trkpt lat="62.37171" lon="12.253881">
        <ele>754.918</ele>
        <time>2011-07-04T13:42:52Z</time>
      </trkpt>
      <trkpt lat="62.37182" lon="12.254034">
        <ele>755.111</ele>
        <time>2011-07-04T13:42:59Z</time>
      </trkpt>
      <trkpt lat="62.371926" lon="12.25421">
        <ele>755.206</ele>
        <time>2011-07-04T13:43:06Z</time>
      </trkpt>
      <trkpt lat="62.371991" lon="12.254313">
        <ele>755.23</ele>
        <time>2011-07-04T13:43:11Z</time>
      </trkpt>
      <trkpt lat="62.372068" lon="12.254465">
        <ele>755.085</ele>
        <time>2011-07-04T13:43:18Z</time>
      </trkpt>
      <trkpt lat="62.372195" lon="12.254651">
        <ele>755.267</ele>
        <time>2011-07-04T13:43:26Z</time>
      </trkpt>
      <trkpt lat="62.37221" lon="12.254668">
        <ele>755.387</ele>
        <time>2011-07-04T13:43:27Z</time>
      </trkpt>
      <trkpt lat="62.372291" lon="12.254797">
        <ele>755.347</ele>
        <time>2011-07-04T13:43:33Z</time>
      </trkpt>
      <trkpt lat="62.372381" lon="12.254903">
        <ele>755.633</ele>
        <time>2011-07-04T13:43:41Z</time>
      </trkpt>
      <trkpt lat="62.372453" lon="12.254961">
        <ele>755.474</ele>
        <time>2011-07-04T13:43:47Z</time>
      </trkpt>
      <trkpt lat="62.372548" lon="12.255137">
        <ele>755.393</ele>
        <time>2011-07-04T13:43:53Z</time>
      </trkpt>
      <trkpt lat="62.37268" lon="12.25536">
        <ele>755.053</ele>
        <time>2011-07-04T13:44:01Z</time>
      </trkpt>
      <trkpt lat="62.37274" lon="12.255461">
        <ele>755.129</ele>
        <time>2011-07-04T13:44:06Z</time>
      </trkpt>
      <trkpt lat="62.372752" lon="12.25548">
        <ele>755.158</ele>
        <time>2011-07-04T13:44:07Z</time>
      </trkpt>
      <trkpt lat="62.372792" lon="12.25552">
        <ele>755.146</ele>
        <time>2011-07-04T13:44:11Z</time>
      </trkpt>
      <trkpt lat="62.37282" lon="12.255597">
        <ele>755.185</ele>
        <time>2011-07-04T13:44:15Z</time>
      </trkpt>
      <trkpt lat="62.372891" lon="12.25576">
        <ele>754.895</ele>
        <time>2011-07-04T13:44:23Z</time>
      </trkpt>
      <trkpt lat="62.373013" lon="12.255958">
        <ele>754.705</ele>
        <time>2011-07-04T13:44:30Z</time>
      </trkpt>
      <trkpt lat="62.37316" lon="12.256204">
        <ele>754.831</ele>
        <time>2011-07-04T13:44:40Z</time>
      </trkpt>
      <trkpt lat="62.373263" lon="12.256351">
        <ele>754.776</ele>
        <time>2011-07-04T13:44:48Z</time>
      </trkpt>
      <trkpt lat="62.373272" lon="12.256359">
        <ele>754.296</ele>
        <time>2011-07-04T13:44:50Z</time>
      </trkpt>
      <trkpt lat="62.373161" lon="12.256186">
        <ele>754.645</ele>
        <time>2011-07-04T13:44:59Z</time>
      </trkpt>
      <trkpt lat="62.373131" lon="12.25614">
        <ele>754.819</ele>
        <time>2011-07-04T13:45:03Z</time>
      </trkpt>
      <trkpt lat="62.373193" lon="12.256232">
        <ele>754.836</ele>
        <time>2011-07-04T13:45:07Z</time>
      </trkpt>
      <trkpt lat="62.373313" lon="12.256422">
        <ele>754.863</ele>
        <time>2011-07-04T13:45:15Z</time>
      </trkpt>
      <trkpt lat="62.373296" lon="12.25641">
        <ele>754.497</ele>
        <time>2011-07-04T13:45:19Z</time>
      </trkpt>
      <trkpt lat="62.373373" lon="12.256538">
        <ele>754.802</ele>
        <time>2011-07-04T13:45:27Z</time>
      </trkpt>
      <trkpt lat="62.373434" lon="12.256634">
        <ele>754.844</ele>
        <time>2011-07-04T13:45:33Z</time>
      </trkpt>
      <trkpt lat="62.373529" lon="12.256785">
        <ele>754.545</ele>
        <time>2011-07-04T13:45:40Z</time>
      </trkpt>
      <trkpt lat="62.373617" lon="12.256924">
        <ele>754.512</ele>
        <time>2011-07-04T13:45:47Z</time>
      </trkpt>
      <trkpt lat="62.373736" lon="12.257123">
        <ele>754.51</ele>
        <time>2011-07-04T13:45:55Z</time>
      </trkpt>
      <trkpt lat="62.373895" lon="12.257391">
        <ele>754.365</ele>
        <time>2011-07-04T13:46:05Z</time>
      </trkpt>
      <trkpt lat="62.373977" lon="12.25753">
        <ele>754.36</ele>
        <time>2011-07-04T13:46:13Z</time>
      </trkpt>
      <trkpt lat="62.374034" lon="12.257621">
        <ele>754.367</ele>
        <time>2011-07-04T13:46:19Z</time>
      </trkpt>
      <trkpt lat="62.374042" lon="12.257651">
        <ele>754.157</ele>
        <time>2011-07-04T13:46:21Z</time>
      </trkpt>
      <trkpt lat="62.374075" lon="12.257721">
        <ele>753.916</ele>
        <time>2011-07-04T13:46:24Z</time>
      </trkpt>
      <trkpt lat="62.374132" lon="12.257834">
        <ele>754.041</ele>
        <time>2011-07-04T13:46:30Z</time>
      </trkpt>
      <trkpt lat="62.374192" lon="12.257903">
        <ele>753.943</ele>
        <time>2011-07-04T13:46:35Z</time>
      </trkpt>
      <trkpt lat="62.374238" lon="12.257979">
        <ele>753.804</ele>
        <time>2011-07-04T13:46:40Z</time>
      </trkpt>
      <trkpt lat="62.374296" lon="12.258047">
        <ele>753.502</ele>
        <time>2011-07-04T13:46:45Z</time>
      </trkpt>
      <trkpt lat="62.374338" lon="12.258144">
        <ele>753.602</ele>
        <time>2011-07-04T13:46:49Z</time>
      </trkpt>
      <trkpt lat="62.374431" lon="12.258338">
        <ele>753.503</ele>
        <time>2011-07-04T13:46:55Z</time>
      </trkpt>
      <trkpt lat="62.374466" lon="12.258426">
        <ele>753.463</ele>
        <time>2011-07-04T13:46:57Z</time>
      </trkpt>
      <trkpt lat="62.374515" lon="12.258687">
        <ele>753.711</ele>
        <time>2011-07-04T13:47:01Z</time>
      </trkpt>
      <trkpt lat="62.374574" lon="12.258913">
        <ele>755.821</ele>
        <time>2011-07-04T13:47:07Z</time>
      </trkpt>
      <trkpt lat="62.374586" lon="12.258941">
        <ele>755.956</ele>
        <time>2011-07-04T13:47:08Z</time>
      </trkpt>
      <trkpt lat="62.374693" lon="12.259073">
        <ele>754.275</ele>
        <time>2011-07-04T13:47:13Z</time>
      </trkpt>
      <trkpt lat="62.374764" lon="12.259259">
        <ele>753.205</ele>
        <time>2011-07-04T13:47:18Z</time>
      </trkpt>
      <trkpt lat="62.374814" lon="12.2594">
        <ele>753.601</ele>
        <time>2011-07-04T13:47:23Z</time>
      </trkpt>
      <trkpt lat="62.374882" lon="12.259535">
        <ele>752.77</ele>
        <time>2011-07-04T13:47:29Z</time>
      </trkpt>
      <trkpt lat="62.374964" lon="12.259644">
        <ele>752.046</ele>
        <time>2011-07-04T13:47:34Z</time>
      </trkpt>
      <trkpt lat="62.375028" lon="12.259753">
        <ele>752.016</ele>
        <time>2011-07-04T13:47:40Z</time>
      </trkpt>
      <trkpt lat="62.375093" lon="12.259843">
        <ele>751.969</ele>
        <time>2011-07-04T13:47:45Z</time>
      </trkpt>
      <trkpt lat="62.375176" lon="12.260033">
        <ele>751.939</ele>
        <time>2011-07-04T13:47:54Z</time>
      </trkpt>
      <trkpt lat="62.375249" lon="12.26017">
        <ele>751.848</ele>
        <time>2011-07-04T13:48:00Z</time>
      </trkpt>
      <trkpt lat="62.375346" lon="12.260364">
        <ele>751.891</ele>
        <time>2011-07-04T13:48:07Z</time>
      </trkpt>
      <trkpt lat="62.375465" lon="12.260653">
        <ele>751.392</ele>
        <time>2011-07-04T13:48:16Z</time>
      </trkpt>
      <trkpt lat="62.375565" lon="12.260903">
        <ele>751.011</ele>
        <time>2011-07-04T13:48:23Z</time>
      </trkpt>
      <trkpt lat="62.375711" lon="12.261192">
        <ele>750.784</ele>
        <time>2011-07-04T13:48:32Z</time>
      </trkpt>
      <trkpt lat="62.375872" lon="12.261552">
        <ele>751.065</ele>
        <time>2011-07-04T13:48:42Z</time>
      </trkpt>
      <trkpt lat="62.376032" lon="12.26186">
        <ele>750.739</ele>
        <time>2011-07-04T13:48:51Z</time>
      </trkpt>
      <trkpt lat="62.376219" lon="12.262174">
        <ele>750.563</ele>
        <time>2011-07-04T13:49:01Z</time>
      </trkpt>
      <trkpt lat="62.376344" lon="12.262392">
        <ele>750.449</ele>
        <time>2011-07-04T13:49:08Z</time>
      </trkpt>
      <trkpt lat="62.376507" lon="12.262676">
        <ele>750.5</ele>
        <time>2011-07-04T13:49:18Z</time>
      </trkpt>
      <trkpt lat="62.376572" lon="12.262742">
        <ele>750.782</ele>
        <time>2011-07-04T13:49:24Z</time>
      </trkpt>
      <trkpt lat="62.376604" lon="12.26275">
        <ele>750.734</ele>
        <time>2011-07-04T13:49:26Z</time>
      </trkpt>
      <trkpt lat="62.376704" lon="12.262813">
        <ele>750.659</ele>
        <time>2011-07-04T13:49:32Z</time>
      </trkpt>
      <trkpt lat="62.376863" lon="12.263035">
        <ele>750.747</ele>
        <time>2011-07-04T13:49:40Z</time>
      </trkpt>
      <trkpt lat="62.376975" lon="12.263222">
        <ele>750.395</ele>
        <time>2011-07-04T13:49:48Z</time>
      </trkpt>
      <trkpt lat="62.37701" lon="12.263269">
        <ele>750.526</ele>
        <time>2011-07-04T13:49:53Z</time>
      </trkpt>
      <trkpt lat="62.377019" lon="12.263303">
        <ele>750.552</ele>
        <time>2011-07-04T13:49:55Z</time>
      </trkpt>
      <trkpt lat="62.377056" lon="12.26341">
        <ele>752.055</ele>
        <time>2011-07-04T13:50:01Z</time>
      </trkpt>
      <trkpt lat="62.37712" lon="12.263479">
        <ele>753.014</ele>
        <time>2011-07-04T13:50:08Z</time>
      </trkpt>
      <trkpt lat="62.377187" lon="12.263537">
        <ele>752.534</ele>
        <time>2011-07-04T13:50:14Z</time>
      </trkpt>
      <trkpt lat="62.377273" lon="12.263668">
        <ele>752.654</ele>
        <time>2011-07-04T13:50:23Z</time>
      </trkpt>
      <trkpt lat="62.377342" lon="12.263733">
        <ele>752.586</ele>
        <time>2011-07-04T13:50:29Z</time>
      </trkpt>
      <trkpt lat="62.377432" lon="12.263888">
        <ele>752.671</ele>
        <time>2011-07-04T13:50:37Z</time>
      </trkpt>
      <trkpt lat="62.3775" lon="12.263947">
        <ele>753.175</ele>
        <time>2011-07-04T13:50:43Z</time>
      </trkpt>
      <trkpt lat="62.377596" lon="12.264096">
        <ele>752.986</ele>
        <time>2011-07-04T13:50:51Z</time>
      </trkpt>
      <trkpt lat="62.377669" lon="12.264203">
        <ele>752.567</ele>
        <time>2011-07-04T13:50:56Z</time>
      </trkpt>
      <trkpt lat="62.377702" lon="12.26422">
        <ele>753.208</ele>
        <time>2011-07-04T13:50:59Z</time>
      </trkpt>
      <trkpt lat="62.377757" lon="12.264346">
        <ele>755.109</ele>
        <time>2011-07-04T13:51:07Z</time>
      </trkpt>
      <trkpt lat="62.377803" lon="12.264464">
        <ele>755.078</ele>
        <time>2011-07-04T13:51:12Z</time>
      </trkpt>
      <trkpt lat="62.377812" lon="12.26449">
        <ele>754.924</ele>
        <time>2011-07-04T13:51:13Z</time>
      </trkpt>
      <trkpt lat="62.377872" lon="12.264616">
        <ele>755.041</ele>
        <time>2011-07-04T13:51:20Z</time>
      </trkpt>
      <trkpt lat="62.377934" lon="12.264767">
        <ele>754.949</ele>
        <time>2011-07-04T13:51:27Z</time>
      </trkpt>
      <trkpt lat="62.377951" lon="12.264806">
        <ele>754.785</ele>
        <time>2011-07-04T13:51:29Z</time>
      </trkpt>
      <trkpt lat="62.377983" lon="12.264947">
        <ele>754.963</ele>
        <time>2011-07-04T13:51:36Z</time>
      </trkpt>
      <trkpt lat="62.378016" lon="12.265084">
        <ele>757.258</ele>
        <time>2011-07-04T13:51:44Z</time>
      </trkpt>
      <trkpt lat="62.37803" lon="12.265216">
        <ele>758.561</ele>
        <time>2011-07-04T13:51:50Z</time>
      </trkpt>
      <trkpt lat="62.378077" lon="12.265317">
        <ele>759.13</ele>
        <time>2011-07-04T13:51:57Z</time>
      </trkpt>
      <trkpt lat="62.378112" lon="12.265404">
        <ele>758.502</ele>
        <time>2011-07-04T13:52:04Z</time>
      </trkpt>
      <trkpt lat="62.378164" lon="12.265504">
        <ele>758.484</ele>
        <time>2011-07-04T13:52:13Z</time>
      </trkpt>
      <trkpt lat="62.378171" lon="12.265523">
        <ele>758.479</ele>
        <time>2011-07-04T13:52:14Z</time>
      </trkpt>
      <trkpt lat="62.378221" lon="12.265615">
        <ele>757.953</ele>
        <time>2011-07-04T13:52:21Z</time>
      </trkpt>
      <trkpt lat="62.378281" lon="12.265744">
        <ele>758.365</ele>
        <time>2011-07-04T13:52:29Z</time>
      </trkpt>
      <trkpt lat="62.378309" lon="12.265837">
        <ele>758.564</ele>
        <time>2011-07-04T13:52:35Z</time>
      </trkpt>
      <trkpt lat="62.378337" lon="12.265865">
        <ele>758.703</ele>
        <time>2011-07-04T13:52:39Z</time>
      </trkpt>
      <trkpt lat="62.378356" lon="12.265925">
        <ele>758.588</ele>
        <time>2011-07-04T13:52:44Z</time>
      </trkpt>
      <trkpt lat="62.378353" lon="12.265975">
        <ele>758.724</ele>
        <time>2011-07-04T13:52:47Z</time>
      </trkpt>
      <trkpt lat="62.378378" lon="12.266081">
        <ele>759.1</ele>
        <time>2011-07-04T13:52:54Z</time>
      </trkpt>
      <trkpt lat="62.378412" lon="12.266212">
        <ele>759.033</ele>
        <time>2011-07-04T13:53:02Z</time>
      </trkpt>
      <trkpt lat="62.37843" lon="12.266275">
        <ele>759.116</ele>
        <time>2011-07-04T13:53:05Z</time>
      </trkpt>
      <trkpt lat="62.378441" lon="12.266364">
        <ele>758.778</ele>
        <time>2011-07-04T13:53:09Z</time>
      </trkpt>
      <trkpt lat="62.378449" lon="12.266402">
        <ele>758.532</ele>
        <time>2011-07-04T13:53:11Z</time>
      </trkpt>
      <trkpt lat="62.378471" lon="12.26648">
        <ele>758.217</ele>
        <time>2011-07-04T13:53:15Z</time>
      </trkpt>
      <trkpt lat="62.378545" lon="12.266568">
        <ele>758.695</ele>
        <time>2011-07-04T13:53:23Z</time>
      </trkpt>
      <trkpt lat="62.378564" lon="12.266619">
        <ele>758.561</ele>
        <time>2011-07-04T13:53:26Z</time>
      </trkpt>
      <trkpt lat="62.378614" lon="12.266615">
        <ele>757.595</ele>
        <time>2011-07-04T13:53:33Z</time>
      </trkpt>
      <trkpt lat="62.378628" lon="12.266634">
        <ele>757.068</ele>
        <time>2011-07-04T13:53:36Z</time>
      </trkpt>
      <trkpt lat="62.378636" lon="12.266679">
        <ele>756.644</ele>
        <time>2011-07-04T13:53:39Z</time>
      </trkpt>
      <trkpt lat="62.378694" lon="12.266745">
        <ele>755.834</ele>
        <time>2011-07-04T13:53:47Z</time>
      </trkpt>
      <trkpt lat="62.378738" lon="12.266777">
        <ele>755.83</ele>
        <time>2011-07-04T13:53:52Z</time>
      </trkpt>
      <trkpt lat="62.378795" lon="12.266805">
        <ele>755.824</ele>
        <time>2011-07-04T13:53:59Z</time>
      </trkpt>
      <trkpt lat="62.378821" lon="12.266847">
        <ele>755.964</ele>
        <time>2011-07-04T13:54:02Z</time>
      </trkpt>
      <trkpt lat="62.378841" lon="12.266837">
        <ele>756.486</ele>
        <time>2011-07-04T13:54:06Z</time>
      </trkpt>
      <trkpt lat="62.378904" lon="12.266798">
        <ele>757.255</ele>
        <time>2011-07-04T13:54:12Z</time>
      </trkpt>
      <trkpt lat="62.378951" lon="12.2668">
        <ele>758.184</ele>
        <time>2011-07-04T13:54:17Z</time>
      </trkpt>
      <trkpt lat="62.378984" lon="12.266897">
        <ele>757.441</ele>
        <time>2011-07-04T13:54:22Z</time>
      </trkpt>
      <trkpt lat="62.379018" lon="12.267">
        <ele>756.727</ele>
        <time>2011-07-04T13:54:30Z</time>
      </trkpt>
      <trkpt lat="62.379032" lon="12.267028">
        <ele>756.254</ele>
        <time>2011-07-04T13:54:33Z</time>
      </trkpt>
      <trkpt lat="62.379065" lon="12.267079">
        <ele>755.818</ele>
        <time>2011-07-04T13:54:38Z</time>
      </trkpt>
      <trkpt lat="62.379085" lon="12.267181">
        <ele>755.642</ele>
        <time>2011-07-04T13:54:44Z</time>
      </trkpt>
      <trkpt lat="62.379146" lon="12.267267">
        <ele>756.031</ele>
        <time>2011-07-04T13:54:50Z</time>
      </trkpt>
      <trkpt lat="62.379166" lon="12.267314">
        <ele>756.298</ele>
        <time>2011-07-04T13:54:53Z</time>
      </trkpt>
      <trkpt lat="62.379207" lon="12.267372">
        <ele>756.043</ele>
        <time>2011-07-04T13:55:00Z</time>
      </trkpt>
      <trkpt lat="62.379241" lon="12.267424">
        <ele>755.742</ele>
        <time>2011-07-04T13:55:05Z</time>
      </trkpt>
      <trkpt lat="62.379248" lon="12.267431">
        <ele>755.546</ele>
        <time>2011-07-04T13:55:06Z</time>
      </trkpt>
      <trkpt lat="62.379288" lon="12.267514">
        <ele>754.97</ele>
        <time>2011-07-04T13:55:11Z</time>
      </trkpt>
      <trkpt lat="62.379361" lon="12.267633">
        <ele>753.868</ele>
        <time>2011-07-04T13:55:18Z</time>
      </trkpt>
      <trkpt lat="62.379387" lon="12.267685">
        <ele>753.683</ele>
        <time>2011-07-04T13:55:21Z</time>
      </trkpt>
      <trkpt lat="62.379401" lon="12.26774">
        <ele>753.777</ele>
        <time>2011-07-04T13:55:24Z</time>
      </trkpt>
      <trkpt lat="62.379481" lon="12.267851">
        <ele>753.784</ele>
        <time>2011-07-04T13:55:32Z</time>
      </trkpt>
      <trkpt lat="62.379491" lon="12.267864">
        <ele>753.806</ele>
        <time>2011-07-04T13:55:33Z</time>
      </trkpt>
      <trkpt lat="62.379511" lon="12.267912">
        <ele>754.212</ele>
        <time>2011-07-04T13:55:36Z</time>
      </trkpt>
      <trkpt lat="62.37957" lon="12.268016">
        <ele>755.102</ele>
        <time>2011-07-04T13:55:42Z</time>
      </trkpt>
      <trkpt lat="62.379641" lon="12.268116">
        <ele>756.059</ele>
        <time>2011-07-04T13:55:50Z</time>
      </trkpt>
      <trkpt lat="62.379697" lon="12.268177">
        <ele>756.312</ele>
        <time>2011-07-04T13:55:56Z</time>
      </trkpt>
      <trkpt lat="62.379708" lon="12.268202">
        <ele>756.343</ele>
        <time>2011-07-04T13:55:58Z</time>
      </trkpt>
      <trkpt lat="62.379766" lon="12.268265">
        <ele>756.335</ele>
        <time>2011-07-04T13:56:05Z</time>
      </trkpt>
      <trkpt lat="62.379795" lon="12.268303">
        <ele>755.949</ele>
        <time>2011-07-04T13:56:08Z</time>
      </trkpt>
      <trkpt lat="62.37986" lon="12.268383">
        <ele>755.302</ele>
        <time>2011-07-04T13:56:15Z</time>
      </trkpt>
      <trkpt lat="62.379937" lon="12.268473">
        <ele>755.169</ele>
        <time>2011-07-04T13:56:22Z</time>
      </trkpt>
      <trkpt lat="62.379987" lon="12.268566">
        <ele>755.639</ele>
        <time>2011-07-04T13:56:27Z</time>
      </trkpt>
      <trkpt lat="62.380017" lon="12.268619">
        <ele>756.057</ele>
        <time>2011-07-04T13:56:31Z</time>
      </trkpt>
      <trkpt lat="62.380033" lon="12.268629">
        <ele>756.147</ele>
        <time>2011-07-04T13:56:33Z</time>
      </trkpt>
      <trkpt lat="62.380055" lon="12.268676">
        <ele>756.487</ele>
        <time>2011-07-04T13:56:36Z</time>
      </trkpt>
      <trkpt lat="62.380128" lon="12.268747">
        <ele>756.409</ele>
        <time>2011-07-04T13:56:44Z</time>
      </trkpt>
      <trkpt lat="62.380193" lon="12.268765">
        <ele>756.742</ele>
        <time>2011-07-04T13:56:50Z</time>
      </trkpt>
      <trkpt lat="62.38023" lon="12.268868">
        <ele>756.772</ele>
        <time>2011-07-04T13:56:55Z</time>
      </trkpt>
      <trkpt lat="62.380291" lon="12.268913">
        <ele>756.82</ele>
        <time>2011-07-04T13:57:01Z</time>
      </trkpt>
      <trkpt lat="62.380322" lon="12.268914">
        <ele>756.588</ele>
        <time>2011-07-04T13:57:04Z</time>
      </trkpt>
      <trkpt lat="62.380386" lon="12.268948">
        <ele>757.476</ele>
        <time>2011-07-04T13:57:11Z</time>
      </trkpt>
      <trkpt lat="62.380413" lon="12.268976">
        <ele>758.353</ele>
        <time>2011-07-04T13:57:16Z</time>
      </trkpt>
      <trkpt lat="62.380441" lon="12.269018">
        <ele>758.372</ele>
        <time>2011-07-04T13:57:20Z</time>
      </trkpt>
      <trkpt lat="62.380472" lon="12.269067">
        <ele>758.86</ele>
        <time>2011-07-04T13:57:25Z</time>
      </trkpt>
      <trkpt lat="62.380491" lon="12.269107">
        <ele>759.373</ele>
        <time>2011-07-04T13:57:29Z</time>
      </trkpt>
      <trkpt lat="62.380514" lon="12.26915">
        <ele>759.732</ele>
        <time>2011-07-04T13:57:33Z</time>
      </trkpt>
      <trkpt lat="62.380546" lon="12.269195">
        <ele>759.717</ele>
        <time>2011-07-04T13:57:36Z</time>
      </trkpt>
      <trkpt lat="62.380586" lon="12.269252">
        <ele>759.413</ele>
        <time>2011-07-04T13:57:40Z</time>
      </trkpt>
      <trkpt lat="62.380612" lon="12.269312">
        <ele>759.166</ele>
        <time>2011-07-04T13:57:43Z</time>
      </trkpt>
      <trkpt lat="62.38066" lon="12.269398">
        <ele>758.772</ele>
        <time>2011-07-04T13:57:49Z</time>
      </trkpt>
      <trkpt lat="62.380695" lon="12.269566">
        <ele>757.446</ele>
        <time>2011-07-04T13:57:56Z</time>
      </trkpt>
      <trkpt lat="62.380721" lon="12.269726">
        <ele>756.264</ele>
        <time>2011-07-04T13:58:02Z</time>
      </trkpt>
      <trkpt lat="62.38074" lon="12.269781">
        <ele>756.721</ele>
        <time>2011-07-04T13:58:05Z</time>
      </trkpt>
      <trkpt lat="62.380754" lon="12.269942">
        <ele>757.276</ele>
        <time>2011-07-04T13:58:13Z</time>
      </trkpt>
      <trkpt lat="62.380756" lon="12.269984">
        <ele>757.188</ele>
        <time>2011-07-04T13:58:15Z</time>
      </trkpt>
      <trkpt lat="62.380799" lon="12.270079">
        <ele>757.098</ele>
        <time>2011-07-04T13:58:21Z</time>
      </trkpt>
      <trkpt lat="62.380843" lon="12.270189">
        <ele>756.159</ele>
        <time>2011-07-04T13:58:28Z</time>
      </trkpt>
      <trkpt lat="62.380895" lon="12.270266">
        <ele>755.14</ele>
        <time>2011-07-04T13:58:34Z</time>
      </trkpt>
      <trkpt lat="62.380956" lon="12.270368">
        <ele>754.765</ele>
        <time>2011-07-04T13:58:42Z</time>
      </trkpt>
      <trkpt lat="62.381001" lon="12.270397">
        <ele>754.932</ele>
        <time>2011-07-04T13:58:48Z</time>
      </trkpt>
      <trkpt lat="62.381017" lon="12.270409">
        <ele>754.718</ele>
        <time>2011-07-04T13:58:50Z</time>
      </trkpt>
      <trkpt lat="62.381044" lon="12.270474">
        <ele>754.646</ele>
        <time>2011-07-04T13:58:54Z</time>
      </trkpt>
      <trkpt lat="62.381045" lon="12.27057">
        <ele>754.48</ele>
        <time>2011-07-04T13:58:58Z</time>
      </trkpt>
      <trkpt lat="62.381066" lon="12.270755">
        <ele>753.549</ele>
        <time>2011-07-04T13:59:06Z</time>
      </trkpt>
      <trkpt lat="62.381113" lon="12.270847">
        <ele>753.421</ele>
        <time>2011-07-04T13:59:11Z</time>
      </trkpt>
      <trkpt lat="62.381175" lon="12.270981">
        <ele>752.791</ele>
        <time>2011-07-04T13:59:18Z</time>
      </trkpt>
      <trkpt lat="62.381187" lon="12.271088">
        <ele>752.628</ele>
        <time>2011-07-04T13:59:22Z</time>
      </trkpt>
      <trkpt lat="62.381234" lon="12.271198">
        <ele>752.17</ele>
        <time>2011-07-04T13:59:28Z</time>
      </trkpt>
      <trkpt lat="62.381279" lon="12.271259">
        <ele>751.816</ele>
        <time>2011-07-04T13:59:32Z</time>
      </trkpt>
      <trkpt lat="62.381356" lon="12.271369">
        <ele>751.236</ele>
        <time>2011-07-04T13:59:39Z</time>
      </trkpt>
      <trkpt lat="62.381368" lon="12.271383">
        <ele>751.211</ele>
        <time>2011-07-04T13:59:40Z</time>
      </trkpt>
      <trkpt lat="62.381438" lon="12.271468">
        <ele>751.122</ele>
        <time>2011-07-04T13:59:46Z</time>
      </trkpt>
      <trkpt lat="62.381516" lon="12.271621">
        <ele>751.011</ele>
        <time>2011-07-04T13:59:53Z</time>
      </trkpt>
      <trkpt lat="62.381569" lon="12.271681">
        <ele>751.236</ele>
        <time>2011-07-04T13:59:57Z</time>
      </trkpt>
      <trkpt lat="62.381615" lon="12.271719">
        <ele>751.246</ele>
        <time>2011-07-04T14:00:00Z</time>
      </trkpt>
      <trkpt lat="62.38168" lon="12.271813">
        <ele>750.956</ele>
        <time>2011-07-04T14:00:06Z</time>
      </trkpt>
      <trkpt lat="62.381699" lon="12.271844">
        <ele>751.26</ele>
        <time>2011-07-04T14:00:08Z</time>
      </trkpt>
      <trkpt lat="62.381727" lon="12.271908">
        <ele>751.645</ele>
        <time>2011-07-04T14:00:12Z</time>
      </trkpt>
      <trkpt lat="62.381748" lon="12.271973">
        <ele>751.799</ele>
        <time>2011-07-04T14:00:15Z</time>
      </trkpt>
      <trkpt lat="62.381801" lon="12.272007">
        <ele>751.773</ele>
        <time>2011-07-04T14:00:21Z</time>
      </trkpt>
      <trkpt lat="62.381803" lon="12.272008">
        <ele>751.857</ele>
        <time>2011-07-04T14:00:22Z</time>
      </trkpt>
      <trkpt lat="62.381863" lon="12.272043">
        <ele>751.427</ele>
        <time>2011-07-04T14:00:32Z</time>
      </trkpt>
      <trkpt lat="62.381882" lon="12.27206">
        <ele>751.388</ele>
        <time>2011-07-04T14:00:34Z</time>
      </trkpt>
      <trkpt lat="62.381907" lon="12.272085">
        <ele>750.909</ele>
        <time>2011-07-04T14:00:37Z</time>
      </trkpt>
      <trkpt lat="62.381937" lon="12.272093">
        <ele>750.472</ele>
        <time>2011-07-04T14:00:40Z</time>
      </trkpt>
      <trkpt lat="62.381959" lon="12.272089">
        <ele>750.311</ele>
        <time>2011-07-04T14:00:42Z</time>
      </trkpt>
      <trkpt lat="62.381995" lon="12.272149">
        <ele>750.126</ele>
        <time>2011-07-04T14:00:46Z</time>
      </trkpt>
      <trkpt lat="62.382057" lon="12.272228">
        <ele>750.108</ele>
        <time>2011-07-04T14:00:53Z</time>
      </trkpt>
      <trkpt lat="62.382073" lon="12.272255">
        <ele>750.311</ele>
        <time>2011-07-04T14:00:55Z</time>
      </trkpt>
      <trkpt lat="62.38213" lon="12.272305">
        <ele>750.246</ele>
        <time>2011-07-04T14:01:01Z</time>
      </trkpt>
      <trkpt lat="62.382221" lon="12.272482">
        <ele>749.259</ele>
        <time>2011-07-04T14:01:09Z</time>
      </trkpt>
      <trkpt lat="62.382294" lon="12.272596">
        <ele>748.787</ele>
        <time>2011-07-04T14:01:15Z</time>
      </trkpt>
      <trkpt lat="62.382351" lon="12.272691">
        <ele>749.588</ele>
        <time>2011-07-04T14:01:21Z</time>
      </trkpt>
      <trkpt lat="62.382417" lon="12.272783">
        <ele>750.255</ele>
        <time>2011-07-04T14:01:28Z</time>
      </trkpt>
      <trkpt lat="62.382447" lon="12.272827">
        <ele>749.966</ele>
        <time>2011-07-04T14:01:31Z</time>
      </trkpt>
      <trkpt lat="62.382539" lon="12.272951">
        <ele>749.811</ele>
        <time>2011-07-04T14:01:40Z</time>
      </trkpt>
      <trkpt lat="62.38259" lon="12.273061">
        <ele>749.201</ele>
        <time>2011-07-04T14:01:46Z</time>
      </trkpt>
      <trkpt lat="62.382634" lon="12.273181">
        <ele>749.287</ele>
        <time>2011-07-04T14:01:52Z</time>
      </trkpt>
      <trkpt lat="62.382671" lon="12.273238">
        <ele>749.672</ele>
        <time>2011-07-04T14:01:57Z</time>
      </trkpt>
      <trkpt lat="62.38269" lon="12.273279">
        <ele>750.112</ele>
        <time>2011-07-04T14:02:00Z</time>
      </trkpt>
      <trkpt lat="62.382763" lon="12.273429">
        <ele>749.728</ele>
        <time>2011-07-04T14:02:08Z</time>
      </trkpt>
      <trkpt lat="62.382801" lon="12.273463">
        <ele>749.357</ele>
        <time>2011-07-04T14:02:13Z</time>
      </trkpt>
      <trkpt lat="62.382808" lon="12.273478">
        <ele>749.293</ele>
        <time>2011-07-04T14:02:14Z</time>
      </trkpt>
      <trkpt lat="62.382863" lon="12.273607">
        <ele>748.288</ele>
        <time>2011-07-04T14:02:22Z</time>
      </trkpt>
      <trkpt lat="62.38294" lon="12.273748">
        <ele>747.771</ele>
        <time>2011-07-04T14:02:29Z</time>
      </trkpt>
      <trkpt lat="62.383" lon="12.273884">
        <ele>748.142</ele>
        <time>2011-07-04T14:02:36Z</time>
      </trkpt>
      <trkpt lat="62.383049" lon="12.273997">
        <ele>748.607</ele>
        <time>2011-07-04T14:02:42Z</time>
      </trkpt>
      <trkpt lat="62.383099" lon="12.274071">
        <ele>748.803</ele>
        <time>2011-07-04T14:02:47Z</time>
      </trkpt>
      <trkpt lat="62.38315" lon="12.274248">
        <ele>749.471</ele>
        <time>2011-07-04T14:02:55Z</time>
      </trkpt>
      <trkpt lat="62.38319" lon="12.274293">
        <ele>749.309</ele>
        <time>2011-07-04T14:03:01Z</time>
      </trkpt>
      <trkpt lat="62.383207" lon="12.27434">
        <ele>748.815</ele>
        <time>2011-07-04T14:03:04Z</time>
      </trkpt>
      <trkpt lat="62.383242" lon="12.274441">
        <ele>747.937</ele>
        <time>2011-07-04T14:03:11Z</time>
      </trkpt>
      <trkpt lat="62.383267" lon="12.274527">
        <ele>748.343</ele>
        <time>2011-07-04T14:03:16Z</time>
      </trkpt>
      <trkpt lat="62.383328" lon="12.274675">
        <ele>749.35</ele>
        <time>2011-07-04T14:03:24Z</time>
      </trkpt>
      <trkpt lat="62.383345" lon="12.274719">
        <ele>749.686</ele>
        <time>2011-07-04T14:03:28Z</time>
      </trkpt>
      <trkpt lat="62.383398" lon="12.274792">
        <ele>749.549</ele>
        <time>2011-07-04T14:03:35Z</time>
      </trkpt>
      <trkpt lat="62.383428" lon="12.27488">
        <ele>749.584</ele>
        <time>2011-07-04T14:03:40Z</time>
      </trkpt>
      <trkpt lat="62.383437" lon="12.274904">
        <ele>749.566</ele>
        <time>2011-07-04T14:03:41Z</time>
      </trkpt>
      <trkpt lat="62.383449" lon="12.275007">
        <ele>749.256</ele>
        <time>2011-07-04T14:03:46Z</time>
      </trkpt>
      <trkpt lat="62.383491" lon="12.275106">
        <ele>748.174</ele>
        <time>2011-07-04T14:03:52Z</time>
      </trkpt>
      <trkpt lat="62.383531" lon="12.275221">
        <ele>747.18</ele>
        <time>2011-07-04T14:03:57Z</time>
      </trkpt>
      <trkpt lat="62.383611" lon="12.275382">
        <ele>745.481</ele>
        <time>2011-07-04T14:04:05Z</time>
      </trkpt>
      <trkpt lat="62.383692" lon="12.275491">
        <ele>744.485</ele>
        <time>2011-07-04T14:04:11Z</time>
      </trkpt>
      <trkpt lat="62.383728" lon="12.27566">
        <ele>744.435</ele>
        <time>2011-07-04T14:04:18Z</time>
      </trkpt>
      <trkpt lat="62.383804" lon="12.275787">
        <ele>744.045</ele>
        <time>2011-07-04T14:04:26Z</time>
      </trkpt>
      <trkpt lat="62.383818" lon="12.275847">
        <ele>743.874</ele>
        <time>2011-07-04T14:04:29Z</time>
      </trkpt>
      <trkpt lat="62.38388" lon="12.276055">
        <ele>743.779</ele>
        <time>2011-07-04T14:04:38Z</time>
      </trkpt>
      <trkpt lat="62.38391" lon="12.276196">
        <ele>743.822</ele>
        <time>2011-07-04T14:04:44Z</time>
      </trkpt>
      <trkpt lat="62.383925" lon="12.27624">
        <ele>743.884</ele>
        <time>2011-07-04T14:04:46Z</time>
      </trkpt>
      <trkpt lat="62.383948" lon="12.276384">
        <ele>743.709</ele>
        <time>2011-07-04T14:04:52Z</time>
      </trkpt>
      <trkpt lat="62.383973" lon="12.276414">
        <ele>743.667</ele>
        <time>2011-07-04T14:04:55Z</time>
      </trkpt>
      <trkpt lat="62.384002" lon="12.276497">
        <ele>743.526</ele>
        <time>2011-07-04T14:04:59Z</time>
      </trkpt>
      <trkpt lat="62.384024" lon="12.276536">
        <ele>743.377</ele>
        <time>2011-07-04T14:05:02Z</time>
      </trkpt>
      <trkpt lat="62.384035" lon="12.276559">
        <ele>743.579</ele>
        <time>2011-07-04T14:05:04Z</time>
      </trkpt>
      <trkpt lat="62.384071" lon="12.276616">
        <ele>744.065</ele>
        <time>2011-07-04T14:05:08Z</time>
      </trkpt>
      <trkpt lat="62.384147" lon="12.276663">
        <ele>744.462</ele>
        <time>2011-07-04T14:05:15Z</time>
      </trkpt>
      <trkpt lat="62.384158" lon="12.276665">
        <ele>744.527</ele>
        <time>2011-07-04T14:05:16Z</time>
      </trkpt>
      <trkpt lat="62.384183" lon="12.276659">
        <ele>744.558</ele>
        <time>2011-07-04T14:05:18Z</time>
      </trkpt>
      <trkpt lat="62.384242" lon="12.276711">
        <ele>745.307</ele>
        <time>2011-07-04T14:05:24Z</time>
      </trkpt>
      <trkpt lat="62.38425" lon="12.276719">
        <ele>745.577</ele>
        <time>2011-07-04T14:05:25Z</time>
      </trkpt>
      <trkpt lat="62.384296" lon="12.276829">
        <ele>746.079</ele>
        <time>2011-07-04T14:05:31Z</time>
      </trkpt>
      <trkpt lat="62.384338" lon="12.276876">
        <ele>746.262</ele>
        <time>2011-07-04T14:05:34Z</time>
      </trkpt>
      <trkpt lat="62.384397" lon="12.277029">
        <ele>746.588</ele>
        <time>2011-07-04T14:05:40Z</time>
      </trkpt>
      <trkpt lat="62.384466" lon="12.277097">
        <ele>747.631</ele>
        <time>2011-07-04T14:05:46Z</time>
      </trkpt>
      <trkpt lat="62.384534" lon="12.27724">
        <ele>748.335</ele>
        <time>2011-07-04T14:05:54Z</time>
      </trkpt>
      <trkpt lat="62.384591" lon="12.277405">
        <ele>749.056</ele>
        <time>2011-07-04T14:06:01Z</time>
      </trkpt>
      <trkpt lat="62.3846" lon="12.277428">
        <ele>749.07</ele>
        <time>2011-07-04T14:06:02Z</time>
      </trkpt>
      <trkpt lat="62.384637" lon="12.277607">
        <ele>749.164</ele>
        <time>2011-07-04T14:06:09Z</time>
      </trkpt>
      <trkpt lat="62.384669" lon="12.277703">
        <ele>749.244</ele>
        <time>2011-07-04T14:06:13Z</time>
      </trkpt>
      <trkpt lat="62.384708" lon="12.277861">
        <ele>750.59</ele>
        <time>2011-07-04T14:06:19Z</time>
      </trkpt>
      <trkpt lat="62.384785" lon="12.278088">
        <ele>751.932</ele>
        <time>2011-07-04T14:06:28Z</time>
      </trkpt>
      <trkpt lat="62.384814" lon="12.278302">
        <ele>752.185</ele>
        <time>2011-07-04T14:06:35Z</time>
      </trkpt>
      <trkpt lat="62.384815" lon="12.278356">
        <ele>752.25</ele>
        <time>2011-07-04T14:06:37Z</time>
      </trkpt>
      <trkpt lat="62.384812" lon="12.278511">
        <ele>751.996</ele>
        <time>2011-07-04T14:06:43Z</time>
      </trkpt>
      <trkpt lat="62.384849" lon="12.278708">
        <ele>751.067</ele>
        <time>2011-07-04T14:06:51Z</time>
      </trkpt>
      <trkpt lat="62.384848" lon="12.278755">
        <ele>750.955</ele>
        <time>2011-07-04T14:06:53Z</time>
      </trkpt>
      <trkpt lat="62.38485" lon="12.278935">
        <ele>750.244</ele>
        <time>2011-07-04T14:07:00Z</time>
      </trkpt>
      <trkpt lat="62.384873" lon="12.279099">
        <ele>750.219</ele>
        <time>2011-07-04T14:07:06Z</time>
      </trkpt>
      <trkpt lat="62.384882" lon="12.27918">
        <ele>750.189</ele>
        <time>2011-07-04T14:07:09Z</time>
      </trkpt>
      <trkpt lat="62.384931" lon="12.279391">
        <ele>749.263</ele>
        <time>2011-07-04T14:07:17Z</time>
      </trkpt>
      <trkpt lat="62.384957" lon="12.27958">
        <ele>748.619</ele>
        <time>2011-07-04T14:07:24Z</time>
      </trkpt>
      <trkpt lat="62.384975" lon="12.279785">
        <ele>748.016</ele>
        <time>2011-07-04T14:07:31Z</time>
      </trkpt>
      <trkpt lat="62.384985" lon="12.279845">
        <ele>747.772</ele>
        <time>2011-07-04T14:07:33Z</time>
      </trkpt>
      <trkpt lat="62.384996" lon="12.280021">
        <ele>747.324</ele>
        <time>2011-07-04T14:07:39Z</time>
      </trkpt>
      <trkpt lat="62.385014" lon="12.280191">
        <ele>747.201</ele>
        <time>2011-07-04T14:07:46Z</time>
      </trkpt>
      <trkpt lat="62.385034" lon="12.28028">
        <ele>747.996</ele>
        <time>2011-07-04T14:07:52Z</time>
      </trkpt>
      <trkpt lat="62.385014" lon="12.280394">
        <ele>748.487</ele>
        <time>2011-07-04T14:07:57Z</time>
      </trkpt>
      <trkpt lat="62.385027" lon="12.280502">
        <ele>749.256</ele>
        <time>2011-07-04T14:08:01Z</time>
      </trkpt>
      <trkpt lat="62.385065" lon="12.280672">
        <ele>749.098</ele>
        <time>2011-07-04T14:08:08Z</time>
      </trkpt>
      <trkpt lat="62.385061" lon="12.280752">
        <ele>748.827</ele>
        <time>2011-07-04T14:08:11Z</time>
      </trkpt>
      <trkpt lat="62.385052" lon="12.280883">
        <ele>748.127</ele>
        <time>2011-07-04T14:08:16Z</time>
      </trkpt>
      <trkpt lat="62.385057" lon="12.281005">
        <ele>747.34</ele>
        <time>2011-07-04T14:08:20Z</time>
      </trkpt>
      <trkpt lat="62.385065" lon="12.281066">
        <ele>747.097</ele>
        <time>2011-07-04T14:08:22Z</time>
      </trkpt>
      <trkpt lat="62.385056" lon="12.281274">
        <ele>747.525</ele>
        <time>2011-07-04T14:08:29Z</time>
      </trkpt>
      <trkpt lat="62.385069" lon="12.281301">
        <ele>747.825</ele>
        <time>2011-07-04T14:08:31Z</time>
      </trkpt>
      <trkpt lat="62.385082" lon="12.281416">
        <ele>748.732</ele>
        <time>2011-07-04T14:08:36Z</time>
      </trkpt>
      <trkpt lat="62.38509" lon="12.281504">
        <ele>750.089</ele>
        <time>2011-07-04T14:08:40Z</time>
      </trkpt>
      <trkpt lat="62.385086" lon="12.281625">
        <ele>751.388</ele>
        <time>2011-07-04T14:08:45Z</time>
      </trkpt>
      <trkpt lat="62.385088" lon="12.281742">
        <ele>752.767</ele>
        <time>2011-07-04T14:08:50Z</time>
      </trkpt>
      <trkpt lat="62.385088" lon="12.281884">
        <ele>753.862</ele>
        <time>2011-07-04T14:08:55Z</time>
      </trkpt>
      <trkpt lat="62.385109" lon="12.282024">
        <ele>754.859</ele>
        <time>2011-07-04T14:09:00Z</time>
      </trkpt>
      <trkpt lat="62.385074" lon="12.282152">
        <ele>755.409</ele>
        <time>2011-07-04T14:09:05Z</time>
      </trkpt>
      <trkpt lat="62.385057" lon="12.282324">
        <ele>756.266</ele>
        <time>2011-07-04T14:09:11Z</time>
      </trkpt>
      <trkpt lat="62.385062" lon="12.28251">
        <ele>757.35</ele>
        <time>2011-07-04T14:09:17Z</time>
      </trkpt>
      <trkpt lat="62.385065" lon="12.282572">
        <ele>757.471</ele>
        <time>2011-07-04T14:09:19Z</time>
      </trkpt>
      <trkpt lat="62.385054" lon="12.282817">
        <ele>757.805</ele>
        <time>2011-07-04T14:09:27Z</time>
      </trkpt>
      <trkpt lat="62.385054" lon="12.28303">
        <ele>757.934</ele>
        <time>2011-07-04T14:09:34Z</time>
      </trkpt>
      <trkpt lat="62.385076" lon="12.283143">
        <ele>758.132</ele>
        <time>2011-07-04T14:09:38Z</time>
      </trkpt>
      <trkpt lat="62.38509" lon="12.28333">
        <ele>758.011</ele>
        <time>2011-07-04T14:09:43Z</time>
      </trkpt>
      <trkpt lat="62.385102" lon="12.283516">
        <ele>759.198</ele>
        <time>2011-07-04T14:09:49Z</time>
      </trkpt>
      <trkpt lat="62.385109" lon="12.283655">
        <ele>759.932</ele>
        <time>2011-07-04T14:09:54Z</time>
      </trkpt>
      <trkpt lat="62.385133" lon="12.283846">
        <ele>760.384</ele>
        <time>2011-07-04T14:10:02Z</time>
      </trkpt>
      <trkpt lat="62.385141" lon="12.283897">
        <ele>760.437</ele>
        <time>2011-07-04T14:10:04Z</time>
      </trkpt>
      <trkpt lat="62.385148" lon="12.284118">
        <ele>760.067</ele>
        <time>2011-07-04T14:10:12Z</time>
      </trkpt>
      <trkpt lat="62.385138" lon="12.284207">
        <ele>759.815</ele>
        <time>2011-07-04T14:10:15Z</time>
      </trkpt>
      <trkpt lat="62.385155" lon="12.284379">
        <ele>759.241</ele>
        <time>2011-07-04T14:10:21Z</time>
      </trkpt>
      <trkpt lat="62.385159" lon="12.284557">
        <ele>758.845</ele>
        <time>2011-07-04T14:10:27Z</time>
      </trkpt>
      <trkpt lat="62.385158" lon="12.284652">
        <ele>758.963</ele>
        <time>2011-07-04T14:10:30Z</time>
      </trkpt>
      <trkpt lat="62.385172" lon="12.284798">
        <ele>758.228</ele>
        <time>2011-07-04T14:10:35Z</time>
      </trkpt>
      <trkpt lat="62.385168" lon="12.284981">
        <ele>757.851</ele>
        <time>2011-07-04T14:10:42Z</time>
      </trkpt>
      <trkpt lat="62.385196" lon="12.285176">
        <ele>756.6</ele>
        <time>2011-07-04T14:10:50Z</time>
      </trkpt>
      <trkpt lat="62.385206" lon="12.28534">
        <ele>755.863</ele>
        <time>2011-07-04T14:10:56Z</time>
      </trkpt>
      <trkpt lat="62.38522" lon="12.285434">
        <ele>755.213</ele>
        <time>2011-07-04T14:11:00Z</time>
      </trkpt>
      <trkpt lat="62.385228" lon="12.28561">
        <ele>753.898</ele>
        <time>2011-07-04T14:11:07Z</time>
      </trkpt>
      <trkpt lat="62.385228" lon="12.285638">
        <ele>753.807</ele>
        <time>2011-07-04T14:11:08Z</time>
      </trkpt>
      <trkpt lat="62.385236" lon="12.285802">
        <ele>752.794</ele>
        <time>2011-07-04T14:11:14Z</time>
      </trkpt>
      <trkpt lat="62.385264" lon="12.285952">
        <ele>751.691</ele>
        <time>2011-07-04T14:11:21Z</time>
      </trkpt>
      <trkpt lat="62.385283" lon="12.286032">
        <ele>750.393</ele>
        <time>2011-07-04T14:11:26Z</time>
      </trkpt>
      <trkpt lat="62.385311" lon="12.286207">
        <ele>747.212</ele>
        <time>2011-07-04T14:11:34Z</time>
      </trkpt>
      <trkpt lat="62.385324" lon="12.286293">
        <ele>746.5</ele>
        <time>2011-07-04T14:11:39Z</time>
      </trkpt>
      <trkpt lat="62.385327" lon="12.286355">
        <ele>746.404</ele>
        <time>2011-07-04T14:11:44Z</time>
      </trkpt>
      <trkpt lat="62.38536" lon="12.286419">
        <ele>745.912</ele>
        <time>2011-07-04T14:11:50Z</time>
      </trkpt>
      <trkpt lat="62.385367" lon="12.286464">
        <ele>745.872</ele>
        <time>2011-07-04T14:11:55Z</time>
      </trkpt>
      <trkpt lat="62.385431" lon="12.286544">
        <ele>746.009</ele>
        <time>2011-07-04T14:12:12Z</time>
      </trkpt>
      <trkpt lat="62.385471" lon="12.286639">
        <ele>746.363</ele>
        <time>2011-07-04T14:12:35Z</time>
      </trkpt>
      <trkpt lat="62.385488" lon="12.286677">
        <ele>746.469</ele>
        <time>2011-07-04T14:12:38Z</time>
      </trkpt>
      <trkpt lat="62.38552" lon="12.286781">
        <ele>747.6</ele>
        <time>2011-07-04T14:12:45Z</time>
      </trkpt>
      <trkpt lat="62.38553" lon="12.286837">
        <ele>748.941</ele>
        <time>2011-07-04T14:12:49Z</time>
      </trkpt>
      <trkpt lat="62.385573" lon="12.287025">
        <ele>752.151</ele>
        <time>2011-07-04T14:12:59Z</time>
      </trkpt>
      <trkpt lat="62.385606" lon="12.287174">
        <ele>754.016</ele>
        <time>2011-07-04T14:13:07Z</time>
      </trkpt>
      <trkpt lat="62.385641" lon="12.287251">
        <ele>754.81</ele>
        <time>2011-07-04T14:13:12Z</time>
      </trkpt>
      <trkpt lat="62.38575" lon="12.287236">
        <ele>753.136</ele>
        <time>2011-07-04T14:13:18Z</time>
      </trkpt>
      <trkpt lat="62.385772" lon="12.28723">
        <ele>752.77</ele>
        <time>2011-07-04T14:13:19Z</time>
      </trkpt>
      <trkpt lat="62.38583" lon="12.287255">
        <ele>751.461</ele>
        <time>2011-07-04T14:13:23Z</time>
      </trkpt>
      <trkpt lat="62.385925" lon="12.287259">
        <ele>748.882</ele>
        <time>2011-07-04T14:13:32Z</time>
      </trkpt>
      <trkpt lat="62.385947" lon="12.287261">
        <ele>747.919</ele>
        <time>2011-07-04T14:13:35Z</time>
      </trkpt>
      <trkpt lat="62.385985" lon="12.287275">
        <ele>746.95</ele>
        <time>2011-07-04T14:13:40Z</time>
      </trkpt>
      <trkpt lat="62.386036" lon="12.28729">
        <ele>746.848</ele>
        <time>2011-07-04T14:13:45Z</time>
      </trkpt>
      <trkpt lat="62.386105" lon="12.28734">
        <ele>747.69</ele>
        <time>2011-07-04T14:13:52Z</time>
      </trkpt>
      <trkpt lat="62.386124" lon="12.287362">
        <ele>749.05</ele>
        <time>2011-07-04T14:13:55Z</time>
      </trkpt>
      <trkpt lat="62.386142" lon="12.287365">
        <ele>749.498</ele>
        <time>2011-07-04T14:13:57Z</time>
      </trkpt>
      <trkpt lat="62.386229" lon="12.287308">
        <ele>749.916</ele>
        <time>2011-07-04T14:14:03Z</time>
      </trkpt>
      <trkpt lat="62.386358" lon="12.287261">
        <ele>750.064</ele>
        <time>2011-07-04T14:14:12Z</time>
      </trkpt>
      <trkpt lat="62.386436" lon="12.287276">
        <ele>750.973</ele>
        <time>2011-07-04T14:14:19Z</time>
      </trkpt>
      <trkpt lat="62.386492" lon="12.287356">
        <ele>751.718</ele>
        <time>2011-07-04T14:14:25Z</time>
      </trkpt>
      <trkpt lat="62.386503" lon="12.287364">
        <ele>751.826</ele>
        <time>2011-07-04T14:14:26Z</time>
      </trkpt>
      <trkpt lat="62.386572" lon="12.287397">
        <ele>752.639</ele>
        <time>2011-07-04T14:14:32Z</time>
      </trkpt>
      <trkpt lat="62.38662" lon="12.2874">
        <ele>752.637</ele>
        <time>2011-07-04T14:14:36Z</time>
      </trkpt>
      <trkpt lat="62.386668" lon="12.287421">
        <ele>753.079</ele>
        <time>2011-07-04T14:14:40Z</time>
      </trkpt>
      <trkpt lat="62.386732" lon="12.287514">
        <ele>751.893</ele>
        <time>2011-07-04T14:14:46Z</time>
      </trkpt>
      <trkpt lat="62.386833" lon="12.287529">
        <ele>750.52</ele>
        <time>2011-07-04T14:14:52Z</time>
      </trkpt>
      <trkpt lat="62.386847" lon="12.287527">
        <ele>750.421</ele>
        <time>2011-07-04T14:14:53Z</time>
      </trkpt>
      <trkpt lat="62.386874" lon="12.287504">
        <ele>750.204</ele>
        <time>2011-07-04T14:14:55Z</time>
      </trkpt>
      <trkpt lat="62.386926" lon="12.287499">
        <ele>750.193</ele>
        <time>2011-07-04T14:14:59Z</time>
      </trkpt>
      <trkpt lat="62.387041" lon="12.28747">
        <ele>749.527</ele>
        <time>2011-07-04T14:15:08Z</time>
      </trkpt>
      <trkpt lat="62.387065" lon="12.287465">
        <ele>749.278</ele>
        <time>2011-07-04T14:15:10Z</time>
      </trkpt>
      <trkpt lat="62.387132" lon="12.287506">
        <ele>748.568</ele>
        <time>2011-07-04T14:15:16Z</time>
      </trkpt>
      <trkpt lat="62.387241" lon="12.287539">
        <ele>748.658</ele>
        <time>2011-07-04T14:15:23Z</time>
      </trkpt>
      <trkpt lat="62.38727" lon="12.287549">
        <ele>748.672</ele>
        <time>2011-07-04T14:15:25Z</time>
      </trkpt>
      <trkpt lat="62.387331" lon="12.287579">
        <ele>748.3</ele>
        <time>2011-07-04T14:15:31Z</time>
      </trkpt>
      <trkpt lat="62.387406" lon="12.287561">
        <ele>747.971</ele>
        <time>2011-07-04T14:15:36Z</time>
      </trkpt>
      <trkpt lat="62.387441" lon="12.287582">
        <ele>747.986</ele>
        <time>2011-07-04T14:15:39Z</time>
      </trkpt>
      <trkpt lat="62.38748" lon="12.287681">
        <ele>748.434</ele>
        <time>2011-07-04T14:15:44Z</time>
      </trkpt>
      <trkpt lat="62.387512" lon="12.287743">
        <ele>748.591</ele>
        <time>2011-07-04T14:15:48Z</time>
      </trkpt>
      <trkpt lat="62.387557" lon="12.287869">
        <ele>749.46</ele>
        <time>2011-07-04T14:15:55Z</time>
      </trkpt>
      <trkpt lat="62.387574" lon="12.287874">
        <ele>749.722</ele>
        <time>2011-07-04T14:15:57Z</time>
      </trkpt>
      <trkpt lat="62.387657" lon="12.287885">
        <ele>751.082</ele>
        <time>2011-07-04T14:16:05Z</time>
      </trkpt>
      <trkpt lat="62.387692" lon="12.287946">
        <ele>751.755</ele>
        <time>2011-07-04T14:16:11Z</time>
      </trkpt>
      <trkpt lat="62.387813" lon="12.288091">
        <ele>752.377</ele>
        <time>2011-07-04T14:16:26Z</time>
      </trkpt>
      <trkpt lat="62.387903" lon="12.288116">
        <ele>752.295</ele>
        <time>2011-07-04T14:17:07Z</time>
      </trkpt>
      <trkpt lat="62.387895" lon="12.288178">
        <ele>752.366</ele>
        <time>2011-07-04T14:17:25Z</time>
      </trkpt>
      <trkpt lat="62.387926" lon="12.288332">
        <ele>752.952</ele>
        <time>2011-07-04T14:18:49Z</time>
      </trkpt>
      <trkpt lat="62.388041" lon="12.288203">
        <ele>752.353</ele>
        <time>2011-07-04T14:19:45Z</time>
      </trkpt>
      <trkpt lat="62.38804" lon="12.288197">
        <ele>752.395</ele>
        <time>2011-07-04T14:19:47Z</time>
      </trkpt>
      <trkpt lat="62.387942" lon="12.28834">
        <ele>755.24</ele>
        <time>2011-07-04T14:22:00Z</time>
      </trkpt>
      <trkpt lat="62.387899" lon="12.288353">
        <ele>755.265</ele>
        <time>2011-07-04T14:22:07Z</time>
      </trkpt>
      <trkpt lat="62.387904" lon="12.288344">
        <ele>755.183</ele>
        <time>2011-07-04T14:22:20Z</time>
      </trkpt>
      <trkpt lat="62.387896" lon="12.288328">
        <ele>755.245</ele>
        <time>2011-07-04T14:22:22Z</time>
      </trkpt>
      <trkpt lat="62.387888" lon="12.288399">
        <ele>756.784</ele>
        <time>2011-07-04T14:38:23Z</time>
      </trkpt>
      <trkpt lat="62.387881" lon="12.288401">
        <ele>756.758</ele>
        <time>2011-07-04T14:38:24Z</time>
      </trkpt>
      <trkpt lat="62.387895" lon="12.288466">
        <ele>756.384</ele>
        <time>2011-07-04T14:41:04Z</time>
      </trkpt>
      <trkpt lat="62.387931" lon="12.288353">
        <ele>755.807</ele>
        <time>2011-07-04T14:43:18Z</time>
      </trkpt>
      <trkpt lat="62.388027" lon="12.288408">
        <ele>750.486</ele>
        <time>2011-07-04T15:06:33Z</time>
      </trkpt>
      <trkpt lat="62.388095" lon="12.288435">
        <ele>750.818</ele>
        <time>2011-07-04T15:06:38Z</time>
      </trkpt>
      <trkpt lat="62.388066" lon="12.288445">
        <ele>750.843</ele>
        <time>2011-07-04T15:06:41Z</time>
      </trkpt>
      <trkpt lat="62.387976" lon="12.288453">
        <ele>750.683</ele>
        <time>2011-07-04T15:06:45Z</time>
      </trkpt>
      <trkpt lat="62.388079" lon="12.288036">
        <ele>752.234</ele>
        <time>2011-07-04T15:11:10Z</time>
      </trkpt>
      <trkpt lat="62.38809" lon="12.288055">
        <ele>751.946</ele>
        <time>2011-07-04T15:11:11Z</time>
      </trkpt>
      <trkpt lat="62.388205" lon="12.288165">
        <ele>752.869</ele>
        <time>2011-07-04T15:11:19Z</time>
      </trkpt>
      <trkpt lat="62.388311" lon="12.288256">
        <ele>752.388</ele>
        <time>2011-07-04T15:11:27Z</time>
      </trkpt>
      <trkpt lat="62.38837" lon="12.288384">
        <ele>752.094</ele>
        <time>2011-07-04T15:11:34Z</time>
      </trkpt>
      <trkpt lat="62.388445" lon="12.288497">
        <ele>751.959</ele>
        <time>2011-07-04T15:11:40Z</time>
      </trkpt>
      <trkpt lat="62.388514" lon="12.288623">
        <ele>752.723</ele>
        <time>2011-07-04T15:11:47Z</time>
      </trkpt>
      <trkpt lat="62.388583" lon="12.288753">
        <ele>752.719</ele>
        <time>2011-07-04T15:11:53Z</time>
      </trkpt>
      <trkpt lat="62.388674" lon="12.288888">
        <ele>752.675</ele>
        <time>2011-07-04T15:12:01Z</time>
      </trkpt>
      <trkpt lat="62.388779" lon="12.289046">
        <ele>752.131</ele>
        <time>2011-07-04T15:12:09Z</time>
      </trkpt>
      <trkpt lat="62.388863" lon="12.289182">
        <ele>751.757</ele>
        <time>2011-07-04T15:12:15Z</time>
      </trkpt>
      <trkpt lat="62.388884" lon="12.289228">
        <ele>751.62</ele>
        <time>2011-07-04T15:12:17Z</time>
      </trkpt>
      <trkpt lat="62.388967" lon="12.289351">
        <ele>750.731</ele>
        <time>2011-07-04T15:12:24Z</time>
      </trkpt>
      <trkpt lat="62.389048" lon="12.289443">
        <ele>750.379</ele>
        <time>2011-07-04T15:12:31Z</time>
      </trkpt>
      <trkpt lat="62.389082" lon="12.289486">
        <ele>750.161</ele>
        <time>2011-07-04T15:12:34Z</time>
      </trkpt>
      <trkpt lat="62.389172" lon="12.289625">
        <ele>748.902</ele>
        <time>2011-07-04T15:12:43Z</time>
      </trkpt>
      <trkpt lat="62.389234" lon="12.289713">
        <ele>748.504</ele>
        <time>2011-07-04T15:12:48Z</time>
      </trkpt>
      <trkpt lat="62.389307" lon="12.289771">
        <ele>748.313</ele>
        <time>2011-07-04T15:12:54Z</time>
      </trkpt>
      <trkpt lat="62.389393" lon="12.289812">
        <ele>748.684</ele>
        <time>2011-07-04T15:13:02Z</time>
      </trkpt>
      <trkpt lat="62.389403" lon="12.289811">
        <ele>748.731</ele>
        <time>2011-07-04T15:13:03Z</time>
      </trkpt>
      <trkpt lat="62.389448" lon="12.289847">
        <ele>748.312</ele>
        <time>2011-07-04T15:13:07Z</time>
      </trkpt>
      <trkpt lat="62.38955" lon="12.28995">
        <ele>747.724</ele>
        <time>2011-07-04T15:13:15Z</time>
      </trkpt>
      <trkpt lat="62.389562" lon="12.289962">
        <ele>747.719</ele>
        <time>2011-07-04T15:13:16Z</time>
      </trkpt>
      <trkpt lat="62.389602" lon="12.289984">
        <ele>747.38</ele>
        <time>2011-07-04T15:13:19Z</time>
      </trkpt>
      <trkpt lat="62.389653" lon="12.290038">
        <ele>747.123</ele>
        <time>2011-07-04T15:13:23Z</time>
      </trkpt>
      <trkpt lat="62.389798" lon="12.290101">
        <ele>747.108</ele>
        <time>2011-07-04T15:13:32Z</time>
      </trkpt>
      <trkpt lat="62.389868" lon="12.290151">
        <ele>747.077</ele>
        <time>2011-07-04T15:13:36Z</time>
      </trkpt>
      <trkpt lat="62.389981" lon="12.290235">
        <ele>747.382</ele>
        <time>2011-07-04T15:13:42Z</time>
      </trkpt>
      <trkpt lat="62.390119" lon="12.290389">
        <ele>747.08</ele>
        <time>2011-07-04T15:13:50Z</time>
      </trkpt>
      <trkpt lat="62.390134" lon="12.290409">
        <ele>747.042</ele>
        <time>2011-07-04T15:13:51Z</time>
      </trkpt>
      <trkpt lat="62.390273" lon="12.290483">
        <ele>746.791</ele>
        <time>2011-07-04T15:13:57Z</time>
      </trkpt>
      <trkpt lat="62.390446" lon="12.290619">
        <ele>747.078</ele>
        <time>2011-07-04T15:14:05Z</time>
      </trkpt>
      <trkpt lat="62.390499" lon="12.290677">
        <ele>747.08</ele>
        <time>2011-07-04T15:14:08Z</time>
      </trkpt>
      <trkpt lat="62.390577" lon="12.290771">
        <ele>747.044</ele>
        <time>2011-07-04T15:14:14Z</time>
      </trkpt>
      <trkpt lat="62.390593" lon="12.290778">
        <ele>746.99</ele>
        <time>2011-07-04T15:14:15Z</time>
      </trkpt>
      <trkpt lat="62.390729" lon="12.290862">
        <ele>746.727</ele>
        <time>2011-07-04T15:14:22Z</time>
      </trkpt>
      <trkpt lat="62.390848" lon="12.290954">
        <ele>746.621</ele>
        <time>2011-07-04T15:14:28Z</time>
      </trkpt>
      <trkpt lat="62.390903" lon="12.291022">
        <ele>746.519</ele>
        <time>2011-07-04T15:14:31Z</time>
      </trkpt>
      <trkpt lat="62.391109" lon="12.291105">
        <ele>746.728</ele>
        <time>2011-07-04T15:14:41Z</time>
      </trkpt>
      <trkpt lat="62.391287" lon="12.291198">
        <ele>746.852</ele>
        <time>2011-07-04T15:14:50Z</time>
      </trkpt>
      <trkpt lat="62.391408" lon="12.291338">
        <ele>747.124</ele>
        <time>2011-07-04T15:14:57Z</time>
      </trkpt>
      <trkpt lat="62.391496" lon="12.291358">
        <ele>747.392</ele>
        <time>2011-07-04T15:15:03Z</time>
      </trkpt>
      <trkpt lat="62.391566" lon="12.29139">
        <ele>747.805</ele>
        <time>2011-07-04T15:15:08Z</time>
      </trkpt>
      <trkpt lat="62.39165" lon="12.291433">
        <ele>748.28</ele>
        <time>2011-07-04T15:15:15Z</time>
      </trkpt>
      <trkpt lat="62.391662" lon="12.291441">
        <ele>748.403</ele>
        <time>2011-07-04T15:15:16Z</time>
      </trkpt>
      <trkpt lat="62.391719" lon="12.291434">
        <ele>748.592</ele>
        <time>2011-07-04T15:15:20Z</time>
      </trkpt>
      <trkpt lat="62.3918" lon="12.291466">
        <ele>748.517</ele>
        <time>2011-07-04T15:15:26Z</time>
      </trkpt>
      <trkpt lat="62.391874" lon="12.29151">
        <ele>748.947</ele>
        <time>2011-07-04T15:15:31Z</time>
      </trkpt>
      <trkpt lat="62.391909" lon="12.291526">
        <ele>749.111</ele>
        <time>2011-07-04T15:15:33Z</time>
      </trkpt>
      <trkpt lat="62.391969" lon="12.291546">
        <ele>749.839</ele>
        <time>2011-07-04T15:15:37Z</time>
      </trkpt>
      <trkpt lat="62.392114" lon="12.291553">
        <ele>750.038</ele>
        <time>2011-07-04T15:15:45Z</time>
      </trkpt>
      <trkpt lat="62.392227" lon="12.29157">
        <ele>750.804</ele>
        <time>2011-07-04T15:15:51Z</time>
      </trkpt>
      <trkpt lat="62.392324" lon="12.291599">
        <ele>752.382</ele>
        <time>2011-07-04T15:15:58Z</time>
      </trkpt>
      <trkpt lat="62.392338" lon="12.291609">
        <ele>753.059</ele>
        <time>2011-07-04T15:16:00Z</time>
      </trkpt>
      <trkpt lat="62.392435" lon="12.291559">
        <ele>754.484</ele>
        <time>2011-07-04T15:16:08Z</time>
      </trkpt>
      <trkpt lat="62.392501" lon="12.291542">
        <ele>754.706</ele>
        <time>2011-07-04T15:16:13Z</time>
      </trkpt>
      <trkpt lat="62.392544" lon="12.291518">
        <ele>754.558</ele>
        <time>2011-07-04T15:16:16Z</time>
      </trkpt>
      <trkpt lat="62.392614" lon="12.291486">
        <ele>754.729</ele>
        <time>2011-07-04T15:16:22Z</time>
      </trkpt>
      <trkpt lat="62.392694" lon="12.291439">
        <ele>754.33</ele>
        <time>2011-07-04T15:16:29Z</time>
      </trkpt>
      <trkpt lat="62.392753" lon="12.291376">
        <ele>754.485</ele>
        <time>2011-07-04T15:17:07Z</time>
      </trkpt>
      <trkpt lat="62.39282" lon="12.291324">
        <ele>754.762</ele>
        <time>2011-07-04T15:17:14Z</time>
      </trkpt>
      <trkpt lat="62.392832" lon="12.291316">
        <ele>754.813</ele>
        <time>2011-07-04T15:17:15Z</time>
      </trkpt>
      <trkpt lat="62.392876" lon="12.29126">
        <ele>754.742</ele>
        <time>2011-07-04T15:17:19Z</time>
      </trkpt>
      <trkpt lat="62.392959" lon="12.291133">
        <ele>754.449</ele>
        <time>2011-07-04T15:17:26Z</time>
      </trkpt>
      <trkpt lat="62.393014" lon="12.291099">
        <ele>754.407</ele>
        <time>2011-07-04T15:17:31Z</time>
      </trkpt>
      <trkpt lat="62.393033" lon="12.291084">
        <ele>754.687</ele>
        <time>2011-07-04T15:17:33Z</time>
      </trkpt>
      <trkpt lat="62.39309" lon="12.291004">
        <ele>755.4</ele>
        <time>2011-07-04T15:17:40Z</time>
      </trkpt>
      <trkpt lat="62.393141" lon="12.290939">
        <ele>755.547</ele>
        <time>2011-07-04T15:17:44Z</time>
      </trkpt>
      <trkpt lat="62.393211" lon="12.290887">
        <ele>756.266</ele>
        <time>2011-07-04T15:17:50Z</time>
      </trkpt>
      <trkpt lat="62.393289" lon="12.290813">
        <ele>756.789</ele>
        <time>2011-07-04T15:17:58Z</time>
      </trkpt>
      <trkpt lat="62.393402" lon="12.290738">
        <ele>758.219</ele>
        <time>2011-07-04T15:18:08Z</time>
      </trkpt>
      <trkpt lat="62.393506" lon="12.290624">
        <ele>759.087</ele>
        <time>2011-07-04T15:18:17Z</time>
      </trkpt>
      <trkpt lat="62.393545" lon="12.290595">
        <ele>759.166</ele>
        <time>2011-07-04T15:18:20Z</time>
      </trkpt>
      <trkpt lat="62.393625" lon="12.290485">
        <ele>759.703</ele>
        <time>2011-07-04T15:18:27Z</time>
      </trkpt>
      <trkpt lat="62.393692" lon="12.29044">
        <ele>760.078</ele>
        <time>2011-07-04T15:18:32Z</time>
      </trkpt>
      <trkpt lat="62.39373" lon="12.290406">
        <ele>760.17</ele>
        <time>2011-07-04T15:18:35Z</time>
      </trkpt>
      <trkpt lat="62.393821" lon="12.29033">
        <ele>759.733</ele>
        <time>2011-07-04T15:18:42Z</time>
      </trkpt>
      <trkpt lat="62.393906" lon="12.290278">
        <ele>758.746</ele>
        <time>2011-07-04T15:18:48Z</time>
      </trkpt>
      <trkpt lat="62.393994" lon="12.290192">
        <ele>757.964</ele>
        <time>2011-07-04T15:18:55Z</time>
      </trkpt>
      <trkpt lat="62.394073" lon="12.290106">
        <ele>757.056</ele>
        <time>2011-07-04T15:19:02Z</time>
      </trkpt>
      <trkpt lat="62.394089" lon="12.290101">
        <ele>757.018</ele>
        <time>2011-07-04T15:19:03Z</time>
      </trkpt>
      <trkpt lat="62.394189" lon="12.290101">
        <ele>756.851</ele>
        <time>2011-07-04T15:19:11Z</time>
      </trkpt>
      <trkpt lat="62.394209" lon="12.29009">
        <ele>756.884</ele>
        <time>2011-07-04T15:19:13Z</time>
      </trkpt>
      <trkpt lat="62.394265" lon="12.290096">
        <ele>757.307</ele>
        <time>2011-07-04T15:19:18Z</time>
      </trkpt>
      <trkpt lat="62.39433" lon="12.290046">
        <ele>757.633</ele>
        <time>2011-07-04T15:19:23Z</time>
      </trkpt>
      <trkpt lat="62.3944" lon="12.289968">
        <ele>758.01</ele>
        <time>2011-07-04T15:19:29Z</time>
      </trkpt>
      <trkpt lat="62.394472" lon="12.289808">
        <ele>758.187</ele>
        <time>2011-07-04T15:19:36Z</time>
      </trkpt>
      <trkpt lat="62.394548" lon="12.289683">
        <ele>758.007</ele>
        <time>2011-07-04T15:19:43Z</time>
      </trkpt>
      <trkpt lat="62.394615" lon="12.289533">
        <ele>758.242</ele>
        <time>2011-07-04T15:19:49Z</time>
      </trkpt>
      <trkpt lat="62.394627" lon="12.289513">
        <ele>758.228</ele>
        <time>2011-07-04T15:19:50Z</time>
      </trkpt>
      <trkpt lat="62.394729" lon="12.289496">
        <ele>757.735</ele>
        <time>2011-07-04T15:19:58Z</time>
      </trkpt>
      <trkpt lat="62.394811" lon="12.289507">
        <ele>756.449</ele>
        <time>2011-07-04T15:20:05Z</time>
      </trkpt>
      <trkpt lat="62.394886" lon="12.289478">
        <ele>756.064</ele>
        <time>2011-07-04T15:20:11Z</time>
      </trkpt>
      <trkpt lat="62.394898" lon="12.289469">
        <ele>756.168</ele>
        <time>2011-07-04T15:20:12Z</time>
      </trkpt>
      <trkpt lat="62.39502" lon="12.289462">
        <ele>757.467</ele>
        <time>2011-07-04T15:20:19Z</time>
      </trkpt>
      <trkpt lat="62.395099" lon="12.289485">
        <ele>758.126</ele>
        <time>2011-07-04T15:20:23Z</time>
      </trkpt>
      <trkpt lat="62.395218" lon="12.289621">
        <ele>758.615</ele>
        <time>2011-07-04T15:20:30Z</time>
      </trkpt>
      <trkpt lat="62.395318" lon="12.289663">
        <ele>758.624</ele>
        <time>2011-07-04T15:20:35Z</time>
      </trkpt>
      <trkpt lat="62.395374" lon="12.289685">
        <ele>758.953</ele>
        <time>2011-07-04T15:20:38Z</time>
      </trkpt>
      <trkpt lat="62.395501" lon="12.289762">
        <ele>759.342</ele>
        <time>2011-07-04T15:20:45Z</time>
      </trkpt>
      <trkpt lat="62.395611" lon="12.289796">
        <ele>759.876</ele>
        <time>2011-07-04T15:20:51Z</time>
      </trkpt>
      <trkpt lat="62.395699" lon="12.289791">
        <ele>760.205</ele>
        <time>2011-07-04T15:20:56Z</time>
      </trkpt>
      <trkpt lat="62.395767" lon="12.289783">
        <ele>760.095</ele>
        <time>2011-07-04T15:21:02Z</time>
      </trkpt>
      <trkpt lat="62.395795" lon="12.289809">
        <ele>760.562</ele>
        <time>2011-07-04T15:21:05Z</time>
      </trkpt>
      <trkpt lat="62.395878" lon="12.289786">
        <ele>761.354</ele>
        <time>2011-07-04T15:21:12Z</time>
      </trkpt>
      <trkpt lat="62.395972" lon="12.2898">
        <ele>761.619</ele>
        <time>2011-07-04T15:21:18Z</time>
      </trkpt>
      <trkpt lat="62.396068" lon="12.289858">
        <ele>761.905</ele>
        <time>2011-07-04T15:21:23Z</time>
      </trkpt>
      <trkpt lat="62.396122" lon="12.289888">
        <ele>762.72</ele>
        <time>2011-07-04T15:21:27Z</time>
      </trkpt>
      <trkpt lat="62.396145" lon="12.289864">
        <ele>763.305</ele>
        <time>2011-07-04T15:21:29Z</time>
      </trkpt>
      <trkpt lat="62.396213" lon="12.289888">
        <ele>763.605</ele>
        <time>2011-07-04T15:21:33Z</time>
      </trkpt>
      <trkpt lat="62.396311" lon="12.289849">
        <ele>764.459</ele>
        <time>2011-07-04T15:21:39Z</time>
      </trkpt>
      <trkpt lat="62.396348" lon="12.289828">
        <ele>764.215</ele>
        <time>2011-07-04T15:21:41Z</time>
      </trkpt>
      <trkpt lat="62.396451" lon="12.289882">
        <ele>763.654</ele>
        <time>2011-07-04T15:21:47Z</time>
      </trkpt>
      <trkpt lat="62.396485" lon="12.289917">
        <ele>763.293</ele>
        <time>2011-07-04T15:21:49Z</time>
      </trkpt>
      <trkpt lat="62.396553" lon="12.289975">
        <ele>763.471</ele>
        <time>2011-07-04T15:21:54Z</time>
      </trkpt>
      <trkpt lat="62.396634" lon="12.29002">
        <ele>764.259</ele>
        <time>2011-07-04T15:22:01Z</time>
      </trkpt>
      <trkpt lat="62.396754" lon="12.290106">
        <ele>764.42</ele>
        <time>2011-07-04T15:22:09Z</time>
      </trkpt>
      <trkpt lat="62.396827" lon="12.290218">
        <ele>764.769</ele>
        <time>2011-07-04T15:22:15Z</time>
      </trkpt>
      <trkpt lat="62.396869" lon="12.290262">
        <ele>764.673</ele>
        <time>2011-07-04T15:22:18Z</time>
      </trkpt>
      <trkpt lat="62.396948" lon="12.290356">
        <ele>765.461</ele>
        <time>2011-07-04T15:22:25Z</time>
      </trkpt>
      <trkpt lat="62.396996" lon="12.290403">
        <ele>766.477</ele>
        <time>2011-07-04T15:22:29Z</time>
      </trkpt>
      <trkpt lat="62.397047" lon="12.290452">
        <ele>766.894</ele>
        <time>2011-07-04T15:22:33Z</time>
      </trkpt>
      <trkpt lat="62.397123" lon="12.290516">
        <ele>766.717</ele>
        <time>2011-07-04T15:22:40Z</time>
      </trkpt>
      <trkpt lat="62.39715" lon="12.290595">
        <ele>767.012</ele>
        <time>2011-07-04T15:22:44Z</time>
      </trkpt>
      <trkpt lat="62.397195" lon="12.29064">
        <ele>767.6</ele>
        <time>2011-07-04T15:22:48Z</time>
      </trkpt>
      <trkpt lat="62.397226" lon="12.290663">
        <ele>767.753</ele>
        <time>2011-07-04T15:22:50Z</time>
      </trkpt>
      <trkpt lat="62.397295" lon="12.290806">
        <ele>767.758</ele>
        <time>2011-07-04T15:22:56Z</time>
      </trkpt>
      <trkpt lat="62.397342" lon="12.290944">
        <ele>767.311</ele>
        <time>2011-07-04T15:23:00Z</time>
      </trkpt>
      <trkpt lat="62.397436" lon="12.29118">
        <ele>767.299</ele>
        <time>2011-07-04T15:23:07Z</time>
      </trkpt>
      <trkpt lat="62.397501" lon="12.291325">
        <ele>767.318</ele>
        <time>2011-07-04T15:23:12Z</time>
      </trkpt>
      <trkpt lat="62.39755" lon="12.291344">
        <ele>767.297</ele>
        <time>2011-07-04T15:23:16Z</time>
      </trkpt>
      <trkpt lat="62.397575" lon="12.291362">
        <ele>767.581</ele>
        <time>2011-07-04T15:23:18Z</time>
      </trkpt>
      <trkpt lat="62.397633" lon="12.291469">
        <ele>769.09</ele>
        <time>2011-07-04T15:23:25Z</time>
      </trkpt>
      <trkpt lat="62.397734" lon="12.291486">
        <ele>769.581</ele>
        <time>2011-07-04T15:23:32Z</time>
      </trkpt>
      <trkpt lat="62.397749" lon="12.291492">
        <ele>769.596</ele>
        <time>2011-07-04T15:23:33Z</time>
      </trkpt>
      <trkpt lat="62.397836" lon="12.291598">
        <ele>769.591</ele>
        <time>2011-07-04T15:23:41Z</time>
      </trkpt>
      <trkpt lat="62.39793" lon="12.291694">
        <ele>768.5</ele>
        <time>2011-07-04T15:23:47Z</time>
      </trkpt>
      <trkpt lat="62.398018" lon="12.291785">
        <ele>767.939</ele>
        <time>2011-07-04T15:23:53Z</time>
      </trkpt>
      <trkpt lat="62.398044" lon="12.291818">
        <ele>767.987</ele>
        <time>2011-07-04T15:23:55Z</time>
      </trkpt>
      <trkpt lat="62.398138" lon="12.291861">
        <ele>767.989</ele>
        <time>2011-07-04T15:24:01Z</time>
      </trkpt>
      <trkpt lat="62.398209" lon="12.291946">
        <ele>768.071</ele>
        <time>2011-07-04T15:24:05Z</time>
      </trkpt>
      <trkpt lat="62.398358" lon="12.292125">
        <ele>768.066</ele>
        <time>2011-07-04T15:24:12Z</time>
      </trkpt>
      <trkpt lat="62.398454" lon="12.292244">
        <ele>768.412</ele>
        <time>2011-07-04T15:24:17Z</time>
      </trkpt>
      <trkpt lat="62.398549" lon="12.292326">
        <ele>768.223</ele>
        <time>2011-07-04T15:24:22Z</time>
      </trkpt>
      <trkpt lat="62.39857" lon="12.29235">
        <ele>768.149</ele>
        <time>2011-07-04T15:24:23Z</time>
      </trkpt>
      <trkpt lat="62.398676" lon="12.292474">
        <ele>768.853</ele>
        <time>2011-07-04T15:24:29Z</time>
      </trkpt>
      <trkpt lat="62.398754" lon="12.292611">
        <ele>769.552</ele>
        <time>2011-07-04T15:24:34Z</time>
      </trkpt>
      <trkpt lat="62.398767" lon="12.292642">
        <ele>769.503</ele>
        <time>2011-07-04T15:24:35Z</time>
      </trkpt>
      <trkpt lat="62.398862" lon="12.292716">
        <ele>769.61</ele>
        <time>2011-07-04T15:24:41Z</time>
      </trkpt>
      <trkpt lat="62.398934" lon="12.292785">
        <ele>769.856</ele>
        <time>2011-07-04T15:24:46Z</time>
      </trkpt>
      <trkpt lat="62.398969" lon="12.2928">
        <ele>770.578</ele>
        <time>2011-07-04T15:24:49Z</time>
      </trkpt>
      <trkpt lat="62.399044" lon="12.292885">
        <ele>771.627</ele>
        <time>2011-07-04T15:24:56Z</time>
      </trkpt>
      <trkpt lat="62.399089" lon="12.292945">
        <ele>772.29</ele>
        <time>2011-07-04T15:25:00Z</time>
      </trkpt>
      <trkpt lat="62.399193" lon="12.293029">
        <ele>773.189</ele>
        <time>2011-07-04T15:25:09Z</time>
      </trkpt>
      <trkpt lat="62.399262" lon="12.29307">
        <ele>774.233</ele>
        <time>2011-07-04T15:25:16Z</time>
      </trkpt>
      <trkpt lat="62.39927" lon="12.293059">
        <ele>774.498</ele>
        <time>2011-07-04T15:25:18Z</time>
      </trkpt>
      <trkpt lat="62.399462" lon="12.293112">
        <ele>775.957</ele>
        <time>2011-07-04T15:26:36Z</time>
      </trkpt>
      <trkpt lat="62.39934" lon="12.293126">
        <ele>778.407</ele>
        <time>2011-07-04T15:34:10Z</time>
      </trkpt>
      <trkpt lat="62.399373" lon="12.293202">
        <ele>777.168</ele>
        <time>2011-07-04T15:34:15Z</time>
      </trkpt>
      <trkpt lat="62.39938" lon="12.293216">
        <ele>777.954</ele>
        <time>2011-07-04T15:34:16Z</time>
      </trkpt>
      <trkpt lat="62.399391" lon="12.293248">
        <ele>778.827</ele>
        <time>2011-07-04T15:34:18Z</time>
      </trkpt>
      <trkpt lat="62.399454" lon="12.293315">
        <ele>778.355</ele>
        <time>2011-07-04T15:34:24Z</time>
      </trkpt>
      <trkpt lat="62.399507" lon="12.293388">
        <ele>777.983</ele>
        <time>2011-07-04T15:34:29Z</time>
      </trkpt>
      <trkpt lat="62.39952" lon="12.293425">
        <ele>778.138</ele>
        <time>2011-07-04T15:34:31Z</time>
      </trkpt>
      <trkpt lat="62.399552" lon="12.293513">
        <ele>777.911</ele>
        <time>2011-07-04T15:34:37Z</time>
      </trkpt>
      <trkpt lat="62.399576" lon="12.293542">
        <ele>777.242</ele>
        <time>2011-07-04T15:34:40Z</time>
      </trkpt>
      <trkpt lat="62.399634" lon="12.293623">
        <ele>776.706</ele>
        <time>2011-07-04T15:34:45Z</time>
      </trkpt>
      <trkpt lat="62.399708" lon="12.293806">
        <ele>776.989</ele>
        <time>2011-07-04T15:34:53Z</time>
      </trkpt>
      <trkpt lat="62.39976" lon="12.29389">
        <ele>777.618</ele>
        <time>2011-07-04T15:34:59Z</time>
      </trkpt>
      <trkpt lat="62.399772" lon="12.293951">
        <ele>777.953</ele>
        <time>2011-07-04T15:35:02Z</time>
      </trkpt>
      <trkpt lat="62.399835" lon="12.294075">
        <ele>777.879</ele>
        <time>2011-07-04T15:35:09Z</time>
      </trkpt>
      <trkpt lat="62.399906" lon="12.294178">
        <ele>776.454</ele>
        <time>2011-07-04T15:35:16Z</time>
      </trkpt>
      <trkpt lat="62.399962" lon="12.294275">
        <ele>776.529</ele>
        <time>2011-07-04T15:35:22Z</time>
      </trkpt>
      <trkpt lat="62.400086" lon="12.294478">
        <ele>776.569</ele>
        <time>2011-07-04T15:35:34Z</time>
      </trkpt>
      <trkpt lat="62.400224" lon="12.294661">
        <ele>776.624</ele>
        <time>2011-07-04T15:35:46Z</time>
      </trkpt>
      <trkpt lat="62.400323" lon="12.294806">
        <ele>777.086</ele>
        <time>2011-07-04T15:35:56Z</time>
      </trkpt>
      <trkpt lat="62.400447" lon="12.294986">
        <ele>777.524</ele>
        <time>2011-07-04T15:36:07Z</time>
      </trkpt>
      <trkpt lat="62.400576" lon="12.29516">
        <ele>777.562</ele>
        <time>2011-07-04T15:36:18Z</time>
      </trkpt>
      <trkpt lat="62.400681" lon="12.295295">
        <ele>777.925</ele>
        <time>2011-07-04T15:36:28Z</time>
      </trkpt>
      <trkpt lat="62.400742" lon="12.295404">
        <ele>778.056</ele>
        <time>2011-07-04T15:36:35Z</time>
      </trkpt>
      <trkpt lat="62.400781" lon="12.295565">
        <ele>778.244</ele>
        <time>2011-07-04T15:36:41Z</time>
      </trkpt>
      <trkpt lat="62.400892" lon="12.295673">
        <ele>778.131</ele>
        <time>2011-07-04T15:36:51Z</time>
      </trkpt>
      <trkpt lat="62.400901" lon="12.295685">
        <ele>778.058</ele>
        <time>2011-07-04T15:36:52Z</time>
      </trkpt>
      <trkpt lat="62.400947" lon="12.295695">
        <ele>778.168</ele>
        <time>2011-07-04T15:36:57Z</time>
      </trkpt>
      <trkpt lat="62.401067" lon="12.29583">
        <ele>778.58</ele>
        <time>2011-07-04T15:37:08Z</time>
      </trkpt>
      <trkpt lat="62.40122" lon="12.296032">
        <ele>778.614</ele>
        <time>2011-07-04T15:37:21Z</time>
      </trkpt>
      <trkpt lat="62.401301" lon="12.29613">
        <ele>778.782</ele>
        <time>2011-07-04T15:37:28Z</time>
      </trkpt>
      <trkpt lat="62.401413" lon="12.29631">
        <ele>778.884</ele>
        <time>2011-07-04T15:37:38Z</time>
      </trkpt>
      <trkpt lat="62.40149" lon="12.296435">
        <ele>778.944</ele>
        <time>2011-07-04T15:37:45Z</time>
      </trkpt>
      <trkpt lat="62.401509" lon="12.296468">
        <ele>778.936</ele>
        <time>2011-07-04T15:37:47Z</time>
      </trkpt>
      <trkpt lat="62.401566" lon="12.296571">
        <ele>778.937</ele>
        <time>2011-07-04T15:37:54Z</time>
      </trkpt>
      <trkpt lat="62.401625" lon="12.296619">
        <ele>779.409</ele>
        <time>2011-07-04T15:38:00Z</time>
      </trkpt>
      <trkpt lat="62.401668" lon="12.29661">
        <ele>779.167</ele>
        <time>2011-07-04T15:38:05Z</time>
      </trkpt>
      <trkpt lat="62.401706" lon="12.296677">
        <ele>780.257</ele>
        <time>2011-07-04T15:38:09Z</time>
      </trkpt>
      <trkpt lat="62.401721" lon="12.296747">
        <ele>781.561</ele>
        <time>2011-07-04T15:38:12Z</time>
      </trkpt>
      <trkpt lat="62.401756" lon="12.296816">
        <ele>782.309</ele>
        <time>2011-07-04T15:38:16Z</time>
      </trkpt>
      <trkpt lat="62.401814" lon="12.296919">
        <ele>783.257</ele>
        <time>2011-07-04T15:38:22Z</time>
      </trkpt>
      <trkpt lat="62.401821" lon="12.296939">
        <ele>783.337</ele>
        <time>2011-07-04T15:38:23Z</time>
      </trkpt>
      <trkpt lat="62.401874" lon="12.297032">
        <ele>783.532</ele>
        <time>2011-07-04T15:38:28Z</time>
      </trkpt>
      <trkpt lat="62.401938" lon="12.29717">
        <ele>784.009</ele>
        <time>2011-07-04T15:38:34Z</time>
      </trkpt>
      <trkpt lat="62.401987" lon="12.297278">
        <ele>785.013</ele>
        <time>2011-07-04T15:38:39Z</time>
      </trkpt>
      <trkpt lat="62.402028" lon="12.297395">
        <ele>785.583</ele>
        <time>2011-07-04T15:38:44Z</time>
      </trkpt>
      <trkpt lat="62.402074" lon="12.29749">
        <ele>785.034</ele>
        <time>2011-07-04T15:38:49Z</time>
      </trkpt>
      <trkpt lat="62.402136" lon="12.297653">
        <ele>785.827</ele>
        <time>2011-07-04T15:38:57Z</time>
      </trkpt>
      <trkpt lat="62.402148" lon="12.297709">
        <ele>786.304</ele>
        <time>2011-07-04T15:38:59Z</time>
      </trkpt>
      <trkpt lat="62.402186" lon="12.297824">
        <ele>787.055</ele>
        <time>2011-07-04T15:39:04Z</time>
      </trkpt>
      <trkpt lat="62.402224" lon="12.297903">
        <ele>787.368</ele>
        <time>2011-07-04T15:39:08Z</time>
      </trkpt>
      <trkpt lat="62.402279" lon="12.298027">
        <ele>787.876</ele>
        <time>2011-07-04T15:39:15Z</time>
      </trkpt>
      <trkpt lat="62.402306" lon="12.298074">
        <ele>788.32</ele>
        <time>2011-07-04T15:39:18Z</time>
      </trkpt>
      <trkpt lat="62.40237" lon="12.298191">
        <ele>789.73</ele>
        <time>2011-07-04T15:39:25Z</time>
      </trkpt>
      <trkpt lat="62.402451" lon="12.298287">
        <ele>790.379</ele>
        <time>2011-07-04T15:39:32Z</time>
      </trkpt>
      <trkpt lat="62.402517" lon="12.298363">
        <ele>790.683</ele>
        <time>2011-07-04T15:39:37Z</time>
      </trkpt>
      <trkpt lat="62.402609" lon="12.298408">
        <ele>789.932</ele>
        <time>2011-07-04T15:39:45Z</time>
      </trkpt>
      <trkpt lat="62.402623" lon="12.298413">
        <ele>789.828</ele>
        <time>2011-07-04T15:39:46Z</time>
      </trkpt>
      <trkpt lat="62.402676" lon="12.298488">
        <ele>789.682</ele>
        <time>2011-07-04T15:39:51Z</time>
      </trkpt>
      <trkpt lat="62.402761" lon="12.298604">
        <ele>789.221</ele>
        <time>2011-07-04T15:39:59Z</time>
      </trkpt>
      <trkpt lat="62.402794" lon="12.29866">
        <ele>788.738</ele>
        <time>2011-07-04T15:40:02Z</time>
      </trkpt>
      <trkpt lat="62.402853" lon="12.298708">
        <ele>788.425</ele>
        <time>2011-07-04T15:40:06Z</time>
      </trkpt>
      <trkpt lat="62.402945" lon="12.298724">
        <ele>788.401</ele>
        <time>2011-07-04T15:40:14Z</time>
      </trkpt>
      <trkpt lat="62.402962" lon="12.298754">
        <ele>788.338</ele>
        <time>2011-07-04T15:40:17Z</time>
      </trkpt>
      <trkpt lat="62.403038" lon="12.298783">
        <ele>788.358</ele>
        <time>2011-07-04T15:40:24Z</time>
      </trkpt>
      <trkpt lat="62.403099" lon="12.298732">
        <ele>788.088</ele>
        <time>2011-07-04T15:40:28Z</time>
      </trkpt>
      <trkpt lat="62.403178" lon="12.298776">
        <ele>788.471</ele>
        <time>2011-07-04T15:40:34Z</time>
      </trkpt>
      <trkpt lat="62.403273" lon="12.298837">
        <ele>788.523</ele>
        <time>2011-07-04T15:40:39Z</time>
      </trkpt>
      <trkpt lat="62.40338" lon="12.298848">
        <ele>788.947</ele>
        <time>2011-07-04T15:40:47Z</time>
      </trkpt>
      <trkpt lat="62.4034" lon="12.298898">
        <ele>789.144</ele>
        <time>2011-07-04T15:40:50Z</time>
      </trkpt>
      <trkpt lat="62.40348" lon="12.29901">
        <ele>790.927</ele>
        <time>2011-07-04T15:40:58Z</time>
      </trkpt>
      <trkpt lat="62.403565" lon="12.299065">
        <ele>791.745</ele>
        <time>2011-07-04T15:41:05Z</time>
      </trkpt>
      <trkpt lat="62.403605" lon="12.299116">
        <ele>791.819</ele>
        <time>2011-07-04T15:41:08Z</time>
      </trkpt>
      <trkpt lat="62.403725" lon="12.299208">
        <ele>791.027</ele>
        <time>2011-07-04T15:41:17Z</time>
      </trkpt>
      <trkpt lat="62.403806" lon="12.299259">
        <ele>791.484</ele>
        <time>2011-07-04T15:41:23Z</time>
      </trkpt>
      <trkpt lat="62.403867" lon="12.299327">
        <ele>791.488</ele>
        <time>2011-07-04T15:41:28Z</time>
      </trkpt>
      <trkpt lat="62.40388" lon="12.299336">
        <ele>791.24</ele>
        <time>2011-07-04T15:41:29Z</time>
      </trkpt>
      <trkpt lat="62.403938" lon="12.299387">
        <ele>790.836</ele>
        <time>2011-07-04T15:41:33Z</time>
      </trkpt>
      <trkpt lat="62.40402" lon="12.299405">
        <ele>788.859</ele>
        <time>2011-07-04T15:41:40Z</time>
      </trkpt>
      <trkpt lat="62.40407" lon="12.299448">
        <ele>788.041</ele>
        <time>2011-07-04T15:41:45Z</time>
      </trkpt>
      <trkpt lat="62.404143" lon="12.299495">
        <ele>788.291</ele>
        <time>2011-07-04T15:41:51Z</time>
      </trkpt>
      <trkpt lat="62.404229" lon="12.299547">
        <ele>787.573</ele>
        <time>2011-07-04T15:41:57Z</time>
      </trkpt>
      <trkpt lat="62.404288" lon="12.299579">
        <ele>787.435</ele>
        <time>2011-07-04T15:42:03Z</time>
      </trkpt>
      <trkpt lat="62.404333" lon="12.299591">
        <ele>787.562</ele>
        <time>2011-07-04T15:42:07Z</time>
      </trkpt>
      <trkpt lat="62.404421" lon="12.299726">
        <ele>787.453</ele>
        <time>2011-07-04T15:42:14Z</time>
      </trkpt>
      <trkpt lat="62.404446" lon="12.299753">
        <ele>787.501</ele>
        <time>2011-07-04T15:42:16Z</time>
      </trkpt>
      <trkpt lat="62.404503" lon="12.299824">
        <ele>787.335</ele>
        <time>2011-07-04T15:42:21Z</time>
      </trkpt>
      <trkpt lat="62.404549" lon="12.300003">
        <ele>787.332</ele>
        <time>2011-07-04T15:42:28Z</time>
      </trkpt>
      <trkpt lat="62.404552" lon="12.30003">
        <ele>787.318</ele>
        <time>2011-07-04T15:42:29Z</time>
      </trkpt>
      <trkpt lat="62.404606" lon="12.300242">
        <ele>787.219</ele>
        <time>2011-07-04T15:42:37Z</time>
      </trkpt>
      <trkpt lat="62.404671" lon="12.30041">
        <ele>787.967</ele>
        <time>2011-07-04T15:42:44Z</time>
      </trkpt>
      <trkpt lat="62.40468" lon="12.300426">
        <ele>788.219</ele>
        <time>2011-07-04T15:42:45Z</time>
      </trkpt>
      <trkpt lat="62.404716" lon="12.300548">
        <ele>788.709</ele>
        <time>2011-07-04T15:42:50Z</time>
      </trkpt>
      <trkpt lat="62.404724" lon="12.300738">
        <ele>788.78</ele>
        <time>2011-07-04T15:42:55Z</time>
      </trkpt>
      <trkpt lat="62.404741" lon="12.30102">
        <ele>789.146</ele>
        <time>2011-07-04T15:43:01Z</time>
      </trkpt>
      <trkpt lat="62.404765" lon="12.301266">
        <ele>789.255</ele>
        <time>2011-07-04T15:43:07Z</time>
      </trkpt>
      <trkpt lat="62.404796" lon="12.301436">
        <ele>789.281</ele>
        <time>2011-07-04T15:43:11Z</time>
      </trkpt>
      <trkpt lat="62.404831" lon="12.301734">
        <ele>788.539</ele>
        <time>2011-07-04T15:43:18Z</time>
      </trkpt>
      <trkpt lat="62.40486" lon="12.301837">
        <ele>788.337</ele>
        <time>2011-07-04T15:43:21Z</time>
      </trkpt>
      <trkpt lat="62.404859" lon="12.302106">
        <ele>787.43</ele>
        <time>2011-07-04T15:43:28Z</time>
      </trkpt>
      <trkpt lat="62.404862" lon="12.302341">
        <ele>787.175</ele>
        <time>2011-07-04T15:43:34Z</time>
      </trkpt>
      <trkpt lat="62.404891" lon="12.302578">
        <ele>786.849</ele>
        <time>2011-07-04T15:43:40Z</time>
      </trkpt>
      <trkpt lat="62.404895" lon="12.302922">
        <ele>785.609</ele>
        <time>2011-07-04T15:43:47Z</time>
      </trkpt>
      <trkpt lat="62.404891" lon="12.30296">
        <ele>785.696</ele>
        <time>2011-07-04T15:43:48Z</time>
      </trkpt>
      <trkpt lat="62.404908" lon="12.303107">
        <ele>785.716</ele>
        <time>2011-07-04T15:43:53Z</time>
      </trkpt>
      <trkpt lat="62.404913" lon="12.303159">
        <ele>785.642</ele>
        <time>2011-07-04T15:43:55Z</time>
      </trkpt>
      <trkpt lat="62.404904" lon="12.303413">
        <ele>785.797</ele>
        <time>2011-07-04T15:44:02Z</time>
      </trkpt>
      <trkpt lat="62.404903" lon="12.303441">
        <ele>785.764</ele>
        <time>2011-07-04T15:44:03Z</time>
      </trkpt>
      <trkpt lat="62.4049" lon="12.303662">
        <ele>785.987</ele>
        <time>2011-07-04T15:44:11Z</time>
      </trkpt>
      <trkpt lat="62.404903" lon="12.303706">
        <ele>786.132</ele>
        <time>2011-07-04T15:44:13Z</time>
      </trkpt>
      <trkpt lat="62.404917" lon="12.303798">
        <ele>786.665</ele>
        <time>2011-07-04T15:44:17Z</time>
      </trkpt>
      <trkpt lat="62.40497" lon="12.303934">
        <ele>787.83</ele>
        <time>2011-07-04T15:44:24Z</time>
      </trkpt>
      <trkpt lat="62.405031" lon="12.304033">
        <ele>787.848</ele>
        <time>2011-07-04T15:44:31Z</time>
      </trkpt>
      <trkpt lat="62.405038" lon="12.304044">
        <ele>787.739</ele>
        <time>2011-07-04T15:44:32Z</time>
      </trkpt>
      <trkpt lat="62.405075" lon="12.304138">
        <ele>787.005</ele>
        <time>2011-07-04T15:44:38Z</time>
      </trkpt>
      <trkpt lat="62.405086" lon="12.304258">
        <ele>786.832</ele>
        <time>2011-07-04T15:44:44Z</time>
      </trkpt>
      <trkpt lat="62.40513" lon="12.30439">
        <ele>786.258</ele>
        <time>2011-07-04T15:44:52Z</time>
      </trkpt>
      <trkpt lat="62.405139" lon="12.304426">
        <ele>786.313</ele>
        <time>2011-07-04T15:44:54Z</time>
      </trkpt>
      <trkpt lat="62.405196" lon="12.304592">
        <ele>785.519</ele>
        <time>2011-07-04T15:45:02Z</time>
      </trkpt>
      <trkpt lat="62.405258" lon="12.304651">
        <ele>785.464</ele>
        <time>2011-07-04T15:45:08Z</time>
      </trkpt>
      <trkpt lat="62.405296" lon="12.304683">
        <ele>785.484</ele>
        <time>2011-07-04T15:45:12Z</time>
      </trkpt>
      <trkpt lat="62.40532" lon="12.304752">
        <ele>785.311</ele>
        <time>2011-07-04T15:45:16Z</time>
      </trkpt>
      <trkpt lat="62.405359" lon="12.304805">
        <ele>785.17</ele>
        <time>2011-07-04T15:45:21Z</time>
      </trkpt>
      <trkpt lat="62.405419" lon="12.304894">
        <ele>785.453</ele>
        <time>2011-07-04T15:45:28Z</time>
      </trkpt>
      <trkpt lat="62.405499" lon="12.304972">
        <ele>785.608</ele>
        <time>2011-07-04T15:45:36Z</time>
      </trkpt>
      <trkpt lat="62.405565" lon="12.30503">
        <ele>785.009</ele>
        <time>2011-07-04T15:45:43Z</time>
      </trkpt>
      <trkpt lat="62.40563" lon="12.304998">
        <ele>785.039</ele>
        <time>2011-07-04T15:45:49Z</time>
      </trkpt>
      <trkpt lat="62.40564" lon="12.304991">
        <ele>785.086</ele>
        <time>2011-07-04T15:45:50Z</time>
      </trkpt>
      <trkpt lat="62.405726" lon="12.304961">
        <ele>784.794</ele>
        <time>2011-07-04T15:45:57Z</time>
      </trkpt>
      <trkpt lat="62.405769" lon="12.304919">
        <ele>784.846</ele>
        <time>2011-07-04T15:46:01Z</time>
      </trkpt>
      <trkpt lat="62.405813" lon="12.304815">
        <ele>784.711</ele>
        <time>2011-07-04T15:46:05Z</time>
      </trkpt>
      <trkpt lat="62.405869" lon="12.304658">
        <ele>784.474</ele>
        <time>2011-07-04T15:46:11Z</time>
      </trkpt>
      <trkpt lat="62.405922" lon="12.304528">
        <ele>784.193</ele>
        <time>2011-07-04T15:46:17Z</time>
      </trkpt>
      <trkpt lat="62.405961" lon="12.30438">
        <ele>784.88</ele>
        <time>2011-07-04T15:46:23Z</time>
      </trkpt>
      <trkpt lat="62.406" lon="12.304305">
        <ele>784.901</ele>
        <time>2011-07-04T15:46:29Z</time>
      </trkpt>
      <trkpt lat="62.406017" lon="12.304314">
        <ele>784.594</ele>
        <time>2011-07-04T15:46:31Z</time>
      </trkpt>
      <trkpt lat="62.406102" lon="12.304353">
        <ele>784.094</ele>
        <time>2011-07-04T15:46:39Z</time>
      </trkpt>
      <trkpt lat="62.406173" lon="12.304432">
        <ele>783.699</ele>
        <time>2011-07-04T15:46:46Z</time>
      </trkpt>
      <trkpt lat="62.406182" lon="12.304444">
        <ele>783.714</ele>
        <time>2011-07-04T15:46:47Z</time>
      </trkpt>
      <trkpt lat="62.406251" lon="12.304545">
        <ele>783.68</ele>
        <time>2011-07-04T15:46:54Z</time>
      </trkpt>
      <trkpt lat="62.406328" lon="12.304597">
        <ele>783.068</ele>
        <time>2011-07-04T15:47:01Z</time>
      </trkpt>
      <trkpt lat="62.406395" lon="12.304742">
        <ele>783.571</ele>
        <time>2011-07-04T15:47:07Z</time>
      </trkpt>
      <trkpt lat="62.406472" lon="12.304927">
        <ele>783.36</ele>
        <time>2011-07-04T15:47:15Z</time>
      </trkpt>
      <trkpt lat="62.406545" lon="12.305076">
        <ele>783.315</ele>
        <time>2011-07-04T15:47:21Z</time>
      </trkpt>
      <trkpt lat="62.406551" lon="12.30509">
        <ele>783.443</ele>
        <time>2011-07-04T15:47:22Z</time>
      </trkpt>
      <trkpt lat="62.406569" lon="12.305136">
        <ele>783.485</ele>
        <time>2011-07-04T15:47:24Z</time>
      </trkpt>
      <trkpt lat="62.406643" lon="12.305293">
        <ele>783.949</ele>
        <time>2011-07-04T15:47:31Z</time>
      </trkpt>
      <trkpt lat="62.406686" lon="12.305418">
        <ele>783.87</ele>
        <time>2011-07-04T15:47:36Z</time>
      </trkpt>
      <trkpt lat="62.406706" lon="12.30547">
        <ele>783.709</ele>
        <time>2011-07-04T15:47:39Z</time>
      </trkpt>
      <trkpt lat="62.406726" lon="12.305511">
        <ele>783.576</ele>
        <time>2011-07-04T15:47:42Z</time>
      </trkpt>
      <trkpt lat="62.406783" lon="12.305641">
        <ele>783.393</ele>
        <time>2011-07-04T15:47:49Z</time>
      </trkpt>
      <trkpt lat="62.406804" lon="12.305691">
        <ele>783.297</ele>
        <time>2011-07-04T15:47:51Z</time>
      </trkpt>
      <trkpt lat="62.406909" lon="12.305751">
        <ele>783.131</ele>
        <time>2011-07-04T15:47:59Z</time>
      </trkpt>
      <trkpt lat="62.406978" lon="12.305766">
        <ele>783.114</ele>
        <time>2011-07-04T15:48:04Z</time>
      </trkpt>
      <trkpt lat="62.407052" lon="12.305654">
        <ele>782.904</ele>
        <time>2011-07-04T15:48:10Z</time>
      </trkpt>
      <trkpt lat="62.407076" lon="12.305601">
        <ele>783.125</ele>
        <time>2011-07-04T15:48:12Z</time>
      </trkpt>
      <trkpt lat="62.407115" lon="12.305542">
        <ele>783.37</ele>
        <time>2011-07-04T15:48:16Z</time>
      </trkpt>
      <trkpt lat="62.407158" lon="12.305481">
        <ele>783.739</ele>
        <time>2011-07-04T15:48:20Z</time>
      </trkpt>
      <trkpt lat="62.40721" lon="12.30541">
        <ele>784.027</ele>
        <time>2011-07-04T15:48:27Z</time>
      </trkpt>
      <trkpt lat="62.407242" lon="12.305366">
        <ele>784.189</ele>
        <time>2011-07-04T15:48:30Z</time>
      </trkpt>
      <trkpt lat="62.40727" lon="12.305228">
        <ele>784.099</ele>
        <time>2011-07-04T15:48:35Z</time>
      </trkpt>
      <trkpt lat="62.40733" lon="12.305066">
        <ele>784.169</ele>
        <time>2011-07-04T15:48:40Z</time>
      </trkpt>
      <trkpt lat="62.407345" lon="12.305028">
        <ele>784.212</ele>
        <time>2011-07-04T15:48:41Z</time>
      </trkpt>
      <trkpt lat="62.407394" lon="12.304809">
        <ele>783.935</ele>
        <time>2011-07-04T15:48:46Z</time>
      </trkpt>
      <trkpt lat="62.407449" lon="12.304695">
        <ele>784.075</ele>
        <time>2011-07-04T15:48:50Z</time>
      </trkpt>
      <trkpt lat="62.407534" lon="12.304511">
        <ele>784.428</ele>
        <time>2011-07-04T15:48:56Z</time>
      </trkpt>
      <trkpt lat="62.407564" lon="12.304448">
        <ele>785.089</ele>
        <time>2011-07-04T15:48:59Z</time>
      </trkpt>
      <trkpt lat="62.407595" lon="12.304332">
        <ele>785.781</ele>
        <time>2011-07-04T15:49:04Z</time>
      </trkpt>
      <trkpt lat="62.407629" lon="12.30421">
        <ele>786.123</ele>
        <time>2011-07-04T15:49:10Z</time>
      </trkpt>
      <trkpt lat="62.407707" lon="12.304054">
        <ele>785.795</ele>
        <time>2011-07-04T15:49:19Z</time>
      </trkpt>
      <trkpt lat="62.407747" lon="12.303975">
        <ele>785.97</ele>
        <time>2011-07-04T15:49:25Z</time>
      </trkpt>
      <trkpt lat="62.407785" lon="12.303884">
        <ele>786.211</ele>
        <time>2011-07-04T15:49:30Z</time>
      </trkpt>
      <trkpt lat="62.40778" lon="12.303821">
        <ele>786.288</ele>
        <time>2011-07-04T15:49:32Z</time>
      </trkpt>
      <trkpt lat="62.407838" lon="12.303725">
        <ele>785.949</ele>
        <time>2011-07-04T15:49:38Z</time>
      </trkpt>
      <trkpt lat="62.407895" lon="12.30369">
        <ele>785.78</ele>
        <time>2011-07-04T15:49:42Z</time>
      </trkpt>
      <trkpt lat="62.407959" lon="12.303691">
        <ele>786.455</ele>
        <time>2011-07-04T15:49:47Z</time>
      </trkpt>
      <trkpt lat="62.408021" lon="12.303654">
        <ele>787.415</ele>
        <time>2011-07-04T15:49:52Z</time>
      </trkpt>
      <trkpt lat="62.408055" lon="12.303601">
        <ele>787.513</ele>
        <time>2011-07-04T15:49:55Z</time>
      </trkpt>
      <trkpt lat="62.408126" lon="12.303531">
        <ele>787.2</ele>
        <time>2011-07-04T15:50:00Z</time>
      </trkpt>
      <trkpt lat="62.408208" lon="12.303439">
        <ele>786.236</ele>
        <time>2011-07-04T15:50:06Z</time>
      </trkpt>
      <trkpt lat="62.408255" lon="12.3034">
        <ele>786.181</ele>
        <time>2011-07-04T15:50:09Z</time>
      </trkpt>
      <trkpt lat="62.408372" lon="12.303335">
        <ele>785.709</ele>
        <time>2011-07-04T15:50:14Z</time>
      </trkpt>
      <trkpt lat="62.408416" lon="12.303293">
        <ele>785.737</ele>
        <time>2011-07-04T15:50:16Z</time>
      </trkpt>
      <trkpt lat="62.408452" lon="12.303265">
        <ele>785.949</ele>
        <time>2011-07-04T15:50:18Z</time>
      </trkpt>
      <trkpt lat="62.408528" lon="12.303121">
        <ele>786.384</ele>
        <time>2011-07-04T15:50:23Z</time>
      </trkpt>
      <trkpt lat="62.408585" lon="12.303083">
        <ele>786.468</ele>
        <time>2011-07-04T15:50:26Z</time>
      </trkpt>
      <trkpt lat="62.408728" lon="12.303078">
        <ele>786.936</ele>
        <time>2011-07-04T15:50:33Z</time>
      </trkpt>
      <trkpt lat="62.408826" lon="12.302937">
        <ele>786.549</ele>
        <time>2011-07-04T15:50:39Z</time>
      </trkpt>
      <trkpt lat="62.408836" lon="12.302929">
        <ele>786.519</ele>
        <time>2011-07-04T15:50:40Z</time>
      </trkpt>
      <trkpt lat="62.40891" lon="12.302927">
        <ele>786.899</ele>
        <time>2011-07-04T15:50:47Z</time>
      </trkpt>
      <trkpt lat="62.408998" lon="12.302915">
        <ele>787.044</ele>
        <time>2011-07-04T15:50:54Z</time>
      </trkpt>
      <trkpt lat="62.409071" lon="12.302866">
        <ele>787.301</ele>
        <time>2011-07-04T15:51:00Z</time>
      </trkpt>
      <trkpt lat="62.409164" lon="12.302818">
        <ele>788.012</ele>
        <time>2011-07-04T15:51:07Z</time>
      </trkpt>
      <trkpt lat="62.40926" lon="12.302805">
        <ele>787.624</ele>
        <time>2011-07-04T15:51:15Z</time>
      </trkpt>
      <trkpt lat="62.4093" lon="12.302793">
        <ele>787.485</ele>
        <time>2011-07-04T15:51:18Z</time>
      </trkpt>
      <trkpt lat="62.40935" lon="12.302691">
        <ele>787.101</ele>
        <time>2011-07-04T15:51:23Z</time>
      </trkpt>
      <trkpt lat="62.409466" lon="12.302619">
        <ele>787.249</ele>
        <time>2011-07-04T15:51:32Z</time>
      </trkpt>
      <trkpt lat="62.409507" lon="12.302579">
        <ele>787.433</ele>
        <time>2011-07-04T15:51:35Z</time>
      </trkpt>
      <trkpt lat="62.409604" lon="12.302462">
        <ele>787.507</ele>
        <time>2011-07-04T15:51:43Z</time>
      </trkpt>
      <trkpt lat="62.409666" lon="12.302338">
        <ele>787.982</ele>
        <time>2011-07-04T15:51:50Z</time>
      </trkpt>
      <trkpt lat="62.409722" lon="12.302277">
        <ele>787.577</ele>
        <time>2011-07-04T15:51:55Z</time>
      </trkpt>
      <trkpt lat="62.409763" lon="12.302228">
        <ele>787.372</ele>
        <time>2011-07-04T15:51:59Z</time>
      </trkpt>
      <trkpt lat="62.409806" lon="12.302249">
        <ele>787.183</ele>
        <time>2011-07-04T15:52:03Z</time>
      </trkpt>
      <trkpt lat="62.409899" lon="12.302236">
        <ele>786.958</ele>
        <time>2011-07-04T15:52:11Z</time>
      </trkpt>
      <trkpt lat="62.410005" lon="12.302219">
        <ele>787.109</ele>
        <time>2011-07-04T15:52:18Z</time>
      </trkpt>
      <trkpt lat="62.410115" lon="12.302154">
        <ele>788.028</ele>
        <time>2011-07-04T15:52:24Z</time>
      </trkpt>
      <trkpt lat="62.410148" lon="12.302112">
        <ele>788.097</ele>
        <time>2011-07-04T15:52:26Z</time>
      </trkpt>
      <trkpt lat="62.410259" lon="12.302116">
        <ele>788.292</ele>
        <time>2011-07-04T15:52:33Z</time>
      </trkpt>
      <trkpt lat="62.410348" lon="12.302042">
        <ele>788.123</ele>
        <time>2011-07-04T15:52:40Z</time>
      </trkpt>
      <trkpt lat="62.410378" lon="12.302065">
        <ele>788.134</ele>
        <time>2011-07-04T15:52:43Z</time>
      </trkpt>
      <trkpt lat="62.410493" lon="12.302047">
        <ele>787.023</ele>
        <time>2011-07-04T15:52:52Z</time>
      </trkpt>
      <trkpt lat="62.410579" lon="12.302084">
        <ele>787.217</ele>
        <time>2011-07-04T15:52:59Z</time>
      </trkpt>
      <trkpt lat="62.410653" lon="12.302152">
        <ele>786.929</ele>
        <time>2011-07-04T15:53:05Z</time>
      </trkpt>
      <trkpt lat="62.410755" lon="12.302207">
        <ele>786.758</ele>
        <time>2011-07-04T15:53:13Z</time>
      </trkpt>
      <trkpt lat="62.410789" lon="12.302224">
        <ele>786.804</ele>
        <time>2011-07-04T15:53:15Z</time>
      </trkpt>
      <trkpt lat="62.410871" lon="12.302106">
        <ele>786.84</ele>
        <time>2011-07-04T15:53:20Z</time>
      </trkpt>
      <trkpt lat="62.410999" lon="12.301963">
        <ele>786.85</ele>
        <time>2011-07-04T15:53:26Z</time>
      </trkpt>
      <trkpt lat="62.411117" lon="12.301966">
        <ele>786.895</ele>
        <time>2011-07-04T15:53:31Z</time>
      </trkpt>
      <trkpt lat="62.411256" lon="12.301937">
        <ele>787.101</ele>
        <time>2011-07-04T15:53:37Z</time>
      </trkpt>
      <trkpt lat="62.411446" lon="12.301836">
        <ele>786.953</ele>
        <time>2011-07-04T15:53:45Z</time>
      </trkpt>
      <trkpt lat="62.41162" lon="12.301734">
        <ele>786.934</ele>
        <time>2011-07-04T15:53:52Z</time>
      </trkpt>
      <trkpt lat="62.411819" lon="12.30161">
        <ele>786.884</ele>
        <time>2011-07-04T15:54:00Z</time>
      </trkpt>
      <trkpt lat="62.412017" lon="12.301507">
        <ele>787.015</ele>
        <time>2011-07-04T15:54:08Z</time>
      </trkpt>
      <trkpt lat="62.412125" lon="12.301449">
        <ele>787.104</ele>
        <time>2011-07-04T15:54:13Z</time>
      </trkpt>
      <trkpt lat="62.412247" lon="12.301364">
        <ele>787.147</ele>
        <time>2011-07-04T15:54:19Z</time>
      </trkpt>
      <trkpt lat="62.412357" lon="12.301369">
        <ele>787.026</ele>
        <time>2011-07-04T15:54:25Z</time>
      </trkpt>
      <trkpt lat="62.412413" lon="12.301359">
        <ele>787.035</ele>
        <time>2011-07-04T15:54:28Z</time>
      </trkpt>
      <trkpt lat="62.412452" lon="12.301361">
        <ele>787.065</ele>
        <time>2011-07-04T15:54:30Z</time>
      </trkpt>
      <trkpt lat="62.412572" lon="12.301297">
        <ele>786.926</ele>
        <time>2011-07-04T15:54:36Z</time>
      </trkpt>
      <trkpt lat="62.412634" lon="12.301291">
        <ele>786.871</ele>
        <time>2011-07-04T15:54:39Z</time>
      </trkpt>
      <trkpt lat="62.412752" lon="12.30133">
        <ele>786.727</ele>
        <time>2011-07-04T15:54:45Z</time>
      </trkpt>
      <trkpt lat="62.412878" lon="12.301346">
        <ele>786.715</ele>
        <time>2011-07-04T15:54:51Z</time>
      </trkpt>
      <trkpt lat="62.412971" lon="12.301312">
        <ele>787.01</ele>
        <time>2011-07-04T15:54:58Z</time>
      </trkpt>
      <trkpt lat="62.413044" lon="12.301299">
        <ele>787.141</ele>
        <time>2011-07-04T15:55:04Z</time>
      </trkpt>
      <trkpt lat="62.413136" lon="12.301306">
        <ele>786.624</ele>
        <time>2011-07-04T15:55:08Z</time>
      </trkpt>
      <trkpt lat="62.413237" lon="12.301267">
        <ele>786.65</ele>
        <time>2011-07-04T15:55:13Z</time>
      </trkpt>
      <trkpt lat="62.413322" lon="12.301239">
        <ele>787.634</ele>
        <time>2011-07-04T15:55:19Z</time>
      </trkpt>
      <trkpt lat="62.413388" lon="12.301242">
        <ele>787.986</ele>
        <time>2011-07-04T15:55:24Z</time>
      </trkpt>
      <trkpt lat="62.413426" lon="12.301256">
        <ele>788.098</ele>
        <time>2011-07-04T15:55:27Z</time>
      </trkpt>
      <trkpt lat="62.413479" lon="12.301193">
        <ele>787.814</ele>
        <time>2011-07-04T15:55:31Z</time>
      </trkpt>
      <trkpt lat="62.41357" lon="12.301035">
        <ele>787.925</ele>
        <time>2011-07-04T15:55:38Z</time>
      </trkpt>
      <trkpt lat="62.413604" lon="12.30097">
        <ele>788.019</ele>
        <time>2011-07-04T15:55:41Z</time>
      </trkpt>
      <trkpt lat="62.41365" lon="12.300942">
        <ele>788.15</ele>
        <time>2011-07-04T15:55:45Z</time>
      </trkpt>
      <trkpt lat="62.413739" lon="12.300842">
        <ele>788.252</ele>
        <time>2011-07-04T15:55:53Z</time>
      </trkpt>
      <trkpt lat="62.413783" lon="12.300809">
        <ele>788.216</ele>
        <time>2011-07-04T15:55:57Z</time>
      </trkpt>
      <trkpt lat="62.413894" lon="12.300632">
        <ele>787.611</ele>
        <time>2011-07-04T15:56:06Z</time>
      </trkpt>
      <trkpt lat="62.413931" lon="12.300593">
        <ele>787.537</ele>
        <time>2011-07-04T15:56:09Z</time>
      </trkpt>
      <trkpt lat="62.413993" lon="12.300468">
        <ele>787.39</ele>
        <time>2011-07-04T15:56:16Z</time>
      </trkpt>
      <trkpt lat="62.414025" lon="12.300395">
        <ele>787.24</ele>
        <time>2011-07-04T15:56:19Z</time>
      </trkpt>
      <trkpt lat="62.414103" lon="12.300257">
        <ele>787.171</ele>
        <time>2011-07-04T15:56:26Z</time>
      </trkpt>
      <trkpt lat="62.41416" lon="12.300161">
        <ele>787.008</ele>
        <time>2011-07-04T15:56:31Z</time>
      </trkpt>
      <trkpt lat="62.414258" lon="12.300093">
        <ele>786.863</ele>
        <time>2011-07-04T15:56:38Z</time>
      </trkpt>
      <trkpt lat="62.414299" lon="12.300082">
        <ele>786.898</ele>
        <time>2011-07-04T15:56:40Z</time>
      </trkpt>
      <trkpt lat="62.4145" lon="12.299945">
        <ele>787.121</ele>
        <time>2011-07-04T15:56:49Z</time>
      </trkpt>
      <trkpt lat="62.414641" lon="12.299758">
        <ele>787.01</ele>
        <time>2011-07-04T15:56:56Z</time>
      </trkpt>
      <trkpt lat="62.414772" lon="12.299493">
        <ele>786.912</ele>
        <time>2011-07-04T15:57:03Z</time>
      </trkpt>
      <trkpt lat="62.414938" lon="12.299375">
        <ele>787.02</ele>
        <time>2011-07-04T15:57:10Z</time>
      </trkpt>
      <trkpt lat="62.415072" lon="12.299249">
        <ele>786.6</ele>
        <time>2011-07-04T15:57:16Z</time>
      </trkpt>
      <trkpt lat="62.415161" lon="12.299075">
        <ele>786.527</ele>
        <time>2011-07-04T15:57:21Z</time>
      </trkpt>
      <trkpt lat="62.415225" lon="12.298757">
        <ele>786.486</ele>
        <time>2011-07-04T15:57:27Z</time>
      </trkpt>
      <trkpt lat="62.415277" lon="12.298423">
        <ele>786.623</ele>
        <time>2011-07-04T15:57:34Z</time>
      </trkpt>
      <trkpt lat="62.415333" lon="12.298165">
        <ele>786.818</ele>
        <time>2011-07-04T15:57:40Z</time>
      </trkpt>
      <trkpt lat="62.415363" lon="12.298007">
        <ele>786.869</ele>
        <time>2011-07-04T15:57:44Z</time>
      </trkpt>
      <trkpt lat="62.415445" lon="12.297834">
        <ele>786.794</ele>
        <time>2011-07-04T15:57:49Z</time>
      </trkpt>
      <trkpt lat="62.415564" lon="12.297732">
        <ele>786.815</ele>
        <time>2011-07-04T15:57:55Z</time>
      </trkpt>
      <trkpt lat="62.415681" lon="12.297593">
        <ele>786.893</ele>
        <time>2011-07-04T15:58:01Z</time>
      </trkpt>
      <trkpt lat="62.415786" lon="12.297516">
        <ele>786.819</ele>
        <time>2011-07-04T15:58:06Z</time>
      </trkpt>
      <trkpt lat="62.41592" lon="12.297388">
        <ele>787.1</ele>
        <time>2011-07-04T15:58:13Z</time>
      </trkpt>
      <trkpt lat="62.416038" lon="12.297329">
        <ele>787.202</ele>
        <time>2011-07-04T15:58:18Z</time>
      </trkpt>
      <trkpt lat="62.416149" lon="12.297361">
        <ele>787.394</ele>
        <time>2011-07-04T15:58:23Z</time>
      </trkpt>
      <trkpt lat="62.416167" lon="12.297372">
        <ele>787.506</ele>
        <time>2011-07-04T15:58:24Z</time>
      </trkpt>
      <trkpt lat="62.416345" lon="12.297315">
        <ele>788.115</ele>
        <time>2011-07-04T15:58:32Z</time>
      </trkpt>
      <trkpt lat="62.416358" lon="12.297301">
        <ele>788.201</ele>
        <time>2011-07-04T15:58:33Z</time>
      </trkpt>
      <trkpt lat="62.416414" lon="12.297224">
        <ele>788.914</ele>
        <time>2011-07-04T15:58:38Z</time>
      </trkpt>
      <trkpt lat="62.416482" lon="12.297084">
        <ele>788.649</ele>
        <time>2011-07-04T15:58:43Z</time>
      </trkpt>
      <trkpt lat="62.416506" lon="12.296982">
        <ele>788.557</ele>
        <time>2011-07-04T15:58:47Z</time>
      </trkpt>
      <trkpt lat="62.416513" lon="12.296969">
        <ele>788.401</ele>
        <time>2011-07-04T15:58:49Z</time>
      </trkpt>
      <trkpt lat="62.416512" lon="12.296875">
        <ele>788.148</ele>
        <time>2011-07-04T15:58:53Z</time>
      </trkpt>
      <trkpt lat="62.416504" lon="12.296781">
        <ele>788.391</ele>
        <time>2011-07-04T15:58:56Z</time>
      </trkpt>
      <trkpt lat="62.416557" lon="12.29664">
        <ele>789.041</ele>
        <time>2011-07-04T15:59:02Z</time>
      </trkpt>
      <trkpt lat="62.416632" lon="12.296487">
        <ele>789.867</ele>
        <time>2011-07-04T15:59:08Z</time>
      </trkpt>
      <trkpt lat="62.416677" lon="12.296366">
        <ele>790.498</ele>
        <time>2011-07-04T15:59:14Z</time>
      </trkpt>
      <trkpt lat="62.416725" lon="12.296204">
        <ele>791.622</ele>
        <time>2011-07-04T15:59:21Z</time>
      </trkpt>
      <trkpt lat="62.416739" lon="12.296">
        <ele>793.965</ele>
        <time>2011-07-04T15:59:29Z</time>
      </trkpt>
      <trkpt lat="62.416762" lon="12.295846">
        <ele>794.439</ele>
        <time>2011-07-04T15:59:34Z</time>
      </trkpt>
      <trkpt lat="62.416788" lon="12.29563">
        <ele>794.411</ele>
        <time>2011-07-04T15:59:41Z</time>
      </trkpt>
      <trkpt lat="62.416839" lon="12.295452">
        <ele>793.978</ele>
        <time>2011-07-04T15:59:48Z</time>
      </trkpt>
      <trkpt lat="62.416898" lon="12.295329">
        <ele>793.371</ele>
        <time>2011-07-04T15:59:53Z</time>
      </trkpt>
      <trkpt lat="62.416967" lon="12.295219">
        <ele>792.646</ele>
        <time>2011-07-04T15:59:57Z</time>
      </trkpt>
      <trkpt lat="62.417039" lon="12.295098">
        <ele>792.167</ele>
        <time>2011-07-04T16:00:01Z</time>
      </trkpt>
      <trkpt lat="62.41711" lon="12.294943">
        <ele>791.812</ele>
        <time>2011-07-04T16:00:05Z</time>
      </trkpt>
      <trkpt lat="62.417227" lon="12.294744">
        <ele>791.764</ele>
        <time>2011-07-04T16:00:12Z</time>
      </trkpt>
      <trkpt lat="62.41732" lon="12.294655">
        <ele>791.401</ele>
        <time>2011-07-04T16:00:17Z</time>
      </trkpt>
      <trkpt lat="62.417483" lon="12.294506">
        <ele>790.156</ele>
        <time>2011-07-04T16:00:24Z</time>
      </trkpt>
      <trkpt lat="62.41762" lon="12.294349">
        <ele>790.505</ele>
        <time>2011-07-04T16:00:30Z</time>
      </trkpt>
      <trkpt lat="62.417709" lon="12.294287">
        <ele>790.949</ele>
        <time>2011-07-04T16:00:34Z</time>
      </trkpt>
      <trkpt lat="62.417864" lon="12.294229">
        <ele>790.925</ele>
        <time>2011-07-04T16:00:41Z</time>
      </trkpt>
      <trkpt lat="62.417972" lon="12.294256">
        <ele>791.41</ele>
        <time>2011-07-04T16:00:46Z</time>
      </trkpt>
      <trkpt lat="62.418119" lon="12.294368">
        <ele>790.371</ele>
        <time>2011-07-04T16:00:53Z</time>
      </trkpt>
      <trkpt lat="62.418221" lon="12.294436">
        <ele>789.604</ele>
        <time>2011-07-04T16:00:58Z</time>
      </trkpt>
      <trkpt lat="62.418292" lon="12.294477">
        <ele>789.756</ele>
        <time>2011-07-04T16:01:02Z</time>
      </trkpt>
      <trkpt lat="62.418407" lon="12.294577">
        <ele>789.294</ele>
        <time>2011-07-04T16:01:08Z</time>
      </trkpt>
      <trkpt lat="62.418515" lon="12.294601">
        <ele>787.927</ele>
        <time>2011-07-04T16:01:13Z</time>
      </trkpt>
      <trkpt lat="62.418597" lon="12.294631">
        <ele>787.138</ele>
        <time>2011-07-04T16:01:17Z</time>
      </trkpt>
      <trkpt lat="62.418666" lon="12.29462">
        <ele>787.044</ele>
        <time>2011-07-04T16:01:24Z</time>
      </trkpt>
      <trkpt lat="62.418692" lon="12.294585">
        <ele>786.898</ele>
        <time>2011-07-04T16:01:44Z</time>
      </trkpt>
      <trkpt lat="62.418688" lon="12.294559">
        <ele>786.498</ele>
        <time>2011-07-04T16:01:47Z</time>
      </trkpt>
      <trkpt lat="62.418706" lon="12.294558">
        <ele>786.276</ele>
        <time>2011-07-04T16:02:18Z</time>
      </trkpt>
      <trkpt lat="62.418708" lon="12.294513">
        <ele>785.471</ele>
        <time>2011-07-04T16:03:00Z</time>
      </trkpt>
      <trkpt lat="62.418729" lon="12.294563">
        <ele>786.054</ele>
        <time>2011-07-04T16:03:13Z</time>
      </trkpt>
      <trkpt lat="62.418775" lon="12.29461">
        <ele>786.622</ele>
        <time>2011-07-04T16:03:19Z</time>
      </trkpt>
      <trkpt lat="62.418827" lon="12.294599">
        <ele>786.495</ele>
        <time>2011-07-04T16:03:23Z</time>
      </trkpt>
      <trkpt lat="62.41891" lon="12.294551">
        <ele>786.443</ele>
        <time>2011-07-04T16:03:30Z</time>
      </trkpt>
      <trkpt lat="62.418968" lon="12.294511">
        <ele>786.603</ele>
        <time>2011-07-04T16:03:36Z</time>
      </trkpt>
      <trkpt lat="62.419043" lon="12.294437">
        <ele>787.64</ele>
        <time>2011-07-04T16:03:43Z</time>
      </trkpt>
      <trkpt lat="62.419102" lon="12.29434">
        <ele>788.353</ele>
        <time>2011-07-04T16:03:50Z</time>
      </trkpt>
      <trkpt lat="62.419103" lon="12.294324">
        <ele>788.293</ele>
        <time>2011-07-04T16:03:51Z</time>
      </trkpt>
      <trkpt lat="62.419126" lon="12.294234">
        <ele>787.047</ele>
        <time>2011-07-04T16:03:55Z</time>
      </trkpt>
      <trkpt lat="62.419199" lon="12.294163">
        <ele>787.302</ele>
        <time>2011-07-04T16:04:03Z</time>
      </trkpt>
      <trkpt lat="62.419266" lon="12.294046">
        <ele>787.428</ele>
        <time>2011-07-04T16:04:09Z</time>
      </trkpt>
      <trkpt lat="62.419319" lon="12.29396">
        <ele>787.213</ele>
        <time>2011-07-04T16:04:13Z</time>
      </trkpt>
      <trkpt lat="62.419416" lon="12.293768">
        <ele>786.688</ele>
        <time>2011-07-04T16:04:21Z</time>
      </trkpt>
      <trkpt lat="62.419515" lon="12.293661">
        <ele>787.125</ele>
        <time>2011-07-04T16:04:27Z</time>
      </trkpt>
      <trkpt lat="62.419599" lon="12.293501">
        <ele>787.185</ele>
        <time>2011-07-04T16:04:32Z</time>
      </trkpt>
      <trkpt lat="62.419701" lon="12.293339">
        <ele>787.15</ele>
        <time>2011-07-04T16:04:37Z</time>
      </trkpt>
      <trkpt lat="62.419773" lon="12.293222">
        <ele>787.248</ele>
        <time>2011-07-04T16:04:41Z</time>
      </trkpt>
      <trkpt lat="62.419807" lon="12.293176">
        <ele>787.356</ele>
        <time>2011-07-04T16:04:44Z</time>
      </trkpt>
      <trkpt lat="62.419811" lon="12.292954">
        <ele>787.274</ele>
        <time>2011-07-04T16:04:51Z</time>
      </trkpt>
      <trkpt lat="62.419852" lon="12.292838">
        <ele>787.216</ele>
        <time>2011-07-04T16:04:57Z</time>
      </trkpt>
      <trkpt lat="62.419862" lon="12.29269">
        <ele>787.245</ele>
        <time>2011-07-04T16:05:03Z</time>
      </trkpt>
      <trkpt lat="62.419873" lon="12.292511">
        <ele>787.128</ele>
        <time>2011-07-04T16:05:10Z</time>
      </trkpt>
      <trkpt lat="62.419852" lon="12.292411">
        <ele>787.08</ele>
        <time>2011-07-04T16:05:14Z</time>
      </trkpt>
      <trkpt lat="62.419871" lon="12.29225">
        <ele>787.094</ele>
        <time>2011-07-04T16:05:20Z</time>
      </trkpt>
      <trkpt lat="62.419891" lon="12.292112">
        <ele>787.076</ele>
        <time>2011-07-04T16:05:26Z</time>
      </trkpt>
      <trkpt lat="62.419911" lon="12.292006">
        <ele>787.766</ele>
        <time>2011-07-04T16:05:32Z</time>
      </trkpt>
      <trkpt lat="62.419933" lon="12.291903">
        <ele>787.334</ele>
        <time>2011-07-04T16:05:37Z</time>
      </trkpt>
      <trkpt lat="62.41995" lon="12.291745">
        <ele>787.045</ele>
        <time>2011-07-04T16:05:44Z</time>
      </trkpt>
      <trkpt lat="62.419965" lon="12.291696">
        <ele>786.561</ele>
        <time>2011-07-04T16:05:46Z</time>
      </trkpt>
      <trkpt lat="62.419935" lon="12.291467">
        <ele>786.67</ele>
        <time>2011-07-04T16:05:53Z</time>
      </trkpt>
      <trkpt lat="62.419933" lon="12.291436">
        <ele>786.719</ele>
        <time>2011-07-04T16:05:54Z</time>
      </trkpt>
      <trkpt lat="62.41994" lon="12.291245">
        <ele>787.641</ele>
        <time>2011-07-04T16:06:01Z</time>
      </trkpt>
      <trkpt lat="62.419953" lon="12.291105">
        <ele>787.762</ele>
        <time>2011-07-04T16:06:06Z</time>
      </trkpt>
      <trkpt lat="62.419973" lon="12.290935">
        <ele>787.069</ele>
        <time>2011-07-04T16:06:13Z</time>
      </trkpt>
      <trkpt lat="62.419993" lon="12.290872">
        <ele>786.687</ele>
        <time>2011-07-04T16:06:17Z</time>
      </trkpt>
      <trkpt lat="62.419999" lon="12.290768">
        <ele>787.249</ele>
        <time>2011-07-04T16:06:22Z</time>
      </trkpt>
      <trkpt lat="62.419997" lon="12.29064">
        <ele>786.927</ele>
        <time>2011-07-04T16:06:27Z</time>
      </trkpt>
      <trkpt lat="62.420002" lon="12.290514">
        <ele>786.863</ele>
        <time>2011-07-04T16:06:31Z</time>
      </trkpt>
      <trkpt lat="62.420064" lon="12.290399">
        <ele>787.47</ele>
        <time>2011-07-04T16:06:38Z</time>
      </trkpt>
      <trkpt lat="62.420107" lon="12.290321">
        <ele>788.152</ele>
        <time>2011-07-04T16:06:43Z</time>
      </trkpt>
      <trkpt lat="62.420115" lon="12.290307">
        <ele>788.268</ele>
        <time>2011-07-04T16:06:44Z</time>
      </trkpt>
      <trkpt lat="62.420145" lon="12.290193">
        <ele>788.535</ele>
        <time>2011-07-04T16:06:48Z</time>
      </trkpt>
      <trkpt lat="62.42016" lon="12.290062">
        <ele>788.644</ele>
        <time>2011-07-04T16:06:52Z</time>
      </trkpt>
      <trkpt lat="62.420206" lon="12.289754">
        <ele>787.878</ele>
        <time>2011-07-04T16:07:00Z</time>
      </trkpt>
      <trkpt lat="62.420241" lon="12.289541">
        <ele>788.066</ele>
        <time>2011-07-04T16:07:07Z</time>
      </trkpt>
      <trkpt lat="62.420314" lon="12.289324">
        <ele>787.656</ele>
        <time>2011-07-04T16:07:13Z</time>
      </trkpt>
      <trkpt lat="62.420417" lon="12.289037">
        <ele>787.399</ele>
        <time>2011-07-04T16:07:20Z</time>
      </trkpt>
      <trkpt lat="62.420425" lon="12.288997">
        <ele>787.441</ele>
        <time>2011-07-04T16:07:21Z</time>
      </trkpt>
      <trkpt lat="62.420483" lon="12.288809">
        <ele>787.667</ele>
        <time>2011-07-04T16:07:26Z</time>
      </trkpt>
      <trkpt lat="62.420531" lon="12.288565">
        <ele>787.614</ele>
        <time>2011-07-04T16:07:31Z</time>
      </trkpt>
      <trkpt lat="62.420575" lon="12.288437">
        <ele>787.76</ele>
        <time>2011-07-04T16:07:34Z</time>
      </trkpt>
      <trkpt lat="62.42067" lon="12.288262">
        <ele>788.938</ele>
        <time>2011-07-04T16:07:40Z</time>
      </trkpt>
      <trkpt lat="62.420791" lon="12.288122">
        <ele>788.286</ele>
        <time>2011-07-04T16:07:45Z</time>
      </trkpt>
      <trkpt lat="62.420836" lon="12.288113">
        <ele>788.011</ele>
        <time>2011-07-04T16:07:47Z</time>
      </trkpt>
      <trkpt lat="62.420871" lon="12.288074">
        <ele>788.189</ele>
        <time>2011-07-04T16:07:49Z</time>
      </trkpt>
      <trkpt lat="62.420891" lon="12.288061">
        <ele>788.812</ele>
        <time>2011-07-04T16:07:51Z</time>
      </trkpt>
      <trkpt lat="62.420972" lon="12.28794">
        <ele>791.151</ele>
        <time>2011-07-04T16:07:59Z</time>
      </trkpt>
      <trkpt lat="62.421005" lon="12.287882">
        <ele>791.567</ele>
        <time>2011-07-04T16:08:04Z</time>
      </trkpt>
      <trkpt lat="62.421054" lon="12.287846">
        <ele>791.22</ele>
        <time>2011-07-04T16:08:10Z</time>
      </trkpt>
      <trkpt lat="62.421071" lon="12.287818">
        <ele>791.409</ele>
        <time>2011-07-04T16:08:14Z</time>
      </trkpt>
      <trkpt lat="62.421083" lon="12.287731">
        <ele>791.795</ele>
        <time>2011-07-04T16:08:18Z</time>
      </trkpt>
      <trkpt lat="62.421086" lon="12.287721">
        <ele>791.96</ele>
        <time>2011-07-04T16:08:19Z</time>
      </trkpt>
      <trkpt lat="62.421106" lon="12.287621">
        <ele>792.237</ele>
        <time>2011-07-04T16:08:23Z</time>
      </trkpt>
      <trkpt lat="62.421172" lon="12.287447">
        <ele>792.316</ele>
        <time>2011-07-04T16:08:29Z</time>
      </trkpt>
      <trkpt lat="62.421246" lon="12.28731">
        <ele>792.393</ele>
        <time>2011-07-04T16:08:35Z</time>
      </trkpt>
      <trkpt lat="62.421283" lon="12.287208">
        <ele>792.183</ele>
        <time>2011-07-04T16:08:39Z</time>
      </trkpt>
      <trkpt lat="62.421324" lon="12.287088">
        <ele>792.865</ele>
        <time>2011-07-04T16:08:43Z</time>
      </trkpt>
      <trkpt lat="62.421402" lon="12.28685">
        <ele>792.316</ele>
        <time>2011-07-04T16:08:51Z</time>
      </trkpt>
      <trkpt lat="62.421429" lon="12.286753">
        <ele>791.716</ele>
        <time>2011-07-04T16:08:54Z</time>
      </trkpt>
      <trkpt lat="62.421454" lon="12.286706">
        <ele>791.288</ele>
        <time>2011-07-04T16:08:56Z</time>
      </trkpt>
      <trkpt lat="62.421503" lon="12.286583">
        <ele>789.25</ele>
        <time>2011-07-04T16:09:01Z</time>
      </trkpt>
      <trkpt lat="62.421512" lon="12.286563">
        <ele>788.944</ele>
        <time>2011-07-04T16:09:02Z</time>
      </trkpt>
      <trkpt lat="62.421606" lon="12.286351">
        <ele>787.673</ele>
        <time>2011-07-04T16:09:09Z</time>
      </trkpt>
      <trkpt lat="62.421688" lon="12.286247">
        <ele>787.855</ele>
        <time>2011-07-04T16:09:15Z</time>
      </trkpt>
      <trkpt lat="62.421698" lon="12.286227">
        <ele>787.803</ele>
        <time>2011-07-04T16:09:16Z</time>
      </trkpt>
      <trkpt lat="62.42175" lon="12.286056">
        <ele>788.342</ele>
        <time>2011-07-04T16:09:23Z</time>
      </trkpt>
      <trkpt lat="62.421755" lon="12.286016">
        <ele>788.468</ele>
        <time>2011-07-04T16:09:25Z</time>
      </trkpt>
      <trkpt lat="62.421793" lon="12.285926">
        <ele>789.658</ele>
        <time>2011-07-04T16:09:30Z</time>
      </trkpt>
      <trkpt lat="62.421824" lon="12.28588">
        <ele>790.672</ele>
        <time>2011-07-04T16:09:33Z</time>
      </trkpt>
      <trkpt lat="62.421847" lon="12.285787">
        <ele>792.096</ele>
        <time>2011-07-04T16:09:38Z</time>
      </trkpt>
      <trkpt lat="62.42189" lon="12.285746">
        <ele>793.436</ele>
        <time>2011-07-04T16:09:44Z</time>
      </trkpt>
      <trkpt lat="62.421922" lon="12.285743">
        <ele>794.828</ele>
        <time>2011-07-04T16:09:48Z</time>
      </trkpt>
      <trkpt lat="62.421972" lon="12.285655">
        <ele>795.421</ele>
        <time>2011-07-04T16:09:54Z</time>
      </trkpt>
      <trkpt lat="62.42204" lon="12.285585">
        <ele>795.631</ele>
        <time>2011-07-04T16:10:01Z</time>
      </trkpt>
      <trkpt lat="62.422095" lon="12.285662">
        <ele>794.544</ele>
        <time>2011-07-04T16:10:07Z</time>
      </trkpt>
      <trkpt lat="62.422162" lon="12.28563">
        <ele>794.082</ele>
        <time>2011-07-04T16:10:12Z</time>
      </trkpt>
      <trkpt lat="62.422217" lon="12.285658">
        <ele>793.066</ele>
        <time>2011-07-04T16:10:18Z</time>
      </trkpt>
      <trkpt lat="62.422267" lon="12.285609">
        <ele>792.856</ele>
        <time>2011-07-04T16:10:21Z</time>
      </trkpt>
      <trkpt lat="62.422406" lon="12.285565">
        <ele>792.131</ele>
        <time>2011-07-04T16:10:30Z</time>
      </trkpt>
      <trkpt lat="62.422423" lon="12.285551">
        <ele>792.273</ele>
        <time>2011-07-04T16:10:32Z</time>
      </trkpt>
      <trkpt lat="62.422462" lon="12.285543">
        <ele>791.743</ele>
        <time>2011-07-04T16:10:38Z</time>
      </trkpt>
      <trkpt lat="62.422541" lon="12.285611">
        <ele>791.057</ele>
        <time>2011-07-04T16:10:47Z</time>
      </trkpt>
      <trkpt lat="62.42262" lon="12.285536">
        <ele>791.013</ele>
        <time>2011-07-04T16:10:54Z</time>
      </trkpt>
      <trkpt lat="62.422634" lon="12.285523">
        <ele>790.983</ele>
        <time>2011-07-04T16:10:56Z</time>
      </trkpt>
      <trkpt lat="62.422691" lon="12.285479">
        <ele>791.118</ele>
        <time>2011-07-04T16:11:03Z</time>
      </trkpt>
      <trkpt lat="62.422739" lon="12.285447">
        <ele>790.806</ele>
        <time>2011-07-04T16:11:09Z</time>
      </trkpt>
      <trkpt lat="62.422746" lon="12.285439">
        <ele>790.717</ele>
        <time>2011-07-04T16:11:10Z</time>
      </trkpt>
      <trkpt lat="62.422803" lon="12.28536">
        <ele>791.556</ele>
        <time>2011-07-04T16:11:17Z</time>
      </trkpt>
      <trkpt lat="62.422839" lon="12.285366">
        <ele>792.536</ele>
        <time>2011-07-04T16:11:23Z</time>
      </trkpt>
      <trkpt lat="62.422855" lon="12.285353">
        <ele>792.565</ele>
        <time>2011-07-04T16:11:25Z</time>
      </trkpt>
      <trkpt lat="62.422933" lon="12.285302">
        <ele>792.41</ele>
        <time>2011-07-04T16:11:33Z</time>
      </trkpt>
      <trkpt lat="62.422947" lon="12.285295">
        <ele>792.267</ele>
        <time>2011-07-04T16:11:36Z</time>
      </trkpt>
      <trkpt lat="62.423002" lon="12.285242">
        <ele>792.154</ele>
        <time>2011-07-04T16:11:44Z</time>
      </trkpt>
      <trkpt lat="62.423083" lon="12.285149">
        <ele>791.793</ele>
        <time>2011-07-04T16:11:52Z</time>
      </trkpt>
      <trkpt lat="62.423136" lon="12.28509">
        <ele>791.809</ele>
        <time>2011-07-04T16:11:59Z</time>
      </trkpt>
      <trkpt lat="62.423145" lon="12.285069">
        <ele>792.168</ele>
        <time>2011-07-04T16:12:01Z</time>
      </trkpt>
      <trkpt lat="62.423198" lon="12.284998">
        <ele>792.646</ele>
        <time>2011-07-04T16:12:08Z</time>
      </trkpt>
      <trkpt lat="62.423237" lon="12.284958">
        <ele>793.077</ele>
        <time>2011-07-04T16:12:13Z</time>
      </trkpt>
      <trkpt lat="62.42327" lon="12.284921">
        <ele>793.682</ele>
        <time>2011-07-04T16:12:18Z</time>
      </trkpt>
      <trkpt lat="62.423305" lon="12.284877">
        <ele>794.185</ele>
        <time>2011-07-04T16:12:22Z</time>
      </trkpt>
      <trkpt lat="62.423365" lon="12.284821">
        <ele>793.353</ele>
        <time>2011-07-04T16:12:28Z</time>
      </trkpt>
      <trkpt lat="62.423435" lon="12.284764">
        <ele>793.076</ele>
        <time>2011-07-04T16:12:34Z</time>
      </trkpt>
      <trkpt lat="62.423441" lon="12.284761">
        <ele>792.945</ele>
        <time>2011-07-04T16:12:35Z</time>
      </trkpt>
      <trkpt lat="62.42352" lon="12.28471">
        <ele>792.748</ele>
        <time>2011-07-04T16:12:43Z</time>
      </trkpt>
      <trkpt lat="62.423567" lon="12.284645">
        <ele>792.577</ele>
        <time>2011-07-04T16:12:48Z</time>
      </trkpt>
      <trkpt lat="62.423622" lon="12.28457">
        <ele>792.511</ele>
        <time>2011-07-04T16:12:55Z</time>
      </trkpt>
      <trkpt lat="62.423677" lon="12.284506">
        <ele>791.906</ele>
        <time>2011-07-04T16:13:00Z</time>
      </trkpt>
      <trkpt lat="62.423724" lon="12.284351">
        <ele>792.312</ele>
        <time>2011-07-04T16:13:06Z</time>
      </trkpt>
      <trkpt lat="62.42377" lon="12.284216">
        <ele>793.811</ele>
        <time>2011-07-04T16:13:12Z</time>
      </trkpt>
      <trkpt lat="62.423804" lon="12.284165">
        <ele>793.951</ele>
        <time>2011-07-04T16:13:15Z</time>
      </trkpt>
      <trkpt lat="62.42394" lon="12.283995">
        <ele>793.79</ele>
        <time>2011-07-04T16:13:34Z</time>
      </trkpt>
      <trkpt lat="62.423939" lon="12.283914">
        <ele>794.15</ele>
        <time>2011-07-04T16:13:38Z</time>
      </trkpt>
      <trkpt lat="62.424027" lon="12.283984">
        <ele>793.309</ele>
        <time>2011-07-04T16:14:02Z</time>
      </trkpt>
      <trkpt lat="62.424032" lon="12.283992">
        <ele>793.171</ele>
        <time>2011-07-04T16:14:03Z</time>
      </trkpt>
      <trkpt lat="62.424036" lon="12.284023">
        <ele>792.834</ele>
        <time>2011-07-04T16:14:05Z</time>
      </trkpt>
      <trkpt lat="62.424064" lon="12.284079">
        <ele>791.887</ele>
        <time>2011-07-04T16:14:10Z</time>
      </trkpt>
      <trkpt lat="62.424134" lon="12.284049">
        <ele>791.283</ele>
        <time>2011-07-04T16:14:18Z</time>
      </trkpt>
      <trkpt lat="62.424168" lon="12.283995">
        <ele>791.663</ele>
        <time>2011-07-04T16:14:22Z</time>
      </trkpt>
      <trkpt lat="62.424207" lon="12.283934">
        <ele>792.153</ele>
        <time>2011-07-04T16:14:30Z</time>
      </trkpt>
      <trkpt lat="62.424332" lon="12.284024">
        <ele>790.557</ele>
        <time>2011-07-04T16:14:40Z</time>
      </trkpt>
      <trkpt lat="62.424347" lon="12.284068">
        <ele>790.121</ele>
        <time>2011-07-04T16:14:41Z</time>
      </trkpt>
      <trkpt lat="62.424369" lon="12.284306">
        <ele>788.781</ele>
        <time>2011-07-04T16:14:47Z</time>
      </trkpt>
      <trkpt lat="62.424373" lon="12.284362">
        <ele>788.534</ele>
        <time>2011-07-04T16:14:51Z</time>
      </trkpt>
      <trkpt lat="62.424415" lon="12.284365">
        <ele>788.648</ele>
        <time>2011-07-04T16:14:59Z</time>
      </trkpt>
      <trkpt lat="62.424447" lon="12.284349">
        <ele>788.615</ele>
        <time>2011-07-04T16:15:03Z</time>
      </trkpt>
      <trkpt lat="62.42453" lon="12.284348">
        <ele>788.64</ele>
        <time>2011-07-04T16:15:11Z</time>
      </trkpt>
      <trkpt lat="62.424629" lon="12.284397">
        <ele>788.712</ele>
        <time>2011-07-04T16:15:20Z</time>
      </trkpt>
      <trkpt lat="62.424786" lon="12.284472">
        <ele>788.716</ele>
        <time>2011-07-04T16:15:30Z</time>
      </trkpt>
      <trkpt lat="62.424867" lon="12.284503">
        <ele>788.698</ele>
        <time>2011-07-04T16:15:37Z</time>
      </trkpt>
      <trkpt lat="62.424962" lon="12.284577">
        <ele>788.463</ele>
        <time>2011-07-04T16:15:45Z</time>
      </trkpt>
      <trkpt lat="62.425062" lon="12.284664">
        <ele>788.73</ele>
        <time>2011-07-04T16:15:52Z</time>
      </trkpt>
      <trkpt lat="62.425138" lon="12.284691">
        <ele>789.811</ele>
        <time>2011-07-04T16:15:57Z</time>
      </trkpt>
      <trkpt lat="62.425239" lon="12.284704">
        <ele>790.266</ele>
        <time>2011-07-04T16:16:05Z</time>
      </trkpt>
      <trkpt lat="62.425323" lon="12.28468">
        <ele>789.917</ele>
        <time>2011-07-04T16:16:13Z</time>
      </trkpt>
      <trkpt lat="62.425418" lon="12.284638">
        <ele>788.757</ele>
        <time>2011-07-04T16:16:21Z</time>
      </trkpt>
      <trkpt lat="62.425434" lon="12.284633">
        <ele>788.837</ele>
        <time>2011-07-04T16:16:23Z</time>
      </trkpt>
      <trkpt lat="62.425517" lon="12.28461">
        <ele>788.775</ele>
        <time>2011-07-04T16:16:35Z</time>
      </trkpt>
      <trkpt lat="62.425621" lon="12.28447">
        <ele>788.564</ele>
        <time>2011-07-04T16:16:40Z</time>
      </trkpt>
      <trkpt lat="62.425729" lon="12.28427">
        <ele>788.746</ele>
        <time>2011-07-04T16:16:46Z</time>
      </trkpt>
      <trkpt lat="62.42577" lon="12.284221">
        <ele>788.732</ele>
        <time>2011-07-04T16:16:48Z</time>
      </trkpt>
      <trkpt lat="62.425836" lon="12.28426">
        <ele>788.621</ele>
        <time>2011-07-04T16:16:52Z</time>
      </trkpt>
      <trkpt lat="62.425955" lon="12.284401">
        <ele>789.033</ele>
        <time>2011-07-04T16:17:02Z</time>
      </trkpt>
      <trkpt lat="62.42596" lon="12.284404">
        <ele>789.025</ele>
        <time>2011-07-04T16:17:03Z</time>
      </trkpt>
      <trkpt lat="62.426028" lon="12.284483">
        <ele>788.619</ele>
        <time>2011-07-04T16:17:08Z</time>
      </trkpt>
      <trkpt lat="62.426054" lon="12.284511">
        <ele>788.602</ele>
        <time>2011-07-04T16:17:10Z</time>
      </trkpt>
      <trkpt lat="62.426098" lon="12.284457">
        <ele>788.792</ele>
        <time>2011-07-04T16:17:17Z</time>
      </trkpt>
      <trkpt lat="62.426114" lon="12.284408">
        <ele>788.622</ele>
        <time>2011-07-04T16:17:21Z</time>
      </trkpt>
      <trkpt lat="62.426142" lon="12.284339">
        <ele>788.772</ele>
        <time>2011-07-04T16:17:26Z</time>
      </trkpt>
      <trkpt lat="62.426152" lon="12.284308">
        <ele>788.871</ele>
        <time>2011-07-04T16:17:30Z</time>
      </trkpt>
      <trkpt lat="62.426193" lon="12.284321">
        <ele>788.482</ele>
        <time>2011-07-04T16:17:43Z</time>
      </trkpt>
      <trkpt lat="62.426214" lon="12.284344">
        <ele>788.328</ele>
        <time>2011-07-04T16:17:46Z</time>
      </trkpt>
      <trkpt lat="62.426223" lon="12.284408">
        <ele>788.872</ele>
        <time>2011-07-04T16:17:51Z</time>
      </trkpt>
      <trkpt lat="62.426216" lon="12.284634">
        <ele>788.836</ele>
        <time>2011-07-04T16:17:59Z</time>
      </trkpt>
      <trkpt lat="62.426219" lon="12.284838">
        <ele>789.187</ele>
        <time>2011-07-04T16:18:06Z</time>
      </trkpt>
      <trkpt lat="62.426206" lon="12.284965">
        <ele>789.558</ele>
        <time>2011-07-04T16:18:10Z</time>
      </trkpt>
      <trkpt lat="62.426215" lon="12.285193">
        <ele>790.994</ele>
        <time>2011-07-04T16:18:17Z</time>
      </trkpt>
      <trkpt lat="62.426205" lon="12.285415">
        <ele>791.365</ele>
        <time>2011-07-04T16:18:24Z</time>
      </trkpt>
      <trkpt lat="62.426198" lon="12.285592">
        <ele>791.056</ele>
        <time>2011-07-04T16:18:31Z</time>
      </trkpt>
      <trkpt lat="62.426208" lon="12.285744">
        <ele>790.672</ele>
        <time>2011-07-04T16:18:35Z</time>
      </trkpt>
      <trkpt lat="62.426152" lon="12.286028">
        <ele>790.679</ele>
        <time>2011-07-04T16:18:42Z</time>
      </trkpt>
      <trkpt lat="62.426162" lon="12.286242">
        <ele>790.374</ele>
        <time>2011-07-04T16:18:48Z</time>
      </trkpt>
      <trkpt lat="62.426191" lon="12.286443">
        <ele>790.503</ele>
        <time>2011-07-04T16:18:54Z</time>
      </trkpt>
      <trkpt lat="62.426205" lon="12.286536">
        <ele>791.262</ele>
        <time>2011-07-04T16:18:58Z</time>
      </trkpt>
      <trkpt lat="62.42621" lon="12.286552">
        <ele>791.624</ele>
        <time>2011-07-04T16:18:59Z</time>
      </trkpt>
      <trkpt lat="62.426227" lon="12.286702">
        <ele>792.413</ele>
        <time>2011-07-04T16:19:05Z</time>
      </trkpt>
      <trkpt lat="62.42625" lon="12.286833">
        <ele>793.266</ele>
        <time>2011-07-04T16:19:09Z</time>
      </trkpt>
      <trkpt lat="62.426268" lon="12.287024">
        <ele>795.341</ele>
        <time>2011-07-04T16:19:16Z</time>
      </trkpt>
      <trkpt lat="62.426267" lon="12.287049">
        <ele>795.51</ele>
        <time>2011-07-04T16:19:17Z</time>
      </trkpt>
      <trkpt lat="62.426248" lon="12.2871">
        <ele>796.09</ele>
        <time>2011-07-04T16:19:20Z</time>
      </trkpt>
      <trkpt lat="62.426206" lon="12.287274">
        <ele>797.746</ele>
        <time>2011-07-04T16:19:28Z</time>
      </trkpt>
      <trkpt lat="62.426191" lon="12.287342">
        <ele>798.171</ele>
        <time>2011-07-04T16:19:31Z</time>
      </trkpt>
      <trkpt lat="62.426186" lon="12.287397">
        <ele>798.524</ele>
        <time>2011-07-04T16:19:33Z</time>
      </trkpt>
      <trkpt lat="62.426162" lon="12.287592">
        <ele>798.883</ele>
        <time>2011-07-04T16:19:40Z</time>
      </trkpt>
      <trkpt lat="62.426143" lon="12.287748">
        <ele>799.917</ele>
        <time>2011-07-04T16:19:46Z</time>
      </trkpt>
      <trkpt lat="62.426113" lon="12.287957">
        <ele>800.467</ele>
        <time>2011-07-04T16:19:54Z</time>
      </trkpt>
      <trkpt lat="62.426089" lon="12.288197">
        <ele>800.822</ele>
        <time>2011-07-04T16:20:00Z</time>
      </trkpt>
      <trkpt lat="62.426092" lon="12.288386">
        <ele>801.65</ele>
        <time>2011-07-04T16:20:06Z</time>
      </trkpt>
      <trkpt lat="62.426061" lon="12.288588">
        <ele>802.295</ele>
        <time>2011-07-04T16:20:11Z</time>
      </trkpt>
      <trkpt lat="62.426038" lon="12.288723">
        <ele>802.824</ele>
        <time>2011-07-04T16:20:16Z</time>
      </trkpt>
      <trkpt lat="62.425997" lon="12.288836">
        <ele>803.53</ele>
        <time>2011-07-04T16:20:23Z</time>
      </trkpt>
      <trkpt lat="62.425985" lon="12.288858">
        <ele>803.625</ele>
        <time>2011-07-04T16:20:25Z</time>
      </trkpt>
      <trkpt lat="62.425965" lon="12.288993">
        <ele>803.524</ele>
        <time>2011-07-04T16:20:31Z</time>
      </trkpt>
      <trkpt lat="62.42598" lon="12.289091">
        <ele>802.757</ele>
        <time>2011-07-04T16:20:37Z</time>
      </trkpt>
      <trkpt lat="62.426008" lon="12.289287">
        <ele>801.905</ele>
        <time>2011-07-04T16:20:44Z</time>
      </trkpt>
      <trkpt lat="62.425979" lon="12.289416">
        <ele>801.593</ele>
        <time>2011-07-04T16:20:48Z</time>
      </trkpt>
      <trkpt lat="62.425976" lon="12.289598">
        <ele>801.859</ele>
        <time>2011-07-04T16:20:55Z</time>
      </trkpt>
      <trkpt lat="62.425965" lon="12.289841">
        <ele>800.641</ele>
        <time>2011-07-04T16:21:03Z</time>
      </trkpt>
      <trkpt lat="62.425956" lon="12.289938">
        <ele>800.62</ele>
        <time>2011-07-04T16:21:08Z</time>
      </trkpt>
      <trkpt lat="62.425931" lon="12.290081">
        <ele>801.028</ele>
        <time>2011-07-04T16:21:18Z</time>
      </trkpt>
      <trkpt lat="62.42588" lon="12.290254">
        <ele>801.93</ele>
        <time>2011-07-04T16:21:25Z</time>
      </trkpt>
      <trkpt lat="62.425843" lon="12.290446">
        <ele>802.326</ele>
        <time>2011-07-04T16:21:33Z</time>
      </trkpt>
      <trkpt lat="62.425846" lon="12.290667">
        <ele>801.728</ele>
        <time>2011-07-04T16:21:40Z</time>
      </trkpt>
      <trkpt lat="62.425804" lon="12.290827">
        <ele>801.658</ele>
        <time>2011-07-04T16:21:46Z</time>
      </trkpt>
      <trkpt lat="62.425796" lon="12.290883">
        <ele>801.653</ele>
        <time>2011-07-04T16:21:48Z</time>
      </trkpt>
      <trkpt lat="62.425767" lon="12.290955">
        <ele>801.339</ele>
        <time>2011-07-04T16:21:52Z</time>
      </trkpt>
      <trkpt lat="62.425719" lon="12.291081">
        <ele>801.335</ele>
        <time>2011-07-04T16:21:59Z</time>
      </trkpt>
      <trkpt lat="62.425697" lon="12.291189">
        <ele>800.962</ele>
        <time>2011-07-04T16:22:04Z</time>
      </trkpt>
      <trkpt lat="62.425683" lon="12.291469">
        <ele>800.212</ele>
        <time>2011-07-04T16:22:13Z</time>
      </trkpt>
      <trkpt lat="62.425667" lon="12.291679">
        <ele>800.093</ele>
        <time>2011-07-04T16:22:20Z</time>
      </trkpt>
      <trkpt lat="62.425645" lon="12.291887">
        <ele>801.306</ele>
        <time>2011-07-04T16:22:27Z</time>
      </trkpt>
      <trkpt lat="62.425649" lon="12.291986">
        <ele>802.139</ele>
        <time>2011-07-04T16:22:31Z</time>
      </trkpt>
      <trkpt lat="62.425738" lon="12.292099">
        <ele>802.27</ele>
        <time>2011-07-04T16:22:38Z</time>
      </trkpt>
      <trkpt lat="62.425823" lon="12.292235">
        <ele>803.211</ele>
        <time>2011-07-04T16:22:47Z</time>
      </trkpt>
      <trkpt lat="62.425884" lon="12.292249">
        <ele>803.04</ele>
        <time>2011-07-04T16:22:51Z</time>
      </trkpt>
      <trkpt lat="62.425948" lon="12.29241">
        <ele>803.115</ele>
        <time>2011-07-04T16:22:59Z</time>
      </trkpt>
      <trkpt lat="62.425966" lon="12.29245">
        <ele>803.131</ele>
        <time>2011-07-04T16:23:01Z</time>
      </trkpt>
      <trkpt lat="62.42604" lon="12.292581">
        <ele>803.221</ele>
        <time>2011-07-04T16:23:09Z</time>
      </trkpt>
      <trkpt lat="62.426104" lon="12.292691">
        <ele>802.379</ele>
        <time>2011-07-04T16:23:16Z</time>
      </trkpt>
      <trkpt lat="62.426169" lon="12.292804">
        <ele>802.656</ele>
        <time>2011-07-04T16:23:23Z</time>
      </trkpt>
      <trkpt lat="62.426201" lon="12.292908">
        <ele>802.351</ele>
        <time>2011-07-04T16:23:28Z</time>
      </trkpt>
      <trkpt lat="62.426247" lon="12.292972">
        <ele>801.879</ele>
        <time>2011-07-04T16:23:33Z</time>
      </trkpt>
      <trkpt lat="62.426301" lon="12.29306">
        <ele>801.453</ele>
        <time>2011-07-04T16:23:40Z</time>
      </trkpt>
      <trkpt lat="62.426335" lon="12.293086">
        <ele>801.084</ele>
        <time>2011-07-04T16:23:43Z</time>
      </trkpt>
      <trkpt lat="62.426358" lon="12.293124">
        <ele>800.648</ele>
        <time>2011-07-04T16:23:45Z</time>
      </trkpt>
      <trkpt lat="62.426424" lon="12.293191">
        <ele>800.659</ele>
        <time>2011-07-04T16:23:52Z</time>
      </trkpt>
      <trkpt lat="62.426504" lon="12.293219">
        <ele>800.555</ele>
        <time>2011-07-04T16:23:59Z</time>
      </trkpt>
      <trkpt lat="62.426563" lon="12.293249">
        <ele>800.929</ele>
        <time>2011-07-04T16:24:04Z</time>
      </trkpt>
      <trkpt lat="62.4266" lon="12.293263">
        <ele>801.444</ele>
        <time>2011-07-04T16:24:07Z</time>
      </trkpt>
      <trkpt lat="62.426661" lon="12.293332">
        <ele>801.935</ele>
        <time>2011-07-04T16:24:12Z</time>
      </trkpt>
      <trkpt lat="62.426716" lon="12.293419">
        <ele>802.321</ele>
        <time>2011-07-04T16:24:17Z</time>
      </trkpt>
      <trkpt lat="62.426784" lon="12.293541">
        <ele>802.603</ele>
        <time>2011-07-04T16:24:24Z</time>
      </trkpt>
      <trkpt lat="62.426844" lon="12.293598">
        <ele>801.293</ele>
        <time>2011-07-04T16:24:29Z</time>
      </trkpt>
      <trkpt lat="62.426869" lon="12.293616">
        <ele>800.996</ele>
        <time>2011-07-04T16:24:31Z</time>
      </trkpt>
      <trkpt lat="62.426981" lon="12.293685">
        <ele>799.714</ele>
        <time>2011-07-04T16:24:38Z</time>
      </trkpt>
      <trkpt lat="62.427133" lon="12.293875">
        <ele>799.751</ele>
        <time>2011-07-04T16:24:46Z</time>
      </trkpt>
      <trkpt lat="62.427345" lon="12.29415">
        <ele>799.928</ele>
        <time>2011-07-04T16:24:56Z</time>
      </trkpt>
      <trkpt lat="62.427415" lon="12.29424">
        <ele>800.334</ele>
        <time>2011-07-04T16:25:01Z</time>
      </trkpt>
      <trkpt lat="62.427464" lon="12.294278">
        <ele>800.885</ele>
        <time>2011-07-04T16:25:07Z</time>
      </trkpt>
      <trkpt lat="62.427508" lon="12.294327">
        <ele>801.698</ele>
        <time>2011-07-04T16:25:14Z</time>
      </trkpt>
      <trkpt lat="62.427539" lon="12.294347">
        <ele>802.216</ele>
        <time>2011-07-04T16:25:19Z</time>
      </trkpt>
      <trkpt lat="62.427612" lon="12.294392">
        <ele>802.223</ele>
        <time>2011-07-04T16:25:26Z</time>
      </trkpt>
      <trkpt lat="62.427651" lon="12.294464">
        <ele>802.482</ele>
        <time>2011-07-04T16:25:29Z</time>
      </trkpt>
      <trkpt lat="62.427752" lon="12.294537">
        <ele>802.993</ele>
        <time>2011-07-04T16:25:37Z</time>
      </trkpt>
      <trkpt lat="62.427771" lon="12.294574">
        <ele>803.296</ele>
        <time>2011-07-04T16:25:39Z</time>
      </trkpt>
      <trkpt lat="62.427816" lon="12.294635">
        <ele>804.375</ele>
        <time>2011-07-04T16:25:44Z</time>
      </trkpt>
      <trkpt lat="62.427911" lon="12.294719">
        <ele>805.913</ele>
        <time>2011-07-04T16:25:52Z</time>
      </trkpt>
      <trkpt lat="62.428007" lon="12.294818">
        <ele>806.858</ele>
        <time>2011-07-04T16:26:00Z</time>
      </trkpt>
      <trkpt lat="62.428126" lon="12.294935">
        <ele>807.405</ele>
        <time>2011-07-04T16:26:10Z</time>
      </trkpt>
      <trkpt lat="62.428268" lon="12.29507">
        <ele>807.992</ele>
        <time>2011-07-04T16:26:20Z</time>
      </trkpt>
      <trkpt lat="62.428376" lon="12.295219">
        <ele>808.072</ele>
        <time>2011-07-04T16:26:26Z</time>
      </trkpt>
      <trkpt lat="62.428451" lon="12.295327">
        <ele>809.239</ele>
        <time>2011-07-04T16:26:31Z</time>
      </trkpt>
      <trkpt lat="62.42854" lon="12.295362">
        <ele>811.24</ele>
        <time>2011-07-04T16:26:36Z</time>
      </trkpt>
      <trkpt lat="62.428558" lon="12.295374">
        <ele>811.542</ele>
        <time>2011-07-04T16:26:37Z</time>
      </trkpt>
      <trkpt lat="62.428607" lon="12.295431">
        <ele>812.462</ele>
        <time>2011-07-04T16:26:41Z</time>
      </trkpt>
      <trkpt lat="62.428707" lon="12.295469">
        <ele>811.892</ele>
        <time>2011-07-04T16:26:46Z</time>
      </trkpt>
      <trkpt lat="62.428805" lon="12.29556">
        <ele>811.872</ele>
        <time>2011-07-04T16:26:52Z</time>
      </trkpt>
      <trkpt lat="62.42885" lon="12.295631">
        <ele>812.012</ele>
        <time>2011-07-04T16:26:56Z</time>
      </trkpt>
      <trkpt lat="62.428918" lon="12.295653">
        <ele>813.047</ele>
        <time>2011-07-04T16:27:02Z</time>
      </trkpt>
      <trkpt lat="62.428954" lon="12.29569">
        <ele>813.719</ele>
        <time>2011-07-04T16:27:05Z</time>
      </trkpt>
      <trkpt lat="62.428976" lon="12.295723">
        <ele>814.083</ele>
        <time>2011-07-04T16:27:07Z</time>
      </trkpt>
      <trkpt lat="62.429036" lon="12.295761">
        <ele>814.826</ele>
        <time>2011-07-04T16:27:12Z</time>
      </trkpt>
      <trkpt lat="62.429108" lon="12.295872">
        <ele>816.708</ele>
        <time>2011-07-04T16:27:20Z</time>
      </trkpt>
      <trkpt lat="62.429118" lon="12.295888">
        <ele>816.817</ele>
        <time>2011-07-04T16:27:21Z</time>
      </trkpt>
      <trkpt lat="62.429197" lon="12.296027">
        <ele>819.14</ele>
        <time>2011-07-04T16:27:29Z</time>
      </trkpt>
      <trkpt lat="62.429212" lon="12.29606">
        <ele>819.618</ele>
        <time>2011-07-04T16:27:31Z</time>
      </trkpt>
      <trkpt lat="62.429282" lon="12.296179">
        <ele>821.056</ele>
        <time>2011-07-04T16:27:39Z</time>
      </trkpt>
      <trkpt lat="62.429393" lon="12.296325">
        <ele>821.796</ele>
        <time>2011-07-04T16:27:49Z</time>
      </trkpt>
      <trkpt lat="62.429449" lon="12.296317">
        <ele>822</ele>
        <time>2011-07-04T16:27:53Z</time>
      </trkpt>
      <trkpt lat="62.42956" lon="12.29634">
        <ele>822.73</ele>
        <time>2011-07-04T16:28:00Z</time>
      </trkpt>
      <trkpt lat="62.429631" lon="12.296357">
        <ele>822.907</ele>
        <time>2011-07-04T16:28:05Z</time>
      </trkpt>
      <trkpt lat="62.429735" lon="12.296365">
        <ele>823.118</ele>
        <time>2011-07-04T16:28:12Z</time>
      </trkpt>
      <trkpt lat="62.42986" lon="12.296406">
        <ele>823.033</ele>
        <time>2011-07-04T16:28:21Z</time>
      </trkpt>
      <trkpt lat="62.429873" lon="12.296404">
        <ele>823.132</ele>
        <time>2011-07-04T16:28:22Z</time>
      </trkpt>
      <trkpt lat="62.429983" lon="12.296443">
        <ele>822.741</ele>
        <time>2011-07-04T16:28:30Z</time>
      </trkpt>
      <trkpt lat="62.43003" lon="12.296515">
        <ele>822.422</ele>
        <time>2011-07-04T16:28:35Z</time>
      </trkpt>
      <trkpt lat="62.430103" lon="12.2966">
        <ele>822.045</ele>
        <time>2011-07-04T16:28:41Z</time>
      </trkpt>
      <trkpt lat="62.43021" lon="12.296696">
        <ele>822.429</ele>
        <time>2011-07-04T16:28:49Z</time>
      </trkpt>
      <trkpt lat="62.430279" lon="12.296782">
        <ele>823.05</ele>
        <time>2011-07-04T16:28:55Z</time>
      </trkpt>
      <trkpt lat="62.430389" lon="12.296882">
        <ele>823.355</ele>
        <time>2011-07-04T16:29:02Z</time>
      </trkpt>
      <trkpt lat="62.430478" lon="12.296991">
        <ele>823.266</ele>
        <time>2011-07-04T16:29:07Z</time>
      </trkpt>
      <trkpt lat="62.430615" lon="12.297136">
        <ele>823.328</ele>
        <time>2011-07-04T16:29:14Z</time>
      </trkpt>
      <trkpt lat="62.430701" lon="12.297255">
        <ele>823.88</ele>
        <time>2011-07-04T16:29:19Z</time>
      </trkpt>
      <trkpt lat="62.430839" lon="12.297297">
        <ele>824.784</ele>
        <time>2011-07-04T16:29:26Z</time>
      </trkpt>
      <trkpt lat="62.430951" lon="12.297366">
        <ele>825.118</ele>
        <time>2011-07-04T16:29:32Z</time>
      </trkpt>
      <trkpt lat="62.431073" lon="12.297399">
        <ele>824.555</ele>
        <time>2011-07-04T16:29:38Z</time>
      </trkpt>
      <trkpt lat="62.431227" lon="12.297453">
        <ele>824.363</ele>
        <time>2011-07-04T16:29:45Z</time>
      </trkpt>
      <trkpt lat="62.431347" lon="12.297517">
        <ele>824.362</ele>
        <time>2011-07-04T16:29:51Z</time>
      </trkpt>
      <trkpt lat="62.431501" lon="12.297583">
        <ele>824.444</ele>
        <time>2011-07-04T16:29:59Z</time>
      </trkpt>
      <trkpt lat="62.431644" lon="12.297662">
        <ele>823.884</ele>
        <time>2011-07-04T16:30:06Z</time>
      </trkpt>
      <trkpt lat="62.431769" lon="12.297652">
        <ele>823.464</ele>
        <time>2011-07-04T16:30:12Z</time>
      </trkpt>
      <trkpt lat="62.431889" lon="12.297631">
        <ele>822.438</ele>
        <time>2011-07-04T16:30:18Z</time>
      </trkpt>
      <trkpt lat="62.432006" lon="12.297532">
        <ele>821.598</ele>
        <time>2011-07-04T16:30:24Z</time>
      </trkpt>
      <trkpt lat="62.432195" lon="12.297459">
        <ele>821.151</ele>
        <time>2011-07-04T16:30:32Z</time>
      </trkpt>
      <trkpt lat="62.432303" lon="12.297402">
        <ele>820.81</ele>
        <time>2011-07-04T16:30:37Z</time>
      </trkpt>
      <trkpt lat="62.432416" lon="12.297347">
        <ele>820.285</ele>
        <time>2011-07-04T16:30:42Z</time>
      </trkpt>
      <trkpt lat="62.432509" lon="12.297315">
        <ele>820.452</ele>
        <time>2011-07-04T16:30:48Z</time>
      </trkpt>
      <trkpt lat="62.432549" lon="12.297294">
        <ele>820.563</ele>
        <time>2011-07-04T16:30:51Z</time>
      </trkpt>
      <trkpt lat="62.432599" lon="12.297284">
        <ele>821.001</ele>
        <time>2011-07-04T16:30:55Z</time>
      </trkpt>
      <trkpt lat="62.432678" lon="12.297205">
        <ele>820.666</ele>
        <time>2011-07-04T16:31:02Z</time>
      </trkpt>
      <trkpt lat="62.432687" lon="12.297201">
        <ele>820.685</ele>
        <time>2011-07-04T16:31:03Z</time>
      </trkpt>
      <trkpt lat="62.432775" lon="12.29715">
        <ele>820.752</ele>
        <time>2011-07-04T16:31:09Z</time>
      </trkpt>
      <trkpt lat="62.432896" lon="12.297053">
        <ele>819.17</ele>
        <time>2011-07-04T16:31:15Z</time>
      </trkpt>
      <trkpt lat="62.433014" lon="12.29704">
        <ele>817.932</ele>
        <time>2011-07-04T16:31:20Z</time>
      </trkpt>
      <trkpt lat="62.433158" lon="12.297014">
        <ele>817.031</ele>
        <time>2011-07-04T16:31:26Z</time>
      </trkpt>
      <trkpt lat="62.433277" lon="12.296972">
        <ele>817.351</ele>
        <time>2011-07-04T16:31:32Z</time>
      </trkpt>
      <trkpt lat="62.433403" lon="12.296916">
        <ele>817.752</ele>
        <time>2011-07-04T16:31:40Z</time>
      </trkpt>
      <trkpt lat="62.433526" lon="12.296875">
        <ele>819.367</ele>
        <time>2011-07-04T16:31:46Z</time>
      </trkpt>
      <trkpt lat="62.433614" lon="12.296852">
        <ele>820.168</ele>
        <time>2011-07-04T16:31:50Z</time>
      </trkpt>
      <trkpt lat="62.433767" lon="12.296759">
        <ele>821.164</ele>
        <time>2011-07-04T16:31:57Z</time>
      </trkpt>
      <trkpt lat="62.433788" lon="12.296737">
        <ele>821.248</ele>
        <time>2011-07-04T16:31:58Z</time>
      </trkpt>
      <trkpt lat="62.433966" lon="12.296765">
        <ele>822.046</ele>
        <time>2011-07-04T16:32:06Z</time>
      </trkpt>
      <trkpt lat="62.434106" lon="12.296773">
        <ele>822.475</ele>
        <time>2011-07-04T16:32:12Z</time>
      </trkpt>
      <trkpt lat="62.434141" lon="12.296771">
        <ele>822.982</ele>
        <time>2011-07-04T16:32:14Z</time>
      </trkpt>
      <trkpt lat="62.434202" lon="12.296748">
        <ele>824.055</ele>
        <time>2011-07-04T16:32:18Z</time>
      </trkpt>
      <trkpt lat="62.434326" lon="12.296749">
        <ele>825.379</ele>
        <time>2011-07-04T16:32:26Z</time>
      </trkpt>
      <trkpt lat="62.434399" lon="12.296795">
        <ele>826.941</ele>
        <time>2011-07-04T16:32:32Z</time>
      </trkpt>
      <trkpt lat="62.434404" lon="12.296807">
        <ele>827.075</ele>
        <time>2011-07-04T16:32:33Z</time>
      </trkpt>
      <trkpt lat="62.434442" lon="12.296862">
        <ele>828.277</ele>
        <time>2011-07-04T16:32:38Z</time>
      </trkpt>
      <trkpt lat="62.434504" lon="12.296905">
        <ele>829.925</ele>
        <time>2011-07-04T16:32:44Z</time>
      </trkpt>
      <trkpt lat="62.434583" lon="12.296981">
        <ele>831.057</ele>
        <time>2011-07-04T16:32:51Z</time>
      </trkpt>
      <trkpt lat="62.434651" lon="12.297015">
        <ele>832.153</ele>
        <time>2011-07-04T16:32:58Z</time>
      </trkpt>
      <trkpt lat="62.434736" lon="12.297036">
        <ele>832.545</ele>
        <time>2011-07-04T16:33:06Z</time>
      </trkpt>
      <trkpt lat="62.434817" lon="12.297073">
        <ele>831.813</ele>
        <time>2011-07-04T16:33:13Z</time>
      </trkpt>
      <trkpt lat="62.434845" lon="12.297051">
        <ele>831.672</ele>
        <time>2011-07-04T16:33:15Z</time>
      </trkpt>
      <trkpt lat="62.434894" lon="12.297034">
        <ele>831.115</ele>
        <time>2011-07-04T16:33:19Z</time>
      </trkpt>
      <trkpt lat="62.435034" lon="12.296967">
        <ele>830.33</ele>
        <time>2011-07-04T16:33:27Z</time>
      </trkpt>
      <trkpt lat="62.435097" lon="12.29692">
        <ele>829.808</ele>
        <time>2011-07-04T16:33:31Z</time>
      </trkpt>
      <trkpt lat="62.435148" lon="12.296826">
        <ele>829.336</ele>
        <time>2011-07-04T16:33:36Z</time>
      </trkpt>
      <trkpt lat="62.435198" lon="12.296771">
        <ele>829.112</ele>
        <time>2011-07-04T16:33:41Z</time>
      </trkpt>
      <trkpt lat="62.435292" lon="12.296612">
        <ele>827.856</ele>
        <time>2011-07-04T16:33:49Z</time>
      </trkpt>
      <trkpt lat="62.435355" lon="12.296538">
        <ele>827.131</ele>
        <time>2011-07-04T16:33:54Z</time>
      </trkpt>
      <trkpt lat="62.435438" lon="12.296315">
        <ele>825.927</ele>
        <time>2011-07-04T16:34:03Z</time>
      </trkpt>
      <trkpt lat="62.435514" lon="12.296167">
        <ele>825.06</ele>
        <time>2011-07-04T16:34:10Z</time>
      </trkpt>
      <trkpt lat="62.435598" lon="12.296056">
        <ele>823.623</ele>
        <time>2011-07-04T16:34:17Z</time>
      </trkpt>
      <trkpt lat="62.435666" lon="12.295959">
        <ele>822.831</ele>
        <time>2011-07-04T16:34:23Z</time>
      </trkpt>
      <trkpt lat="62.435739" lon="12.295867">
        <ele>822.584</ele>
        <time>2011-07-04T16:34:30Z</time>
      </trkpt>
      <trkpt lat="62.435811" lon="12.295743">
        <ele>821.285</ele>
        <time>2011-07-04T16:34:38Z</time>
      </trkpt>
      <trkpt lat="62.435888" lon="12.295657">
        <ele>819.596</ele>
        <time>2011-07-04T16:34:46Z</time>
      </trkpt>
      <trkpt lat="62.435984" lon="12.295462">
        <ele>819.34</ele>
        <time>2011-07-04T16:34:54Z</time>
      </trkpt>
      <trkpt lat="62.436051" lon="12.295435">
        <ele>819.164</ele>
        <time>2011-07-04T16:35:00Z</time>
      </trkpt>
      <trkpt lat="62.436111" lon="12.295465">
        <ele>820.595</ele>
        <time>2011-07-04T16:35:07Z</time>
      </trkpt>
      <trkpt lat="62.436129" lon="12.295461">
        <ele>820.83</ele>
        <time>2011-07-04T16:35:09Z</time>
      </trkpt>
      <trkpt lat="62.436152" lon="12.295443">
        <ele>820.926</ele>
        <time>2011-07-04T16:35:11Z</time>
      </trkpt>
      <trkpt lat="62.436215" lon="12.295493">
        <ele>821.191</ele>
        <time>2011-07-04T16:35:17Z</time>
      </trkpt>
      <trkpt lat="62.436294" lon="12.295454">
        <ele>820.917</ele>
        <time>2011-07-04T16:35:24Z</time>
      </trkpt>
      <trkpt lat="62.436327" lon="12.295433">
        <ele>820.81</ele>
        <time>2011-07-04T16:35:28Z</time>
      </trkpt>
      <trkpt lat="62.436371" lon="12.295322">
        <ele>820.773</ele>
        <time>2011-07-04T16:35:35Z</time>
      </trkpt>
      <trkpt lat="62.436405" lon="12.295277">
        <ele>821.066</ele>
        <time>2011-07-04T16:35:38Z</time>
      </trkpt>
      <trkpt lat="62.436457" lon="12.295204">
        <ele>821.304</ele>
        <time>2011-07-04T16:35:44Z</time>
      </trkpt>
      <trkpt lat="62.436498" lon="12.295138">
        <ele>820.939</ele>
        <time>2011-07-04T16:35:48Z</time>
      </trkpt>
      <trkpt lat="62.436566" lon="12.295124">
        <ele>820.265</ele>
        <time>2011-07-04T16:35:54Z</time>
      </trkpt>
      <trkpt lat="62.436601" lon="12.295124">
        <ele>820.5</ele>
        <time>2011-07-04T16:35:57Z</time>
      </trkpt>
      <trkpt lat="62.43665" lon="12.295105">
        <ele>820.489</ele>
        <time>2011-07-04T16:36:00Z</time>
      </trkpt>
      <trkpt lat="62.436709" lon="12.295131">
        <ele>820.774</ele>
        <time>2011-07-04T16:36:07Z</time>
      </trkpt>
      <trkpt lat="62.436788" lon="12.295111">
        <ele>821.227</ele>
        <time>2011-07-04T16:36:12Z</time>
      </trkpt>
      <trkpt lat="62.436818" lon="12.295102">
        <ele>821.939</ele>
        <time>2011-07-04T16:36:16Z</time>
      </trkpt>
      <trkpt lat="62.436858" lon="12.295017">
        <ele>821.646</ele>
        <time>2011-07-04T16:36:22Z</time>
      </trkpt>
      <trkpt lat="62.436873" lon="12.294898">
        <ele>820.327</ele>
        <time>2011-07-04T16:36:27Z</time>
      </trkpt>
      <trkpt lat="62.43695" lon="12.294867">
        <ele>818.94</ele>
        <time>2011-07-04T16:36:35Z</time>
      </trkpt>
      <trkpt lat="62.436993" lon="12.294903">
        <ele>819.85</ele>
        <time>2011-07-04T16:36:41Z</time>
      </trkpt>
      <trkpt lat="62.437042" lon="12.294904">
        <ele>821.318</ele>
        <time>2011-07-04T16:36:47Z</time>
      </trkpt>
      <trkpt lat="62.437097" lon="12.294942">
        <ele>822.071</ele>
        <time>2011-07-04T16:36:53Z</time>
      </trkpt>
      <trkpt lat="62.437108" lon="12.294944">
        <ele>822.144</ele>
        <time>2011-07-04T16:36:54Z</time>
      </trkpt>
      <trkpt lat="62.43717" lon="12.294947">
        <ele>822.691</ele>
        <time>2011-07-04T16:37:01Z</time>
      </trkpt>
      <trkpt lat="62.437197" lon="12.29496">
        <ele>822.971</ele>
        <time>2011-07-04T16:37:04Z</time>
      </trkpt>
      <trkpt lat="62.437258" lon="12.294958">
        <ele>823.399</ele>
        <time>2011-07-04T16:37:10Z</time>
      </trkpt>
      <trkpt lat="62.437341" lon="12.294975">
        <ele>824.553</ele>
        <time>2011-07-04T16:37:18Z</time>
      </trkpt>
      <trkpt lat="62.437421" lon="12.294953">
        <ele>824.822</ele>
        <time>2011-07-04T16:37:27Z</time>
      </trkpt>
      <trkpt lat="62.437457" lon="12.294935">
        <ele>824.738</ele>
        <time>2011-07-04T16:37:32Z</time>
      </trkpt>
      <trkpt lat="62.437508" lon="12.294892">
        <ele>824.401</ele>
        <time>2011-07-04T16:37:36Z</time>
      </trkpt>
      <trkpt lat="62.437579" lon="12.294841">
        <ele>823.707</ele>
        <time>2011-07-04T16:37:43Z</time>
      </trkpt>
      <trkpt lat="62.437655" lon="12.294746">
        <ele>822.845</ele>
        <time>2011-07-04T16:37:57Z</time>
      </trkpt>
      <trkpt lat="62.437697" lon="12.294641">
        <ele>821.933</ele>
        <time>2011-07-04T16:38:02Z</time>
      </trkpt>
      <trkpt lat="62.437715" lon="12.294613">
        <ele>821.665</ele>
        <time>2011-07-04T16:38:04Z</time>
      </trkpt>
      <trkpt lat="62.437786" lon="12.294553">
        <ele>820.992</ele>
        <time>2011-07-04T16:38:11Z</time>
      </trkpt>
      <trkpt lat="62.437861" lon="12.294413">
        <ele>821.448</ele>
        <time>2011-07-04T16:38:19Z</time>
      </trkpt>
      <trkpt lat="62.43791" lon="12.294413">
        <ele>820.64</ele>
        <time>2011-07-04T16:38:24Z</time>
      </trkpt>
      <trkpt lat="62.437968" lon="12.294418">
        <ele>820.35</ele>
        <time>2011-07-04T16:38:30Z</time>
      </trkpt>
      <trkpt lat="62.437999" lon="12.294409">
        <ele>819.98</ele>
        <time>2011-07-04T16:38:33Z</time>
      </trkpt>
      <trkpt lat="62.438053" lon="12.294358">
        <ele>819.725</ele>
        <time>2011-07-04T16:38:38Z</time>
      </trkpt>
      <trkpt lat="62.438119" lon="12.294326">
        <ele>819.229</ele>
        <time>2011-07-04T16:38:44Z</time>
      </trkpt>
      <trkpt lat="62.438185" lon="12.294321">
        <ele>819.007</ele>
        <time>2011-07-04T16:38:52Z</time>
      </trkpt>
      <trkpt lat="62.438188" lon="12.294318">
        <ele>818.926</ele>
        <time>2011-07-04T16:38:53Z</time>
      </trkpt>
      <trkpt lat="62.438271" lon="12.294346">
        <ele>817.577</ele>
        <time>2011-07-04T16:39:08Z</time>
      </trkpt>
      <trkpt lat="62.438304" lon="12.294354">
        <ele>817.578</ele>
        <time>2011-07-04T16:39:13Z</time>
      </trkpt>
      <trkpt lat="62.438329" lon="12.294352">
        <ele>817.624</ele>
        <time>2011-07-04T16:39:17Z</time>
      </trkpt>
      <trkpt lat="62.438396" lon="12.2943">
        <ele>817.474</ele>
        <time>2011-07-04T16:39:26Z</time>
      </trkpt>
      <trkpt lat="62.438511" lon="12.294209">
        <ele>818.316</ele>
        <time>2011-07-04T16:39:34Z</time>
      </trkpt>
      <trkpt lat="62.438555" lon="12.294169">
        <ele>817.993</ele>
        <time>2011-07-04T16:39:38Z</time>
      </trkpt>
      <trkpt lat="62.43861" lon="12.294164">
        <ele>817.617</ele>
        <time>2011-07-04T16:39:45Z</time>
      </trkpt>
      <trkpt lat="62.438659" lon="12.294153">
        <ele>817.635</ele>
        <time>2011-07-04T16:39:51Z</time>
      </trkpt>
      <trkpt lat="62.438719" lon="12.294138">
        <ele>817.53</ele>
        <time>2011-07-04T16:39:57Z</time>
      </trkpt>
      <trkpt lat="62.438754" lon="12.294136">
        <ele>818.327</ele>
        <time>2011-07-04T16:40:01Z</time>
      </trkpt>
      <trkpt lat="62.438779" lon="12.294153">
        <ele>818.841</ele>
        <time>2011-07-04T16:40:04Z</time>
      </trkpt>
      <trkpt lat="62.438852" lon="12.294181">
        <ele>819.649</ele>
        <time>2011-07-04T16:40:12Z</time>
      </trkpt>
      <trkpt lat="62.438933" lon="12.294227">
        <ele>820.643</ele>
        <time>2011-07-04T16:40:19Z</time>
      </trkpt>
      <trkpt lat="62.439" lon="12.294259">
        <ele>821.513</ele>
        <time>2011-07-04T16:40:25Z</time>
      </trkpt>
      <trkpt lat="62.43903" lon="12.294265">
        <ele>822.398</ele>
        <time>2011-07-04T16:40:28Z</time>
      </trkpt>
      <trkpt lat="62.439129" lon="12.294233">
        <ele>823.766</ele>
        <time>2011-07-04T16:40:37Z</time>
      </trkpt>
      <trkpt lat="62.439251" lon="12.294228">
        <ele>823.932</ele>
        <time>2011-07-04T16:40:47Z</time>
      </trkpt>
      <trkpt lat="62.439335" lon="12.2942">
        <ele>824.225</ele>
        <time>2011-07-04T16:40:52Z</time>
      </trkpt>
      <trkpt lat="62.439408" lon="12.294144">
        <ele>825.285</ele>
        <time>2011-07-04T16:40:57Z</time>
      </trkpt>
      <trkpt lat="62.439443" lon="12.294111">
        <ele>825.839</ele>
        <time>2011-07-04T16:41:00Z</time>
      </trkpt>
      <trkpt lat="62.439566" lon="12.294113">
        <ele>825.897</ele>
        <time>2011-07-04T16:41:10Z</time>
      </trkpt>
      <trkpt lat="62.439599" lon="12.294127">
        <ele>825.316</ele>
        <time>2011-07-04T16:41:13Z</time>
      </trkpt>
      <trkpt lat="62.439752" lon="12.294107">
        <ele>824.281</ele>
        <time>2011-07-04T16:41:24Z</time>
      </trkpt>
      <trkpt lat="62.43984" lon="12.294123">
        <ele>824.646</ele>
        <time>2011-07-04T16:41:31Z</time>
      </trkpt>
      <trkpt lat="62.439951" lon="12.29415">
        <ele>825.853</ele>
        <time>2011-07-04T16:41:40Z</time>
      </trkpt>
      <trkpt lat="62.439989" lon="12.294149">
        <ele>826.246</ele>
        <time>2011-07-04T16:41:42Z</time>
      </trkpt>
      <trkpt lat="62.440053" lon="12.294147">
        <ele>826.746</ele>
        <time>2011-07-04T16:41:46Z</time>
      </trkpt>
      <trkpt lat="62.440155" lon="12.294069">
        <ele>825.872</ele>
        <time>2011-07-04T16:41:52Z</time>
      </trkpt>
      <trkpt lat="62.440275" lon="12.293965">
        <ele>825.53</ele>
        <time>2011-07-04T16:42:01Z</time>
      </trkpt>
      <trkpt lat="62.440362" lon="12.293901">
        <ele>825.455</ele>
        <time>2011-07-04T16:42:07Z</time>
      </trkpt>
      <trkpt lat="62.440464" lon="12.29379">
        <ele>825.356</ele>
        <time>2011-07-04T16:42:14Z</time>
      </trkpt>
      <trkpt lat="62.440525" lon="12.29372">
        <ele>825.411</ele>
        <time>2011-07-04T16:42:19Z</time>
      </trkpt>
      <trkpt lat="62.440615" lon="12.29361">
        <ele>825.002</ele>
        <time>2011-07-04T16:42:26Z</time>
      </trkpt>
      <trkpt lat="62.440674" lon="12.293547">
        <ele>825.272</ele>
        <time>2011-07-04T16:42:31Z</time>
      </trkpt>
      <trkpt lat="62.440751" lon="12.293475">
        <ele>825.846</ele>
        <time>2011-07-04T16:42:38Z</time>
      </trkpt>
      <trkpt lat="62.440787" lon="12.293452">
        <ele>825.721</ele>
        <time>2011-07-04T16:42:41Z</time>
      </trkpt>
      <trkpt lat="62.440856" lon="12.293359">
        <ele>825.209</ele>
        <time>2011-07-04T16:42:59Z</time>
      </trkpt>
      <trkpt lat="62.440931" lon="12.293286">
        <ele>824.892</ele>
        <time>2011-07-04T16:43:06Z</time>
      </trkpt>
      <trkpt lat="62.441033" lon="12.293163">
        <ele>823.094</ele>
        <time>2011-07-04T16:43:15Z</time>
      </trkpt>
      <trkpt lat="62.441073" lon="12.293146">
        <ele>822.066</ele>
        <time>2011-07-04T16:43:18Z</time>
      </trkpt>
      <trkpt lat="62.441184" lon="12.293093">
        <ele>820.175</ele>
        <time>2011-07-04T16:43:26Z</time>
      </trkpt>
      <trkpt lat="62.441306" lon="12.292919">
        <ele>818.512</ele>
        <time>2011-07-04T16:43:32Z</time>
      </trkpt>
      <trkpt lat="62.441337" lon="12.292896">
        <ele>818.102</ele>
        <time>2011-07-04T16:43:34Z</time>
      </trkpt>
      <trkpt lat="62.441374" lon="12.29287">
        <ele>817.072</ele>
        <time>2011-07-04T16:43:38Z</time>
      </trkpt>
      <trkpt lat="62.441403" lon="12.292822">
        <ele>815.746</ele>
        <time>2011-07-04T16:43:41Z</time>
      </trkpt>
      <trkpt lat="62.441413" lon="12.292811">
        <ele>815.15</ele>
        <time>2011-07-04T16:43:42Z</time>
      </trkpt>
      <trkpt lat="62.441461" lon="12.292771">
        <ele>812.581</ele>
        <time>2011-07-04T16:43:47Z</time>
      </trkpt>
      <trkpt lat="62.441515" lon="12.292725">
        <ele>809.05</ele>
        <time>2011-07-04T16:43:52Z</time>
      </trkpt>
      <trkpt lat="62.441529" lon="12.292709">
        <ele>808.769</ele>
        <time>2011-07-04T16:43:53Z</time>
      </trkpt>
      <trkpt lat="62.441582" lon="12.292651">
        <ele>806.843</ele>
        <time>2011-07-04T16:43:57Z</time>
      </trkpt>
      <trkpt lat="62.441678" lon="12.292593">
        <ele>806.11</ele>
        <time>2011-07-04T16:44:02Z</time>
      </trkpt>
      <trkpt lat="62.441794" lon="12.292525">
        <ele>805.088</ele>
        <time>2011-07-04T16:44:06Z</time>
      </trkpt>
      <trkpt lat="62.441961" lon="12.292424">
        <ele>804.404</ele>
        <time>2011-07-04T16:44:13Z</time>
      </trkpt>
      <trkpt lat="62.442037" lon="12.292327">
        <ele>804.918</ele>
        <time>2011-07-04T16:44:18Z</time>
      </trkpt>
      <trkpt lat="62.442128" lon="12.292189">
        <ele>805.273</ele>
        <time>2011-07-04T16:44:25Z</time>
      </trkpt>
      <trkpt lat="62.442196" lon="12.29211">
        <ele>804.987</ele>
        <time>2011-07-04T16:44:29Z</time>
      </trkpt>
      <trkpt lat="62.442339" lon="12.291883">
        <ele>804.231</ele>
        <time>2011-07-04T16:44:35Z</time>
      </trkpt>
      <trkpt lat="62.442394" lon="12.291694">
        <ele>804.018</ele>
        <time>2011-07-04T16:44:40Z</time>
      </trkpt>
      <trkpt lat="62.442489" lon="12.29152">
        <ele>802.766</ele>
        <time>2011-07-04T16:44:47Z</time>
      </trkpt>
      <trkpt lat="62.442579" lon="12.291363">
        <ele>801.061</ele>
        <time>2011-07-04T16:44:52Z</time>
      </trkpt>
      <trkpt lat="62.442609" lon="12.2912">
        <ele>801.297</ele>
        <time>2011-07-04T16:44:58Z</time>
      </trkpt>
      <trkpt lat="62.442638" lon="12.291053">
        <ele>801.337</ele>
        <time>2011-07-04T16:45:03Z</time>
      </trkpt>
      <trkpt lat="62.442702" lon="12.290969">
        <ele>800.936</ele>
        <time>2011-07-04T16:45:09Z</time>
      </trkpt>
      <trkpt lat="62.44273" lon="12.290946">
        <ele>801.083</ele>
        <time>2011-07-04T16:45:12Z</time>
      </trkpt>
      <trkpt lat="62.442815" lon="12.290919">
        <ele>800.943</ele>
        <time>2011-07-04T16:45:19Z</time>
      </trkpt>
      <trkpt lat="62.442928" lon="12.290872">
        <ele>801.046</ele>
        <time>2011-07-04T16:45:26Z</time>
      </trkpt>
      <trkpt lat="62.443076" lon="12.290828">
        <ele>801.181</ele>
        <time>2011-07-04T16:45:33Z</time>
      </trkpt>
      <trkpt lat="62.443199" lon="12.290873">
        <ele>801.139</ele>
        <time>2011-07-04T16:45:39Z</time>
      </trkpt>
      <trkpt lat="62.443345" lon="12.290957">
        <ele>801.43</ele>
        <time>2011-07-04T16:45:47Z</time>
      </trkpt>
      <trkpt lat="62.44341" lon="12.290951">
        <ele>802.115</ele>
        <time>2011-07-04T16:45:53Z</time>
      </trkpt>
      <trkpt lat="62.443464" lon="12.290924">
        <ele>804.168</ele>
        <time>2011-07-04T16:46:00Z</time>
      </trkpt>
      <trkpt lat="62.443486" lon="12.290918">
        <ele>804.984</ele>
        <time>2011-07-04T16:46:03Z</time>
      </trkpt>
      <trkpt lat="62.443537" lon="12.290885">
        <ele>806.164</ele>
        <time>2011-07-04T16:46:09Z</time>
      </trkpt>
      <trkpt lat="62.443597" lon="12.290889">
        <ele>807.334</ele>
        <time>2011-07-04T16:46:16Z</time>
      </trkpt>
      <trkpt lat="62.443661" lon="12.290871">
        <ele>807.287</ele>
        <time>2011-07-04T16:46:23Z</time>
      </trkpt>
      <trkpt lat="62.443735" lon="12.290845">
        <ele>806.152</ele>
        <time>2011-07-04T16:46:29Z</time>
      </trkpt>
      <trkpt lat="62.443757" lon="12.290815">
        <ele>805.508</ele>
        <time>2011-07-04T16:46:31Z</time>
      </trkpt>
      <trkpt lat="62.443795" lon="12.290714">
        <ele>804.014</ele>
        <time>2011-07-04T16:46:36Z</time>
      </trkpt>
      <trkpt lat="62.443811" lon="12.290664">
        <ele>803.77</ele>
        <time>2011-07-04T16:46:38Z</time>
      </trkpt>
      <trkpt lat="62.443869" lon="12.290536">
        <ele>803.542</ele>
        <time>2011-07-04T16:46:44Z</time>
      </trkpt>
      <trkpt lat="62.443918" lon="12.290504">
        <ele>803.654</ele>
        <time>2011-07-04T16:46:48Z</time>
      </trkpt>
      <trkpt lat="62.444014" lon="12.290461">
        <ele>804.027</ele>
        <time>2011-07-04T16:46:54Z</time>
      </trkpt>
      <trkpt lat="62.444093" lon="12.290363">
        <ele>804.76</ele>
        <time>2011-07-04T16:46:59Z</time>
      </trkpt>
      <trkpt lat="62.444153" lon="12.290284">
        <ele>804.942</ele>
        <time>2011-07-04T16:47:04Z</time>
      </trkpt>
      <trkpt lat="62.44424" lon="12.290193">
        <ele>805.667</ele>
        <time>2011-07-04T16:47:12Z</time>
      </trkpt>
      <trkpt lat="62.444289" lon="12.290129">
        <ele>805.751</ele>
        <time>2011-07-04T16:47:16Z</time>
      </trkpt>
      <trkpt lat="62.444372" lon="12.290025">
        <ele>805.887</ele>
        <time>2011-07-04T16:47:23Z</time>
      </trkpt>
      <trkpt lat="62.444395" lon="12.289991">
        <ele>805.782</ele>
        <time>2011-07-04T16:47:25Z</time>
      </trkpt>
      <trkpt lat="62.444467" lon="12.289892">
        <ele>804.58</ele>
        <time>2011-07-04T16:47:31Z</time>
      </trkpt>
      <trkpt lat="62.444521" lon="12.28984">
        <ele>803.504</ele>
        <time>2011-07-04T16:47:35Z</time>
      </trkpt>
      <trkpt lat="62.444591" lon="12.289792">
        <ele>803.634</ele>
        <time>2011-07-04T16:47:41Z</time>
      </trkpt>
      <trkpt lat="62.44466" lon="12.289704">
        <ele>803.251</ele>
        <time>2011-07-04T16:47:48Z</time>
      </trkpt>
      <trkpt lat="62.444696" lon="12.289699">
        <ele>803.346</ele>
        <time>2011-07-04T16:47:51Z</time>
      </trkpt>
      <trkpt lat="62.4448" lon="12.289576">
        <ele>803.647</ele>
        <time>2011-07-04T16:48:01Z</time>
      </trkpt>
      <trkpt lat="62.444881" lon="12.289502">
        <ele>802.857</ele>
        <time>2011-07-04T16:48:08Z</time>
      </trkpt>
      <trkpt lat="62.44498" lon="12.289365">
        <ele>802.748</ele>
        <time>2011-07-04T16:48:15Z</time>
      </trkpt>
      <trkpt lat="62.4451" lon="12.289185">
        <ele>802.608</ele>
        <time>2011-07-04T16:48:21Z</time>
      </trkpt>
      <trkpt lat="62.44523" lon="12.289022">
        <ele>802.384</ele>
        <time>2011-07-04T16:48:27Z</time>
      </trkpt>
      <trkpt lat="62.445367" lon="12.288891">
        <ele>802.055</ele>
        <time>2011-07-04T16:48:33Z</time>
      </trkpt>
      <trkpt lat="62.445387" lon="12.288881">
        <ele>801.987</ele>
        <time>2011-07-04T16:48:34Z</time>
      </trkpt>
      <trkpt lat="62.445472" lon="12.288739">
        <ele>802.657</ele>
        <time>2011-07-04T16:48:41Z</time>
      </trkpt>
      <trkpt lat="62.445517" lon="12.288665">
        <ele>803.854</ele>
        <time>2011-07-04T16:48:46Z</time>
      </trkpt>
      <trkpt lat="62.445534" lon="12.288592">
        <ele>804.397</ele>
        <time>2011-07-04T16:48:50Z</time>
      </trkpt>
      <trkpt lat="62.445558" lon="12.2885">
        <ele>804.681</ele>
        <time>2011-07-04T16:48:55Z</time>
      </trkpt>
      <trkpt lat="62.445577" lon="12.288436">
        <ele>805.457</ele>
        <time>2011-07-04T16:49:00Z</time>
      </trkpt>
      <trkpt lat="62.445735" lon="12.288385">
        <ele>804.618</ele>
        <time>2011-07-04T16:50:52Z</time>
      </trkpt>
      <trkpt lat="62.445756" lon="12.288374">
        <ele>804.723</ele>
        <time>2011-07-04T16:50:54Z</time>
      </trkpt>
      <trkpt lat="62.445775" lon="12.288428">
        <ele>804.81</ele>
        <time>2011-07-04T16:50:57Z</time>
      </trkpt>
      <trkpt lat="62.445805" lon="12.288489">
        <ele>805.151</ele>
        <time>2011-07-04T16:51:04Z</time>
      </trkpt>
      <trkpt lat="62.445864" lon="12.288507">
        <ele>805.568</ele>
        <time>2011-07-04T16:51:12Z</time>
      </trkpt>
      <trkpt lat="62.445825" lon="12.288502">
        <ele>805.336</ele>
        <time>2011-07-04T16:51:24Z</time>
      </trkpt>
      <trkpt lat="62.445835" lon="12.288501">
        <ele>805.404</ele>
        <time>2011-07-04T16:51:33Z</time>
      </trkpt>
      <trkpt lat="62.445898" lon="12.288469">
        <ele>805.714</ele>
        <time>2011-07-04T16:51:40Z</time>
      </trkpt>
      <trkpt lat="62.445896" lon="12.288473">
        <ele>805.947</ele>
        <time>2011-07-04T16:51:42Z</time>
      </trkpt>
      <trkpt lat="62.445948" lon="12.28842">
        <ele>806.918</ele>
        <time>2011-07-04T16:52:02Z</time>
      </trkpt>
      <trkpt lat="62.445979" lon="12.2884">
        <ele>807.648</ele>
        <time>2011-07-04T16:52:06Z</time>
      </trkpt>
      <trkpt lat="62.445988" lon="12.288288">
        <ele>807.8</ele>
        <time>2011-07-04T16:52:25Z</time>
      </trkpt>
      <trkpt lat="62.445996" lon="12.288288">
        <ele>807.677</ele>
        <time>2011-07-04T16:52:26Z</time>
      </trkpt>
      <trkpt lat="62.446042" lon="12.288286">
        <ele>807.575</ele>
        <time>2011-07-04T16:52:30Z</time>
      </trkpt>
      <trkpt lat="62.446132" lon="12.288214">
        <ele>807.17</ele>
        <time>2011-07-04T16:52:37Z</time>
      </trkpt>
      <trkpt lat="62.446206" lon="12.288189">
        <ele>807.434</ele>
        <time>2011-07-04T16:52:41Z</time>
      </trkpt>
      <trkpt lat="62.446312" lon="12.288092">
        <ele>808.44</ele>
        <time>2011-07-04T16:52:49Z</time>
      </trkpt>
      <trkpt lat="62.446354" lon="12.28801">
        <ele>808.344</ele>
        <time>2011-07-04T16:52:54Z</time>
      </trkpt>
      <trkpt lat="62.446474" lon="12.287913">
        <ele>808.2</ele>
        <time>2011-07-04T16:53:00Z</time>
      </trkpt>
      <trkpt lat="62.446495" lon="12.287902">
        <ele>808.204</ele>
        <time>2011-07-04T16:53:01Z</time>
      </trkpt>
      <trkpt lat="62.44661" lon="12.287631">
        <ele>808.722</ele>
        <time>2011-07-04T16:53:09Z</time>
      </trkpt>
      <trkpt lat="62.44668" lon="12.287436">
        <ele>808.378</ele>
        <time>2011-07-04T16:53:15Z</time>
      </trkpt>
      <trkpt lat="62.446703" lon="12.287217">
        <ele>808.208</ele>
        <time>2011-07-04T16:53:19Z</time>
      </trkpt>
      <trkpt lat="62.446798" lon="12.286923">
        <ele>807.938</ele>
        <time>2011-07-04T16:53:27Z</time>
      </trkpt>
      <trkpt lat="62.446868" lon="12.286785">
        <ele>808.061</ele>
        <time>2011-07-04T16:53:32Z</time>
      </trkpt>
      <trkpt lat="62.446948" lon="12.286615">
        <ele>808.136</ele>
        <time>2011-07-04T16:53:38Z</time>
      </trkpt>
      <trkpt lat="62.447082" lon="12.286315">
        <ele>808.239</ele>
        <time>2011-07-04T16:53:47Z</time>
      </trkpt>
      <trkpt lat="62.447116" lon="12.28625">
        <ele>808.288</ele>
        <time>2011-07-04T16:53:49Z</time>
      </trkpt>
      <trkpt lat="62.4472" lon="12.285999">
        <ele>809.806</ele>
        <time>2011-07-04T16:53:56Z</time>
      </trkpt>
      <trkpt lat="62.447247" lon="12.285718">
        <ele>809.743</ele>
        <time>2011-07-04T16:54:03Z</time>
      </trkpt>
      <trkpt lat="62.447293" lon="12.285543">
        <ele>809.344</ele>
        <time>2011-07-04T16:54:09Z</time>
      </trkpt>
      <trkpt lat="62.447333" lon="12.285426">
        <ele>808.063</ele>
        <time>2011-07-04T16:54:13Z</time>
      </trkpt>
      <trkpt lat="62.447359" lon="12.285096">
        <ele>807.769</ele>
        <time>2011-07-04T16:54:21Z</time>
      </trkpt>
      <trkpt lat="62.447387" lon="12.284929">
        <ele>807.697</ele>
        <time>2011-07-04T16:54:26Z</time>
      </trkpt>
      <trkpt lat="62.447401" lon="12.284798">
        <ele>807.861</ele>
        <time>2011-07-04T16:54:30Z</time>
      </trkpt>
      <trkpt lat="62.447451" lon="12.284667">
        <ele>808.675</ele>
        <time>2011-07-04T16:54:37Z</time>
      </trkpt>
      <trkpt lat="62.447492" lon="12.284583">
        <ele>808.264</ele>
        <time>2011-07-04T16:54:42Z</time>
      </trkpt>
      <trkpt lat="62.447527" lon="12.284539">
        <ele>808.051</ele>
        <time>2011-07-04T16:54:45Z</time>
      </trkpt>
      <trkpt lat="62.447596" lon="12.284392">
        <ele>808.56</ele>
        <time>2011-07-04T16:54:52Z</time>
      </trkpt>
      <trkpt lat="62.44764" lon="12.284094">
        <ele>809.201</ele>
        <time>2011-07-04T16:54:59Z</time>
      </trkpt>
      <trkpt lat="62.447707" lon="12.283948">
        <ele>808.879</ele>
        <time>2011-07-04T16:55:06Z</time>
      </trkpt>
      <trkpt lat="62.447781" lon="12.283822">
        <ele>808.267</ele>
        <time>2011-07-04T16:55:13Z</time>
      </trkpt>
      <trkpt lat="62.447798" lon="12.283803">
        <ele>808.464</ele>
        <time>2011-07-04T16:55:15Z</time>
      </trkpt>
      <trkpt lat="62.447877" lon="12.283759">
        <ele>808.906</ele>
        <time>2011-07-04T16:55:22Z</time>
      </trkpt>
      <trkpt lat="62.447941" lon="12.283717">
        <ele>809.631</ele>
        <time>2011-07-04T16:55:26Z</time>
      </trkpt>
      <trkpt lat="62.448062" lon="12.283665">
        <ele>811.029</ele>
        <time>2011-07-04T16:55:33Z</time>
      </trkpt>
      <trkpt lat="62.448156" lon="12.283634">
        <ele>812.196</ele>
        <time>2011-07-04T16:55:39Z</time>
      </trkpt>
      <trkpt lat="62.448221" lon="12.283531">
        <ele>813.488</ele>
        <time>2011-07-04T16:55:43Z</time>
      </trkpt>
      <trkpt lat="62.448298" lon="12.283532">
        <ele>814.355</ele>
        <time>2011-07-04T16:55:47Z</time>
      </trkpt>
      <trkpt lat="62.448413" lon="12.283356">
        <ele>815.079</ele>
        <time>2011-07-04T16:55:56Z</time>
      </trkpt>
      <trkpt lat="62.4485" lon="12.283172">
        <ele>814.025</ele>
        <time>2011-07-04T16:56:01Z</time>
      </trkpt>
      <trkpt lat="62.44854" lon="12.28307">
        <ele>814.134</ele>
        <time>2011-07-04T16:56:05Z</time>
      </trkpt>
      <trkpt lat="62.448654" lon="12.282853">
        <ele>814.421</ele>
        <time>2011-07-04T16:56:15Z</time>
      </trkpt>
      <trkpt lat="62.448711" lon="12.282643">
        <ele>813.74</ele>
        <time>2011-07-04T16:56:23Z</time>
      </trkpt>
      <trkpt lat="62.448733" lon="12.282589">
        <ele>813.269</ele>
        <time>2011-07-04T16:56:26Z</time>
      </trkpt>
      <trkpt lat="62.448759" lon="12.282438">
        <ele>812.979</ele>
        <time>2011-07-04T16:56:30Z</time>
      </trkpt>
      <trkpt lat="62.448812" lon="12.28219">
        <ele>812.348</ele>
        <time>2011-07-04T16:56:37Z</time>
      </trkpt>
      <trkpt lat="62.448917" lon="12.282054">
        <ele>812.802</ele>
        <time>2011-07-04T16:56:46Z</time>
      </trkpt>
      <trkpt lat="62.448927" lon="12.282039">
        <ele>812.861</ele>
        <time>2011-07-04T16:56:47Z</time>
      </trkpt>
      <trkpt lat="62.44898" lon="12.281855">
        <ele>813.048</ele>
        <time>2011-07-04T16:56:53Z</time>
      </trkpt>
      <trkpt lat="62.449016" lon="12.281796">
        <ele>812.962</ele>
        <time>2011-07-04T16:56:57Z</time>
      </trkpt>
      <trkpt lat="62.44907" lon="12.281599">
        <ele>812.946</ele>
        <time>2011-07-04T16:57:03Z</time>
      </trkpt>
      <trkpt lat="62.449113" lon="12.281509">
        <ele>813.083</ele>
        <time>2011-07-04T16:57:06Z</time>
      </trkpt>
      <trkpt lat="62.449184" lon="12.28138">
        <ele>813.062</ele>
        <time>2011-07-04T16:57:13Z</time>
      </trkpt>
      <trkpt lat="62.449272" lon="12.281283">
        <ele>813.32</ele>
        <time>2011-07-04T16:57:20Z</time>
      </trkpt>
      <trkpt lat="62.449352" lon="12.281127">
        <ele>812.884</ele>
        <time>2011-07-04T16:57:27Z</time>
      </trkpt>
      <trkpt lat="62.449417" lon="12.28098">
        <ele>812.773</ele>
        <time>2011-07-04T16:57:33Z</time>
      </trkpt>
      <trkpt lat="62.44948" lon="12.280903">
        <ele>812.758</ele>
        <time>2011-07-04T16:57:39Z</time>
      </trkpt>
      <trkpt lat="62.449562" lon="12.280844">
        <ele>812.906</ele>
        <time>2011-07-04T16:57:46Z</time>
      </trkpt>
      <trkpt lat="62.449636" lon="12.28081">
        <ele>812.702</ele>
        <time>2011-07-04T16:57:52Z</time>
      </trkpt>
      <trkpt lat="62.449647" lon="12.280802">
        <ele>812.644</ele>
        <time>2011-07-04T16:57:53Z</time>
      </trkpt>
      <trkpt lat="62.449678" lon="12.280803">
        <ele>812.889</ele>
        <time>2011-07-04T16:57:56Z</time>
      </trkpt>
      <trkpt lat="62.449699" lon="12.280783">
        <ele>813.093</ele>
        <time>2011-07-04T16:57:58Z</time>
      </trkpt>
      <trkpt lat="62.449827" lon="12.280729">
        <ele>812.499</ele>
        <time>2011-07-04T16:58:04Z</time>
      </trkpt>
      <trkpt lat="62.449977" lon="12.280594">
        <ele>813.965</ele>
        <time>2011-07-04T16:58:11Z</time>
      </trkpt>
      <trkpt lat="62.450085" lon="12.280505">
        <ele>813.802</ele>
        <time>2011-07-04T16:58:17Z</time>
      </trkpt>
      <trkpt lat="62.450173" lon="12.280432">
        <ele>813.439</ele>
        <time>2011-07-04T16:58:21Z</time>
      </trkpt>
      <trkpt lat="62.450248" lon="12.280337">
        <ele>813.913</ele>
        <time>2011-07-04T16:58:25Z</time>
      </trkpt>
      <trkpt lat="62.450359" lon="12.280215">
        <ele>813.117</ele>
        <time>2011-07-04T16:58:31Z</time>
      </trkpt>
      <trkpt lat="62.450407" lon="12.280128">
        <ele>812.246</ele>
        <time>2011-07-04T16:58:34Z</time>
      </trkpt>
      <trkpt lat="62.45051" lon="12.279917">
        <ele>812.497</ele>
        <time>2011-07-04T16:58:40Z</time>
      </trkpt>
      <trkpt lat="62.450561" lon="12.279756">
        <ele>812.622</ele>
        <time>2011-07-04T16:58:44Z</time>
      </trkpt>
      <trkpt lat="62.450654" lon="12.279661">
        <ele>812.591</ele>
        <time>2011-07-04T16:58:49Z</time>
      </trkpt>
      <trkpt lat="62.450693" lon="12.279626">
        <ele>812.551</ele>
        <time>2011-07-04T16:58:53Z</time>
      </trkpt>
      <trkpt lat="62.450762" lon="12.279503">
        <ele>812.068</ele>
        <time>2011-07-04T16:58:59Z</time>
      </trkpt>
      <trkpt lat="62.450837" lon="12.279386">
        <ele>811.406</ele>
        <time>2011-07-04T16:59:05Z</time>
      </trkpt>
      <trkpt lat="62.450851" lon="12.279372">
        <ele>811.333</ele>
        <time>2011-07-04T16:59:06Z</time>
      </trkpt>
      <trkpt lat="62.450954" lon="12.27924">
        <ele>810.802</ele>
        <time>2011-07-04T16:59:12Z</time>
      </trkpt>
      <trkpt lat="62.451085" lon="12.279126">
        <ele>810.901</ele>
        <time>2011-07-04T16:59:18Z</time>
      </trkpt>
      <trkpt lat="62.451129" lon="12.279084">
        <ele>810.484</ele>
        <time>2011-07-04T16:59:20Z</time>
      </trkpt>
      <trkpt lat="62.451233" lon="12.279036">
        <ele>809.633</ele>
        <time>2011-07-04T16:59:24Z</time>
      </trkpt>
      <trkpt lat="62.451301" lon="12.278986">
        <ele>809.799</ele>
        <time>2011-07-04T16:59:27Z</time>
      </trkpt>
      <trkpt lat="62.451451" lon="12.27897">
        <ele>810.301</ele>
        <time>2011-07-04T16:59:35Z</time>
      </trkpt>
      <trkpt lat="62.451508" lon="12.278941">
        <ele>810.595</ele>
        <time>2011-07-04T16:59:39Z</time>
      </trkpt>
      <trkpt lat="62.451599" lon="12.278937">
        <ele>810.49</ele>
        <time>2011-07-04T16:59:47Z</time>
      </trkpt>
      <trkpt lat="62.451659" lon="12.278943">
        <ele>810.55</ele>
        <time>2011-07-04T16:59:52Z</time>
      </trkpt>
      <trkpt lat="62.451779" lon="12.27898">
        <ele>810.334</ele>
        <time>2011-07-04T17:00:01Z</time>
      </trkpt>
      <trkpt lat="62.451809" lon="12.279033">
        <ele>810.435</ele>
        <time>2011-07-04T17:00:04Z</time>
      </trkpt>
      <trkpt lat="62.451939" lon="12.279064">
        <ele>811.614</ele>
        <time>2011-07-04T17:00:12Z</time>
      </trkpt>
      <trkpt lat="62.452033" lon="12.279071">
        <ele>812.262</ele>
        <time>2011-07-04T17:00:18Z</time>
      </trkpt>
      <trkpt lat="62.452053" lon="12.279052">
        <ele>812.547</ele>
        <time>2011-07-04T17:00:20Z</time>
      </trkpt>
      <trkpt lat="62.452125" lon="12.279093">
        <ele>813.251</ele>
        <time>2011-07-04T17:00:25Z</time>
      </trkpt>
      <trkpt lat="62.452235" lon="12.279226">
        <ele>813.502</ele>
        <time>2011-07-04T17:00:33Z</time>
      </trkpt>
      <trkpt lat="62.452254" lon="12.279231">
        <ele>813.567</ele>
        <time>2011-07-04T17:00:34Z</time>
      </trkpt>
      <trkpt lat="62.452355" lon="12.279363">
        <ele>814.707</ele>
        <time>2011-07-04T17:00:42Z</time>
      </trkpt>
      <trkpt lat="62.452455" lon="12.279439">
        <ele>814.871</ele>
        <time>2011-07-04T17:00:49Z</time>
      </trkpt>
      <trkpt lat="62.452548" lon="12.279569">
        <ele>815.29</ele>
        <time>2011-07-04T17:00:56Z</time>
      </trkpt>
      <trkpt lat="62.452637" lon="12.27974">
        <ele>815.908</ele>
        <time>2011-07-04T17:01:02Z</time>
      </trkpt>
      <trkpt lat="62.452735" lon="12.279887">
        <ele>816.286</ele>
        <time>2011-07-04T17:01:08Z</time>
      </trkpt>
      <trkpt lat="62.452851" lon="12.280009">
        <ele>816.413</ele>
        <time>2011-07-04T17:01:14Z</time>
      </trkpt>
      <trkpt lat="62.452952" lon="12.280155">
        <ele>816.76</ele>
        <time>2011-07-04T17:01:20Z</time>
      </trkpt>
      <trkpt lat="62.453042" lon="12.280308">
        <ele>816.812</ele>
        <time>2011-07-04T17:01:26Z</time>
      </trkpt>
      <trkpt lat="62.453124" lon="12.280461">
        <ele>816.728</ele>
        <time>2011-07-04T17:01:32Z</time>
      </trkpt>
      <trkpt lat="62.453187" lon="12.280561">
        <ele>816.42</ele>
        <time>2011-07-04T17:01:37Z</time>
      </trkpt>
      <trkpt lat="62.4532" lon="12.280581">
        <ele>816.338</ele>
        <time>2011-07-04T17:01:39Z</time>
      </trkpt>
      <trkpt lat="62.453333" lon="12.280667">
        <ele>815.636</ele>
        <time>2011-07-04T17:01:46Z</time>
      </trkpt>
      <trkpt lat="62.453422" lon="12.280776">
        <ele>815.061</ele>
        <time>2011-07-04T17:01:52Z</time>
      </trkpt>
      <trkpt lat="62.453555" lon="12.280972">
        <ele>814.644</ele>
        <time>2011-07-04T17:02:00Z</time>
      </trkpt>
      <trkpt lat="62.453643" lon="12.281008">
        <ele>814.699</ele>
        <time>2011-07-04T17:02:06Z</time>
      </trkpt>
      <trkpt lat="62.453781" lon="12.281063">
        <ele>814.494</ele>
        <time>2011-07-04T17:02:10Z</time>
      </trkpt>
      <trkpt lat="62.453961" lon="12.281113">
        <ele>814.002</ele>
        <time>2011-07-04T17:02:16Z</time>
      </trkpt>
      <trkpt lat="62.454137" lon="12.281188">
        <ele>814.705</ele>
        <time>2011-07-04T17:02:23Z</time>
      </trkpt>
      <trkpt lat="62.454296" lon="12.281232">
        <ele>815.324</ele>
        <time>2011-07-04T17:02:29Z</time>
      </trkpt>
      <trkpt lat="62.454437" lon="12.28132">
        <ele>815.516</ele>
        <time>2011-07-04T17:02:35Z</time>
      </trkpt>
      <trkpt lat="62.454526" lon="12.281339">
        <ele>816.216</ele>
        <time>2011-07-04T17:02:40Z</time>
      </trkpt>
      <trkpt lat="62.454627" lon="12.281325">
        <ele>817.462</ele>
        <time>2011-07-04T17:02:47Z</time>
      </trkpt>
      <trkpt lat="62.454715" lon="12.281323">
        <ele>819.095</ele>
        <time>2011-07-04T17:02:55Z</time>
      </trkpt>
      <trkpt lat="62.454726" lon="12.281316">
        <ele>819.183</ele>
        <time>2011-07-04T17:02:56Z</time>
      </trkpt>
      <trkpt lat="62.454773" lon="12.281277">
        <ele>819.392</ele>
        <time>2011-07-04T17:03:00Z</time>
      </trkpt>
      <trkpt lat="62.454793" lon="12.281272">
        <ele>819.345</ele>
        <time>2011-07-04T17:03:02Z</time>
      </trkpt>
      <trkpt lat="62.454913" lon="12.281312">
        <ele>819.703</ele>
        <time>2011-07-04T17:03:11Z</time>
      </trkpt>
      <trkpt lat="62.454943" lon="12.28131">
        <ele>819.882</ele>
        <time>2011-07-04T17:03:14Z</time>
      </trkpt>
      <trkpt lat="62.455032" lon="12.281323">
        <ele>820.411</ele>
        <time>2011-07-04T17:03:22Z</time>
      </trkpt>
      <trkpt lat="62.45514" lon="12.281336">
        <ele>820.207</ele>
        <time>2011-07-04T17:03:31Z</time>
      </trkpt>
      <trkpt lat="62.455225" lon="12.281341">
        <ele>820.005</ele>
        <time>2011-07-04T17:03:38Z</time>
      </trkpt>
      <trkpt lat="62.455335" lon="12.281357">
        <ele>819.409</ele>
        <time>2011-07-04T17:03:43Z</time>
      </trkpt>
      <trkpt lat="62.455442" lon="12.281372">
        <ele>819.849</ele>
        <time>2011-07-04T17:03:48Z</time>
      </trkpt>
      <trkpt lat="62.455589" lon="12.281406">
        <ele>819.937</ele>
        <time>2011-07-04T17:03:55Z</time>
      </trkpt>
      <trkpt lat="62.45567" lon="12.281375">
        <ele>819.567</ele>
        <time>2011-07-04T17:04:00Z</time>
      </trkpt>
      <trkpt lat="62.455772" lon="12.281423">
        <ele>817.47</ele>
        <time>2011-07-04T17:04:06Z</time>
      </trkpt>
      <trkpt lat="62.455819" lon="12.281484">
        <ele>816.775</ele>
        <time>2011-07-04T17:04:10Z</time>
      </trkpt>
      <trkpt lat="62.455856" lon="12.281526">
        <ele>816.289</ele>
        <time>2011-07-04T17:04:14Z</time>
      </trkpt>
      <trkpt lat="62.45591" lon="12.281549">
        <ele>815.84</ele>
        <time>2011-07-04T17:04:18Z</time>
      </trkpt>
      <trkpt lat="62.455999" lon="12.281574">
        <ele>814.568</ele>
        <time>2011-07-04T17:04:25Z</time>
      </trkpt>
      <trkpt lat="62.45609" lon="12.281666">
        <ele>814.421</ele>
        <time>2011-07-04T17:04:32Z</time>
      </trkpt>
      <trkpt lat="62.456106" lon="12.281709">
        <ele>814.448</ele>
        <time>2011-07-04T17:04:34Z</time>
      </trkpt>
      <trkpt lat="62.456123" lon="12.281725">
        <ele>814.438</ele>
        <time>2011-07-04T17:04:36Z</time>
      </trkpt>
      <trkpt lat="62.456173" lon="12.281838">
        <ele>815.712</ele>
        <time>2011-07-04T17:04:44Z</time>
      </trkpt>
      <trkpt lat="62.45619" lon="12.281885">
        <ele>816.293</ele>
        <time>2011-07-04T17:04:47Z</time>
      </trkpt>
      <trkpt lat="62.456257" lon="12.282046">
        <ele>818.162</ele>
        <time>2011-07-04T17:04:56Z</time>
      </trkpt>
      <trkpt lat="62.456336" lon="12.282177">
        <ele>819.337</ele>
        <time>2011-07-04T17:05:05Z</time>
      </trkpt>
      <trkpt lat="62.456348" lon="12.282192">
        <ele>819.462</ele>
        <time>2011-07-04T17:05:06Z</time>
      </trkpt>
      <trkpt lat="62.456401" lon="12.282274">
        <ele>819.73</ele>
        <time>2011-07-04T17:05:11Z</time>
      </trkpt>
      <trkpt lat="62.456473" lon="12.28236">
        <ele>820.308</ele>
        <time>2011-07-04T17:05:18Z</time>
      </trkpt>
      <trkpt lat="62.45649" lon="12.282401">
        <ele>820.279</ele>
        <time>2011-07-04T17:05:21Z</time>
      </trkpt>
      <trkpt lat="62.456551" lon="12.282523">
        <ele>819.889</ele>
        <time>2011-07-04T17:05:29Z</time>
      </trkpt>
      <trkpt lat="62.456609" lon="12.282622">
        <ele>820.284</ele>
        <time>2011-07-04T17:05:36Z</time>
      </trkpt>
      <trkpt lat="62.456675" lon="12.28276">
        <ele>820.252</ele>
        <time>2011-07-04T17:05:43Z</time>
      </trkpt>
      <trkpt lat="62.456712" lon="12.282867">
        <ele>819.729</ele>
        <time>2011-07-04T17:05:47Z</time>
      </trkpt>
      <trkpt lat="62.456783" lon="12.282898">
        <ele>819.299</ele>
        <time>2011-07-04T17:05:53Z</time>
      </trkpt>
      <trkpt lat="62.45685" lon="12.28288">
        <ele>818.627</ele>
        <time>2011-07-04T17:05:58Z</time>
      </trkpt>
      <trkpt lat="62.456931" lon="12.282833">
        <ele>818.095</ele>
        <time>2011-07-04T17:06:03Z</time>
      </trkpt>
      <trkpt lat="62.456995" lon="12.282837">
        <ele>819.557</ele>
        <time>2011-07-04T17:06:08Z</time>
      </trkpt>
      <trkpt lat="62.457009" lon="12.282834">
        <ele>819.993</ele>
        <time>2011-07-04T17:06:09Z</time>
      </trkpt>
      <trkpt lat="62.457103" lon="12.282886">
        <ele>821.316</ele>
        <time>2011-07-04T17:06:18Z</time>
      </trkpt>
      <trkpt lat="62.457174" lon="12.282865">
        <ele>821.03</ele>
        <time>2011-07-04T17:06:23Z</time>
      </trkpt>
      <trkpt lat="62.457246" lon="12.282915">
        <ele>821.498</ele>
        <time>2011-07-04T17:06:29Z</time>
      </trkpt>
      <trkpt lat="62.457306" lon="12.28286">
        <ele>822.03</ele>
        <time>2011-07-04T17:06:34Z</time>
      </trkpt>
      <trkpt lat="62.457344" lon="12.282883">
        <ele>822.578</ele>
        <time>2011-07-04T17:06:39Z</time>
      </trkpt>
      <trkpt lat="62.457364" lon="12.282913">
        <ele>822.555</ele>
        <time>2011-07-04T17:06:41Z</time>
      </trkpt>
      <trkpt lat="62.457384" lon="12.282968">
        <ele>822.201</ele>
        <time>2011-07-04T17:06:44Z</time>
      </trkpt>
      <trkpt lat="62.457397" lon="12.28305">
        <ele>822.562</ele>
        <time>2011-07-04T17:06:48Z</time>
      </trkpt>
      <trkpt lat="62.457403" lon="12.28309">
        <ele>822.721</ele>
        <time>2011-07-04T17:06:50Z</time>
      </trkpt>
      <trkpt lat="62.457429" lon="12.283138">
        <ele>823.357</ele>
        <time>2011-07-04T17:06:54Z</time>
      </trkpt>
      <trkpt lat="62.457515" lon="12.283178">
        <ele>822.337</ele>
        <time>2011-07-04T17:07:01Z</time>
      </trkpt>
      <trkpt lat="62.45753" lon="12.283181">
        <ele>821.989</ele>
        <time>2011-07-04T17:07:02Z</time>
      </trkpt>
      <trkpt lat="62.457585" lon="12.283267">
        <ele>820.084</ele>
        <time>2011-07-04T17:07:09Z</time>
      </trkpt>
      <trkpt lat="62.457591" lon="12.283279">
        <ele>819.88</ele>
        <time>2011-07-04T17:07:10Z</time>
      </trkpt>
      <trkpt lat="62.45766" lon="12.28335">
        <ele>819.143</ele>
        <time>2011-07-04T17:07:17Z</time>
      </trkpt>
      <trkpt lat="62.457697" lon="12.283415">
        <ele>818.506</ele>
        <time>2011-07-04T17:07:23Z</time>
      </trkpt>
      <trkpt lat="62.457714" lon="12.283449">
        <ele>818.326</ele>
        <time>2011-07-04T17:07:28Z</time>
      </trkpt>
      <trkpt lat="62.457711" lon="12.283447">
        <ele>818.275</ele>
        <time>2011-07-04T17:07:29Z</time>
      </trkpt>
      <trkpt lat="62.457733" lon="12.283393">
        <ele>818.379</ele>
        <time>2011-07-04T17:07:35Z</time>
      </trkpt>
      <trkpt lat="62.457749" lon="12.28337">
        <ele>818.372</ele>
        <time>2011-07-04T17:07:41Z</time>
      </trkpt>
      <trkpt lat="62.457738" lon="12.28346">
        <ele>818.444</ele>
        <time>2011-07-04T17:07:47Z</time>
      </trkpt>
      <trkpt lat="62.457739" lon="12.283465">
        <ele>818.451</ele>
        <time>2011-07-04T17:07:48Z</time>
      </trkpt>
      <trkpt lat="62.457732" lon="12.28345">
        <ele>818.398</ele>
        <time>2011-07-04T17:07:58Z</time>
      </trkpt>
      <trkpt lat="62.45771" lon="12.283444">
        <ele>818.289</ele>
        <time>2011-07-04T17:08:01Z</time>
      </trkpt>
      <trkpt lat="62.457749" lon="12.283486">
        <ele>818.34</ele>
        <time>2011-07-04T17:08:07Z</time>
      </trkpt>
      <trkpt lat="62.45775" lon="12.283489">
        <ele>818.245</ele>
        <time>2011-07-04T17:08:08Z</time>
      </trkpt>
      <trkpt lat="62.457779" lon="12.283333">
        <ele>818.389</ele>
        <time>2011-07-04T17:08:24Z</time>
      </trkpt>
      <trkpt lat="62.45778" lon="12.283319">
        <ele>818.417</ele>
        <time>2011-07-04T17:08:25Z</time>
      </trkpt>
      <trkpt lat="62.457779" lon="12.283268">
        <ele>818.378</ele>
        <time>2011-07-04T17:08:27Z</time>
      </trkpt>
      <trkpt lat="62.457782" lon="12.283238">
        <ele>818.496</ele>
        <time>2011-07-04T17:08:28Z</time>
      </trkpt>
    </trkseg>
  </trk>
</gpx>